
Distance (Route):
Temperature : 0°C
Humidity : 0%
Pressure : 0hPa| Receiver | Frames | First received | Last received |
|---|---|---|---|
| OM5KV | 644 | 2026-08-31 11:47:29 | 2026-08-31 14:10:02 |
| PETON7-10 | 453 | 2026-08-31 11:33:22 | 2026-08-31 14:07:04 |
| ATIDSZ-14 | 294 | 2026-08-31 11:49:24 | 2026-08-31 14:07:05 |
| OE3OSB-13 | 256 | 2026-08-31 11:33:39 | 2026-08-31 14:07:57 |
| OE5MMP-10 | 145 | 2026-08-31 12:24:26 | 2026-08-31 13:24:14 |
| OE3JTB-15 | 116 | 2026-08-31 11:30:42 | 2026-08-31 14:08:21 |
| OK1ALN | 58 | 2026-08-31 13:08:04 | 2026-08-31 13:36:37 |
| PG1ADW-2 | 31 | 2026-08-31 11:46:01 | 2026-08-31 13:53:10 |
| EDDB2-12 | 29 | 2026-08-31 13:11:20 | 2026-08-31 13:29:58 |
| HA6NAB-11 | 24 | 2026-08-31 12:05:29 | 2026-08-31 13:48:16 |
| S52SK | 11 | 2026-08-31 11:43:14 | 2026-08-31 11:48:15 |
| OK1SLM-15 | 5 | 2026-08-31 13:26:40 | 2026-08-31 13:28:22 |
| POL1PZ | 4 | 2026-08-31 13:16:27 | 2026-08-31 13:21:23 |
| Receiver | Date | Latitude | Longitude | Direction | Speed | Altitude | Climb | Temperature | Humidity | Pressure | Voltage | Killtimer | Uptime | BKT | XDATA |
|---|---|---|---|---|---|---|---|---|---|---|---|---|---|---|---|
| OM5KV | 2026-08-31 14:10:02 | 48.60056 | 17.89708 | 102° | 22km/h | 714m | -4.8m/s | 0°C | 0% | 0hPa | 0V | 00:00:00 | 00:00:00 | 00:00:00 | |
| OM5KV | 2026-08-31 14:10:01 | 48.60057 | 17.89699 | 109° | 26km/h | 721m | -6.7m/s | 0°C | 0% | 0hPa | 0V | 00:00:00 | 00:00:00 | 00:00:00 | |
| OM5KV | 2026-08-31 14:09:55 | 48.60069 | 17.89645 | 108° | 27km/h | 767m | -7.4m/s | 0°C | 0% | 0hPa | 0V | 00:00:00 | 00:00:00 | 00:00:00 | |
| OM5KV | 2026-08-31 14:09:53 | 48.60073 | 17.89627 | 112° | 26km/h | 782m | -5.6m/s | 0°C | 0% | 0hPa | 0V | 00:00:00 | 00:00:00 | 00:00:00 | |
| OM5KV | 2026-08-31 14:09:45 | 48.60087 | 17.89550 | 97° | 26km/h | 848m | -9.9m/s | 0°C | 0% | 0hPa | 0V | 00:00:00 | 00:00:00 | 00:00:00 | |
| OM5KV | 2026-08-31 14:09:35 | 48.60100 | 17.89452 | 100° | 24km/h | 935m | -7.8m/s | 0°C | 0% | 0hPa | 0V | 00:00:00 | 00:00:00 | 00:00:00 | |
| OM5KV | 2026-08-31 14:09:34 | 48.60101 | 17.89443 | 96° | 24km/h | 945m | -8.3m/s | 0°C | 0% | 0hPa | 0V | 00:00:00 | 00:00:00 | 00:00:00 | |
| OM5KV | 2026-08-31 14:09:29 | 48.60107 | 17.89394 | 99° | 29km/h | 984m | -7.9m/s | 0°C | 0% | 0hPa | 0V | 00:00:00 | 00:00:00 | 00:00:00 | |
| OM5KV | 2026-08-31 14:09:28 | 48.60108 | 17.89384 | 98° | 26km/h | 994m | -8.0m/s | 0°C | 0% | 0hPa | 0V | 00:00:00 | 00:00:00 | 00:00:00 | |
| OM5KV | 2026-08-31 14:09:23 | 48.60112 | 17.89333 | 96° | 26km/h | 1034m | -4.9m/s | 0°C | 0% | 0hPa | 0V | 00:00:00 | 00:00:00 | 00:00:00 | |
| OM5KV | 2026-08-31 14:09:22 | 48.60113 | 17.89323 | 108° | 27km/h | 1040m | -7.4m/s | 0°C | 0% | 0hPa | 0V | 00:00:00 | 00:00:00 | 00:00:00 | |
| OM5KV | 2026-08-31 14:09:17 | 48.60118 | 17.89274 | 101° | 24km/h | 1079m | -6.8m/s | 0°C | 0% | 0hPa | 0V | 00:00:00 | 00:00:00 | 00:00:00 | |
| OM5KV | 2026-08-31 14:09:11 | 48.60125 | 17.89213 | 101° | 27km/h | 1129m | -7.8m/s | 0°C | 0% | 0hPa | 0V | 00:00:00 | 00:00:00 | 00:00:00 | |
| OM5KV | 2026-08-31 14:09:00 | 48.60142 | 17.89096 | 98° | 27km/h | 1217m | -7.9m/s | 0°C | 0% | 0hPa | 0V | 00:00:00 | 00:00:00 | 00:00:00 | |
| OM5KV | 2026-08-31 14:08:54 | 48.60150 | 17.89032 | 97° | 29km/h | 1264m | -5.0m/s | 0°C | 0% | 0hPa | 0V | 00:00:00 | 00:00:00 | 00:00:00 | |
| OM5KV | 2026-08-31 14:08:48 | 48.60158 | 17.88967 | 94° | 27km/h | 1316m | -8.3m/s | 0°C | 0% | 0hPa | 0V | 00:00:00 | 00:00:00 | 00:00:00 | |
| OM5KV | 2026-08-31 14:08:47 | 48.60158 | 17.88956 | 95° | 27km/h | 1325m | -7.2m/s | 0°C | 0% | 0hPa | 0V | 00:00:00 | 00:00:00 | 00:00:00 | |
| OM5KV | 2026-08-31 14:08:42 | 48.60164 | 17.88907 | 106° | 26km/h | 1365m | -6.1m/s | 0°C | 0% | 0hPa | 0V | 00:00:00 | 00:00:00 | 00:00:00 | |
| OM5KV | 2026-08-31 14:08:41 | 48.60166 | 17.88898 | 103° | 24km/h | 1373m | -7.8m/s | 0°C | 0% | 0hPa | 0V | 00:00:00 | 00:00:00 | 00:00:00 | |
| OM5KV | 2026-08-31 14:08:36 | 48.60169 | 17.88854 | 100° | 26km/h | 1413m | -8.3m/s | 0°C | 0% | 0hPa | 0V | 00:00:00 | 00:00:00 | 00:00:00 | |
| OM5KV | 2026-08-31 14:08:30 | 48.60176 | 17.88805 | 98° | 22km/h | 1461m | -5.8m/s | 0°C | 0% | 0hPa | 0V | 00:00:00 | 00:00:00 | 00:00:00 | |
| OM5KV | 2026-08-31 14:08:24 | 48.60180 | 17.88761 | 90° | 18km/h | 1510m | -6.3m/s | 0°C | 0% | 0hPa | 0V | 00:00:00 | 00:00:00 | 00:00:00 | |
| OM5KV | 2026-08-31 14:08:22 | 48.60180 | 17.88748 | 83° | 16km/h | 1525m | -7.0m/s | 0°C | 0% | 0hPa | 0V | 00:00:00 | 00:00:00 | 00:00:00 | |
| OE3JTB-15 | 2026-08-31 14:08:21 | 48.60180 | 17.88742 | 83° | 16km/h | 1533m | -6.7m/s | 0°C | 0% | 0hPa | 0V | 00:00:00 | 00:00:00 | 00:00:00 | |
| OM5KV | 2026-08-31 14:08:19 | 48.60179 | 17.88729 | 91° | 16km/h | 1548m | -6.2m/s | 0°C | 0% | 0hPa | 0V | 00:00:00 | 00:00:00 | 00:00:00 | |
| OE3JTB-15 | 2026-08-31 14:08:18 | 48.60179 | 17.88723 | 89° | 18km/h | 1555m | -6.6m/s | 0°C | 0% | 0hPa | 0V | 00:00:00 | 00:00:00 | 00:00:00 | |
| OM5KV | 2026-08-31 14:08:17 | 48.60179 | 17.88716 | 94° | 18km/h | 1563m | -6.6m/s | 0°C | 0% | 0hPa | 0V | 00:00:00 | 00:00:00 | 00:00:00 | |
| OE3JTB-15 | 2026-08-31 14:08:15 | 48.60180 | 17.88703 | 94° | 15km/h | 1577m | -5.3m/s | 0°C | 0% | 0hPa | 0V | 00:00:00 | 00:00:00 | 00:00:00 | |
| OM5KV | 2026-08-31 14:08:13 | 48.60180 | 17.88692 | 77° | 15km/h | 1592m | -7.5m/s | 0°C | 0% | 0hPa | 0V | 00:00:00 | 00:00:00 | 00:00:00 | |
| OE3JTB-15 | 2026-08-31 14:08:13 | 48.60179 | 17.88692 | 77° | 15km/h | 1592m | -7.4m/s | 0°C | 0% | 0hPa | 0V | 00:00:00 | 00:00:00 | 00:00:00 | |
| OM5KV | 2026-08-31 14:08:11 | 48.60178 | 17.88680 | 97° | 15km/h | 1608m | -7.2m/s | 0°C | 0% | 0hPa | 0V | 00:00:00 | 00:00:00 | 00:00:00 | |
| OE3JTB-15 | 2026-08-31 14:08:11 | 48.60178 | 17.88680 | 96° | 16km/h | 1608m | -7.1m/s | 0°C | 0% | 0hPa | 0V | 00:00:00 | 00:00:00 | 00:00:00 | |
| OM5KV | 2026-08-31 14:08:07 | 48.60174 | 17.88656 | 66° | 18km/h | 1639m | -7.5m/s | 0°C | 0% | 0hPa | 0V | 00:00:00 | 00:00:00 | 00:00:00 | |
| OE3JTB-15 | 2026-08-31 14:08:06 | 48.60172 | 17.88650 | 80° | 18km/h | 1648m | -8.7m/s | 0°C | 0% | 0hPa | 0V | 00:00:00 | 00:00:00 | 00:00:00 | |
| OE3JTB-15 | 2026-08-31 14:08:02 | 48.60165 | 17.88626 | 70° | 16km/h | 1682m | -8.2m/s | 0°C | 0% | 0hPa | 0V | 00:00:00 | 00:00:00 | 00:00:00 | |
| OM5KV | 2026-08-31 14:08:02 | 48.60165 | 17.88626 | 70° | 16km/h | 1682m | -8.3m/s | 0°C | 0% | 0hPa | 0V | 00:00:00 | 00:00:00 | 00:00:00 | |
| OE3JTB-15 | 2026-08-31 14:08:00 | 48.60162 | 17.88615 | 69° | 15km/h | 1699m | -7.4m/s | 0°C | 0% | 0hPa | 0V | 00:00:00 | 00:00:00 | 00:00:00 | |
| OE3OSB-13 | 2026-08-31 14:07:57 | 48.60155 | 17.88593 | 64° | 15km/h | 1730m | -6.8m/s | 14.3°C | 70.2% | 835.5hPa | 0V | 00:00:00 | 00:00:00 | 00:00:00 | |
| OM5KV | 2026-08-31 14:07:56 | 48.60155 | 17.88593 | 66° | 16km/h | 1731m | -6.8m/s | 0°C | 0% | 0hPa | 0V | 00:00:00 | 00:00:00 | 00:00:00 | |
| OE3JTB-15 | 2026-08-31 14:07:54 | 48.60152 | 17.88582 | 59° | 18km/h | 1747m | -7.4m/s | 0°C | 0% | 0hPa | 0V | 00:00:00 | 00:00:00 | 00:00:00 | |
| OM5KV | 2026-08-31 14:07:52 | 48.60149 | 17.88570 | 68° | 16km/h | 1764m | -7.2m/s | 0°C | 0% | 0hPa | 0V | 00:00:00 | 00:00:00 | 00:00:00 | |
| OE3JTB-15 | 2026-08-31 14:07:52 | 48.60149 | 17.88570 | 67° | 16km/h | 1764m | -7.2m/s | 0°C | 0% | 0hPa | 0V | 00:00:00 | 00:00:00 | 00:00:00 | |
| OM5KV | 2026-08-31 14:07:51 | 48.60147 | 17.88564 | 63° | 16km/h | 1773m | -8.1m/s | 0°C | 0% | 0hPa | 0V | 00:00:00 | 00:00:00 | 00:00:00 | |
| OE3JTB-15 | 2026-08-31 14:07:50 | 48.60145 | 17.88559 | 72° | 15km/h | 1782m | -8.2m/s | 0°C | 0% | 0hPa | 0V | 00:00:00 | 00:00:00 | 00:00:00 | |
| OM5KV | 2026-08-31 14:07:46 | 48.60139 | 17.88540 | 65° | 15km/h | 1814m | -5.6m/s | 0°C | 0% | 0hPa | 0V | 00:00:00 | 00:00:00 | 00:00:00 | |
| OM5KV | 2026-08-31 14:07:45 | 48.60137 | 17.88535 | 65° | 16km/h | 1821m | -5.5m/s | 0°C | 0% | 0hPa | 0V | 00:00:00 | 00:00:00 | 00:00:00 | |
| OE3JTB-15 | 2026-08-31 14:07:43 | 48.60133 | 17.88526 | 53° | 15km/h | 1839m | -7.1m/s | 0°C | 0% | 0hPa | 0V | 00:00:00 | 00:00:00 | 00:00:00 | |
| OM5KV | 2026-08-31 14:07:40 | 48.60127 | 17.88512 | 58° | 16km/h | 1866m | -8.2m/s | 0°C | 0% | 0hPa | 0V | 00:00:00 | 00:00:00 | 00:00:00 | |
| OM5KV | 2026-08-31 14:07:35 | 48.60117 | 17.88486 | 79° | 15km/h | 1909m | -6.2m/s | 0°C | 0% | 0hPa | 0V | 00:00:00 | 00:00:00 | 00:00:00 | |
| OM5KV | 2026-08-31 14:07:34 | 48.60115 | 17.88481 | 61° | 15km/h | 1917m | -6.6m/s | 0°C | 0% | 0hPa | 0V | 00:00:00 | 00:00:00 | 00:00:00 | |
| OE3JTB-15 | 2026-08-31 14:07:34 | 48.60116 | 17.88481 | 60° | 16km/h | 1917m | -6.5m/s | 0°C | 0% | 0hPa | 0V | 00:00:00 | 00:00:00 | 00:00:00 | |
| OM5KV | 2026-08-31 14:07:29 | 48.60103 | 17.88457 | 53° | 16km/h | 1960m | -6.9m/s | 0°C | 0% | 0hPa | 0V | 00:00:00 | 00:00:00 | 00:00:00 | |
| OM5KV | 2026-08-31 14:07:28 | 48.60101 | 17.88452 | 50° | 16km/h | 1969m | -7.0m/s | 0°C | 0% | 0hPa | 0V | 00:00:00 | 00:00:00 | 00:00:00 | |
| OE3OSB-13 | 2026-08-31 14:07:26 | 48.60096 | 17.88443 | 43° | 18km/h | 1986m | -8.4m/s | 13.0°C | 72.3% | 810.4hPa | 0V | 00:00:00 | 00:00:00 | 00:00:00 | |
| OE3JTB-15 | 2026-08-31 14:07:25 | 48.60093 | 17.88438 | 49° | 18km/h | 1997m | -9.7m/s | 0°C | 0% | 0hPa | 0V | 00:00:00 | 00:00:00 | 00:00:00 | |
| OM5KV | 2026-08-31 14:07:24 | 48.60090 | 17.88434 | 49° | 15km/h | 2008m | -9.3m/s | 0°C | 0% | 0hPa | 0V | 00:00:00 | 00:00:00 | 00:00:00 | |
| OM5KV | 2026-08-31 14:07:23 | 48.60088 | 17.88431 | 51° | 13km/h | 2017m | -5.5m/s | 0°C | 0% | 0hPa | 0V | 00:00:00 | 00:00:00 | 00:00:00 | |
| OM5KV | 2026-08-31 14:07:18 | 48.60077 | 17.88406 | 49° | 18km/h | 2061m | -7.6m/s | 0°C | 0% | 0hPa | 0V | 00:00:00 | 00:00:00 | 00:00:00 | |
| OM5KV | 2026-08-31 14:07:17 | 48.60075 | 17.88402 | 51° | 15km/h | 2070m | -7.5m/s | 0°C | 0% | 0hPa | 0V | 00:00:00 | 00:00:00 | 00:00:00 | |
| OE3JTB-15 | 2026-08-31 14:07:14 | 48.60065 | 17.88386 | 45° | 18km/h | 2099m | -9.6m/s | 0°C | 0% | 0hPa | 0V | 00:00:00 | 00:00:00 | 00:00:00 | |
| OM5KV | 2026-08-31 14:07:13 | 48.60062 | 17.88381 | 56° | 16km/h | 2109m | -7.5m/s | 0°C | 0% | 0hPa | 0V | 00:00:00 | 00:00:00 | 00:00:00 | |
| OM5KV | 2026-08-31 14:07:12 | 48.60060 | 17.88377 | 53° | 11km/h | 2117m | -6.6m/s | 0°C | 0% | 0hPa | 0V | 00:00:00 | 00:00:00 | 00:00:00 | |
| OM5KV | 2026-08-31 14:07:07 | 48.60046 | 17.88351 | 54° | 18km/h | 2162m | -8.8m/s | 0°C | 0% | 0hPa | 0V | 00:00:00 | 00:00:00 | 00:00:00 | |
| OM5KV | 2026-08-31 14:07:06 | 48.60043 | 17.88345 | 45° | 20km/h | 2173m | -8.2m/s | 0°C | 0% | 0hPa | 0V | 00:00:00 | 00:00:00 | 00:00:00 | |
| ATIDSZ-14 | 2026-08-31 14:07:05 | 48.60040 | 17.88340 | 49° | 20km/h | 2182m | -5.9m/s | 0°C | 0% | 0hPa | 0V | 00:00:00 | 00:00:00 | 00:00:00 | |
| PETON7-10 | 2026-08-31 14:07:04 | 48.60036 | 17.88335 | 47° | 22km/h | 2190m | -7.8m/s | 0°C | 0% | 0hPa | 0V | 00:00:00 | 00:00:00 | 00:00:00 | |
| OE3JTB-15 | 2026-08-31 14:07:03 | 48.60032 | 17.88329 | 47° | 26km/h | 2199m | -7.4m/s | 0°C | 0% | 0hPa | 0V | 00:00:00 | 00:00:00 | 00:00:00 | |
| OM5KV | 2026-08-31 14:07:01 | 48.60025 | 17.88316 | 47° | 22km/h | 2217m | -7.2m/s | 0°C | 0% | 0hPa | 0V | 00:00:00 | 00:00:00 | 00:00:00 | |
| OM5KV | 2026-08-31 14:06:56 | 48.60006 | 17.88285 | 44° | 26km/h | 2260m | -7.5m/s | 0°C | 0% | 0hPa | 0V | 00:00:00 | 00:00:00 | 00:00:00 | |
| OM5KV | 2026-08-31 14:06:55 | 48.60002 | 17.88279 | 48° | 24km/h | 2270m | -8.1m/s | 0°C | 0% | 0hPa | 0V | 00:00:00 | 00:00:00 | 00:00:00 | |
| OM5KV | 2026-08-31 14:06:51 | 48.59982 | 17.88246 | 48° | 26km/h | 2306m | -8.2m/s | 0°C | 0% | 0hPa | 0V | 00:00:00 | 00:00:00 | 00:00:00 | |
| OM5KV | 2026-08-31 14:06:49 | 48.59973 | 17.88231 | 48° | 27km/h | 2324m | -7.6m/s | 0°C | 0% | 0hPa | 0V | 00:00:00 | 00:00:00 | 00:00:00 | |
| OM5KV | 2026-08-31 14:06:45 | 48.59956 | 17.88201 | 55° | 24km/h | 2363m | -8.7m/s | 0°C | 0% | 0hPa | 0V | 00:00:00 | 00:00:00 | 00:00:00 | |
| OM5KV | 2026-08-31 14:06:44 | 48.59953 | 17.88193 | 55° | 27km/h | 2373m | -8.7m/s | 0°C | 0% | 0hPa | 0V | 00:00:00 | 00:00:00 | 00:00:00 | |
| OE3JTB-15 | 2026-08-31 14:06:43 | 48.59949 | 17.88185 | 56° | 26km/h | 2382m | -6.3m/s | 0°C | 0% | 0hPa | 0V | 00:00:00 | 00:00:00 | 00:00:00 | |
| PETON7-10 | 2026-08-31 14:06:40 | 48.59938 | 17.88160 | 60° | 26km/h | 2408m | -8.5m/s | 0°C | 0% | 0hPa | 0V | 00:00:00 | 00:00:00 | 00:00:00 | |
| OM5KV | 2026-08-31 14:06:33 | 48.59915 | 17.88100 | 61° | 26km/h | 2474m | -8.0m/s | 0°C | 0% | 0hPa | 0V | 00:00:00 | 00:00:00 | 00:00:00 | |
| OM5KV | 2026-08-31 14:06:32 | 48.59912 | 17.88092 | 65° | 26km/h | 2483m | -8.6m/s | 0°C | 0% | 0hPa | 0V | 00:00:00 | 00:00:00 | 00:00:00 | |
| ATIDSZ-14 | 2026-08-31 14:06:28 | 48.59901 | 17.88058 | 69° | 22km/h | 2516m | -7.2m/s | 0°C | 0% | 0hPa | 0V | 00:00:00 | 00:00:00 | 00:00:00 | |
| OM5KV | 2026-08-31 14:06:27 | 48.59899 | 17.88049 | 70° | 24km/h | 2523m | -5.6m/s | 0°C | 0% | 0hPa | 0V | 00:00:00 | 00:00:00 | 00:00:00 | |
| OE3JTB-15 | 2026-08-31 14:06:24 | 48.59892 | 17.88024 | 74° | 27km/h | 2549m | -8.8m/s | 0°C | 0% | 0hPa | 0V | 00:00:00 | 00:00:00 | 00:00:00 | |
| OM5KV | 2026-08-31 14:06:21 | 48.59887 | 17.87997 | 72° | 26km/h | 2578m | -8.6m/s | 0°C | 0% | 0hPa | 0V | 00:00:00 | 00:00:00 | 00:00:00 | |
| OM5KV | 2026-08-31 14:06:15 | 48.59873 | 17.87942 | 73° | 26km/h | 2633m | -7.7m/s | 0°C | 0% | 0hPa | 0V | 00:00:00 | 00:00:00 | 00:00:00 | |
| OM5KV | 2026-08-31 14:06:10 | 48.59862 | 17.87891 | 75° | 27km/h | 2678m | -7.5m/s | 0°C | 0% | 0hPa | 0V | 00:00:00 | 00:00:00 | 00:00:00 | |
| OM5KV | 2026-08-31 14:06:09 | 48.59859 | 17.87881 | 70° | 29km/h | 2688m | -9.7m/s | 0°C | 0% | 0hPa | 0V | 00:00:00 | 00:00:00 | 00:00:00 | |
| PETON7-10 | 2026-08-31 14:06:08 | 48.59857 | 17.87871 | 69° | 29km/h | 2698m | -8.2m/s | 0°C | 0% | 0hPa | 0V | 00:00:00 | 00:00:00 | 00:00:00 | |
| ATIDSZ-14 | 2026-08-31 14:06:07 | 48.59855 | 17.87861 | 78° | 27km/h | 2707m | -7.1m/s | 0°C | 0% | 0hPa | 0V | 00:00:00 | 00:00:00 | 00:00:00 | |
| OE3JTB-15 | 2026-08-31 14:06:05 | 48.59852 | 17.87840 | 73° | 31km/h | 2724m | -5.9m/s | 0°C | 0% | 0hPa | 0V | 00:00:00 | 00:00:00 | 00:00:00 | |
| OM5KV | 2026-08-31 14:06:04 | 48.59850 | 17.87830 | 83° | 27km/h | 2731m | -7.0m/s | 0°C | 0% | 0hPa | 0V | 00:00:00 | 00:00:00 | 00:00:00 | |
| OM5KV | 2026-08-31 14:06:03 | 48.59849 | 17.87819 | 81° | 31km/h | 2740m | -7.9m/s | 0°C | 0% | 0hPa | 0V | 00:00:00 | 00:00:00 | 00:00:00 | |
| OM5KV | 2026-08-31 14:05:57 | 48.59840 | 17.87751 | 79° | 31km/h | 2788m | -7.7m/s | 0°C | 0% | 0hPa | 0V | 00:00:00 | 00:00:00 | 00:00:00 | |
| PETON7-10 | 2026-08-31 14:05:53 | 48.59831 | 17.87704 | 72° | 35km/h | 2822m | -8.3m/s | 0°C | 0% | 0hPa | 0V | 00:00:00 | 00:00:00 | 00:00:00 | |
| OM5KV | 2026-08-31 14:05:52 | 48.59829 | 17.87692 | 80° | 33km/h | 2831m | -7.2m/s | 0°C | 0% | 0hPa | 0V | 00:00:00 | 00:00:00 | 00:00:00 | |
| OM5KV | 2026-08-31 14:05:51 | 48.59827 | 17.87680 | 76° | 33km/h | 2840m | -8.8m/s | 0°C | 0% | 0hPa | 0V | 00:00:00 | 00:00:00 | 00:00:00 | |
| OE3JTB-15 | 2026-08-31 14:05:46 | 48.59816 | 17.87616 | 76° | 40km/h | 2884m | -5.7m/s | 0°C | 0% | 0hPa | 0V | 00:00:00 | 00:00:00 | 00:00:00 | |
| OM5KV | 2026-08-31 14:05:40 | 48.59805 | 17.87537 | 77° | 35km/h | 2933m | -8.1m/s | 0°C | 0% | 0hPa | 0V | 00:00:00 | 00:00:00 | 00:00:00 | |
| PETON7-10 | 2026-08-31 14:05:38 | 48.59801 | 17.87511 | 86° | 40km/h | 2950m | -8.5m/s | 0°C | 0% | 0hPa | 0V | 00:00:00 | 00:00:00 | 00:00:00 | |
| OM5KV | 2026-08-31 14:05:35 | 48.59797 | 17.87468 | 78° | 40km/h | 2978m | -6.1m/s | 0°C | 0% | 0hPa | 0V | 00:00:00 | 00:00:00 | 00:00:00 | |
| OM5KV | 2026-08-31 14:05:34 | 48.59795 | 17.87453 | 79° | 38km/h | 2987m | -7.0m/s | 0°C | 0% | 0hPa | 0V | 00:00:00 | 00:00:00 | 00:00:00 | |
| OM5KV | 2026-08-31 14:05:23 | 48.59771 | 17.87284 | 81° | 44km/h | 3080m | -7.4m/s | 0°C | 0% | 0hPa | 0V | 00:00:00 | 00:00:00 | 00:00:00 | |
| ATIDSZ-14 | 2026-08-31 14:05:22 | 48.59769 | 17.87267 | 80° | 44km/h | 3088m | -6.0m/s | 0°C | 0% | 0hPa | 0V | 00:00:00 | 00:00:00 | 00:00:00 | |
| PETON7-10 | 2026-08-31 14:05:21 | 48.59767 | 17.87251 | 81° | 42km/h | 3095m | -6.8m/s | 0°C | 0% | 0hPa | 0V | 00:00:00 | 00:00:00 | 00:00:00 | |
| OM5KV | 2026-08-31 14:05:18 | 48.59761 | 17.87202 | 79° | 44km/h | 3121m | -7.9m/s | 0°C | 0% | 0hPa | 0V | 00:00:00 | 00:00:00 | 00:00:00 | |
| OM5KV | 2026-08-31 14:05:16 | 48.59758 | 17.87169 | 81° | 42km/h | 3136m | -5.4m/s | 0°C | 0% | 0hPa | 0V | 00:00:00 | 00:00:00 | 00:00:00 | |
| OM5KV | 2026-08-31 14:05:12 | 48.59748 | 17.87105 | 77° | 44km/h | 3171m | -6.3m/s | 0°C | 0% | 0hPa | 0V | 00:00:00 | 00:00:00 | 00:00:00 | |
| OM5KV | 2026-08-31 14:05:10 | 48.59745 | 17.87073 | 83° | 42km/h | 3186m | -7.5m/s | 0°C | 0% | 0hPa | 0V | 00:00:00 | 00:00:00 | 00:00:00 | |
| OE3JTB-15 | 2026-08-31 14:05:05 | 48.59735 | 17.86997 | 77° | 42km/h | 3230m | -8.1m/s | 0°C | 0% | 0hPa | 0V | 00:00:00 | 00:00:00 | 00:00:00 | |
| OM5KV | 2026-08-31 14:05:04 | 48.59732 | 17.86982 | 75° | 42km/h | 3239m | -7.7m/s | 0°C | 0% | 0hPa | 0V | 00:00:00 | 00:00:00 | 00:00:00 | |
| ATIDSZ-14 | 2026-08-31 14:05:02 | 48.59727 | 17.86952 | 76° | 40km/h | 3257m | -5.8m/s | 0°C | 0% | 0hPa | 0V | 00:00:00 | 00:00:00 | 00:00:00 | |
| OM5KV | 2026-08-31 14:05:01 | 48.59725 | 17.86938 | 83° | 40km/h | 3264m | -6.6m/s | 0°C | 0% | 0hPa | 0V | 00:00:00 | 00:00:00 | 00:00:00 | |
| PETON7-10 | 2026-08-31 14:05:00 | 48.59723 | 17.86923 | 78° | 42km/h | 3273m | -7.8m/s | 0°C | 0% | 0hPa | 0V | 00:00:00 | 00:00:00 | 00:00:00 | |
| OE3OSB-13 | 2026-08-31 14:04:51 | 48.59688 | 17.86723 | 73° | 44km/h | 3381m | -8.1m/s | 4.5°C | 62.9% | 683.8hPa | 0V | 00:00:00 | 00:00:00 | 00:00:00 | |
| OM5KV | 2026-08-31 14:04:50 | 48.59697 | 17.86770 | 77° | 42km/h | 3355m | -8.1m/s | 0°C | 0% | 0hPa | 0V | 00:00:00 | 00:00:00 | 00:00:00 | |
| OM5KV | 2026-08-31 14:04:46 | 48.59685 | 17.86706 | 73° | 44km/h | 3390m | -7.2m/s | 0°C | 0% | 0hPa | 0V | 00:00:00 | 00:00:00 | 00:00:00 | |
| PETON7-10 | 2026-08-31 14:04:45 | 48.59681 | 17.86691 | 73° | 40km/h | 3398m | -6.4m/s | 0°C | 0% | 0hPa | 0V | 00:00:00 | 00:00:00 | 00:00:00 | |
| OE3JTB-15 | 2026-08-31 14:04:43 | 48.59675 | 17.86661 | 69° | 40km/h | 3413m | -7.0m/s | 0°C | 0% | 0hPa | 0V | 00:00:00 | 00:00:00 | 00:00:00 | |
| ATIDSZ-14 | 2026-08-31 14:04:39 | 48.59660 | 17.86604 | 64° | 42km/h | 3445m | -7.1m/s | 0°C | 0% | 0hPa | 0V | 00:00:00 | 00:00:00 | 00:00:00 | |
| OM5KV | 2026-08-31 14:04:38 | 48.59656 | 17.86590 | 70° | 42km/h | 3453m | -7.9m/s | 0°C | 0% | 0hPa | 0V | 00:00:00 | 00:00:00 | 00:00:00 | |
| OM5KV | 2026-08-31 14:04:33 | 48.59636 | 17.86518 | 68° | 38km/h | 3497m | -6.8m/s | 0°C | 0% | 0hPa | 0V | 00:00:00 | 00:00:00 | 00:00:00 | |
| PETON7-10 | 2026-08-31 14:04:30 | 48.59624 | 17.86478 | 64° | 40km/h | 3520m | -7.3m/s | 0°C | 0% | 0hPa | 0V | 00:00:00 | 00:00:00 | 00:00:00 | |
| OM5KV | 2026-08-31 14:04:29 | 48.59620 | 17.86464 | 68° | 42km/h | 3529m | -8.0m/s | 0°C | 0% | 0hPa | 0V | 00:00:00 | 00:00:00 | 00:00:00 | |
| OM5KV | 2026-08-31 14:04:27 | 48.59612 | 17.86436 | 65° | 42km/h | 3545m | -7.3m/s | 0°C | 0% | 0hPa | 0V | 00:00:00 | 00:00:00 | 00:00:00 | |
| OM5KV | 2026-08-31 14:04:23 | 48.59593 | 17.86383 | 64° | 38km/h | 3579m | -4.7m/s | 0°C | 0% | 0hPa | 0V | 00:00:00 | 00:00:00 | 00:00:00 | |
| OM5KV | 2026-08-31 14:04:21 | 48.59584 | 17.86355 | 66° | 40km/h | 3596m | -7.4m/s | 0°C | 0% | 0hPa | 0V | 00:00:00 | 00:00:00 | 00:00:00 | |
| OE3OSB-13 | 2026-08-31 14:04:20 | 48.59574 | 17.86329 | 60° | 38km/h | 3614m | -7.0m/s | 2.8°C | 60.4% | 664.3hPa | 0V | 00:00:00 | 00:00:00 | 00:00:00 | |
| ATIDSZ-14 | 2026-08-31 14:04:18 | 48.59569 | 17.86316 | 63° | 37km/h | 3621m | -6.1m/s | 0°C | 0% | 0hPa | 0V | 00:00:00 | 00:00:00 | 00:00:00 | |
| OM5KV | 2026-08-31 14:04:17 | 48.59564 | 17.86303 | 55° | 38km/h | 3629m | -6.3m/s | 0°C | 0% | 0hPa | 0V | 00:00:00 | 00:00:00 | 00:00:00 | |
| PETON7-10 | 2026-08-31 14:04:15 | 48.59553 | 17.86278 | 58° | 37km/h | 3645m | -7.2m/s | 0°C | 0% | 0hPa | 0V | 00:00:00 | 00:00:00 | 00:00:00 | |
| OE3JTB-15 | 2026-08-31 14:04:14 | 48.59547 | 17.86266 | 54° | 37km/h | 3654m | -8.4m/s | 0°C | 0% | 0hPa | 0V | 00:00:00 | 00:00:00 | 00:00:00 | |
| OM5KV | 2026-08-31 14:04:05 | 48.59499 | 17.86162 | 59° | 37km/h | 3726m | -6.7m/s | 0°C | 0% | 0hPa | 0V | 00:00:00 | 00:00:00 | 00:00:00 | |
| OM5KV | 2026-08-31 14:04:04 | 48.59493 | 17.86150 | 57° | 37km/h | 3735m | -6.6m/s | 0°C | 0% | 0hPa | 0V | 00:00:00 | 00:00:00 | 00:00:00 | |
| PETON7-10 | 2026-08-31 14:04:00 | 48.59473 | 17.86106 | 59° | 37km/h | 3769m | -8.1m/s | 0°C | 0% | 0hPa | 0V | 00:00:00 | 00:00:00 | 00:00:00 | |
| OE3OSB-13 | 2026-08-31 14:03:49 | 48.59409 | 17.85970 | 55° | 35km/h | 3872m | -8.6m/s | 0.7°C | 66.8% | 643.4hPa | 0V | 00:00:00 | 00:00:00 | 00:00:00 | |
| OM5KV | 2026-08-31 14:03:46 | 48.59399 | 17.85949 | 51° | 37km/h | 3889m | -6.9m/s | 0°C | 0% | 0hPa | 0V | 00:00:00 | 00:00:00 | 00:00:00 | |
| OM5KV | 2026-08-31 14:03:41 | 48.59372 | 17.85892 | 53° | 37km/h | 3929m | -8.4m/s | 0°C | 0% | 0hPa | 0V | 00:00:00 | 00:00:00 | 00:00:00 | |
| OM5KV | 2026-08-31 14:03:40 | 48.59367 | 17.85881 | 44° | 31km/h | 3938m | -8.3m/s | 0°C | 0% | 0hPa | 0V | 00:00:00 | 00:00:00 | 00:00:00 | |
| ATIDSZ-14 | 2026-08-31 14:03:36 | 48.59345 | 17.85837 | 48° | 38km/h | 3970m | -6.3m/s | 0°C | 0% | 0hPa | 0V | 00:00:00 | 00:00:00 | 00:00:00 | |
| OM5KV | 2026-08-31 14:03:35 | 48.59340 | 17.85827 | 55° | 31km/h | 3978m | -9.6m/s | 0°C | 0% | 0hPa | 0V | 00:00:00 | 00:00:00 | 00:00:00 | |
| OM5KV | 2026-08-31 14:03:34 | 48.59334 | 17.85817 | 53° | 35km/h | 3988m | -9.3m/s | 0°C | 0% | 0hPa | 0V | 00:00:00 | 00:00:00 | 00:00:00 | |
| OM5KV | 2026-08-31 14:03:30 | 48.59312 | 17.85775 | 55° | 37km/h | 4022m | -7.6m/s | 0°C | 0% | 0hPa | 0V | 00:00:00 | 00:00:00 | 00:00:00 | |
| PETON7-10 | 2026-08-31 14:03:29 | 48.59307 | 17.85764 | 56° | 35km/h | 4031m | -9.0m/s | 0°C | 0% | 0hPa | 0V | 00:00:00 | 00:00:00 | 00:00:00 | |
| OM5KV | 2026-08-31 14:03:28 | 48.59303 | 17.85753 | 51° | 33km/h | 4040m | -8.7m/s | 0°C | 0% | 0hPa | 0V | 00:00:00 | 00:00:00 | 00:00:00 | |
| OM5KV | 2026-08-31 14:03:24 | 48.59281 | 17.85712 | 50° | 37km/h | 4075m | -6.3m/s | 0°C | 0% | 0hPa | 0V | 00:00:00 | 00:00:00 | 00:00:00 | |
| OM5KV | 2026-08-31 14:03:22 | 48.59270 | 17.85692 | 57° | 35km/h | 4090m | -8.4m/s | 0°C | 0% | 0hPa | 0V | 00:00:00 | 00:00:00 | 00:00:00 | |
| OE3OSB-13 | 2026-08-31 14:03:18 | 48.59243 | 17.85639 | 54° | 33km/h | 4132m | -8.8m/s | -1.9°C | 76.7% | 622.1hPa | 0V | 00:00:00 | 00:00:00 | 00:00:00 | |
| OE3JTB-15 | 2026-08-31 14:03:16 | 48.59238 | 17.85629 | 56° | 38km/h | 4142m | -8.7m/s | 0°C | 0% | 0hPa | 0V | 00:00:00 | 00:00:00 | 00:00:00 | |
| PETON7-10 | 2026-08-31 14:03:14 | 48.59228 | 17.85608 | 56° | 35km/h | 4161m | -7.1m/s | 0°C | 0% | 0hPa | 0V | 00:00:00 | 00:00:00 | 00:00:00 | |
| OM5KV | 2026-08-31 14:03:13 | 48.59223 | 17.85598 | 53° | 31km/h | 4169m | -7.7m/s | 0°C | 0% | 0hPa | 0V | 00:00:00 | 00:00:00 | 00:00:00 | |
| OM5KV | 2026-08-31 14:03:11 | 48.59212 | 17.85578 | 52° | 31km/h | 4187m | -7.2m/s | 0°C | 0% | 0hPa | 0V | 00:00:00 | 00:00:00 | 00:00:00 | |
| OM5KV | 2026-08-31 14:03:08 | 48.59197 | 17.85546 | 57° | 33km/h | 4211m | -7.1m/s | 0°C | 0% | 0hPa | 0V | 00:00:00 | 00:00:00 | 00:00:00 | |
| OM5KV | 2026-08-31 14:03:05 | 48.59183 | 17.85510 | 63° | 37km/h | 4235m | -7.1m/s | 0°C | 0% | 0hPa | 0V | 00:00:00 | 00:00:00 | 00:00:00 | |
| OM5KV | 2026-08-31 14:03:02 | 48.59169 | 17.85471 | 66° | 38km/h | 4261m | -6.9m/s | 0°C | 0% | 0hPa | 0V | 00:00:00 | 00:00:00 | 00:00:00 | |
| OE3OSB-13 | 2026-08-31 14:02:47 | 48.59105 | 17.85254 | 70° | 42km/h | 4400m | -9.1m/s | -3.9°C | 84.1% | 601.2hPa | 0V | 00:00:00 | 00:00:00 | 00:00:00 | |
| OM5KV | 2026-08-31 14:02:46 | 48.59105 | 17.85254 | 72° | 42km/h | 4400m | -9.1m/s | 0°C | 0% | 0hPa | 0V | 00:00:00 | 00:00:00 | 00:00:00 | |
| PETON7-10 | 2026-08-31 14:02:43 | 48.59094 | 17.85208 | 68° | 44km/h | 4431m | -9.3m/s | 0°C | 0% | 0hPa | 0V | 00:00:00 | 00:00:00 | 00:00:00 | |
| OM5KV | 2026-08-31 14:02:41 | 48.59087 | 17.85176 | 78° | 44km/h | 4449m | -6.9m/s | 0°C | 0% | 0hPa | 0V | 00:00:00 | 00:00:00 | 00:00:00 | |
| OM5KV | 2026-08-31 14:02:40 | 48.59084 | 17.85160 | 75° | 44km/h | 4458m | -8.0m/s | 0°C | 0% | 0hPa | 0V | 00:00:00 | 00:00:00 | 00:00:00 | |
| OM5KV | 2026-08-31 14:02:36 | 48.59070 | 17.85095 | 74° | 42km/h | 4492m | -7.9m/s | 0°C | 0% | 0hPa | 0V | 00:00:00 | 00:00:00 | 00:00:00 | |
| OM5KV | 2026-08-31 14:02:30 | 48.59052 | 17.84999 | 80° | 44km/h | 4539m | -7.3m/s | 0°C | 0% | 0hPa | 0V | 00:00:00 | 00:00:00 | 00:00:00 | |
| OM5KV | 2026-08-31 14:02:29 | 48.59049 | 17.84983 | 76° | 44km/h | 4547m | -7.9m/s | 0°C | 0% | 0hPa | 0V | 00:00:00 | 00:00:00 | 00:00:00 | |
| PETON7-10 | 2026-08-31 14:02:28 | 48.59047 | 17.84967 | 77° | 42km/h | 4556m | -9.1m/s | 0°C | 0% | 0hPa | 0V | 00:00:00 | 00:00:00 | 00:00:00 | |
| OM5KV | 2026-08-31 14:02:24 | 48.59034 | 17.84902 | 77° | 44km/h | 4591m | -8.1m/s | 0°C | 0% | 0hPa | 0V | 00:00:00 | 00:00:00 | 00:00:00 | |
| OM5KV | 2026-08-31 14:02:23 | 48.59032 | 17.84886 | 73° | 44km/h | 4599m | -8.0m/s | 0°C | 0% | 0hPa | 0V | 00:00:00 | 00:00:00 | 00:00:00 | |
| OM5KV | 2026-08-31 14:02:19 | 48.59018 | 17.84825 | 69° | 40km/h | 4634m | -6.2m/s | 0°C | 0% | 0hPa | 0V | 00:00:00 | 00:00:00 | 00:00:00 | |
| OE3JTB-15 | 2026-08-31 14:02:18 | 48.59013 | 17.84810 | 63° | 38km/h | 4642m | -8.1m/s | 0°C | 0% | 0hPa | 0V | 00:00:00 | 00:00:00 | 00:00:00 | |
| OM5KV | 2026-08-31 14:02:17 | 48.59009 | 17.84797 | 68° | 38km/h | 4651m | -8.0m/s | 0°C | 0% | 0hPa | 0V | 00:00:00 | 00:00:00 | 00:00:00 | |
| OE3OSB-13 | 2026-08-31 14:02:16 | 48.59001 | 17.84769 | 63° | 40km/h | 4669m | -9.6m/s | -4.9°C | 72.8% | 580.8hPa | 0V | 00:00:00 | 00:00:00 | 00:00:00 | |
| PETON7-10 | 2026-08-31 14:02:12 | 48.58986 | 17.84726 | 66° | 40km/h | 4698m | -6.9m/s | 0°C | 0% | 0hPa | 0V | 00:00:00 | 00:00:00 | 00:00:00 | |
| ATIDSZ-14 | 2026-08-31 14:02:08 | 48.58969 | 17.84672 | 68° | 40km/h | 4731m | -7.2m/s | 0°C | 0% | 0hPa | 0V | 00:00:00 | 00:00:00 | 00:00:00 | |
| OM5KV | 2026-08-31 14:02:07 | 48.58964 | 17.84658 | 62° | 40km/h | 4739m | -8.2m/s | 0°C | 0% | 0hPa | 0V | 00:00:00 | 00:00:00 | 00:00:00 | |
| OM5KV | 2026-08-31 14:02:06 | 48.58960 | 17.84644 | 62° | 44km/h | 4747m | -7.6m/s | 0°C | 0% | 0hPa | 0V | 00:00:00 | 00:00:00 | 00:00:00 | |
| OM5KV | 2026-08-31 14:02:02 | 48.58940 | 17.84590 | 63° | 40km/h | 4780m | -6.4m/s | 0°C | 0% | 0hPa | 0V | 00:00:00 | 00:00:00 | 00:00:00 | |
| OM5KV | 2026-08-31 14:02:00 | 48.58931 | 17.84564 | 62° | 37km/h | 4797m | -9.6m/s | 0°C | 0% | 0hPa | 0V | 00:00:00 | 00:00:00 | 00:00:00 | |
| OE3OSB-13 | 2026-08-31 14:01:45 | 48.58866 | 17.84403 | 56° | 27km/h | 4944m | -9.2m/s | -6.5°C | 76.7% | 560.8hPa | 0V | 00:00:00 | 00:00:00 | 00:00:00 | |
| OM5KV | 2026-08-31 14:01:44 | 48.58865 | 17.84403 | 57° | 29km/h | 4944m | -9.2m/s | 0°C | 0% | 0hPa | 0V | 00:00:00 | 00:00:00 | 00:00:00 | |
| OM5KV | 2026-08-31 14:01:43 | 48.58862 | 17.84394 | 65° | 29km/h | 4954m | -8.9m/s | 0°C | 0% | 0hPa | 0V | 00:00:00 | 00:00:00 | 00:00:00 | |
| PETON7-10 | 2026-08-31 14:01:42 | 48.58859 | 17.84384 | 60° | 31km/h | 4964m | -7.9m/s | 0°C | 0% | 0hPa | 0V | 00:00:00 | 00:00:00 | 00:00:00 | |
| OM5KV | 2026-08-31 14:01:39 | 48.58848 | 17.84354 | 58° | 35km/h | 4990m | -7.0m/s | 0°C | 0% | 0hPa | 0V | 00:00:00 | 00:00:00 | 00:00:00 | |
| OM5KV | 2026-08-31 14:01:37 | 48.58841 | 17.84332 | 65° | 33km/h | 5006m | -7.1m/s | 0°C | 0% | 0hPa | 0V | 00:00:00 | 00:00:00 | 00:00:00 | |
| OM5KV | 2026-08-31 14:01:33 | 48.58827 | 17.84287 | 67° | 35km/h | 5039m | -7.7m/s | 0°C | 0% | 0hPa | 0V | 00:00:00 | 00:00:00 | 00:00:00 | |
| OM5KV | 2026-08-31 14:01:27 | 48.58808 | 17.84214 | 70° | 35km/h | 5094m | -8.0m/s | 0°C | 0% | 0hPa | 0V | 00:00:00 | 00:00:00 | 00:00:00 | |
| OM5KV | 2026-08-31 14:01:26 | 48.58805 | 17.84202 | 64° | 35km/h | 5103m | -8.7m/s | 0°C | 0% | 0hPa | 0V | 00:00:00 | 00:00:00 | 00:00:00 | |
| ATIDSZ-14 | 2026-08-31 14:01:25 | 48.58802 | 17.84190 | 74° | 35km/h | 5112m | -9.8m/s | 0°C | 0% | 0hPa | 0V | 00:00:00 | 00:00:00 | 00:00:00 | |
| OM5KV | 2026-08-31 14:01:21 | 48.58789 | 17.84143 | 70° | 33km/h | 5148m | -6.8m/s | 0°C | 0% | 0hPa | 0V | 00:00:00 | 00:00:00 | 00:00:00 | |
| OE3JTB-15 | 2026-08-31 14:01:20 | 48.58786 | 17.84131 | 71° | 35km/h | 5157m | -8.7m/s | 0°C | 0% | 0hPa | 0V | 00:00:00 | 00:00:00 | 00:00:00 | |
| OM5KV | 2026-08-31 14:01:16 | 48.58775 | 17.84084 | 69° | 35km/h | 5193m | -9.0m/s | 0°C | 0% | 0hPa | 0V | 00:00:00 | 00:00:00 | 00:00:00 | |
| OM5KV | 2026-08-31 14:01:15 | 48.58772 | 17.84071 | 71° | 37km/h | 5201m | -5.9m/s | 0°C | 0% | 0hPa | 0V | 00:00:00 | 00:00:00 | 00:00:00 | |
| OE3OSB-13 | 2026-08-31 14:01:14 | 48.58766 | 17.84047 | 67° | 35km/h | 5215m | -8.4m/s | -7.8°C | 75.9% | 541.3hPa | 0V | 00:00:00 | 00:00:00 | 00:00:00 | |
| PETON7-10 | 2026-08-31 14:01:11 | 48.58760 | 17.84021 | 76° | 37km/h | 5234m | -5.9m/s | 0°C | 0% | 0hPa | 0V | 00:00:00 | 00:00:00 | 00:00:00 | |
| OM5KV | 2026-08-31 14:01:09 | 48.58754 | 17.83995 | 74° | 38km/h | 5250m | -8.6m/s | 0°C | 0% | 0hPa | 0V | 00:00:00 | 00:00:00 | 00:00:00 | |
| OM5KV | 2026-08-31 14:01:04 | 48.58742 | 17.83928 | 73° | 35km/h | 5297m | -7.7m/s | 0°C | 0% | 0hPa | 0V | 00:00:00 | 00:00:00 | 00:00:00 | |
| OM5KV | 2026-08-31 14:01:03 | 48.58739 | 17.83915 | 75° | 37km/h | 5305m | -8.5m/s | 0°C | 0% | 0hPa | 0V | 00:00:00 | 00:00:00 | 00:00:00 | |
| OM5KV | 2026-08-31 14:00:57 | 48.58723 | 17.83834 | 76° | 35km/h | 5359m | -8.8m/s | 0°C | 0% | 0hPa | 0V | 00:00:00 | 00:00:00 | 00:00:00 | |
| PETON7-10 | 2026-08-31 14:00:56 | 48.58720 | 17.83821 | 73° | 37km/h | 5368m | -8.0m/s | 0°C | 0% | 0hPa | 0V | 00:00:00 | 00:00:00 | 00:00:00 | |
| OM5KV | 2026-08-31 14:00:53 | 48.58711 | 17.83782 | 72° | 37km/h | 5394m | -9.2m/s | 0°C | 0% | 0hPa | 0V | 00:00:00 | 00:00:00 | 00:00:00 | |
| OE3JTB-15 | 2026-08-31 14:00:50 | 48.58702 | 17.83743 | 73° | 51km/h | 5426m | -8.3m/s | 0°C | 0% | 0hPa | 0V | 00:00:00 | 00:00:00 | 00:00:00 | |
| OM5KV | 2026-08-31 14:00:48 | 48.58696 | 17.83718 | 68° | 35km/h | 5446m | -7.1m/s | 0°C | 0% | 0hPa | 0V | 00:00:00 | 00:00:00 | 00:00:00 | |
| ATIDSZ-14 | 2026-08-31 14:00:43 | 48.58681 | 17.83653 | 73° | 38km/h | 5489m | -6.6m/s | 0°C | 0% | 0hPa | 0V | 00:00:00 | 00:00:00 | 00:00:00 | |
| OM5KV | 2026-08-31 14:00:42 | 48.58677 | 17.83640 | 70° | 37km/h | 5498m | -8.6m/s | 0°C | 0% | 0hPa | 0V | 00:00:00 | 00:00:00 | 00:00:00 | |
| PETON7-10 | 2026-08-31 14:00:41 | 48.58674 | 17.83627 | 72° | 38km/h | 5507m | -9.8m/s | 0°C | 0% | 0hPa | 0V | 00:00:00 | 00:00:00 | 00:00:00 | |
| OM5KV | 2026-08-31 14:00:40 | 48.58671 | 17.83613 | 69° | 38km/h | 5518m | -9.3m/s | 0°C | 0% | 0hPa | 0V | 00:00:00 | 00:00:00 | 00:00:00 | |
| OM5KV | 2026-08-31 14:00:36 | 48.58656 | 17.83559 | 69° | 37km/h | 5559m | -8.1m/s | 0°C | 0% | 0hPa | 0V | 00:00:00 | 00:00:00 | 00:00:00 | |
| OM5KV | 2026-08-31 14:00:35 | 48.58652 | 17.83546 | 63° | 38km/h | 5568m | -8.1m/s | 0°C | 0% | 0hPa | 0V | 00:00:00 | 00:00:00 | 00:00:00 | |
| OM5KV | 2026-08-31 14:00:31 | 48.58635 | 17.83495 | 67° | 38km/h | 5601m | -7.1m/s | 0°C | 0% | 0hPa | 0V | 00:00:00 | 00:00:00 | 00:00:00 | |
| OM5KV | 2026-08-31 14:00:30 | 48.58631 | 17.83482 | 63° | 38km/h | 5610m | -8.3m/s | 0°C | 0% | 0hPa | 0V | 00:00:00 | 00:00:00 | 00:00:00 | |
| PETON7-10 | 2026-08-31 14:00:26 | 48.58615 | 17.83430 | 67° | 37km/h | 5647m | -8.7m/s | 0°C | 0% | 0hPa | 0V | 00:00:00 | 00:00:00 | 00:00:00 | |
| OM5KV | 2026-08-31 14:00:25 | 48.58610 | 17.83417 | 65° | 37km/h | 5656m | -9.3m/s | 0°C | 0% | 0hPa | 0V | 00:00:00 | 00:00:00 | 00:00:00 | |
| ATIDSZ-14 | 2026-08-31 14:00:23 | 48.58602 | 17.83392 | 67° | 37km/h | 5675m | -8.5m/s | 0°C | 0% | 0hPa | 0V | 00:00:00 | 00:00:00 | 00:00:00 | |
| OM5KV | 2026-08-31 14:00:19 | 48.58584 | 17.83341 | 64° | 37km/h | 5716m | -10.5m/s | 0°C | 0% | 0hPa | 0V | 00:00:00 | 00:00:00 | 00:00:00 | |
| OM5KV | 2026-08-31 14:00:14 | 48.58563 | 17.83278 | 61° | 37km/h | 5764m | -8.8m/s | 0°C | 0% | 0hPa | 0V | 00:00:00 | 00:00:00 | 00:00:00 | |
| OM5KV | 2026-08-31 14:00:13 | 48.58559 | 17.83266 | 64° | 37km/h | 5774m | -9.1m/s | 0°C | 0% | 0hPa | 0V | 00:00:00 | 00:00:00 | 00:00:00 | |
| PETON7-10 | 2026-08-31 14:00:11 | 48.58550 | 17.83241 | 63° | 37km/h | 5794m | -8.7m/s | 0°C | 0% | 0hPa | 0V | 00:00:00 | 00:00:00 | 00:00:00 | |
| OM5KV | 2026-08-31 14:00:07 | 48.58534 | 17.83191 | 63° | 37km/h | 5832m | -8.6m/s | 0°C | 0% | 0hPa | 0V | 00:00:00 | 00:00:00 | 00:00:00 | |
| OM5KV | 2026-08-31 14:00:01 | 48.58510 | 17.83116 | 75° | 37km/h | 5893m | -14.4m/s | 0°C | 0% | 0hPa | 0V | 00:00:00 | 00:00:00 | 00:00:00 | |
| PETON7-10 | 2026-08-31 13:59:56 | 48.58490 | 17.83052 | 63° | 35km/h | 5946m | -7.4m/s | 0°C | 0% | 0hPa | 0V | 00:00:00 | 00:00:00 | 00:00:00 | |
| OM5KV | 2026-08-31 13:59:55 | 48.58486 | 17.83040 | 66° | 37km/h | 5955m | -7.1m/s | 0°C | 0% | 0hPa | 0V | 00:00:00 | 00:00:00 | 00:00:00 | |
| OM5KV | 2026-08-31 13:59:42 | 48.58433 | 17.82880 | 68° | 37km/h | 6076m | -6.8m/s | 0°C | 0% | 0hPa | 0V | 00:00:00 | 00:00:00 | 00:00:00 | |
| PETON7-10 | 2026-08-31 13:59:41 | 48.58429 | 17.82867 | 61° | 38km/h | 6084m | -6.4m/s | 0°C | 0% | 0hPa | 0V | 00:00:00 | 00:00:00 | 00:00:00 | |
| OM5KV | 2026-08-31 13:59:40 | 48.58425 | 17.82855 | 63° | 37km/h | 6092m | -7.8m/s | 0°C | 0% | 0hPa | 0V | 00:00:00 | 00:00:00 | 00:00:00 | |
| OM5KV | 2026-08-31 13:59:36 | 48.58410 | 17.82804 | 64° | 37km/h | 6129m | -9.1m/s | 0°C | 0% | 0hPa | 0V | 00:00:00 | 00:00:00 | 00:00:00 | |
| OM5KV | 2026-08-31 13:59:35 | 48.58406 | 17.82791 | 67° | 37km/h | 6138m | -7.9m/s | 0°C | 0% | 0hPa | 0V | 00:00:00 | 00:00:00 | 00:00:00 | |
| OM5KV | 2026-08-31 13:59:30 | 48.58386 | 17.82724 | 65° | 42km/h | 6185m | -8.2m/s | 0°C | 0% | 0hPa | 0V | 00:00:00 | 00:00:00 | 00:00:00 | |
| OM5KV | 2026-08-31 13:59:29 | 48.58382 | 17.82710 | 66° | 44km/h | 6194m | -6.8m/s | 0°C | 0% | 0hPa | 0V | 00:00:00 | 00:00:00 | 00:00:00 | |
| PETON7-10 | 2026-08-31 13:59:26 | 48.58369 | 17.82665 | 71° | 44km/h | 6220m | -8.5m/s | 0°C | 0% | 0hPa | 0V | 00:00:00 | 00:00:00 | 00:00:00 | |
| OM5KV | 2026-08-31 13:59:24 | 48.58362 | 17.82632 | 71° | 46km/h | 6240m | -8.3m/s | 0°C | 0% | 0hPa | 0V | 00:00:00 | 00:00:00 | 00:00:00 | |
| OM5KV | 2026-08-31 13:59:23 | 48.58358 | 17.82616 | 72° | 44km/h | 6250m | -8.6m/s | 0°C | 0% | 0hPa | 0V | 00:00:00 | 00:00:00 | 00:00:00 | |
| ATIDSZ-14 | 2026-08-31 13:59:20 | 48.58348 | 17.82570 | 74° | 44km/h | 6279m | -8.5m/s | 0°C | 0% | 0hPa | 0V | 00:00:00 | 00:00:00 | 00:00:00 | |
| OM5KV | 2026-08-31 13:59:18 | 48.58342 | 17.82537 | 79° | 44km/h | 6297m | -5.6m/s | 0°C | 0% | 0hPa | 0V | 00:00:00 | 00:00:00 | 00:00:00 | |
| OM5KV | 2026-08-31 13:59:17 | 48.58339 | 17.82521 | 73° | 46km/h | 6304m | -7.9m/s | 0°C | 0% | 0hPa | 0V | 00:00:00 | 00:00:00 | 00:00:00 | |
| OM5KV | 2026-08-31 13:59:12 | 48.58323 | 17.82437 | 76° | 47km/h | 6352m | -8.4m/s | 0°C | 0% | 0hPa | 0V | 00:00:00 | 00:00:00 | 00:00:00 | |
| PETON7-10 | 2026-08-31 13:59:11 | 48.58320 | 17.82420 | 80° | 49km/h | 6361m | -8.4m/s | 0°C | 0% | 0hPa | 0V | 00:00:00 | 00:00:00 | 00:00:00 | |
| OE3OSB-13 | 2026-08-31 13:59:09 | 48.58311 | 17.82368 | 73° | 46km/h | 6389m | -8.8m/s | -15.7°C | 55.3% | 463.7hPa | 0V | 00:00:00 | 00:00:00 | 00:00:00 | |
| OM5KV | 2026-08-31 13:59:07 | 48.58308 | 17.82351 | 74° | 49km/h | 6400m | -8.2m/s | 0°C | 0% | 0hPa | 0V | 00:00:00 | 00:00:00 | 00:00:00 | |
| OM5KV | 2026-08-31 13:59:05 | 48.58299 | 17.82314 | 70° | 49km/h | 6418m | -8.1m/s | 0°C | 0% | 0hPa | 0V | 00:00:00 | 00:00:00 | 00:00:00 | |
| OM5KV | 2026-08-31 13:59:01 | 48.58283 | 17.82240 | 75° | 51km/h | 6453m | -8.3m/s | 0°C | 0% | 0hPa | 0V | 00:00:00 | 00:00:00 | 00:00:00 | |
| ATIDSZ-14 | 2026-08-31 13:58:59 | 48.58275 | 17.82202 | 75° | 51km/h | 6469m | -8.8m/s | 0°C | 0% | 0hPa | 0V | 00:00:00 | 00:00:00 | 00:00:00 | |
| PETON7-10 | 2026-08-31 13:58:56 | 48.58263 | 17.82144 | 75° | 55km/h | 6497m | -7.8m/s | 0°C | 0% | 0hPa | 0V | 00:00:00 | 00:00:00 | 00:00:00 | |
| OM5KV | 2026-08-31 13:58:55 | 48.58260 | 17.82124 | 73° | 53km/h | 6505m | -6.9m/s | 0°C | 0% | 0hPa | 0V | 00:00:00 | 00:00:00 | 00:00:00 | |
| OM5KV | 2026-08-31 13:58:53 | 48.58251 | 17.82085 | 73° | 53km/h | 6522m | -8.0m/s | 0°C | 0% | 0hPa | 0V | 00:00:00 | 00:00:00 | 00:00:00 | |
| OM5KV | 2026-08-31 13:58:49 | 48.58236 | 17.82005 | 74° | 55km/h | 6564m | -7.2m/s | 0°C | 0% | 0hPa | 0V | 00:00:00 | 00:00:00 | 00:00:00 | |
| OM5KV | 2026-08-31 13:58:43 | 48.58212 | 17.81886 | 76° | 53km/h | 6618m | -7.5m/s | 0°C | 0% | 0hPa | 0V | 00:00:00 | 00:00:00 | 00:00:00 | |
| OM5KV | 2026-08-31 13:58:42 | 48.58208 | 17.81867 | 74° | 53km/h | 6626m | -7.1m/s | 0°C | 0% | 0hPa | 0V | 00:00:00 | 00:00:00 | 00:00:00 | |
| PETON7-10 | 2026-08-31 13:58:40 | 48.58201 | 17.81826 | 75° | 57km/h | 6643m | -8.8m/s | 0°C | 0% | 0hPa | 0V | 00:00:00 | 00:00:00 | 00:00:00 | |
| ATIDSZ-14 | 2026-08-31 13:58:38 | 48.58194 | 17.81786 | 78° | 57km/h | 6660m | -7.2m/s | 0°C | 0% | 0hPa | 0V | 00:00:00 | 00:00:00 | 00:00:00 | |
| OM5KV | 2026-08-31 13:58:36 | 48.58187 | 17.81745 | 77° | 58km/h | 6677m | -7.1m/s | 0°C | 0% | 0hPa | 0V | 00:00:00 | 00:00:00 | 00:00:00 | |
| PETON7-10 | 2026-08-31 13:58:25 | 48.58145 | 17.81520 | 77° | 55km/h | 6778m | -8.1m/s | 0°C | 0% | 0hPa | 0V | 00:00:00 | 00:00:00 | 00:00:00 | |
| OM5KV | 2026-08-31 13:58:22 | 48.58134 | 17.81459 | 75° | 55km/h | 6806m | -7.2m/s | 0°C | 0% | 0hPa | 0V | 00:00:00 | 00:00:00 | 00:00:00 | |
| OE3JTB-15 | 2026-08-31 13:58:18 | 48.58120 | 17.81376 | 79° | 55km/h | 6846m | -6.9m/s | 0°C | 0% | 0hPa | 0V | 00:00:00 | 00:00:00 | 00:00:00 | |
| ATIDSZ-14 | 2026-08-31 13:58:17 | 48.58117 | 17.81356 | 79° | 53km/h | 6853m | -7.8m/s | 0°C | 0% | 0hPa | 0V | 00:00:00 | 00:00:00 | 00:00:00 | |
| OM5KV | 2026-08-31 13:58:16 | 48.58114 | 17.81335 | 79° | 57km/h | 6862m | -6.8m/s | 0°C | 0% | 0hPa | 0V | 00:00:00 | 00:00:00 | 00:00:00 | |
| OM5KV | 2026-08-31 13:58:12 | 48.58102 | 17.81254 | 79° | 53km/h | 6900m | -8.3m/s | 0°C | 0% | 0hPa | 0V | 00:00:00 | 00:00:00 | 00:00:00 | |
| PETON7-10 | 2026-08-31 13:58:09 | 48.58093 | 17.81192 | 78° | 55km/h | 6929m | -8.4m/s | 0°C | 0% | 0hPa | 0V | 00:00:00 | 00:00:00 | 00:00:00 | |
| OE3OSB-13 | 2026-08-31 13:58:07 | 48.58082 | 17.81131 | 76° | 53km/h | 6957m | -8.5m/s | -20.0°C | 51.8% | 429.4hPa | 0V | 00:00:00 | 00:00:00 | 00:00:00 | |
| OM5KV | 2026-08-31 13:58:06 | 48.58082 | 17.81131 | 78° | 55km/h | 6958m | -8.5m/s | 0°C | 0% | 0hPa | 0V | 00:00:00 | 00:00:00 | 00:00:00 | |
| OM5KV | 2026-08-31 13:58:05 | 48.58079 | 17.81111 | 75° | 53km/h | 6967m | -7.7m/s | 0°C | 0% | 0hPa | 0V | 00:00:00 | 00:00:00 | 00:00:00 | |
| OM5KV | 2026-08-31 13:57:59 | 48.58058 | 17.80989 | 77° | 57km/h | 7021m | -7.8m/s | 0°C | 0% | 0hPa | 0V | 00:00:00 | 00:00:00 | 00:00:00 | |
| PETON7-10 | 2026-08-31 13:57:54 | 48.58040 | 17.80885 | 75° | 60km/h | 7066m | -7.6m/s | 0°C | 0% | 0hPa | 0V | 00:00:00 | 00:00:00 | 00:00:00 | |
| ATIDSZ-14 | 2026-08-31 13:57:53 | 48.58036 | 17.80865 | 76° | 58km/h | 7075m | -7.9m/s | 0°C | 0% | 0hPa | 0V | 00:00:00 | 00:00:00 | 00:00:00 | |
| OE3JTB-15 | 2026-08-31 13:57:49 | 48.58021 | 17.80777 | 74° | 69km/h | 7111m | -9.8m/s | 0°C | 0% | 0hPa | 0V | 00:00:00 | 00:00:00 | 00:00:00 | |
| OM5KV | 2026-08-31 13:57:43 | 48.57994 | 17.80641 | 74° | 64km/h | 7169m | -8.2m/s | 0°C | 0% | 0hPa | 0V | 00:00:00 | 00:00:00 | 00:00:00 | |
| OM5KV | 2026-08-31 13:57:42 | 48.57989 | 17.80617 | 72° | 66km/h | 7179m | -9.2m/s | 0°C | 0% | 0hPa | 0V | 00:00:00 | 00:00:00 | 00:00:00 | |
| PETON7-10 | 2026-08-31 13:57:39 | 48.57972 | 17.80544 | 69° | 69km/h | 7206m | -8.4m/s | 0°C | 0% | 0hPa | 0V | 00:00:00 | 00:00:00 | 00:00:00 | |
| OM5KV | 2026-08-31 13:57:37 | 48.57960 | 17.80496 | 68° | 68km/h | 7227m | -8.9m/s | 0°C | 0% | 0hPa | 0V | 00:00:00 | 00:00:00 | 00:00:00 | |
| OE3OSB-13 | 2026-08-31 13:57:36 | 48.57941 | 17.80424 | 67° | 68km/h | 7254m | -8.3m/s | -22.1°C | 53.7% | 412.1hPa | 0V | 00:00:00 | 00:00:00 | 00:00:00 | |
| OM5KV | 2026-08-31 13:57:32 | 48.57927 | 17.80375 | 68° | 71km/h | 7271m | -8.6m/s | 0°C | 0% | 0hPa | 0V | 00:00:00 | 00:00:00 | 00:00:00 | |
| ATIDSZ-14 | 2026-08-31 13:57:31 | 48.57920 | 17.80351 | 68° | 69km/h | 7280m | -9.4m/s | 0°C | 0% | 0hPa | 0V | 00:00:00 | 00:00:00 | 00:00:00 | |
| OM5KV | 2026-08-31 13:57:26 | 48.57883 | 17.80227 | 67° | 71km/h | 7330m | -8.4m/s | 0°C | 0% | 0hPa | 0V | 00:00:00 | 00:00:00 | 00:00:00 | |
| PETON7-10 | 2026-08-31 13:57:23 | 48.57861 | 17.80153 | 67° | 75km/h | 7359m | -7.3m/s | 0°C | 0% | 0hPa | 0V | 00:00:00 | 00:00:00 | 00:00:00 | |
| OE3JTB-15 | 2026-08-31 13:57:16 | 48.57805 | 17.79977 | 67° | 80km/h | 7425m | -7.4m/s | 0°C | 0% | 0hPa | 0V | 00:00:00 | 00:00:00 | 00:00:00 | |
| OM5KV | 2026-08-31 13:57:15 | 48.57797 | 17.79952 | 66° | 73km/h | 7434m | -8.0m/s | 0°C | 0% | 0hPa | 0V | 00:00:00 | 00:00:00 | 00:00:00 | |
| OM5KV | 2026-08-31 13:57:13 | 48.57782 | 17.79900 | 67° | 75km/h | 7452m | -8.1m/s | 0°C | 0% | 0hPa | 0V | 00:00:00 | 00:00:00 | 00:00:00 | |
| ATIDSZ-14 | 2026-08-31 13:57:09 | 48.57748 | 17.79794 | 63° | 78km/h | 7486m | -8.3m/s | 0°C | 0% | 0hPa | 0V | 00:00:00 | 00:00:00 | 00:00:00 | |
| PETON7-10 | 2026-08-31 13:57:08 | 48.57739 | 17.79767 | 64° | 82km/h | 7495m | -8.7m/s | 0°C | 0% | 0hPa | 0V | 00:00:00 | 00:00:00 | 00:00:00 | |
| OM5KV | 2026-08-31 13:57:07 | 48.57729 | 17.79740 | 64° | 80km/h | 7506m | -11.6m/s | 0°C | 0% | 0hPa | 0V | 00:00:00 | 00:00:00 | 00:00:00 | |
| OE3OSB-13 | 2026-08-31 13:57:05 | 48.57702 | 17.79655 | 64° | 82km/h | 7538m | -8.4m/s | -23.6°C | 36.9% | 396.3hPa | 0V | 00:00:00 | 00:00:00 | 00:00:00 | |
| OM5KV | 2026-08-31 13:56:59 | 48.57655 | 17.79514 | 64° | 82km/h | 7585m | -8.8m/s | 0°C | 0% | 0hPa | 0V | 00:00:00 | 00:00:00 | 00:00:00 | |
| OM5KV | 2026-08-31 13:56:53 | 48.57596 | 17.79345 | 64° | 84km/h | 7640m | -8.0m/s | 0°C | 0% | 0hPa | 0V | 00:00:00 | 00:00:00 | 00:00:00 | |
| OM5KV | 2026-08-31 13:56:51 | 48.57576 | 17.79288 | 64° | 84km/h | 7658m | -7.1m/s | 0°C | 0% | 0hPa | 0V | 00:00:00 | 00:00:00 | 00:00:00 | |
| ATIDSZ-14 | 2026-08-31 13:56:49 | 48.57557 | 17.79230 | 64° | 88km/h | 7676m | -8.2m/s | 0°C | 0% | 0hPa | 0V | 00:00:00 | 00:00:00 | 00:00:00 | |
| OE3JTB-15 | 2026-08-31 13:56:47 | 48.57537 | 17.79173 | 62° | 82km/h | 7696m | -8.3m/s | 0°C | 0% | 0hPa | 0V | 00:00:00 | 00:00:00 | 00:00:00 | |
| OM5KV | 2026-08-31 13:56:45 | 48.57517 | 17.79116 | 63° | 84km/h | 7713m | -8.2m/s | 0°C | 0% | 0hPa | 0V | 00:00:00 | 00:00:00 | 00:00:00 | |
| OM5KV | 2026-08-31 13:56:41 | 48.57477 | 17.79001 | 63° | 84km/h | 7746m | -8.8m/s | 0°C | 0% | 0hPa | 0V | 00:00:00 | 00:00:00 | 00:00:00 | |
| OM5KV | 2026-08-31 13:56:39 | 48.57457 | 17.78945 | 63° | 82km/h | 7764m | -7.6m/s | 0°C | 0% | 0hPa | 0V | 00:00:00 | 00:00:00 | 00:00:00 | |
| PETON7-10 | 2026-08-31 13:56:35 | 48.57417 | 17.78832 | 63° | 82km/h | 7800m | -7.9m/s | 0°C | 0% | 0hPa | 0V | 00:00:00 | 00:00:00 | 00:00:00 | |
| OE3OSB-13 | 2026-08-31 13:56:34 | 48.57399 | 17.78777 | 64° | 80km/h | 7817m | -8.0m/s | -24.5°C | 14.1% | 381.1hPa | 0V | 00:00:00 | 00:00:00 | 00:00:00 | |
| OM5KV | 2026-08-31 13:56:33 | 48.57399 | 17.78777 | 66° | 82km/h | 7817m | -8.0m/s | 0°C | 0% | 0hPa | 0V | 00:00:00 | 00:00:00 | 00:00:00 | |
| ATIDSZ-14 | 2026-08-31 13:56:28 | 48.57351 | 17.78638 | 63° | 82km/h | 7861m | -7.9m/s | 0°C | 0% | 0hPa | 0V | 00:00:00 | 00:00:00 | 00:00:00 | |
| PETON7-10 | 2026-08-31 13:56:20 | 48.57275 | 17.78419 | 65° | 80km/h | 7935m | -9.4m/s | 0°C | 0% | 0hPa | 0V | 00:00:00 | 00:00:00 | 00:00:00 | |
| OM5KV | 2026-08-31 13:56:18 | 48.57257 | 17.78364 | 65° | 82km/h | 7956m | -9.1m/s | 0°C | 0% | 0hPa | 0V | 00:00:00 | 00:00:00 | 00:00:00 | |
| OM5KV | 2026-08-31 13:56:15 | 48.57230 | 17.78282 | 65° | 80km/h | 7985m | -8.9m/s | 0°C | 0% | 0hPa | 0V | 00:00:00 | 00:00:00 | 00:00:00 | |
| OE3JTB-15 | 2026-08-31 13:56:12 | 48.57202 | 17.78198 | 64° | 82km/h | 8014m | -8.3m/s | 0°C | 0% | 0hPa | 0V | 00:00:00 | 00:00:00 | 00:00:00 | |
| OM5KV | 2026-08-31 13:56:10 | 48.57183 | 17.78143 | 66° | 80km/h | 8032m | -7.8m/s | 0°C | 0% | 0hPa | 0V | 00:00:00 | 00:00:00 | 00:00:00 | |
| ATIDSZ-14 | 2026-08-31 13:56:08 | 48.57166 | 17.78088 | 65° | 80km/h | 8050m | -7.5m/s | 0°C | 0% | 0hPa | 0V | 00:00:00 | 00:00:00 | 00:00:00 | |
| OM5KV | 2026-08-31 13:56:07 | 48.57157 | 17.78061 | 63° | 80km/h | 8059m | -8.2m/s | 0°C | 0% | 0hPa | 0V | 00:00:00 | 00:00:00 | 00:00:00 | |
| PETON7-10 | 2026-08-31 13:56:05 | 48.57138 | 17.78006 | 62° | 82km/h | 8077m | -7.7m/s | 0°C | 0% | 0hPa | 0V | 00:00:00 | 00:00:00 | 00:00:00 | |
| OM5KV | 2026-08-31 13:56:04 | 48.57129 | 17.77979 | 64° | 84km/h | 8085m | -8.4m/s | 0°C | 0% | 0hPa | 0V | 00:00:00 | 00:00:00 | 00:00:00 | |
| OE3OSB-13 | 2026-08-31 13:56:03 | 48.57109 | 17.77923 | 62° | 80km/h | 8104m | -8.8m/s | -26.8°C | 20.7% | 366.2hPa | 0V | 00:00:00 | 00:00:00 | 00:00:00 | |
| OM5KV | 2026-08-31 13:56:01 | 48.57099 | 17.77895 | 64° | 82km/h | 8114m | -9.8m/s | 0°C | 0% | 0hPa | 0V | 00:00:00 | 00:00:00 | 00:00:00 | |
| OM5KV | 2026-08-31 13:55:59 | 48.57081 | 17.77839 | 65° | 82km/h | 8135m | -8.0m/s | 0°C | 0% | 0hPa | 0V | 00:00:00 | 00:00:00 | 00:00:00 | |
| OM5KV | 2026-08-31 13:55:53 | 48.57025 | 17.77670 | 64° | 82km/h | 8192m | -8.7m/s | 0°C | 0% | 0hPa | 0V | 00:00:00 | 00:00:00 | 00:00:00 | |
| PETON7-10 | 2026-08-31 13:55:50 | 48.56997 | 17.77586 | 64° | 86km/h | 8220m | -8.2m/s | 0°C | 0% | 0hPa | 0V | 00:00:00 | 00:00:00 | 00:00:00 | |
| ATIDSZ-14 | 2026-08-31 13:55:48 | 48.56979 | 17.77529 | 66° | 84km/h | 8237m | -7.3m/s | 0°C | 0% | 0hPa | 0V | 00:00:00 | 00:00:00 | 00:00:00 | |
| OM5KV | 2026-08-31 13:55:44 | 48.56943 | 17.77410 | 67° | 86km/h | 8273m | -8.2m/s | 0°C | 0% | 0hPa | 0V | 00:00:00 | 00:00:00 | 00:00:00 | |
| OE3JTB-15 | 2026-08-31 13:55:43 | 48.56934 | 17.77381 | 67° | 88km/h | 8282m | -8.2m/s | 0°C | 0% | 0hPa | 0V | 00:00:00 | 00:00:00 | 00:00:00 | |
| OM5KV | 2026-08-31 13:55:35 | 48.56862 | 17.77138 | 67° | 89km/h | 8355m | -8.4m/s | 0°C | 0% | 0hPa | 0V | 00:00:00 | 00:00:00 | 00:00:00 | |
| OM5KV | 2026-08-31 13:55:33 | 48.56843 | 17.77075 | 66° | 89km/h | 8374m | -7.6m/s | 0°C | 0% | 0hPa | 0V | 00:00:00 | 00:00:00 | 00:00:00 | |
| OE3OSB-13 | 2026-08-31 13:55:32 | 48.56824 | 17.77014 | 65° | 89km/h | 8391m | -8.6m/s | -28.5°C | 19.5% | 351.8hPa | 0V | 00:00:00 | 00:00:00 | 00:00:00 | |
| OM5KV | 2026-08-31 13:55:29 | 48.56805 | 17.76952 | 66° | 89km/h | 8409m | -7.1m/s | 0°C | 0% | 0hPa | 0V | 00:00:00 | 00:00:00 | 00:00:00 | |
| ATIDSZ-14 | 2026-08-31 13:55:27 | 48.56787 | 17.76890 | 67° | 89km/h | 8427m | -7.4m/s | 0°C | 0% | 0hPa | 0V | 00:00:00 | 00:00:00 | 00:00:00 | |
| OM5KV | 2026-08-31 13:55:23 | 48.56751 | 17.76767 | 67° | 86km/h | 8464m | -9.3m/s | 0°C | 0% | 0hPa | 0V | 00:00:00 | 00:00:00 | 00:00:00 | |
| PETON7-10 | 2026-08-31 13:55:19 | 48.56715 | 17.76645 | 67° | 88km/h | 8503m | -8.3m/s | 0°C | 0% | 0hPa | 0V | 00:00:00 | 00:00:00 | 00:00:00 | |
| OM5KV | 2026-08-31 13:55:17 | 48.56696 | 17.76584 | 67° | 89km/h | 8521m | -9.5m/s | 0°C | 0% | 0hPa | 0V | 00:00:00 | 00:00:00 | 00:00:00 | |
| OM5KV | 2026-08-31 13:55:16 | 48.56688 | 17.76553 | 69° | 88km/h | 8531m | -8.9m/s | 0°C | 0% | 0hPa | 0V | 00:00:00 | 00:00:00 | 00:00:00 | |
| OE3JTB-15 | 2026-08-31 13:55:11 | 48.56642 | 17.76399 | 67° | 88km/h | 8576m | -7.4m/s | 0°C | 0% | 0hPa | 0V | 00:00:00 | 00:00:00 | 00:00:00 | |
| OM5KV | 2026-08-31 13:55:10 | 48.56633 | 17.76369 | 67° | 86km/h | 8584m | -7.7m/s | 0°C | 0% | 0hPa | 0V | 00:00:00 | 00:00:00 | 00:00:00 | |
| ATIDSZ-14 | 2026-08-31 13:55:05 | 48.56589 | 17.76218 | 68° | 86km/h | 8633m | -8.9m/s | 0°C | 0% | 0hPa | 0V | 00:00:00 | 00:00:00 | 00:00:00 | |
| PETON7-10 | 2026-08-31 13:55:04 | 48.56580 | 17.76187 | 68° | 86km/h | 8643m | -8.3m/s | 0°C | 0% | 0hPa | 0V | 00:00:00 | 00:00:00 | 00:00:00 | |
| OE3OSB-13 | 2026-08-31 13:55:01 | 48.56545 | 17.76067 | 66° | 86km/h | 8679m | -8.4m/s | -30.9°C | 19.8% | 337.5hPa | 0V | 00:00:00 | 00:00:00 | 00:00:00 | |
| OM5KV | 2026-08-31 13:54:59 | 48.56536 | 17.76037 | 67° | 86km/h | 8687m | -7.4m/s | 0°C | 0% | 0hPa | 0V | 00:00:00 | 00:00:00 | 00:00:00 | |
| OM5KV | 2026-08-31 13:54:58 | 48.56527 | 17.76007 | 67° | 86km/h | 8695m | -7.2m/s | 0°C | 0% | 0hPa | 0V | 00:00:00 | 00:00:00 | 00:00:00 | |
| OM5KV | 2026-08-31 13:54:54 | 48.56492 | 17.75885 | 67° | 86km/h | 8730m | -10.2m/s | 0°C | 0% | 0hPa | 0V | 00:00:00 | 00:00:00 | 00:00:00 | |
| OM5KV | 2026-08-31 13:54:53 | 48.56484 | 17.75855 | 70° | 86km/h | 8740m | -9.7m/s | 0°C | 0% | 0hPa | 0V | 00:00:00 | 00:00:00 | 00:00:00 | |
| OM5KV | 2026-08-31 13:54:49 | 48.56449 | 17.75733 | 68° | 88km/h | 8776m | -8.3m/s | 0°C | 0% | 0hPa | 0V | 00:00:00 | 00:00:00 | 00:00:00 | |
| OM5KV | 2026-08-31 13:54:48 | 48.56440 | 17.75702 | 68° | 88km/h | 8785m | -9.0m/s | 0°C | 0% | 0hPa | 0V | 00:00:00 | 00:00:00 | 00:00:00 | |
| ATIDSZ-14 | 2026-08-31 13:54:45 | 48.56414 | 17.75610 | 67° | 91km/h | 8816m | -10.9m/s | 0°C | 0% | 0hPa | 0V | 00:00:00 | 00:00:00 | 00:00:00 | |
| OM5KV | 2026-08-31 13:54:43 | 48.56396 | 17.75547 | 68° | 88km/h | 8837m | -10.1m/s | 0°C | 0% | 0hPa | 0V | 00:00:00 | 00:00:00 | 00:00:00 | |
| OE3JTB-15 | 2026-08-31 13:54:41 | 48.56379 | 17.75484 | 68° | 88km/h | 8856m | -7.6m/s | 0°C | 0% | 0hPa | 0V | 00:00:00 | 00:00:00 | 00:00:00 | |
| OM5KV | 2026-08-31 13:54:37 | 48.56344 | 17.75360 | 68° | 89km/h | 8894m | -9.6m/s | 0°C | 0% | 0hPa | 0V | 00:00:00 | 00:00:00 | 00:00:00 | |
| PETON7-10 | 2026-08-31 13:54:34 | 48.56319 | 17.75265 | 70° | 89km/h | 8925m | -10.2m/s | 0°C | 0% | 0hPa | 0V | 00:00:00 | 00:00:00 | 00:00:00 | |
| OE3OSB-13 | 2026-08-31 13:54:30 | 48.56279 | 17.75108 | 68° | 89km/h | 8978m | -10.8m/s | -33.6°C | 22.1% | 323.1hPa | 0V | 00:00:00 | 00:00:00 | 00:00:00 | |
| OM5KV | 2026-08-31 13:54:26 | 48.56254 | 17.75014 | 68° | 91km/h | 9011m | -11.1m/s | 0°C | 0% | 0hPa | 0V | 00:00:00 | 00:00:00 | 00:00:00 | |
| OM5KV | 2026-08-31 13:54:25 | 48.56245 | 17.74982 | 69° | 89km/h | 9022m | -9.2m/s | 0°C | 0% | 0hPa | 0V | 00:00:00 | 00:00:00 | 00:00:00 | |
| ATIDSZ-14 | 2026-08-31 13:54:23 | 48.56228 | 17.74918 | 70° | 91km/h | 9043m | -10.1m/s | 0°C | 0% | 0hPa | 0V | 00:00:00 | 00:00:00 | 00:00:00 | |
| PETON7-10 | 2026-08-31 13:54:19 | 48.56194 | 17.74788 | 69° | 93km/h | 9086m | -9.3m/s | 0°C | 0% | 0hPa | 0V | 00:00:00 | 00:00:00 | 00:00:00 | |
| OM5KV | 2026-08-31 13:54:09 | 48.56107 | 17.74457 | 70° | 93km/h | 9186m | -9.5m/s | 0°C | 0% | 0hPa | 0V | 00:00:00 | 00:00:00 | 00:00:00 | |
| PETON7-10 | 2026-08-31 13:54:04 | 48.56064 | 17.74291 | 70° | 97km/h | 9231m | -8.8m/s | 0°C | 0% | 0hPa | 0V | 00:00:00 | 00:00:00 | 00:00:00 | |
| OM5KV | 2026-08-31 13:54:03 | 48.56055 | 17.74257 | 70° | 95km/h | 9241m | -9.4m/s | 0°C | 0% | 0hPa | 0V | 00:00:00 | 00:00:00 | 00:00:00 | |
| ATIDSZ-14 | 2026-08-31 13:54:01 | 48.56038 | 17.74190 | 69° | 95km/h | 9261m | -10.1m/s | 0°C | 0% | 0hPa | 0V | 00:00:00 | 00:00:00 | 00:00:00 | |
| OE3OSB-13 | 2026-08-31 13:53:59 | 48.56012 | 17.74087 | 68° | 95km/h | 9288m | -8.2m/s | -35.9°C | 36.9% | 308.9hPa | 0V | 00:00:00 | 00:00:00 | 00:00:00 | |
| OM5KV | 2026-08-31 13:53:58 | 48.56012 | 17.74087 | 70° | 97km/h | 9288m | -8.2m/s | 0°C | 0% | 0hPa | 0V | 00:00:00 | 00:00:00 | 00:00:00 | |
| OM5KV | 2026-08-31 13:53:56 | 48.55994 | 17.74018 | 70° | 97km/h | 9308m | -9.1m/s | 0°C | 0% | 0hPa | 0V | 00:00:00 | 00:00:00 | 00:00:00 | |
| OM5KV | 2026-08-31 13:53:50 | 48.55942 | 17.73809 | 71° | 100km/h | 9370m | -10.9m/s | 0°C | 0% | 0hPa | 0V | 00:00:00 | 00:00:00 | 00:00:00 | |
| PETON7-10 | 2026-08-31 13:53:48 | 48.55925 | 17.73740 | 69° | 100km/h | 9392m | -10.4m/s | 0°C | 0% | 0hPa | 0V | 00:00:00 | 00:00:00 | 00:00:00 | |
| OM5KV | 2026-08-31 13:53:45 | 48.55899 | 17.73635 | 71° | 100km/h | 9425m | -9.9m/s | 0°C | 0% | 0hPa | 0V | 00:00:00 | 00:00:00 | 00:00:00 | |
| OM5KV | 2026-08-31 13:53:43 | 48.55881 | 17.73564 | 70° | 102km/h | 9446m | -9.1m/s | 0°C | 0% | 0hPa | 0V | 00:00:00 | 00:00:00 | 00:00:00 | |
| OM5KV | 2026-08-31 13:53:40 | 48.55855 | 17.73456 | 71° | 102km/h | 9474m | -8.9m/s | 0°C | 0% | 0hPa | 0V | 00:00:00 | 00:00:00 | 00:00:00 | |
| OM5KV | 2026-08-31 13:53:37 | 48.55829 | 17.73347 | 74° | 102km/h | 9505m | -9.1m/s | 0°C | 0% | 0hPa | 0V | 00:00:00 | 00:00:00 | 00:00:00 | |
| OM5KV | 2026-08-31 13:53:35 | 48.55813 | 17.73274 | 72° | 102km/h | 9526m | -8.6m/s | 0°C | 0% | 0hPa | 0V | 00:00:00 | 00:00:00 | 00:00:00 | |
| OE3JTB-15 | 2026-08-31 13:53:34 | 48.55805 | 17.73237 | 71° | 110km/h | 9535m | -8.7m/s | 0°C | 0% | 0hPa | 0V | 00:00:00 | 00:00:00 | 00:00:00 | |
| PETON7-10 | 2026-08-31 13:53:32 | 48.55788 | 17.73163 | 72° | 104km/h | 9554m | -9.7m/s | 0°C | 0% | 0hPa | 0V | 00:00:00 | 00:00:00 | 00:00:00 | |
| OM5KV | 2026-08-31 13:53:31 | 48.55780 | 17.73126 | 72° | 102km/h | 9566m | -11.4m/s | 0°C | 0% | 0hPa | 0V | 00:00:00 | 00:00:00 | 00:00:00 | |
| OM5KV | 2026-08-31 13:53:29 | 48.55764 | 17.73051 | 72° | 104km/h | 9589m | -10.9m/s | 0°C | 0% | 0hPa | 0V | 00:00:00 | 00:00:00 | 00:00:00 | |
| OE3OSB-13 | 2026-08-31 13:53:28 | 48.55747 | 17.72976 | 70° | 104km/h | 9610m | -9.6m/s | -38.4°C | 34.5% | 294.6hPa | 0V | 00:00:00 | 00:00:00 | 00:00:00 | |
| OM5KV | 2026-08-31 13:53:25 | 48.55730 | 17.72900 | 72° | 102km/h | 9630m | -9.3m/s | 0°C | 0% | 0hPa | 0V | 00:00:00 | 00:00:00 | 00:00:00 | |
| OM5KV | 2026-08-31 13:53:24 | 48.55722 | 17.72863 | 71° | 106km/h | 9639m | -9.2m/s | 0°C | 0% | 0hPa | 0V | 00:00:00 | 00:00:00 | 00:00:00 | |
| OM5KV | 2026-08-31 13:53:20 | 48.55686 | 17.72713 | 72° | 104km/h | 9679m | -9.9m/s | 0°C | 0% | 0hPa | 0V | 00:00:00 | 00:00:00 | 00:00:00 | |
| ATIDSZ-14 | 2026-08-31 13:53:19 | 48.55678 | 17.72676 | 72° | 104km/h | 9689m | -10.2m/s | 0°C | 0% | 0hPa | 0V | 00:00:00 | 00:00:00 | 00:00:00 | |
| PETON7-10 | 2026-08-31 13:53:17 | 48.55661 | 17.72602 | 72° | 102km/h | 9710m | -10.0m/s | 0°C | 0% | 0hPa | 0V | 00:00:00 | 00:00:00 | 00:00:00 | |
| OM5KV | 2026-08-31 13:53:14 | 48.55634 | 17.72491 | 70° | 104km/h | 9740m | -10.4m/s | 0°C | 0% | 0hPa | 0V | 00:00:00 | 00:00:00 | 00:00:00 | |
| PG1ADW-2 | 2026-08-31 13:53:10 | 48.55599 | 17.72342 | 72° | 86km/h | 9783m | -8.3m/s | 0°C | 0% | 0hPa | 0V | 00:00:00 | 00:00:00 | 00:00:00 | |
| OM5KV | 2026-08-31 13:53:08 | 48.55582 | 17.72269 | 72° | 104km/h | 9803m | -8.8m/s | 0°C | 0% | 0hPa | 0V | 00:00:00 | 00:00:00 | 00:00:00 | |
| OM5KV | 2026-08-31 13:53:07 | 48.55573 | 17.72231 | 74° | 104km/h | 9813m | -10.6m/s | 0°C | 0% | 0hPa | 0V | 00:00:00 | 00:00:00 | 00:00:00 | |
| OM5KV | 2026-08-31 13:53:02 | 48.55534 | 17.72044 | 74° | 104km/h | 9867m | -10.6m/s | 0°C | 0% | 0hPa | 0V | 00:00:00 | 00:00:00 | 00:00:00 | |
| PETON7-10 | 2026-08-31 13:53:01 | 48.55526 | 17.72006 | 72° | 106km/h | 9878m | -9.4m/s | 0°C | 0% | 0hPa | 0V | 00:00:00 | 00:00:00 | 00:00:00 | |
| ATIDSZ-14 | 2026-08-31 13:52:57 | 48.55494 | 17.71853 | 74° | 106km/h | 9917m | -9.6m/s | 0°C | 0% | 0hPa | 0V | 00:00:00 | 00:00:00 | 00:00:00 | |
| OM5KV | 2026-08-31 13:52:56 | 48.55487 | 17.71815 | 75° | 104km/h | 9927m | -10.6m/s | 0°C | 0% | 0hPa | 0V | 00:00:00 | 00:00:00 | 00:00:00 | |
| OM5KV | 2026-08-31 13:52:50 | 48.55442 | 17.71584 | 74° | 104km/h | 9994m | -11.5m/s | 0°C | 0% | 0hPa | 0V | 00:00:00 | 00:00:00 | 00:00:00 | |
| OM5KV | 2026-08-31 13:52:48 | 48.55427 | 17.71506 | 75° | 108km/h | 10015m | -10.5m/s | 0°C | 0% | 0hPa | 0V | 00:00:00 | 00:00:00 | 00:00:00 | |
| PETON7-10 | 2026-08-31 13:52:45 | 48.55405 | 17.71390 | 75° | 106km/h | 10049m | -9.0m/s | 0°C | 0% | 0hPa | 0V | 00:00:00 | 00:00:00 | 00:00:00 | |
| OM5KV | 2026-08-31 13:52:43 | 48.55391 | 17.71312 | 76° | 104km/h | 10068m | -8.5m/s | 0°C | 0% | 0hPa | 0V | 00:00:00 | 00:00:00 | 00:00:00 | |
| OM5KV | 2026-08-31 13:52:40 | 48.55370 | 17.71194 | 76° | 106km/h | 10101m | -9.4m/s | 0°C | 0% | 0hPa | 0V | 00:00:00 | 00:00:00 | 00:00:00 | |
| ATIDSZ-14 | 2026-08-31 13:52:37 | 48.55350 | 17.71077 | 76° | 108km/h | 10134m | -9.5m/s | 0°C | 0% | 0hPa | 0V | 00:00:00 | 00:00:00 | 00:00:00 | |
| OM5KV | 2026-08-31 13:52:34 | 48.55330 | 17.70960 | 76° | 108km/h | 10167m | -9.9m/s | 0°C | 0% | 0hPa | 0V | 00:00:00 | 00:00:00 | 00:00:00 | |
| PETON7-10 | 2026-08-31 13:52:28 | 48.55290 | 17.70724 | 76° | 108km/h | 10233m | -11.7m/s | 0°C | 0% | 0hPa | 0V | 00:00:00 | 00:00:00 | 00:00:00 | |
| OE3OSB-13 | 2026-08-31 13:52:26 | 48.55270 | 17.70605 | 76° | 106km/h | 10266m | -8.5m/s | -43.8°C | 49.2% | 267.1hPa | 0V | 00:00:00 | 00:00:00 | 00:00:00 | |
| OM5KV | 2026-08-31 13:52:22 | 48.55250 | 17.70486 | 78° | 108km/h | 10296m | -9.9m/s | 0°C | 0% | 0hPa | 0V | 00:00:00 | 00:00:00 | 00:00:00 | |
| OM5KV | 2026-08-31 13:52:19 | 48.55232 | 17.70367 | 78° | 108km/h | 10328m | -9.4m/s | 0°C | 0% | 0hPa | 0V | 00:00:00 | 00:00:00 | 00:00:00 | |
| ATIDSZ-14 | 2026-08-31 13:52:14 | 48.55199 | 17.70167 | 78° | 108km/h | 10379m | -10.1m/s | 0°C | 0% | 0hPa | 0V | 00:00:00 | 00:00:00 | 00:00:00 | |
| PETON7-10 | 2026-08-31 13:52:13 | 48.55193 | 17.70127 | 77° | 108km/h | 10390m | -9.1m/s | 0°C | 0% | 0hPa | 0V | 00:00:00 | 00:00:00 | 00:00:00 | |
| OM5KV | 2026-08-31 13:52:08 | 48.55162 | 17.69929 | 78° | 106km/h | 10445m | -10.4m/s | 0°C | 0% | 0hPa | 0V | 00:00:00 | 00:00:00 | 00:00:00 | |
| OE3OSB-13 | 2026-08-31 13:51:54 | 48.55068 | 17.69329 | 74° | 106km/h | 10605m | -9.5m/s | -46.8°C | 35.3% | 253.6hPa | 0V | 00:00:00 | 00:00:00 | 00:00:00 | |
| ATIDSZ-14 | 2026-08-31 13:51:53 | 48.55068 | 17.69329 | 76° | 108km/h | 10605m | -9.5m/s | 0°C | 0% | 0hPa | 0V | 00:00:00 | 00:00:00 | 00:00:00 | |
| OM5KV | 2026-08-31 13:51:52 | 48.55060 | 17.69289 | 75° | 111km/h | 10615m | -10.0m/s | 0°C | 0% | 0hPa | 0V | 00:00:00 | 00:00:00 | 00:00:00 | |
| OM5KV | 2026-08-31 13:51:47 | 48.55025 | 17.69084 | 78° | 115km/h | 10669m | -9.2m/s | 0°C | 0% | 0hPa | 0V | 00:00:00 | 00:00:00 | 00:00:00 | |
| OM5KV | 2026-08-31 13:51:46 | 48.55018 | 17.69042 | 77° | 117km/h | 10680m | -11.2m/s | 0°C | 0% | 0hPa | 0V | 00:00:00 | 00:00:00 | 00:00:00 | |
| PETON7-10 | 2026-08-31 13:51:43 | 48.54998 | 17.68912 | 78° | 120km/h | 10709m | -10.8m/s | 0°C | 0% | 0hPa | 0V | 00:00:00 | 00:00:00 | 00:00:00 | |
| OM5KV | 2026-08-31 13:51:37 | 48.54958 | 17.68651 | 78° | 119km/h | 10778m | -10.2m/s | 0°C | 0% | 0hPa | 0V | 00:00:00 | 00:00:00 | 00:00:00 | |
| ATIDSZ-14 | 2026-08-31 13:51:33 | 48.54932 | 17.68471 | 78° | 124km/h | 10821m | -11.7m/s | 0°C | 0% | 0hPa | 0V | 00:00:00 | 00:00:00 | 00:00:00 | |
| OM5KV | 2026-08-31 13:51:30 | 48.54911 | 17.68333 | 78° | 124km/h | 10856m | -10.7m/s | 0°C | 0% | 0hPa | 0V | 00:00:00 | 00:00:00 | 00:00:00 | |
| PETON7-10 | 2026-08-31 13:51:28 | 48.54896 | 17.68240 | 77° | 124km/h | 10878m | -10.8m/s | 0°C | 0% | 0hPa | 0V | 00:00:00 | 00:00:00 | 00:00:00 | |
| OM5KV | 2026-08-31 13:51:23 | 48.54860 | 17.68007 | 77° | 122km/h | 10929m | -11.6m/s | 0°C | 0% | 0hPa | 0V | 00:00:00 | 00:00:00 | 00:00:00 | |
| OM5KV | 2026-08-31 13:51:21 | 48.54844 | 17.67915 | 76° | 126km/h | 10952m | -10.7m/s | 0°C | 0% | 0hPa | 0V | 00:00:00 | 00:00:00 | 00:00:00 | |
| OM5KV | 2026-08-31 13:51:18 | 48.54822 | 17.67777 | 77° | 124km/h | 10984m | -11.1m/s | 0°C | 0% | 0hPa | 0V | 00:00:00 | 00:00:00 | 00:00:00 | |
| OM5KV | 2026-08-31 13:51:15 | 48.54799 | 17.67640 | 77° | 124km/h | 11018m | -11.3m/s | 0°C | 0% | 0hPa | 0V | 00:00:00 | 00:00:00 | 00:00:00 | |
| PETON7-10 | 2026-08-31 13:51:13 | 48.54782 | 17.67549 | 74° | 128km/h | 11042m | -11.5m/s | 0°C | 0% | 0hPa | 0V | 00:00:00 | 00:00:00 | 00:00:00 | |
| ATIDSZ-14 | 2026-08-31 13:51:12 | 48.54773 | 17.67503 | 75° | 126km/h | 11054m | -11.5m/s | 0°C | 0% | 0hPa | 0V | 00:00:00 | 00:00:00 | 00:00:00 | |
| OM5KV | 2026-08-31 13:51:09 | 48.54749 | 17.67367 | 75° | 124km/h | 11088m | -11.4m/s | 0°C | 0% | 0hPa | 0V | 00:00:00 | 00:00:00 | 00:00:00 | |
| OM5KV | 2026-08-31 13:51:07 | 48.54731 | 17.67273 | 77° | 128km/h | 11111m | -10.1m/s | 0°C | 0% | 0hPa | 0V | 00:00:00 | 00:00:00 | 00:00:00 | |
| OM5KV | 2026-08-31 13:51:01 | 48.54683 | 17.66986 | 78° | 130km/h | 11172m | -11.4m/s | 0°C | 0% | 0hPa | 0V | 00:00:00 | 00:00:00 | 00:00:00 | |
| PETON7-10 | 2026-08-31 13:50:58 | 48.54659 | 17.66841 | 77° | 133km/h | 11206m | -11.1m/s | 0°C | 0% | 0hPa | 0V | 00:00:00 | 00:00:00 | 00:00:00 | |
| OM5KV | 2026-08-31 13:50:57 | 48.54651 | 17.66793 | 76° | 130km/h | 11217m | -11.3m/s | 0°C | 0% | 0hPa | 0V | 00:00:00 | 00:00:00 | 00:00:00 | |
| OM5KV | 2026-08-31 13:50:55 | 48.54635 | 17.66696 | 78° | 131km/h | 11239m | -9.9m/s | 0°C | 0% | 0hPa | 0V | 00:00:00 | 00:00:00 | 00:00:00 | |
| ATIDSZ-14 | 2026-08-31 13:50:52 | 48.54612 | 17.66549 | 78° | 133km/h | 11271m | -12.9m/s | 0°C | 0% | 0hPa | 0V | 00:00:00 | 00:00:00 | 00:00:00 | |
| OM5KV | 2026-08-31 13:50:47 | 48.54574 | 17.66301 | 78° | 137km/h | 11326m | -12.4m/s | 0°C | 0% | 0hPa | 0V | 00:00:00 | 00:00:00 | 00:00:00 | |
| OM5KV | 2026-08-31 13:50:43 | 48.54541 | 17.66101 | 77° | 135km/h | 11373m | -10.4m/s | 0°C | 0% | 0hPa | 0V | 00:00:00 | 00:00:00 | 00:00:00 | |
| PETON7-10 | 2026-08-31 13:50:42 | 48.54533 | 17.66051 | 77° | 137km/h | 11383m | -9.5m/s | 0°C | 0% | 0hPa | 0V | 00:00:00 | 00:00:00 | 00:00:00 | |
| OM5KV | 2026-08-31 13:50:41 | 48.54525 | 17.66001 | 77° | 133km/h | 11393m | -9.3m/s | 0°C | 0% | 0hPa | 0V | 00:00:00 | 00:00:00 | 00:00:00 | |
| OM5KV | 2026-08-31 13:50:38 | 48.54502 | 17.65849 | 79° | 137km/h | 11426m | -10.7m/s | 0°C | 0% | 0hPa | 0V | 00:00:00 | 00:00:00 | 00:00:00 | |
| OM5KV | 2026-08-31 13:50:35 | 48.54479 | 17.65698 | 79° | 137km/h | 11460m | -10.4m/s | 0°C | 0% | 0hPa | 0V | 00:00:00 | 00:00:00 | 00:00:00 | |
| ATIDSZ-14 | 2026-08-31 13:50:32 | 48.54458 | 17.65543 | 79° | 141km/h | 11492m | -8.2m/s | 0°C | 0% | 0hPa | 0V | 00:00:00 | 00:00:00 | 00:00:00 | |
| OM5KV | 2026-08-31 13:50:30 | 48.54443 | 17.65440 | 79° | 137km/h | 11514m | -10.8m/s | 0°C | 0% | 0hPa | 0V | 00:00:00 | 00:00:00 | 00:00:00 | |
| PETON7-10 | 2026-08-31 13:50:27 | 48.54421 | 17.65285 | 78° | 142km/h | 11547m | -10.6m/s | 0°C | 0% | 0hPa | 0V | 00:00:00 | 00:00:00 | 00:00:00 | |
| OM5KV | 2026-08-31 13:50:24 | 48.54398 | 17.65130 | 78° | 142km/h | 11583m | -10.9m/s | 0°C | 0% | 0hPa | 0V | 00:00:00 | 00:00:00 | 00:00:00 | |
| OM5KV | 2026-08-31 13:50:21 | 48.54376 | 17.64972 | 79° | 142km/h | 11614m | -9.8m/s | 0°C | 0% | 0hPa | 0V | 00:00:00 | 00:00:00 | 00:00:00 | |
| OM5KV | 2026-08-31 13:50:15 | 48.54333 | 17.64652 | 79° | 142km/h | 11683m | -11.1m/s | 0°C | 0% | 0hPa | 0V | 00:00:00 | 00:00:00 | 00:00:00 | |
| OM5KV | 2026-08-31 13:50:13 | 48.54318 | 17.64546 | 79° | 144km/h | 11705m | -9.2m/s | 0°C | 0% | 0hPa | 0V | 00:00:00 | 00:00:00 | 00:00:00 | |
| PETON7-10 | 2026-08-31 13:50:12 | 48.54310 | 17.64492 | 79° | 144km/h | 11714m | -7.8m/s | 0°C | 0% | 0hPa | 0V | 00:00:00 | 00:00:00 | 00:00:00 | |
| OM5KV | 2026-08-31 13:50:10 | 48.54295 | 17.64385 | 79° | 144km/h | 11734m | -10.1m/s | 0°C | 0% | 0hPa | 0V | 00:00:00 | 00:00:00 | 00:00:00 | |
| OE3JTB-15 | 2026-08-31 13:50:09 | 48.54287 | 17.64331 | 78° | 144km/h | 11744m | -9.6m/s | 0°C | 0% | 0hPa | 0V | 00:00:00 | 00:00:00 | 00:00:00 | |
| OM5KV | 2026-08-31 13:50:04 | 48.54248 | 17.64063 | 79° | 146km/h | 11799m | -10.8m/s | 0°C | 0% | 0hPa | 0V | 00:00:00 | 00:00:00 | 00:00:00 | |
| OM5KV | 2026-08-31 13:50:02 | 48.54232 | 17.63956 | 78° | 142km/h | 11821m | -10.7m/s | 0°C | 0% | 0hPa | 0V | 00:00:00 | 00:00:00 | 00:00:00 | |
| OM5KV | 2026-08-31 13:49:58 | 48.54201 | 17.63742 | 80° | 144km/h | 11866m | -12.4m/s | 0°C | 0% | 0hPa | 0V | 00:00:00 | 00:00:00 | 00:00:00 | |
| PETON7-10 | 2026-08-31 13:49:57 | 48.54193 | 17.63688 | 79° | 142km/h | 11878m | -11.3m/s | 0°C | 0% | 0hPa | 0V | 00:00:00 | 00:00:00 | 00:00:00 | |
| OM5KV | 2026-08-31 13:49:56 | 48.54186 | 17.63635 | 78° | 142km/h | 11889m | -11.4m/s | 0°C | 0% | 0hPa | 0V | 00:00:00 | 00:00:00 | 00:00:00 | |
| OM5KV | 2026-08-31 13:49:52 | 48.54156 | 17.63421 | 78° | 142km/h | 11932m | -12.0m/s | 0°C | 0% | 0hPa | 0V | 00:00:00 | 00:00:00 | 00:00:00 | |
| ATIDSZ-14 | 2026-08-31 13:49:51 | 48.54148 | 17.63368 | 79° | 141km/h | 11944m | -11.7m/s | 0°C | 0% | 0hPa | 0V | 00:00:00 | 00:00:00 | 00:00:00 | |
| OM5KV | 2026-08-31 13:49:50 | 48.54140 | 17.63316 | 78° | 141km/h | 11955m | -10.4m/s | 0°C | 0% | 0hPa | 0V | 00:00:00 | 00:00:00 | 00:00:00 | |
| OM5KV | 2026-08-31 13:49:46 | 48.54110 | 17.63107 | 78° | 142km/h | 12001m | -11.6m/s | 0°C | 0% | 0hPa | 0V | 00:00:00 | 00:00:00 | 00:00:00 | |
| OM5KV | 2026-08-31 13:49:44 | 48.54095 | 17.63000 | 79° | 144km/h | 12024m | -12.0m/s | 0°C | 0% | 0hPa | 0V | 00:00:00 | 00:00:00 | 00:00:00 | |
| PETON7-10 | 2026-08-31 13:49:42 | 48.54078 | 17.62892 | 77° | 146km/h | 12048m | -11.3m/s | 0°C | 0% | 0hPa | 0V | 00:00:00 | 00:00:00 | 00:00:00 | |
| OM5KV | 2026-08-31 13:49:40 | 48.54062 | 17.62785 | 79° | 144km/h | 12070m | -10.8m/s | 0°C | 0% | 0hPa | 0V | 00:00:00 | 00:00:00 | 00:00:00 | |
| OM5KV | 2026-08-31 13:49:39 | 48.54055 | 17.62732 | 80° | 142km/h | 12081m | -11.0m/s | 0°C | 0% | 0hPa | 0V | 00:00:00 | 00:00:00 | 00:00:00 | |
| OE3JTB-15 | 2026-08-31 13:49:36 | 48.54032 | 17.62570 | 77° | 68km/h | 12112m | -9.9m/s | 0°C | 0% | 0hPa | 0V | 00:00:00 | 00:00:00 | 00:00:00 | |
| ATIDSZ-14 | 2026-08-31 13:49:31 | 48.53994 | 17.62295 | 79° | 146km/h | 12170m | -11.8m/s | 0°C | 0% | 0hPa | 0V | 00:00:00 | 00:00:00 | 00:00:00 | |
| PETON7-10 | 2026-08-31 13:49:27 | 48.53964 | 17.62078 | 79° | 144km/h | 12215m | -10.8m/s | 0°C | 0% | 0hPa | 0V | 00:00:00 | 00:00:00 | 00:00:00 | |
| OM5KV | 2026-08-31 13:49:22 | 48.53926 | 17.61806 | 80° | 144km/h | 12271m | -11.4m/s | 0°C | 0% | 0hPa | 0V | 00:00:00 | 00:00:00 | 00:00:00 | |
| OM5KV | 2026-08-31 13:49:20 | 48.53912 | 17.61699 | 80° | 142km/h | 12294m | -11.3m/s | 0°C | 0% | 0hPa | 0V | 00:00:00 | 00:00:00 | 00:00:00 | |
| OE3OSB-13 | 2026-08-31 13:49:19 | 48.53898 | 17.61592 | 78° | 142km/h | 12316m | -11.7m/s | -55.3°C | 9.2% | 193.5hPa | 0V | 00:00:00 | 00:00:00 | 00:00:00 | |
| OM5KV | 2026-08-31 13:49:16 | 48.53883 | 17.61486 | 79° | 142km/h | 12339m | -11.4m/s | 0°C | 0% | 0hPa | 0V | 00:00:00 | 00:00:00 | 00:00:00 | |
| PETON7-10 | 2026-08-31 13:49:12 | 48.53851 | 17.61274 | 77° | 139km/h | 12384m | -11.4m/s | 0°C | 0% | 0hPa | 0V | 00:00:00 | 00:00:00 | 00:00:00 | |
| OM5KV | 2026-08-31 13:49:09 | 48.53828 | 17.61115 | 79° | 142km/h | 12419m | -11.8m/s | 0°C | 0% | 0hPa | 0V | 00:00:00 | 00:00:00 | 00:00:00 | |
| OM5KV | 2026-08-31 13:49:05 | 48.53798 | 17.60906 | 80° | 139km/h | 12465m | -11.9m/s | 0°C | 0% | 0hPa | 0V | 00:00:00 | 00:00:00 | 00:00:00 | |
| OM5KV | 2026-08-31 13:49:03 | 48.53784 | 17.60804 | 80° | 135km/h | 12489m | -12.1m/s | 0°C | 0% | 0hPa | 0V | 00:00:00 | 00:00:00 | 00:00:00 | |
| OE3OSB-13 | 2026-08-31 13:48:48 | 48.53672 | 17.60005 | 78° | 131km/h | 12675m | -11.2m/s | -56.3°C | 5.1% | 182.6hPa | 0V | 00:00:00 | 00:00:00 | 00:00:00 | |
| OM5KV | 2026-08-31 13:48:46 | 48.53664 | 17.59955 | 78° | 133km/h | 12686m | -11.1m/s | 0°C | 0% | 0hPa | 0V | 00:00:00 | 00:00:00 | 00:00:00 | |
| OM5KV | 2026-08-31 13:48:44 | 48.53651 | 17.59857 | 80° | 130km/h | 12708m | -10.8m/s | 0°C | 0% | 0hPa | 0V | 00:00:00 | 00:00:00 | 00:00:00 | |
| PETON7-10 | 2026-08-31 13:48:41 | 48.53631 | 17.59714 | 79° | 126km/h | 12743m | -11.8m/s | 0°C | 0% | 0hPa | 0V | 00:00:00 | 00:00:00 | 00:00:00 | |
| OM5KV | 2026-08-31 13:48:38 | 48.53612 | 17.59569 | 79° | 128km/h | 12779m | -12.9m/s | 0°C | 0% | 0hPa | 0V | 00:00:00 | 00:00:00 | 00:00:00 | |
| OM5KV | 2026-08-31 13:48:32 | 48.53573 | 17.59281 | 79° | 124km/h | 12849m | -11.8m/s | 0°C | 0% | 0hPa | 0V | 00:00:00 | 00:00:00 | 00:00:00 | |
| ATIDSZ-14 | 2026-08-31 13:48:30 | 48.53561 | 17.59190 | 80° | 122km/h | 12873m | -12.1m/s | 0°C | 0% | 0hPa | 0V | 00:00:00 | 00:00:00 | 00:00:00 | |
| PETON7-10 | 2026-08-31 13:48:25 | 48.53531 | 17.58955 | 81° | 124km/h | 12931m | -10.6m/s | 0°C | 0% | 0hPa | 0V | 00:00:00 | 00:00:00 | 00:00:00 | |
| OE3OSB-13 | 2026-08-31 13:48:17 | 48.53486 | 17.58534 | 80° | 124km/h | 13033m | -11.6m/s | -57.1°C | 0% | 172.4hPa | 0V | 00:00:00 | 00:00:00 | 00:00:00 | |
| HA6NAB-11 | 2026-08-31 13:48:16 | 48.53486 | 17.58534 | 82° | 124km/h | 13033m | -11.6m/s | 0°C | 0% | 0hPa | 0V | 00:00:00 | 00:00:00 | 00:00:00 | |
| OM5KV | 2026-08-31 13:48:15 | 48.53481 | 17.58488 | 81° | 124km/h | 13044m | -9.5m/s | 0°C | 0% | 0hPa | 0V | 00:00:00 | 00:00:00 | 00:00:00 | |
| OM5KV | 2026-08-31 13:48:14 | 48.53476 | 17.58442 | 81° | 120km/h | 13055m | -12.0m/s | 0°C | 0% | 0hPa | 0V | 00:00:00 | 00:00:00 | 00:00:00 | |
| PETON7-10 | 2026-08-31 13:48:10 | 48.53456 | 17.58260 | 81° | 120km/h | 13101m | -11.2m/s | 0°C | 0% | 0hPa | 0V | 00:00:00 | 00:00:00 | 00:00:00 | |
| OM5KV | 2026-08-31 13:48:08 | 48.53445 | 17.58168 | 82° | 122km/h | 13124m | -10.9m/s | 0°C | 0% | 0hPa | 0V | 00:00:00 | 00:00:00 | 00:00:00 | |
| OM5KV | 2026-08-31 13:48:04 | 48.53424 | 17.57986 | 82° | 120km/h | 13170m | -13.0m/s | 0°C | 0% | 0hPa | 0V | 00:00:00 | 00:00:00 | 00:00:00 | |
| OM5KV | 2026-08-31 13:48:02 | 48.53413 | 17.57898 | 79° | 119km/h | 13194m | -12.2m/s | 0°C | 0% | 0hPa | 0V | 00:00:00 | 00:00:00 | 00:00:00 | |
| HA6NAB-11 | 2026-08-31 13:48:00 | 48.53400 | 17.57808 | 80° | 120km/h | 13219m | -11.6m/s | 0°C | 0% | 0hPa | 0V | 00:00:00 | 00:00:00 | 00:00:00 | |
| OE3OSB-13 | 2026-08-31 13:47:46 | 48.53300 | 17.57163 | 76° | 117km/h | 13394m | -11.8m/s | -58.4°C | 0.1% | 162.5hPa | 0V | 00:00:00 | 00:00:00 | 00:00:00 | |
| OM5KV | 2026-08-31 13:47:44 | 48.53294 | 17.57119 | 79° | 119km/h | 13405m | -11.4m/s | 0°C | 0% | 0hPa | 0V | 00:00:00 | 00:00:00 | 00:00:00 | |
| OM5KV | 2026-08-31 13:47:43 | 48.53288 | 17.57075 | 79° | 120km/h | 13416m | -11.1m/s | 0°C | 0% | 0hPa | 0V | 00:00:00 | 00:00:00 | 00:00:00 | |
| HA6NAB-11 | 2026-08-31 13:47:41 | 48.53276 | 17.56986 | 80° | 119km/h | 13436m | -10.1m/s | 0°C | 0% | 0hPa | 0V | 00:00:00 | 00:00:00 | 00:00:00 | |
| PETON7-10 | 2026-08-31 13:47:39 | 48.53265 | 17.56896 | 81° | 120km/h | 13459m | -12.0m/s | 0°C | 0% | 0hPa | 0V | 00:00:00 | 00:00:00 | 00:00:00 | |
| OM5KV | 2026-08-31 13:47:38 | 48.53260 | 17.56850 | 83° | 120km/h | 13471m | -11.5m/s | 0°C | 0% | 0hPa | 0V | 00:00:00 | 00:00:00 | 00:00:00 | |
| HA6NAB-11 | 2026-08-31 13:47:36 | 48.53252 | 17.56758 | 84° | 124km/h | 13494m | -10.9m/s | 0°C | 0% | 0hPa | 0V | 00:00:00 | 00:00:00 | 00:00:00 | |
| OM5KV | 2026-08-31 13:47:33 | 48.53243 | 17.56617 | 86° | 122km/h | 13529m | -10.7m/s | 0°C | 0% | 0hPa | 0V | 00:00:00 | 00:00:00 | 00:00:00 | |
| OM5KV | 2026-08-31 13:47:32 | 48.53240 | 17.56571 | 86° | 122km/h | 13540m | -9.7m/s | 0°C | 0% | 0hPa | 0V | 00:00:00 | 00:00:00 | 00:00:00 | |
| ATIDSZ-14 | 2026-08-31 13:47:29 | 48.53232 | 17.56434 | 86° | 119km/h | 13572m | -9.9m/s | 0°C | 0% | 0hPa | 0V | 00:00:00 | 00:00:00 | 00:00:00 | |
| OM5KV | 2026-08-31 13:47:28 | 48.53230 | 17.56388 | 86° | 119km/h | 13584m | -10.7m/s | 0°C | 0% | 0hPa | 0V | 00:00:00 | 00:00:00 | 00:00:00 | |
| OM5KV | 2026-08-31 13:47:27 | 48.53227 | 17.56343 | 86° | 119km/h | 13595m | -10.5m/s | 0°C | 0% | 0hPa | 0V | 00:00:00 | 00:00:00 | 00:00:00 | |
| PETON7-10 | 2026-08-31 13:47:24 | 48.53219 | 17.56212 | 85° | 106km/h | 13629m | -10.6m/s | 0°C | 0% | 0hPa | 0V | 00:00:00 | 00:00:00 | 00:00:00 | |
| OM5KV | 2026-08-31 13:47:22 | 48.53214 | 17.56125 | 86° | 115km/h | 13650m | -10.6m/s | 0°C | 0% | 0hPa | 0V | 00:00:00 | 00:00:00 | 00:00:00 | |
| HA6NAB-11 | 2026-08-31 13:47:18 | 48.53208 | 17.55953 | 89° | 113km/h | 13696m | -12.0m/s | 0°C | 0% | 0hPa | 0V | 00:00:00 | 00:00:00 | 00:00:00 | |
| OM5KV | 2026-08-31 13:47:17 | 48.53208 | 17.55910 | 90° | 113km/h | 13709m | -12.5m/s | 0°C | 0% | 0hPa | 0V | 00:00:00 | 00:00:00 | 00:00:00 | |
| OM5KV | 2026-08-31 13:47:16 | 48.53207 | 17.55868 | 91° | 110km/h | 13721m | -11.6m/s | 0°C | 0% | 0hPa | 0V | 00:00:00 | 00:00:00 | 00:00:00 | |
| OE3OSB-13 | 2026-08-31 13:47:15 | 48.53206 | 17.55787 | 88° | 102km/h | 13744m | -12.4m/s | -57.1°C | 0.0% | 153.5hPa | 0V | 00:00:00 | 00:00:00 | 00:00:00 | |
| OM5KV | 2026-08-31 13:47:11 | 48.53204 | 17.55669 | 89° | 100km/h | 13781m | -11.2m/s | 0°C | 0% | 0hPa | 0V | 00:00:00 | 00:00:00 | 00:00:00 | |
| OM5KV | 2026-08-31 13:47:10 | 48.53203 | 17.55632 | 88° | 97km/h | 13792m | -11.4m/s | 0°C | 0% | 0hPa | 0V | 00:00:00 | 00:00:00 | 00:00:00 | |
| PETON7-10 | 2026-08-31 13:47:08 | 48.53200 | 17.55558 | 87° | 86km/h | 13814m | -11.8m/s | 0°C | 0% | 0hPa | 0V | 00:00:00 | 00:00:00 | 00:00:00 | |
| OM5KV | 2026-08-31 13:47:06 | 48.53196 | 17.55488 | 85° | 91km/h | 13838m | -10.8m/s | 0°C | 0% | 0hPa | 0V | 00:00:00 | 00:00:00 | 00:00:00 | |
| OM5KV | 2026-08-31 13:47:04 | 48.53191 | 17.55418 | 86° | 91km/h | 13860m | -10.3m/s | 0°C | 0% | 0hPa | 0V | 00:00:00 | 00:00:00 | 00:00:00 | |
| OM5KV | 2026-08-31 13:47:00 | 48.53180 | 17.55285 | 80° | 88km/h | 13907m | -12.6m/s | 0°C | 0% | 0hPa | 0V | 00:00:00 | 00:00:00 | 00:00:00 | |
| OE3OSB-13 | 2026-08-31 13:46:44 | 48.53082 | 17.54787 | 69° | 75km/h | 14105m | -11.3m/s | -56.2°C | 0.0% | 144.9hPa | 0V | 00:00:00 | 00:00:00 | 00:00:00 | |
| OM5KV | 2026-08-31 13:46:43 | 48.53082 | 17.54787 | 70° | 75km/h | 14105m | -11.3m/s | 0°C | 0% | 0hPa | 0V | 00:00:00 | 00:00:00 | 00:00:00 | |
| OM5KV | 2026-08-31 13:46:41 | 48.53068 | 17.54732 | 73° | 77km/h | 14130m | -10.6m/s | 0°C | 0% | 0hPa | 0V | 00:00:00 | 00:00:00 | 00:00:00 | |
| PETON7-10 | 2026-08-31 13:46:37 | 48.53039 | 17.54621 | 67° | 82km/h | 14181m | -13.5m/s | 0°C | 0% | 0hPa | 0V | 00:00:00 | 00:00:00 | 00:00:00 | |
| OM5KV | 2026-08-31 13:46:35 | 48.53023 | 17.54565 | 67° | 78km/h | 14209m | -11.7m/s | 0°C | 0% | 0hPa | 0V | 00:00:00 | 00:00:00 | 00:00:00 | |
| ATIDSZ-14 | 2026-08-31 13:46:27 | 48.52954 | 17.54336 | 67° | 84km/h | 14312m | -11.4m/s | 0°C | 0% | 0hPa | 0V | 00:00:00 | 00:00:00 | 00:00:00 | |
| HA6NAB-11 | 2026-08-31 13:46:25 | 48.52936 | 17.54276 | 67° | 86km/h | 14336m | -10.3m/s | 0°C | 0% | 0hPa | 0V | 00:00:00 | 00:00:00 | 00:00:00 | |
| OM5KV | 2026-08-31 13:46:23 | 48.52919 | 17.54215 | 68° | 86km/h | 14362m | -11.9m/s | 0°C | 0% | 0hPa | 0V | 00:00:00 | 00:00:00 | 00:00:00 | |
| PETON7-10 | 2026-08-31 13:46:22 | 48.52910 | 17.54186 | 67° | 80km/h | 14375m | -12.2m/s | 0°C | 0% | 0hPa | 0V | 00:00:00 | 00:00:00 | 00:00:00 | |
| OM5KV | 2026-08-31 13:46:21 | 48.52902 | 17.54156 | 68° | 84km/h | 14388m | -11.3m/s | 0°C | 0% | 0hPa | 0V | 00:00:00 | 00:00:00 | 00:00:00 | |
| OM5KV | 2026-08-31 13:46:17 | 48.52871 | 17.54042 | 69° | 78km/h | 14437m | -9.4m/s | 0°C | 0% | 0hPa | 0V | 00:00:00 | 00:00:00 | 00:00:00 | |
| OM5KV | 2026-08-31 13:46:12 | 48.52837 | 17.53901 | 72° | 80km/h | 14501m | -11.8m/s | 0°C | 0% | 0hPa | 0V | 00:00:00 | 00:00:00 | 00:00:00 | |
| PETON7-10 | 2026-08-31 13:46:07 | 48.52805 | 17.53756 | 74° | 78km/h | 14567m | -10.9m/s | 0°C | 0% | 0hPa | 0V | 00:00:00 | 00:00:00 | 00:00:00 | |
| OM5KV | 2026-08-31 13:46:06 | 48.52799 | 17.53726 | 75° | 78km/h | 14580m | -12.1m/s | 0°C | 0% | 0hPa | 0V | 00:00:00 | 00:00:00 | 00:00:00 | |
| ATIDSZ-14 | 2026-08-31 13:46:05 | 48.52794 | 17.53698 | 75° | 78km/h | 14594m | -11.7m/s | 0°C | 0% | 0hPa | 0V | 00:00:00 | 00:00:00 | 00:00:00 | |
| OM5KV | 2026-08-31 13:46:03 | 48.52783 | 17.53640 | 76° | 77km/h | 14618m | -11.4m/s | 0°C | 0% | 0hPa | 0V | 00:00:00 | 00:00:00 | 00:00:00 | |
| OM5KV | 2026-08-31 13:46:00 | 48.52768 | 17.53553 | 76° | 77km/h | 14658m | -10.1m/s | 0°C | 0% | 0hPa | 0V | 00:00:00 | 00:00:00 | 00:00:00 | |
| OM5KV | 2026-08-31 13:45:57 | 48.52752 | 17.53466 | 76° | 80km/h | 14694m | -13.5m/s | 0°C | 0% | 0hPa | 0V | 00:00:00 | 00:00:00 | 00:00:00 | |
| PETON7-10 | 2026-08-31 13:45:51 | 48.52716 | 17.53286 | 74° | 80km/h | 14769m | -11.2m/s | 0°C | 0% | 0hPa | 0V | 00:00:00 | 00:00:00 | 00:00:00 | |
| OM5KV | 2026-08-31 13:45:50 | 48.52710 | 17.53257 | 74° | 80km/h | 14781m | -10.9m/s | 0°C | 0% | 0hPa | 0V | 00:00:00 | 00:00:00 | 00:00:00 | |
| ATIDSZ-14 | 2026-08-31 13:45:45 | 48.52682 | 17.53112 | 75° | 77km/h | 14845m | -11.7m/s | 0°C | 0% | 0hPa | 0V | 00:00:00 | 00:00:00 | 00:00:00 | |
| OM5KV | 2026-08-31 13:45:44 | 48.52676 | 17.53084 | 76° | 78km/h | 14858m | -11.3m/s | 0°C | 0% | 0hPa | 0V | 00:00:00 | 00:00:00 | 00:00:00 | |
| OE3OSB-13 | 2026-08-31 13:45:41 | 48.52660 | 17.52997 | 75° | 80km/h | 14895m | -10.8m/s | -58.9°C | 0.0% | 127.4hPa | 0V | 00:00:00 | 00:00:00 | 00:00:00 | |
| OM5KV | 2026-08-31 13:45:39 | 48.52649 | 17.52937 | 78° | 80km/h | 14919m | -11.7m/s | 0°C | 0% | 0hPa | 0V | 00:00:00 | 00:00:00 | 00:00:00 | |
| OM5KV | 2026-08-31 13:45:38 | 48.52644 | 17.52907 | 78° | 82km/h | 14931m | -10.9m/s | 0°C | 0% | 0hPa | 0V | 00:00:00 | 00:00:00 | 00:00:00 | |
| PETON7-10 | 2026-08-31 13:45:36 | 48.52635 | 17.52846 | 78° | 73km/h | 14953m | -10.9m/s | 0°C | 0% | 0hPa | 0V | 00:00:00 | 00:00:00 | 00:00:00 | |
| OM5KV | 2026-08-31 13:45:33 | 48.52620 | 17.52756 | 80° | 80km/h | 14989m | -12.2m/s | 0°C | 0% | 0hPa | 0V | 00:00:00 | 00:00:00 | 00:00:00 | |
| OM5KV | 2026-08-31 13:45:32 | 48.52616 | 17.52726 | 78° | 80km/h | 15001m | -9.9m/s | 0°C | 0% | 0hPa | 0V | 00:00:00 | 00:00:00 | 00:00:00 | |
| HA6NAB-11 | 2026-08-31 13:45:27 | 48.52594 | 17.52589 | 74° | 68km/h | 15065m | -12.0m/s | 0°C | 0% | 0hPa | 0V | 00:00:00 | 00:00:00 | 00:00:00 | |
| OM5KV | 2026-08-31 13:45:26 | 48.52588 | 17.52564 | 72° | 66km/h | 15078m | -12.6m/s | 0°C | 0% | 0hPa | 0V | 00:00:00 | 00:00:00 | 00:00:00 | |
| ATIDSZ-14 | 2026-08-31 13:45:24 | 48.52579 | 17.52518 | 73° | 62km/h | 15101m | -11.2m/s | 0°C | 0% | 0hPa | 0V | 00:00:00 | 00:00:00 | 00:00:00 | |
| PETON7-10 | 2026-08-31 13:45:21 | 48.52564 | 17.52467 | 71° | 57km/h | 15142m | -13.3m/s | 0°C | 0% | 0hPa | 0V | 00:00:00 | 00:00:00 | 00:00:00 | |
| HA6NAB-11 | 2026-08-31 13:45:19 | 48.52552 | 17.52407 | 70° | 60km/h | 15170m | -14.1m/s | 0°C | 0% | 0hPa | 0V | 00:00:00 | 00:00:00 | 00:00:00 | |
| OE3OSB-13 | 2026-08-31 13:45:10 | 48.52505 | 17.52225 | 67° | 53km/h | 15301m | -13.5m/s | -58.2°C | 0.0% | 119.2hPa | 0V | 00:00:00 | 00:00:00 | 00:00:00 | |
| OM5KV | 2026-08-31 13:45:07 | 48.52490 | 17.52165 | 72° | 57km/h | 15344m | -12.5m/s | 0°C | 0% | 0hPa | 0V | 00:00:00 | 00:00:00 | 00:00:00 | |
| PETON7-10 | 2026-08-31 13:45:06 | 48.52485 | 17.52145 | 71° | 49km/h | 15359m | -13.9m/s | 0°C | 0% | 0hPa | 0V | 00:00:00 | 00:00:00 | 00:00:00 | |
| OM5KV | 2026-08-31 13:45:01 | 48.52464 | 17.52046 | 75° | 51km/h | 15424m | -10.9m/s | 0°C | 0% | 0hPa | 0V | 00:00:00 | 00:00:00 | 00:00:00 | |
| OM5KV | 2026-08-31 13:44:57 | 48.52447 | 17.51977 | 69° | 46km/h | 15477m | -12.1m/s | 0°C | 0% | 0hPa | 0V | 00:00:00 | 00:00:00 | 00:00:00 | |
| OM5KV | 2026-08-31 13:44:56 | 48.52442 | 17.51960 | 66° | 46km/h | 15490m | -13.0m/s | 0°C | 0% | 0hPa | 0V | 00:00:00 | 00:00:00 | 00:00:00 | |
| PETON7-10 | 2026-08-31 13:44:51 | 48.52414 | 17.51886 | 59° | 47km/h | 15560m | -13.1m/s | 0°C | 0% | 0hPa | 0V | 00:00:00 | 00:00:00 | 00:00:00 | |
| OM5KV | 2026-08-31 13:44:50 | 48.52408 | 17.51872 | 56° | 40km/h | 15573m | -11.8m/s | 0°C | 0% | 0hPa | 0V | 00:00:00 | 00:00:00 | 00:00:00 | |
| OM5KV | 2026-08-31 13:44:45 | 48.52378 | 17.51808 | 57° | 42km/h | 15639m | -12.8m/s | 0°C | 0% | 0hPa | 0V | 00:00:00 | 00:00:00 | 00:00:00 | |
| ATIDSZ-14 | 2026-08-31 13:44:43 | 48.52364 | 17.51781 | 54° | 44km/h | 15667m | -13.3m/s | 0°C | 0% | 0hPa | 0V | 00:00:00 | 00:00:00 | 00:00:00 | |
| OM5KV | 2026-08-31 13:44:40 | 48.52342 | 17.51739 | 50° | 47km/h | 15709m | -13.5m/s | 0°C | 0% | 0hPa | 0V | 00:00:00 | 00:00:00 | 00:00:00 | |
| OM5KV | 2026-08-31 13:44:39 | 48.52334 | 17.51725 | 50° | 53km/h | 15724m | -13.8m/s | 0°C | 0% | 0hPa | 0V | 00:00:00 | 00:00:00 | 00:00:00 | |
| HA6NAB-11 | 2026-08-31 13:44:36 | 48.52306 | 17.51680 | 48° | 58km/h | 15766m | -12.7m/s | 0°C | 0% | 0hPa | 0V | 00:00:00 | 00:00:00 | 00:00:00 | |
| PETON7-10 | 2026-08-31 13:44:34 | 48.52284 | 17.51647 | 46° | 68km/h | 15795m | -12.6m/s | 0°C | 0% | 0hPa | 0V | 00:00:00 | 00:00:00 | 00:00:00 | |
| OM5KV | 2026-08-31 13:44:33 | 48.52273 | 17.51629 | 48° | 62km/h | 15809m | -12.8m/s | 0°C | 0% | 0hPa | 0V | 00:00:00 | 00:00:00 | 00:00:00 | |
| OM5KV | 2026-08-31 13:44:28 | 48.52215 | 17.51536 | 50° | 68km/h | 15879m | -12.6m/s | 0°C | 0% | 0hPa | 0V | 00:00:00 | 00:00:00 | 00:00:00 | |
| ATIDSZ-14 | 2026-08-31 13:44:22 | 48.52152 | 17.51412 | 58° | 66km/h | 15962m | -12.2m/s | 0°C | 0% | 0hPa | 0V | 00:00:00 | 00:00:00 | 00:00:00 | |
| PETON7-10 | 2026-08-31 13:44:19 | 48.52125 | 17.51345 | 59° | 68km/h | 16002m | -11.1m/s | 0°C | 0% | 0hPa | 0V | 00:00:00 | 00:00:00 | 00:00:00 | |
| OM5KV | 2026-08-31 13:44:18 | 48.52116 | 17.51322 | 63° | 68km/h | 16014m | -12.6m/s | 0°C | 0% | 0hPa | 0V | 00:00:00 | 00:00:00 | 00:00:00 | |
| OM5KV | 2026-08-31 13:44:17 | 48.52108 | 17.51298 | 63° | 69km/h | 16028m | -13.1m/s | 0°C | 0% | 0hPa | 0V | 00:00:00 | 00:00:00 | 00:00:00 | |
| OM5KV | 2026-08-31 13:44:12 | 48.52071 | 17.51180 | 68° | 68km/h | 16098m | -14.0m/s | 0°C | 0% | 0hPa | 0V | 00:00:00 | 00:00:00 | 00:00:00 | |
| OE3OSB-13 | 2026-08-31 13:44:08 | 48.52041 | 17.51061 | 71° | 60km/h | 16169m | -11.4m/s | -56.1°C | 0.0% | 103.3hPa | 0V | 00:00:00 | 00:00:00 | 00:00:00 | |
| OM5KV | 2026-08-31 13:44:06 | 48.52036 | 17.51038 | 72° | 62km/h | 16182m | -12.5m/s | 0°C | 0% | 0hPa | 0V | 00:00:00 | 00:00:00 | 00:00:00 | |
| OM5KV | 2026-08-31 13:44:05 | 48.52031 | 17.51016 | 74° | 60km/h | 16196m | -15.4m/s | 0°C | 0% | 0hPa | 0V | 00:00:00 | 00:00:00 | 00:00:00 | |
| OM5KV | 2026-08-31 13:44:00 | 48.52014 | 17.50909 | 81° | 53km/h | 16271m | -12.5m/s | 0°C | 0% | 0hPa | 0V | 00:00:00 | 00:00:00 | 00:00:00 | |
| ATIDSZ-14 | 2026-08-31 13:43:59 | 48.52011 | 17.50889 | 83° | 55km/h | 16284m | -13.0m/s | 0°C | 0% | 0hPa | 0V | 00:00:00 | 00:00:00 | 00:00:00 | |
| OM5KV | 2026-08-31 13:43:53 | 48.52010 | 17.50768 | 97° | 55km/h | 16364m | -12.5m/s | 0°C | 0% | 0hPa | 0V | 00:00:00 | 00:00:00 | 00:00:00 | |
| PETON7-10 | 2026-08-31 13:43:47 | 48.52024 | 17.50643 | 101° | 35km/h | 16439m | -11.4m/s | 0°C | 0% | 0hPa | 0V | 00:00:00 | 00:00:00 | 00:00:00 | |
| OM5KV | 2026-08-31 13:43:42 | 48.52038 | 17.50545 | 104° | 47km/h | 16507m | -10.8m/s | 0°C | 0% | 0hPa | 0V | 00:00:00 | 00:00:00 | 00:00:00 | |
| OM5KV | 2026-08-31 13:43:40 | 48.52045 | 17.50512 | 107° | 46km/h | 16535m | -12.1m/s | 0°C | 0% | 0hPa | 0V | 00:00:00 | 00:00:00 | 00:00:00 | |
| ATIDSZ-14 | 2026-08-31 13:43:38 | 48.52049 | 17.50480 | 103° | 40km/h | 16562m | -13.5m/s | 0°C | 0% | 0hPa | 0V | 00:00:00 | 00:00:00 | 00:00:00 | |
| OE3OSB-13 | 2026-08-31 13:43:37 | 48.52055 | 17.50439 | 96° | 33km/h | 16602m | -12.5m/s | -53.8°C | 0.0% | 96.3hPa | 0V | 00:00:00 | 00:00:00 | 00:00:00 | |
| OM5KV | 2026-08-31 13:43:34 | 48.52055 | 17.50426 | 94° | 33km/h | 16616m | -12.5m/s | 0°C | 0% | 0hPa | 0V | 00:00:00 | 00:00:00 | 00:00:00 | |
| OM5KV | 2026-08-31 13:43:33 | 48.52056 | 17.50414 | 94° | 31km/h | 16628m | -12.5m/s | 0°C | 0% | 0hPa | 0V | 00:00:00 | 00:00:00 | 00:00:00 | |
| OM5KV | 2026-08-31 13:43:29 | 48.52052 | 17.50374 | 71° | 26km/h | 16686m | -13.4m/s | 0°C | 0% | 0hPa | 0V | 00:00:00 | 00:00:00 | 00:00:00 | |
| PETON7-10 | 2026-08-31 13:43:27 | 48.52047 | 17.50356 | 63° | 27km/h | 16715m | -13.1m/s | 0°C | 0% | 0hPa | 0V | 00:00:00 | 00:00:00 | 00:00:00 | |
| OM5KV | 2026-08-31 13:43:24 | 48.52037 | 17.50332 | 54° | 26km/h | 16757m | -11.9m/s | 0°C | 0% | 0hPa | 0V | 00:00:00 | 00:00:00 | 00:00:00 | |
| OM5KV | 2026-08-31 13:43:22 | 48.52029 | 17.50318 | 42° | 26km/h | 16784m | -13.5m/s | 0°C | 0% | 0hPa | 0V | 00:00:00 | 00:00:00 | 00:00:00 | |
| OM5KV | 2026-08-31 13:43:18 | 48.52007 | 17.50288 | 41° | 33km/h | 16841m | -13.8m/s | 0°C | 0% | 0hPa | 0V | 00:00:00 | 00:00:00 | 00:00:00 | |
| OM5KV | 2026-08-31 13:43:16 | 48.51995 | 17.50273 | 38° | 31km/h | 16869m | -12.6m/s | 0°C | 0% | 0hPa | 0V | 00:00:00 | 00:00:00 | 00:00:00 | |
| ATIDSZ-14 | 2026-08-31 13:43:14 | 48.51982 | 17.50259 | 36° | 31km/h | 16897m | -13.5m/s | 0°C | 0% | 0hPa | 0V | 00:00:00 | 00:00:00 | 00:00:00 | |
| PETON7-10 | 2026-08-31 13:43:12 | 48.51968 | 17.50245 | 36° | 42km/h | 16924m | -14.2m/s | 0°C | 0% | 0hPa | 0V | 00:00:00 | 00:00:00 | 00:00:00 | |
| OM5KV | 2026-08-31 13:43:11 | 48.51961 | 17.50238 | 37° | 35km/h | 16940m | -14.1m/s | 0°C | 0% | 0hPa | 0V | 00:00:00 | 00:00:00 | 00:00:00 | |
| OM5KV | 2026-08-31 13:43:07 | 48.51931 | 17.50204 | 39° | 40km/h | 16998m | -13.5m/s | 0°C | 0% | 0hPa | 0V | 00:00:00 | 00:00:00 | 00:00:00 | |
| OE3OSB-13 | 2026-08-31 13:43:06 | 48.51915 | 17.50185 | 37° | 42km/h | 17024m | -14.8m/s | -56.1°C | 0.0% | 89.8hPa | 0V | 00:00:00 | 00:00:00 | 00:00:00 | |
| OM5KV | 2026-08-31 13:43:01 | 48.51883 | 17.50142 | 46° | 44km/h | 17086m | -14.7m/s | 0°C | 0% | 0hPa | 0V | 00:00:00 | 00:00:00 | 00:00:00 | |
| OM5KV | 2026-08-31 13:43:00 | 48.51875 | 17.50130 | 49° | 46km/h | 17101m | -13.3m/s | 0°C | 0% | 0hPa | 0V | 00:00:00 | 00:00:00 | 00:00:00 | |
| PETON7-10 | 2026-08-31 13:42:56 | 48.51847 | 17.50077 | 53° | 38km/h | 17162m | -13.0m/s | 0°C | 0% | 0hPa | 0V | 00:00:00 | 00:00:00 | 00:00:00 | |
| OM5KV | 2026-08-31 13:42:55 | 48.51840 | 17.50064 | 56° | 44km/h | 17176m | -13.2m/s | 0°C | 0% | 0hPa | 0V | 00:00:00 | 00:00:00 | 00:00:00 | |
| OM5KV | 2026-08-31 13:42:54 | 48.51834 | 17.50051 | 55° | 38km/h | 17190m | -12.7m/s | 0°C | 0% | 0hPa | 0V | 00:00:00 | 00:00:00 | 00:00:00 | |
| OM5KV | 2026-08-31 13:42:50 | 48.51812 | 17.50002 | 58° | 35km/h | 17244m | -13.5m/s | 0°C | 0% | 0hPa | 0V | 00:00:00 | 00:00:00 | 00:00:00 | |
| OM5KV | 2026-08-31 13:42:44 | 48.51783 | 17.49935 | 55° | 37km/h | 17332m | -13.6m/s | 0°C | 0% | 0hPa | 0V | 00:00:00 | 00:00:00 | 00:00:00 | |
| PETON7-10 | 2026-08-31 13:42:41 | 48.51766 | 17.49900 | 57° | 44km/h | 17375m | -13.9m/s | 0°C | 0% | 0hPa | 0V | 00:00:00 | 00:00:00 | 00:00:00 | |
| OM5KV | 2026-08-31 13:42:38 | 48.51751 | 17.49861 | 63° | 40km/h | 17416m | -11.1m/s | 0°C | 0% | 0hPa | 0V | 00:00:00 | 00:00:00 | 00:00:00 | |
| OM5KV | 2026-08-31 13:42:36 | 48.51741 | 17.49833 | 66° | 42km/h | 17442m | -14.8m/s | 0°C | 0% | 0hPa | 0V | 00:00:00 | 00:00:00 | 00:00:00 | |
| OE3OSB-13 | 2026-08-31 13:42:35 | 48.51732 | 17.49803 | 66° | 46km/h | 17471m | -14.7m/s | -55.0°C | 0.0% | 83.5hPa | 0V | 00:00:00 | 00:00:00 | 00:00:00 | |
| OM5KV | 2026-08-31 13:42:32 | 48.51722 | 17.49771 | 68° | 46km/h | 17503m | -15.0m/s | 0°C | 0% | 0hPa | 0V | 00:00:00 | 00:00:00 | 00:00:00 | |
| OM5KV | 2026-08-31 13:42:31 | 48.51718 | 17.49755 | 69° | 46km/h | 17519m | -14.2m/s | 0°C | 0% | 0hPa | 0V | 00:00:00 | 00:00:00 | 00:00:00 | |
| OM5KV | 2026-08-31 13:42:26 | 48.51703 | 17.49674 | 83° | 46km/h | 17586m | -13.9m/s | 0°C | 0% | 0hPa | 0V | 00:00:00 | 00:00:00 | 00:00:00 | |
| PETON7-10 | 2026-08-31 13:42:24 | 48.51701 | 17.49642 | 84° | 33km/h | 17614m | -13.3m/s | 0°C | 0% | 0hPa | 0V | 00:00:00 | 00:00:00 | 00:00:00 | |
| OM5KV | 2026-08-31 13:42:20 | 48.51699 | 17.49582 | 89° | 38km/h | 17672m | -14.6m/s | 0°C | 0% | 0hPa | 0V | 00:00:00 | 00:00:00 | 00:00:00 | |
| OM5KV | 2026-08-31 13:42:19 | 48.51699 | 17.49568 | 93° | 37km/h | 17687m | -13.8m/s | 0°C | 0% | 0hPa | 0V | 00:00:00 | 00:00:00 | 00:00:00 | |
| OM5KV | 2026-08-31 13:42:13 | 48.51700 | 17.49490 | 93° | 29km/h | 17774m | -12.6m/s | 0°C | 0% | 0hPa | 0V | 00:00:00 | 00:00:00 | 00:00:00 | |
| ATIDSZ-14 | 2026-08-31 13:42:11 | 48.51701 | 17.49470 | 89° | 24km/h | 17802m | -14.6m/s | 0°C | 0% | 0hPa | 0V | 00:00:00 | 00:00:00 | 00:00:00 | |
| PETON7-10 | 2026-08-31 13:42:07 | 48.51700 | 17.49435 | 88° | 16km/h | 17861m | -14.6m/s | 0°C | 0% | 0hPa | 0V | 00:00:00 | 00:00:00 | 00:00:00 | |
| OE3OSB-13 | 2026-08-31 13:42:04 | 48.51699 | 17.49406 | 85° | 16km/h | 17917m | -13.3m/s | -54.7°C | 0.0% | 77.6hPa | 0V | 00:00:00 | 00:00:00 | 00:00:00 | |
| OM5KV | 2026-08-31 13:42:02 | 48.51698 | 17.49400 | 86° | 16km/h | 17931m | -13.3m/s | 0°C | 0% | 0hPa | 0V | 00:00:00 | 00:00:00 | 00:00:00 | |
| OM5KV | 2026-08-31 13:42:01 | 48.51697 | 17.49393 | 84° | 16km/h | 17946m | -14.2m/s | 0°C | 0% | 0hPa | 0V | 00:00:00 | 00:00:00 | 00:00:00 | |
| OM5KV | 2026-08-31 13:41:56 | 48.51691 | 17.49368 | 54° | 15km/h | 18018m | -13.4m/s | 0°C | 0% | 0hPa | 0V | 00:00:00 | 00:00:00 | 00:00:00 | |
| PETON7-10 | 2026-08-31 13:41:51 | 48.51677 | 17.49354 | 28° | 13km/h | 18087m | -13.6m/s | 0°C | 0% | 0hPa | 0V | 00:00:00 | 00:00:00 | 00:00:00 | |
| OM5KV | 2026-08-31 13:41:50 | 48.51673 | 17.49351 | 29° | 16km/h | 18101m | -13.1m/s | 0°C | 0% | 0hPa | 0V | 00:00:00 | 00:00:00 | 00:00:00 | |
| OM5KV | 2026-08-31 13:41:44 | 48.51657 | 17.49333 | 41° | 13km/h | 18193m | -14.1m/s | 0°C | 0% | 0hPa | 0V | 00:00:00 | 00:00:00 | 00:00:00 | |
| OM5KV | 2026-08-31 13:41:43 | 48.51654 | 17.49330 | 47° | 13km/h | 18208m | -14.3m/s | 0°C | 0% | 0hPa | 0V | 00:00:00 | 00:00:00 | 00:00:00 | |
| OM5KV | 2026-08-31 13:41:38 | 48.51643 | 17.49319 | 25° | 9km/h | 18281m | -15.4m/s | 0°C | 0% | 0hPa | 0V | 00:00:00 | 00:00:00 | 00:00:00 | |
| OM5KV | 2026-08-31 13:41:37 | 48.51641 | 17.49317 | 29° | 9km/h | 18297m | -13.1m/s | 0°C | 0% | 0hPa | 0V | 00:00:00 | 00:00:00 | 00:00:00 | |
| PETON7-10 | 2026-08-31 13:41:36 | 48.51638 | 17.49316 | 8° | 15km/h | 18311m | -13.2m/s | 0°C | 0% | 0hPa | 0V | 00:00:00 | 00:00:00 | 00:00:00 | |
| OE3OSB-13 | 2026-08-31 13:41:33 | 48.51627 | 17.49313 | 14° | 13km/h | 18368m | -13.1m/s | -55.0°C | 0.0% | 72.0hPa | 0V | 00:00:00 | 00:00:00 | 00:00:00 | |
| OM5KV | 2026-08-31 13:41:32 | 48.51627 | 17.49313 | 15° | 13km/h | 18368m | -13.1m/s | 0°C | 0% | 0hPa | 0V | 00:00:00 | 00:00:00 | 00:00:00 | |
| OM5KV | 2026-08-31 13:41:27 | 48.51609 | 17.49302 | 29° | 15km/h | 18443m | -12.6m/s | 0°C | 0% | 0hPa | 0V | 00:00:00 | 00:00:00 | 00:00:00 | |
| PETON7-10 | 2026-08-31 13:41:21 | 48.51585 | 17.49285 | 26° | 22km/h | 18527m | -14.5m/s | 0°C | 0% | 0hPa | 0V | 00:00:00 | 00:00:00 | 00:00:00 | |
| OM5KV | 2026-08-31 13:41:18 | 48.51571 | 17.49275 | 26° | 24km/h | 18574m | -15.9m/s | 0°C | 0% | 0hPa | 0V | 00:00:00 | 00:00:00 | 00:00:00 | |
| OM5KV | 2026-08-31 13:41:14 | 48.51550 | 17.49258 | 29° | 26km/h | 18637m | -14.4m/s | 0°C | 0% | 0hPa | 0V | 00:00:00 | 00:00:00 | 00:00:00 | |
| OM5KV | 2026-08-31 13:41:12 | 48.51540 | 17.49250 | 29° | 22km/h | 18667m | -13.7m/s | 0°C | 0% | 0hPa | 0V | 00:00:00 | 00:00:00 | 00:00:00 | |
| ATIDSZ-14 | 2026-08-31 13:41:10 | 48.51529 | 17.49242 | 22° | 22km/h | 18693m | -12.9m/s | 0°C | 0% | 0hPa | 0V | 00:00:00 | 00:00:00 | 00:00:00 | |
| OM5KV | 2026-08-31 13:41:08 | 48.51519 | 17.49236 | 27° | 24km/h | 18723m | -12.2m/s | 0°C | 0% | 0hPa | 0V | 00:00:00 | 00:00:00 | 00:00:00 | |
| PETON7-10 | 2026-08-31 13:41:06 | 48.51507 | 17.49230 | 27° | 22km/h | 18751m | -16.2m/s | 0°C | 0% | 0hPa | 0V | 00:00:00 | 00:00:00 | 00:00:00 | |
| OM5KV | 2026-08-31 13:41:03 | 48.51490 | 17.49219 | 25° | 24km/h | 18800m | -14.6m/s | 0°C | 0% | 0hPa | 0V | 00:00:00 | 00:00:00 | 00:00:00 | |
| OE3OSB-13 | 2026-08-31 13:41:02 | 48.51480 | 17.49212 | 25° | 22km/h | 18831m | -15.4m/s | -55.6°C | 0.0% | 66.7hPa | 0V | 00:00:00 | 00:00:00 | 00:00:00 | |
| OM5KV | 2026-08-31 13:40:58 | 48.51466 | 17.49197 | 41° | 27km/h | 18878m | -15.8m/s | 0°C | 0% | 0hPa | 0V | 00:00:00 | 00:00:00 | 00:00:00 | |
| OM5KV | 2026-08-31 13:40:51 | 48.51438 | 17.49157 | 60° | 18km/h | 18991m | -14.6m/s | 0°C | 0% | 0hPa | 0V | 00:00:00 | 00:00:00 | 00:00:00 | |
| OM5KV | 2026-08-31 13:40:50 | 48.51435 | 17.49151 | 52° | 18km/h | 19007m | -17.0m/s | 0°C | 0% | 0hPa | 0V | 00:00:00 | 00:00:00 | 00:00:00 | |
| PETON7-10 | 2026-08-31 13:40:48 | 48.51430 | 17.49137 | 62° | 22km/h | 19041m | -14.2m/s | 0°C | 0% | 0hPa | 0V | 00:00:00 | 00:00:00 | 00:00:00 | |
| OM5KV | 2026-08-31 13:40:44 | 48.51421 | 17.49112 | 62° | 18km/h | 19098m | -14.4m/s | 0°C | 0% | 0hPa | 0V | 00:00:00 | 00:00:00 | 00:00:00 | |
| OM5KV | 2026-08-31 13:40:39 | 48.51404 | 17.49087 | 33° | 24km/h | 19173m | -14.6m/s | 0°C | 0% | 0hPa | 0V | 00:00:00 | 00:00:00 | 00:00:00 | |
| OM5KV | 2026-08-31 13:40:37 | 48.51394 | 17.49080 | 28° | 22km/h | 19205m | -14.9m/s | 0°C | 0% | 0hPa | 0V | 00:00:00 | 00:00:00 | 00:00:00 | |
| PETON7-10 | 2026-08-31 13:40:33 | 48.51369 | 17.49064 | 21° | 24km/h | 19268m | -14.8m/s | 0°C | 0% | 0hPa | 0V | 00:00:00 | 00:00:00 | 00:00:00 | |
| OE3OSB-13 | 2026-08-31 13:40:31 | 48.51349 | 17.49051 | 27° | 27km/h | 19314m | -14.9m/s | -55.3°C | 0.0% | 61.5hPa | 0V | 00:00:00 | 00:00:00 | 00:00:00 | |
| ATIDSZ-14 | 2026-08-31 13:40:30 | 48.51348 | 17.49051 | 29° | 29km/h | 19315m | -14.9m/s | 0°C | 0% | 0hPa | 0V | 00:00:00 | 00:00:00 | 00:00:00 | |
| OM5KV | 2026-08-31 13:40:26 | 48.51326 | 17.49031 | 30° | 22km/h | 19377m | -14.0m/s | 0°C | 0% | 0hPa | 0V | 00:00:00 | 00:00:00 | 00:00:00 | |
| OM5KV | 2026-08-31 13:40:21 | 48.51306 | 17.49013 | 33° | 16km/h | 19455m | -16.4m/s | 0°C | 0% | 0hPa | 0V | 00:00:00 | 00:00:00 | 00:00:00 | |
| OM5KV | 2026-08-31 13:40:20 | 48.51303 | 17.49010 | 27° | 16km/h | 19472m | -14.9m/s | 0°C | 0% | 0hPa | 0V | 00:00:00 | 00:00:00 | 00:00:00 | |
| PETON7-10 | 2026-08-31 13:40:15 | 48.51284 | 17.48995 | 32° | 15km/h | 19553m | -15.6m/s | 0°C | 0% | 0hPa | 0V | 00:00:00 | 00:00:00 | 00:00:00 | |
| OM5KV | 2026-08-31 13:40:14 | 48.51280 | 17.48992 | 37° | 18km/h | 19570m | -16.3m/s | 0°C | 0% | 0hPa | 0V | 00:00:00 | 00:00:00 | 00:00:00 | |
| OM5KV | 2026-08-31 13:40:09 | 48.51265 | 17.48969 | 50° | 15km/h | 19652m | -14.8m/s | 0°C | 0% | 0hPa | 0V | 00:00:00 | 00:00:00 | 00:00:00 | |
| ATIDSZ-14 | 2026-08-31 13:40:06 | 48.51256 | 17.48958 | 41° | 15km/h | 19700m | -16.2m/s | 0°C | 0% | 0hPa | 0V | 00:00:00 | 00:00:00 | 00:00:00 | |
| OM5KV | 2026-08-31 13:40:03 | 48.51249 | 17.48950 | 51° | 9km/h | 19748m | -14.2m/s | 0°C | 0% | 0hPa | 0V | 00:00:00 | 00:00:00 | 00:00:00 | |
| OM5KV | 2026-08-31 13:40:01 | 48.51247 | 17.48945 | 45° | 5km/h | 19777m | -14.4m/s | 0°C | 0% | 0hPa | 0V | 00:00:00 | 00:00:00 | 00:00:00 | |
| OE3OSB-13 | 2026-08-31 13:40:00 | 48.51244 | 17.48943 | 12° | 4km/h | 19808m | -14.5m/s | -53.5°C | 0.0% | 56.7hPa | 0V | 00:00:00 | 00:00:00 | 00:00:00 | |
| OM5KV | 2026-08-31 13:39:58 | 48.51243 | 17.48942 | 30° | 5km/h | 19824m | -13.0m/s | 0°C | 0% | 0hPa | 0V | 00:00:00 | 00:00:00 | 00:00:00 | |
| OM5KV | 2026-08-31 13:39:52 | 48.51236 | 17.48931 | 45° | 13km/h | 19917m | -15.6m/s | 0°C | 0% | 0hPa | 0V | 00:00:00 | 00:00:00 | 00:00:00 | |
| OM5KV | 2026-08-31 13:39:50 | 48.51232 | 17.48927 | 28° | 9km/h | 19949m | -15.7m/s | 0°C | 0% | 0hPa | 0V | 00:00:00 | 00:00:00 | 00:00:00 | |
| ATIDSZ-14 | 2026-08-31 13:39:46 | 48.51220 | 17.48921 | 14° | 15km/h | 20013m | -13.8m/s | 0°C | 0% | 0hPa | 0V | 00:00:00 | 00:00:00 | 00:00:00 | |
| PETON7-10 | 2026-08-31 13:39:45 | 48.51216 | 17.48920 | 12° | 11km/h | 20027m | -13.8m/s | 0°C | 0% | 0hPa | 0V | 00:00:00 | 00:00:00 | 00:00:00 | |
| HA6NAB-11 | 2026-08-31 13:39:40 | 48.51199 | 17.48912 | 23° | 13km/h | 20106m | -16.1m/s | 0°C | 0% | 0hPa | 0V | 00:00:00 | 00:00:00 | 00:00:00 | |
| OM5KV | 2026-08-31 13:39:39 | 48.51196 | 17.48911 | 15° | 13km/h | 20123m | -15.1m/s | 0°C | 0% | 0hPa | 0V | 00:00:00 | 00:00:00 | 00:00:00 | |
| OM5KV | 2026-08-31 13:39:35 | 48.51185 | 17.48904 | 31° | 11km/h | 20184m | -16.0m/s | 0°C | 0% | 0hPa | 0V | 00:00:00 | 00:00:00 | 00:00:00 | |
| OM5KV | 2026-08-31 13:39:33 | 48.51180 | 17.48899 | 33° | 11km/h | 20216m | -15.6m/s | 0°C | 0% | 0hPa | 0V | 00:00:00 | 00:00:00 | 00:00:00 | |
| PETON7-10 | 2026-08-31 13:39:29 | 48.51172 | 17.48891 | 29° | 16km/h | 20279m | -12.7m/s | 0°C | 0% | 0hPa | 0V | 00:00:00 | 00:00:00 | 00:00:00 | |
| OM5KV | 2026-08-31 13:39:27 | 48.51168 | 17.48888 | 22° | 9km/h | 20309m | -15.7m/s | 0°C | 0% | 0hPa | 0V | 00:00:00 | 00:00:00 | 00:00:00 | |
| HA6NAB-11 | 2026-08-31 13:39:26 | 48.51165 | 17.48887 | 22° | 9km/h | 20326m | -15.3m/s | 0°C | 0% | 0hPa | 0V | 00:00:00 | 00:00:00 | 00:00:00 | |
| OM5KV | 2026-08-31 13:39:21 | 48.51150 | 17.48888 | 351° | 15km/h | 20402m | -15.1m/s | 0°C | 0% | 0hPa | 0V | 00:00:00 | 00:00:00 | 00:00:00 | |
| OM5KV | 2026-08-31 13:39:17 | 48.51132 | 17.48890 | 3° | 22km/h | 20468m | -15.8m/s | 0°C | 0% | 0hPa | 0V | 00:00:00 | 00:00:00 | 00:00:00 | |
| OM5KV | 2026-08-31 13:39:15 | 48.51119 | 17.48888 | 10° | 29km/h | 20502m | -16.3m/s | 0°C | 0% | 0hPa | 0V | 00:00:00 | 00:00:00 | 00:00:00 | |
| PETON7-10 | 2026-08-31 13:39:13 | 48.51105 | 17.48886 | 7° | 26km/h | 20537m | -16.9m/s | 0°C | 0% | 0hPa | 0V | 00:00:00 | 00:00:00 | 00:00:00 | |
| OM5KV | 2026-08-31 13:39:11 | 48.51089 | 17.48884 | 10° | 31km/h | 20573m | -16.6m/s | 0°C | 0% | 0hPa | 0V | 00:00:00 | 00:00:00 | 00:00:00 | |
| OM5KV | 2026-08-31 13:39:10 | 48.51081 | 17.48882 | 13° | 33km/h | 20590m | -15.4m/s | 0°C | 0% | 0hPa | 0V | 00:00:00 | 00:00:00 | 00:00:00 | |
| HA6NAB-11 | 2026-08-31 13:39:08 | 48.51065 | 17.48877 | 14° | 31km/h | 20623m | -16.4m/s | 0°C | 0% | 0hPa | 0V | 00:00:00 | 00:00:00 | 00:00:00 | |
| OM5KV | 2026-08-31 13:39:05 | 48.51042 | 17.48869 | 11° | 29km/h | 20675m | -14.3m/s | 0°C | 0% | 0hPa | 0V | 00:00:00 | 00:00:00 | 00:00:00 | |
| HA6NAB-11 | 2026-08-31 13:39:01 | 48.51015 | 17.48860 | 17° | 22km/h | 20738m | -15.6m/s | 0°C | 0% | 0hPa | 0V | 00:00:00 | 00:00:00 | 00:00:00 | |
| OE3OSB-13 | 2026-08-31 13:38:58 | 48.51001 | 17.48848 | 59° | 11km/h | 20801m | -14.8m/s | -53.1°C | 0.0% | 47.9hPa | 0V | 00:00:00 | 00:00:00 | 00:00:00 | |
| HA6NAB-11 | 2026-08-31 13:38:55 | 48.50998 | 17.48842 | 61° | 7km/h | 20832m | -15.9m/s | 0°C | 0% | 0hPa | 0V | 00:00:00 | 00:00:00 | 00:00:00 | |
| OM5KV | 2026-08-31 13:38:53 | 48.50996 | 17.48836 | 69° | 7km/h | 20863m | -16.5m/s | 0°C | 0% | 0hPa | 0V | 00:00:00 | 00:00:00 | 00:00:00 | |
| OM5KV | 2026-08-31 13:38:52 | 48.50995 | 17.48833 | 70° | 7km/h | 20879m | -13.8m/s | 0°C | 0% | 0hPa | 0V | 00:00:00 | 00:00:00 | 00:00:00 | |
| OM5KV | 2026-08-31 13:38:48 | 48.50992 | 17.48820 | 70° | 11km/h | 20942m | -16.7m/s | 0°C | 0% | 0hPa | 0V | 00:00:00 | 00:00:00 | 00:00:00 | |
| OM5KV | 2026-08-31 13:38:47 | 48.50991 | 17.48816 | 57° | 13km/h | 20960m | -16.2m/s | 0°C | 0% | 0hPa | 0V | 00:00:00 | 00:00:00 | 00:00:00 | |
| OM5KV | 2026-08-31 13:38:42 | 48.50975 | 17.48802 | 22° | 15km/h | 21042m | -14.3m/s | 0°C | 0% | 0hPa | 0V | 00:00:00 | 00:00:00 | 00:00:00 | |
| PETON7-10 | 2026-08-31 13:38:41 | 48.50971 | 17.48800 | 19° | 11km/h | 21057m | -15.3m/s | 0°C | 0% | 0hPa | 0V | 00:00:00 | 00:00:00 | 00:00:00 | |
| OE3OSB-13 | 2026-08-31 13:38:27 | 48.50930 | 17.48754 | 122° | 4km/h | 21327m | -15.7m/s | -52.6°C | 0.0% | 43.9hPa | 0V | 00:00:00 | 00:00:00 | 00:00:00 | |
| OM5KV | 2026-08-31 13:38:25 | 48.50931 | 17.48752 | 121° | 7km/h | 21344m | -17.5m/s | 0°C | 0% | 0hPa | 0V | 00:00:00 | 00:00:00 | 00:00:00 | |
| PETON7-10 | 2026-08-31 13:38:21 | 48.50937 | 17.48748 | 170° | 7km/h | 21417m | -14.5m/s | 0°C | 0% | 0hPa | 0V | 00:00:00 | 00:00:00 | 00:00:00 | |
| OM5KV | 2026-08-31 13:38:15 | 48.50943 | 17.48739 | 104° | 7km/h | 21515m | -14.6m/s | 0°C | 0% | 0hPa | 0V | 00:00:00 | 00:00:00 | 00:00:00 | |
| HA6NAB-11 | 2026-08-31 13:38:10 | 48.50946 | 17.48731 | 144° | 4km/h | 21599m | -16.3m/s | 0°C | 0% | 0hPa | 0V | 00:00:00 | 00:00:00 | 00:00:00 | |
| PETON7-10 | 2026-08-31 13:38:06 | 48.50948 | 17.48729 | 52° | 4km/h | 21669m | -14.7m/s | 0°C | 0% | 0hPa | 0V | 00:00:00 | 00:00:00 | 00:00:00 | |
| ATIDSZ-14 | 2026-08-31 13:38:04 | 48.50947 | 17.48728 | 4° | 2km/h | 21700m | -16.0m/s | 0°C | 0% | 0hPa | 0V | 00:00:00 | 00:00:00 | 00:00:00 | |
| OE3OSB-13 | 2026-08-31 13:37:56 | 48.50936 | 17.48746 | 321° | 11km/h | 21896m | -17.1m/s | -51.0°C | 0.0% | 39.8hPa | 0V | 00:00:00 | 00:00:00 | 00:00:00 | |
| OM5KV | 2026-08-31 13:37:54 | 48.50938 | 17.48743 | 321° | 11km/h | 21877m | -17.2m/s | 0°C | 0% | 0hPa | 0V | 00:00:00 | 00:00:00 | 00:00:00 | |
| OM5KV | 2026-08-31 13:37:51 | 48.50931 | 17.48750 | 334° | 13km/h | 21933m | -17.4m/s | 0°C | 0% | 0hPa | 0V | 00:00:00 | 00:00:00 | 00:00:00 | |
| PETON7-10 | 2026-08-31 13:37:49 | 48.50923 | 17.48754 | 338° | 20km/h | 21965m | -14.8m/s | 0°C | 0% | 0hPa | 0V | 00:00:00 | 00:00:00 | 00:00:00 | |
| ATIDSZ-14 | 2026-08-31 13:37:43 | 48.50896 | 17.48764 | 354° | 22km/h | 22064m | -17.4m/s | 0°C | 0% | 0hPa | 0V | 00:00:00 | 00:00:00 | 00:00:00 | |
| OM5KV | 2026-08-31 13:37:39 | 48.50873 | 17.48764 | 10° | 22km/h | 22135m | -16.6m/s | 0°C | 0% | 0hPa | 0V | 00:00:00 | 00:00:00 | 00:00:00 | |
| OM5KV | 2026-08-31 13:37:37 | 48.50862 | 17.48761 | 15° | 22km/h | 22173m | -18.5m/s | 0°C | 0% | 0hPa | 0V | 00:00:00 | 00:00:00 | 00:00:00 | |
| PETON7-10 | 2026-08-31 13:37:34 | 48.50849 | 17.48751 | 41° | 20km/h | 22228m | -19.0m/s | 0°C | 0% | 0hPa | 0V | 00:00:00 | 00:00:00 | 00:00:00 | |
| OM5KV | 2026-08-31 13:37:32 | 48.50842 | 17.48740 | 54° | 20km/h | 22267m | -19.4m/s | 0°C | 0% | 0hPa | 0V | 00:00:00 | 00:00:00 | 00:00:00 | |
| OM5KV | 2026-08-31 13:37:28 | 48.50829 | 17.48712 | 58° | 24km/h | 22344m | -17.4m/s | 0°C | 0% | 0hPa | 0V | 00:00:00 | 00:00:00 | 00:00:00 | |
| OM5KV | 2026-08-31 13:37:27 | 48.50826 | 17.48705 | 53° | 22km/h | 22362m | -16.8m/s | 0°C | 0% | 0hPa | 0V | 00:00:00 | 00:00:00 | 00:00:00 | |
| OM5KV | 2026-08-31 13:37:23 | 48.50812 | 17.48682 | 55° | 20km/h | 22428m | -18.5m/s | 0°C | 0% | 0hPa | 0V | 00:00:00 | 00:00:00 | 00:00:00 | |
| OM5KV | 2026-08-31 13:37:22 | 48.50810 | 17.48676 | 49° | 18km/h | 22447m | -17.5m/s | 0°C | 0% | 0hPa | 0V | 00:00:00 | 00:00:00 | 00:00:00 | |
| PETON7-10 | 2026-08-31 13:37:18 | 48.50800 | 17.48659 | 69° | 15km/h | 22517m | -17.9m/s | 0°C | 0% | 0hPa | 0V | 00:00:00 | 00:00:00 | 00:00:00 | |
| OM5KV | 2026-08-31 13:37:16 | 48.50798 | 17.48652 | 74° | 9km/h | 22554m | -17.7m/s | 0°C | 0% | 0hPa | 0V | 00:00:00 | 00:00:00 | 00:00:00 | |
| OM5KV | 2026-08-31 13:37:11 | 48.50799 | 17.48630 | 117° | 15km/h | 22637m | -16.9m/s | 0°C | 0% | 0hPa | 0V | 00:00:00 | 00:00:00 | 00:00:00 | |
| OM5KV | 2026-08-31 13:37:10 | 48.50800 | 17.48626 | 112° | 15km/h | 22654m | -17.0m/s | 0°C | 0% | 0hPa | 0V | 00:00:00 | 00:00:00 | 00:00:00 | |
| OM5KV | 2026-08-31 13:37:05 | 48.50812 | 17.48604 | 152° | 16km/h | 22748m | -17.5m/s | 0°C | 0% | 0hPa | 0V | 00:00:00 | 00:00:00 | 00:00:00 | |
| PETON7-10 | 2026-08-31 13:37:03 | 48.50819 | 17.48600 | 164° | 9km/h | 22783m | -16.2m/s | 0°C | 0% | 0hPa | 0V | 00:00:00 | 00:00:00 | 00:00:00 | |
| OM5KV | 2026-08-31 13:37:00 | 48.50829 | 17.48597 | 164° | 11km/h | 22831m | -15.4m/s | 0°C | 0% | 0hPa | 0V | 00:00:00 | 00:00:00 | 00:00:00 | |
| OE3OSB-13 | 2026-08-31 13:36:54 | 48.50846 | 17.48595 | 163° | 5km/h | 22950m | -17.3m/s | -53.2°C | 0.0% | 33.2hPa | 0V | 00:00:00 | 00:00:00 | 00:00:00 | |
| ATIDSZ-14 | 2026-08-31 13:36:53 | 48.50846 | 17.48595 | 164° | 7km/h | 22950m | -17.3m/s | 0°C | 0% | 0hPa | 0V | 00:00:00 | 00:00:00 | 00:00:00 | |
| OM5KV | 2026-08-31 13:36:49 | 48.50848 | 17.48594 | 3° | 4km/h | 23017m | -17.1m/s | 0°C | 0% | 0hPa | 0V | 00:00:00 | 00:00:00 | 00:00:00 | |
| PETON7-10 | 2026-08-31 13:36:48 | 48.50847 | 17.48594 | 336° | 7km/h | 23035m | -15.8m/s | 0°C | 0% | 0hPa | 0V | 00:00:00 | 00:00:00 | 00:00:00 | |
| OM5KV | 2026-08-31 13:36:42 | 48.50837 | 17.48599 | 352° | 5km/h | 23130m | -19.4m/s | 0°C | 0% | 0hPa | 0V | 00:00:00 | 00:00:00 | 00:00:00 | |
| OM5KV | 2026-08-31 13:36:41 | 48.50835 | 17.48599 | 358° | 7km/h | 23149m | -18.4m/s | 0°C | 0% | 0hPa | 0V | 00:00:00 | 00:00:00 | 00:00:00 | |
| OK1ALN | 2026-08-31 13:36:37 | 48.50828 | 17.48599 | 361° | 5km/h | 23215m | -14.9m/s | 0°C | 0% | 0hPa | 0V | 00:00:00 | 00:00:00 | 00:00:00 | |
| OM5KV | 2026-08-31 13:36:35 | 48.50825 | 17.48599 | 356° | 7km/h | 23250m | -17.2m/s | 0°C | 0% | 0hPa | 0V | 00:00:00 | 00:00:00 | 00:00:00 | |
| ATIDSZ-14 | 2026-08-31 13:36:31 | 48.50820 | 17.48602 | 324° | 9km/h | 23324m | -17.6m/s | 0°C | 0% | 0hPa | 0V | 00:00:00 | 00:00:00 | 00:00:00 | |
| OM5KV | 2026-08-31 13:36:30 | 48.50818 | 17.48604 | 328° | 9km/h | 23341m | -14.8m/s | 0°C | 0% | 0hPa | 0V | 00:00:00 | 00:00:00 | 00:00:00 | |
| OM5KV | 2026-08-31 13:36:29 | 48.50816 | 17.48606 | 324° | 9km/h | 23356m | -14.9m/s | 0°C | 0% | 0hPa | 0V | 00:00:00 | 00:00:00 | 00:00:00 | |
| OM5KV | 2026-08-31 13:36:25 | 48.50809 | 17.48612 | 11° | 5km/h | 23420m | -17.1m/s | 0°C | 0% | 0hPa | 0V | 00:00:00 | 00:00:00 | 00:00:00 | |
| OE3OSB-13 | 2026-08-31 13:36:22 | 48.50806 | 17.48610 | 40° | 4km/h | 23472m | -15.9m/s | -53.0°C | 0.0% | 30.3hPa | 0V | 00:00:00 | 00:00:00 | 00:00:00 | |
| OM5KV | 2026-08-31 13:36:19 | 48.50803 | 17.48608 | 10° | 7km/h | 23524m | -16.9m/s | 0°C | 0% | 0hPa | 0V | 00:00:00 | 00:00:00 | 00:00:00 | |
| OM5KV | 2026-08-31 13:36:18 | 48.50801 | 17.48608 | 356° | 5km/h | 23542m | -17.2m/s | 0°C | 0% | 0hPa | 0V | 00:00:00 | 00:00:00 | 00:00:00 | |
| OK1ALN | 2026-08-31 13:36:16 | 48.50800 | 17.48609 | 301° | 2km/h | 23576m | -16.6m/s | 0°C | 0% | 0hPa | 0V | 00:00:00 | 00:00:00 | 00:00:00 | |
| OM5KV | 2026-08-31 13:36:13 | 48.50799 | 17.48611 | 256° | 2km/h | 23627m | -16.5m/s | 0°C | 0% | 0hPa | 0V | 00:00:00 | 00:00:00 | 00:00:00 | |
| OM5KV | 2026-08-31 13:36:12 | 48.50799 | 17.48612 | 287° | 2km/h | 23645m | -17.3m/s | 0°C | 0% | 0hPa | 0V | 00:00:00 | 00:00:00 | 00:00:00 | |
| ATIDSZ-14 | 2026-08-31 13:36:10 | 48.50798 | 17.48615 | 308° | 7km/h | 23682m | -19.1m/s | 0°C | 0% | 0hPa | 0V | 00:00:00 | 00:00:00 | 00:00:00 | |
| OM5KV | 2026-08-31 13:36:07 | 48.50795 | 17.48622 | 313° | 9km/h | 23739m | -15.2m/s | 0°C | 0% | 0hPa | 0V | 00:00:00 | 00:00:00 | 00:00:00 | |
| OM5KV | 2026-08-31 13:36:02 | 48.50779 | 17.48633 | 351° | 18km/h | 23825m | -17.8m/s | 0°C | 0% | 0hPa | 0V | 00:00:00 | 00:00:00 | 00:00:00 | |
| OM5KV | 2026-08-31 13:36:00 | 48.50770 | 17.48635 | 357° | 18km/h | 23861m | -17.4m/s | 0°C | 0% | 0hPa | 0V | 00:00:00 | 00:00:00 | 00:00:00 | |
| OE3OSB-13 | 2026-08-31 13:35:52 | 48.50730 | 17.48597 | 51° | 18km/h | 24043m | -15.7m/s | -53.1°C | 0.0% | 27.4hPa | 0V | 00:00:00 | 00:00:00 | 00:00:00 | |
| OM5KV | 2026-08-31 13:35:50 | 48.50730 | 17.48597 | 52° | 20km/h | 24043m | -15.7m/s | 0°C | 0% | 0hPa | 0V | 00:00:00 | 00:00:00 | 00:00:00 | |
| ATIDSZ-14 | 2026-08-31 13:35:49 | 48.50727 | 17.48592 | 67° | 18km/h | 24059m | -17.0m/s | 0°C | 0% | 0hPa | 0V | 00:00:00 | 00:00:00 | 00:00:00 | |
| OM5KV | 2026-08-31 13:35:47 | 48.50723 | 17.48580 | 60° | 15km/h | 24094m | -18.6m/s | 0°C | 0% | 0hPa | 0V | 00:00:00 | 00:00:00 | 00:00:00 | |
| OM5KV | 2026-08-31 13:35:41 | 48.50718 | 17.48560 | 49° | 4km/h | 24205m | -18.4m/s | 0°C | 0% | 0hPa | 0V | 00:00:00 | 00:00:00 | 00:00:00 | |
| OM5KV | 2026-08-31 13:35:39 | 48.50716 | 17.48558 | 13° | 9km/h | 24240m | -17.6m/s | 0°C | 0% | 0hPa | 0V | 00:00:00 | 00:00:00 | 00:00:00 | |
| OM5KV | 2026-08-31 13:35:36 | 48.50707 | 17.48554 | 30° | 13km/h | 24293m | -16.2m/s | 0°C | 0% | 0hPa | 0V | 00:00:00 | 00:00:00 | 00:00:00 | |
| OK1ALN | 2026-08-31 13:35:35 | 48.50704 | 17.48551 | 29° | 13km/h | 24311m | -17.9m/s | 0°C | 0% | 0hPa | 0V | 00:00:00 | 00:00:00 | 00:00:00 | |
| OM5KV | 2026-08-31 13:35:34 | 48.50701 | 17.48549 | 49° | 9km/h | 24329m | -19.0m/s | 0°C | 0% | 0hPa | 0V | 00:00:00 | 00:00:00 | 00:00:00 | |
| OM5KV | 2026-08-31 13:35:30 | 48.50689 | 17.48536 | 50° | 15km/h | 24407m | -16.9m/s | 0°C | 0% | 0hPa | 0V | 00:00:00 | 00:00:00 | 00:00:00 | |
| ATIDSZ-14 | 2026-08-31 13:35:28 | 48.50685 | 17.48527 | 61° | 15km/h | 24445m | -20.9m/s | 0°C | 0% | 0hPa | 0V | 00:00:00 | 00:00:00 | 00:00:00 | |
| OE3OSB-13 | 2026-08-31 13:35:20 | 48.50670 | 17.48505 | 29° | 7km/h | 24620m | -18.7m/s | -51.4°C | 0.0% | 24.6hPa | 0V | 00:00:00 | 00:00:00 | 00:00:00 | |
| OM5KV | 2026-08-31 13:35:15 | 48.50657 | 17.48495 | 38° | 16km/h | 24698m | -18.4m/s | 0°C | 0% | 0hPa | 0V | 00:00:00 | 00:00:00 | 00:00:00 | |
| OM5KV | 2026-08-31 13:35:14 | 48.50653 | 17.48492 | 28° | 20km/h | 24716m | -16.8m/s | 0°C | 0% | 0hPa | 0V | 00:00:00 | 00:00:00 | 00:00:00 | |
| ATIDSZ-14 | 2026-08-31 13:35:08 | 48.50631 | 17.48469 | 37° | 11km/h | 24824m | -18.5m/s | 0°C | 0% | 0hPa | 0V | 00:00:00 | 00:00:00 | 00:00:00 | |
| OM5KV | 2026-08-31 13:35:05 | 48.50624 | 17.48464 | 24° | 5km/h | 24877m | -17.9m/s | 0°C | 0% | 0hPa | 0V | 00:00:00 | 00:00:00 | 00:00:00 | |
| OM5KV | 2026-08-31 13:35:00 | 48.50619 | 17.48462 | 264° | 4km/h | 24968m | -18.8m/s | 0°C | 0% | 0hPa | 0V | 00:00:00 | 00:00:00 | 00:00:00 | |
| OK1ALN | 2026-08-31 13:34:54 | 48.50619 | 17.48463 | 53° | 2km/h | 25088m | -17.8m/s | 0°C | 0% | 0hPa | 0V | 00:00:00 | 00:00:00 | 00:00:00 | |
| PETON7-10 | 2026-08-31 13:34:51 | 48.50619 | 17.48459 | 102° | 11km/h | 25144m | -20.6m/s | 0°C | 0% | 0hPa | 0V | 00:00:00 | 00:00:00 | 00:00:00 | |
| OM5KV | 2026-08-31 13:34:49 | 48.50619 | 17.48451 | 94° | 11km/h | 25185m | -19.9m/s | 0°C | 0% | 0hPa | 0V | 00:00:00 | 00:00:00 | 00:00:00 | |
| ATIDSZ-14 | 2026-08-31 13:34:45 | 48.50619 | 17.48429 | 97° | 18km/h | 25261m | -18.6m/s | 0°C | 0% | 0hPa | 0V | 00:00:00 | 00:00:00 | 00:00:00 | |
| PETON7-10 | 2026-08-31 13:34:36 | 48.50621 | 17.48390 | 78° | 9km/h | 25447m | -21.8m/s | 0°C | 0% | 0hPa | 0V | 00:00:00 | 00:00:00 | 00:00:00 | |
| OK1ALN | 2026-08-31 13:34:32 | 48.50618 | 17.48377 | 76° | 7km/h | 25518m | -15.7m/s | 0°C | 0% | 0hPa | 0V | 00:00:00 | 00:00:00 | 00:00:00 | |
| OM5KV | 2026-08-31 13:34:31 | 48.50618 | 17.48375 | 66° | 4km/h | 25535m | -16.4m/s | 0°C | 0% | 0hPa | 0V | 00:00:00 | 00:00:00 | 00:00:00 | |
| OM5KV | 2026-08-31 13:34:25 | 48.50608 | 17.48376 | 325° | 9km/h | 25656m | -19.3m/s | 0°C | 0% | 0hPa | 0V | 00:00:00 | 00:00:00 | 00:00:00 | |
| ATIDSZ-14 | 2026-08-31 13:34:24 | 48.50607 | 17.48377 | 343° | 7km/h | 25676m | -20.3m/s | 0°C | 0% | 0hPa | 0V | 00:00:00 | 00:00:00 | 00:00:00 | |
| PETON7-10 | 2026-08-31 13:34:21 | 48.50603 | 17.48380 | 347° | 9km/h | 25738m | -20.1m/s | 0°C | 0% | 0hPa | 0V | 00:00:00 | 00:00:00 | 00:00:00 | |
| OM5KV | 2026-08-31 13:34:20 | 48.50601 | 17.48380 | 3° | 7km/h | 25758m | -21.0m/s | 0°C | 0% | 0hPa | 0V | 00:00:00 | 00:00:00 | 00:00:00 | |
| OE3OSB-13 | 2026-08-31 13:34:18 | 48.50597 | 17.48375 | 74° | 5km/h | 25823m | -21.5m/s | -50.5°C | 0.0% | 19.8hPa | 0V | 00:00:00 | 00:00:00 | 00:00:00 | |
| OM5KV | 2026-08-31 13:34:15 | 48.50596 | 17.48369 | 76° | 9km/h | 25867m | -20.6m/s | 0°C | 0% | 0hPa | 0V | 00:00:00 | 00:00:00 | 00:00:00 | |
| OM5KV | 2026-08-31 13:34:14 | 48.50595 | 17.48365 | 80° | 13km/h | 25888m | -20.9m/s | 0°C | 0% | 0hPa | 0V | 00:00:00 | 00:00:00 | 00:00:00 | |
| OM5KV | 2026-08-31 13:34:09 | 48.50596 | 17.48342 | 98° | 11km/h | 26000m | -22.1m/s | 0°C | 0% | 0hPa | 0V | 00:00:00 | 00:00:00 | 00:00:00 | |
| OM5KV | 2026-08-31 13:34:07 | 48.50597 | 17.48335 | 96° | 11km/h | 26041m | -21.0m/s | 0°C | 0% | 0hPa | 0V | 00:00:00 | 00:00:00 | 00:00:00 | |
| PETON7-10 | 2026-08-31 13:34:06 | 48.50597 | 17.48332 | 106° | 9km/h | 26062m | -18.7m/s | 0°C | 0% | 0hPa | 0V | 00:00:00 | 00:00:00 | 00:00:00 | |
| OM5KV | 2026-08-31 13:34:03 | 48.50596 | 17.48327 | 52° | 2km/h | 26128m | -19.5m/s | 0°C | 0% | 0hPa | 0V | 00:00:00 | 00:00:00 | 00:00:00 | |
| ATIDSZ-14 | 2026-08-31 13:34:01 | 48.50594 | 17.48327 | 276° | 2km/h | 26167m | -20.6m/s | 0°C | 0% | 0hPa | 0V | 00:00:00 | 00:00:00 | 00:00:00 | |
| OE3OSB-13 | 2026-08-31 13:33:47 | 48.50561 | 17.48384 | 346° | 7km/h | 26467m | -20.4m/s | -49.3°C | 0.0% | 17.6hPa | 0V | 00:00:00 | 00:00:00 | 00:00:00 | |
| OM5KV | 2026-08-31 13:33:44 | 48.50558 | 17.48384 | 359° | 11km/h | 26490m | -22.4m/s | 0°C | 0% | 0hPa | 0V | 00:00:00 | 00:00:00 | 00:00:00 | |
| ATIDSZ-14 | 2026-08-31 13:33:39 | 48.50543 | 17.48378 | 20° | 13km/h | 26608m | -20.7m/s | 0°C | 0% | 0hPa | 0V | 00:00:00 | 00:00:00 | 00:00:00 | |
| OM5KV | 2026-08-31 13:33:38 | 48.50540 | 17.48377 | 23° | 13km/h | 26629m | -18.8m/s | 0°C | 0% | 0hPa | 0V | 00:00:00 | 00:00:00 | 00:00:00 | |
| PETON7-10 | 2026-08-31 13:33:36 | 48.50534 | 17.48374 | 12° | 9km/h | 26662m | -15.5m/s | 0°C | 0% | 0hPa | 0V | 00:00:00 | 00:00:00 | 00:00:00 | |
| OM5KV | 2026-08-31 13:33:32 | 48.50530 | 17.48367 | 111° | 5km/h | 26744m | -19.3m/s | 0°C | 0% | 0hPa | 0V | 00:00:00 | 00:00:00 | 00:00:00 | |
| OK1ALN | 2026-08-31 13:33:30 | 48.50532 | 17.48366 | 125° | 4km/h | 26787m | -21.2m/s | 0°C | 0% | 0hPa | 0V | 00:00:00 | 00:00:00 | 00:00:00 | |
| OM5KV | 2026-08-31 13:33:26 | 48.50530 | 17.48359 | 38° | 13km/h | 26877m | -18.9m/s | 0°C | 0% | 0hPa | 0V | 00:00:00 | 00:00:00 | 00:00:00 | |
| OM5KV | 2026-08-31 13:33:21 | 48.50518 | 17.48337 | 68° | 11km/h | 26978m | -19.6m/s | 0°C | 0% | 0hPa | 0V | 00:00:00 | 00:00:00 | 00:00:00 | |
| PETON7-10 | 2026-08-31 13:33:19 | 48.50517 | 17.48330 | 113° | 11km/h | 27019m | -18.0m/s | 0°C | 0% | 0hPa | 0V | 00:00:00 | 00:00:00 | 00:00:00 | |
| OE3OSB-13 | 2026-08-31 13:33:16 | 48.50516 | 17.48322 | 17° | 7km/h | 27104m | -22.2m/s | -47.4°C | 0.0% | 15.6hPa | 0V | 00:00:00 | 00:00:00 | 00:00:00 | |
| OM5KV | 2026-08-31 13:33:15 | 48.50516 | 17.48321 | 18° | 9km/h | 27104m | -22.2m/s | 0°C | 0% | 0hPa | 0V | 00:00:00 | 00:00:00 | 00:00:00 | |
| OK1ALN | 2026-08-31 13:33:10 | 48.50505 | 17.48318 | 11° | 7km/h | 27206m | -19.2m/s | 0°C | 0% | 0hPa | 0V | 00:00:00 | 00:00:00 | 00:00:00 | |
| OM5KV | 2026-08-31 13:33:09 | 48.50502 | 17.48317 | 8° | 11km/h | 27228m | -22.2m/s | 0°C | 0% | 0hPa | 0V | 00:00:00 | 00:00:00 | 00:00:00 | |
| PETON7-10 | 2026-08-31 13:33:03 | 48.50480 | 17.48307 | 17° | 22km/h | 27352m | -20.6m/s | 0°C | 0% | 0hPa | 0V | 00:00:00 | 00:00:00 | 00:00:00 | |
| OE3OSB-13 | 2026-08-31 13:32:45 | 48.50416 | 17.48190 | 89° | 20km/h | 27733m | -21.0m/s | -47.8°C | 0.0% | 13.8hPa | 0V | 00:00:00 | 00:00:00 | 00:00:00 | |
| ATIDSZ-14 | 2026-08-31 13:32:44 | 48.50417 | 17.48190 | 90° | 20km/h | 27733m | -21.0m/s | 0°C | 0% | 0hPa | 0V | 00:00:00 | 00:00:00 | 00:00:00 | |
| OM5KV | 2026-08-31 13:32:37 | 48.50423 | 17.48143 | 128° | 13km/h | 27891m | -21.0m/s | 0°C | 0% | 0hPa | 0V | 00:00:00 | 00:00:00 | 00:00:00 | |
| PETON7-10 | 2026-08-31 13:32:31 | 48.50434 | 17.48134 | 298° | 5km/h | 28019m | -23.1m/s | 0°C | 0% | 0hPa | 0V | 00:00:00 | 00:00:00 | 00:00:00 | |
| OK1ALN | 2026-08-31 13:32:28 | 48.50434 | 17.48135 | 0° | 0km/h | 28085m | -19.1m/s | 0°C | 0% | 0hPa | 0V | 00:00:00 | 00:00:00 | 00:00:00 | |
| OM5KV | 2026-08-31 13:32:25 | 48.50436 | 17.48135 | 139° | 4km/h | 28146m | -21.0m/s | 0°C | 0% | 0hPa | 0V | 00:00:00 | 00:00:00 | 00:00:00 | |
| OM5KV | 2026-08-31 13:32:22 | 48.50439 | 17.48131 | 126° | 7km/h | 28210m | -20.2m/s | 0°C | 0% | 0hPa | 0V | 00:00:00 | 00:00:00 | 00:00:00 | |
| OM5KV | 2026-08-31 13:32:16 | 48.50449 | 17.48112 | 129° | 13km/h | 28359m | -25.4m/s | 0°C | 0% | 0hPa | 0V | 00:00:00 | 00:00:00 | 00:00:00 | |
| OM5KV | 2026-08-31 13:32:10 | 48.50462 | 17.48099 | 182° | 5km/h | 28496m | -24.5m/s | 0°C | 0% | 0hPa | 0V | 00:00:00 | 00:00:00 | 00:00:00 | |
| OM5KV | 2026-08-31 13:32:09 | 48.50464 | 17.48100 | 190° | 7km/h | 28522m | -25.5m/s | 0°C | 0% | 0hPa | 0V | 00:00:00 | 00:00:00 | 00:00:00 | |
| OK1ALN | 2026-08-31 13:32:08 | 48.50466 | 17.48100 | 186° | 9km/h | 28548m | -24.2m/s | 0°C | 0% | 0hPa | 0V | 00:00:00 | 00:00:00 | 00:00:00 | |
| ATIDSZ-14 | 2026-08-31 13:32:07 | 48.50468 | 17.48101 | 191° | 9km/h | 28572m | -22.3m/s | 0°C | 0% | 0hPa | 0V | 00:00:00 | 00:00:00 | 00:00:00 | |
| OM5KV | 2026-08-31 13:32:03 | 48.50475 | 17.48097 | 118° | 7km/h | 28669m | -24.8m/s | 0°C | 0% | 0hPa | 0V | 00:00:00 | 00:00:00 | 00:00:00 | |
| OE3OSB-13 | 2026-08-31 13:31:43 | 48.50464 | 17.48037 | 65° | 7km/h | 29146m | -24.9m/s | -44.6°C | 0.0% | 10.3hPa | 0V | 00:00:00 | 00:00:00 | 00:00:00 | |
| OM5KV | 2026-08-31 13:31:39 | 48.50460 | 17.48030 | 53° | 9km/h | 29225m | -24.6m/s | 0°C | 0% | 0hPa | 0V | 00:00:00 | 00:00:00 | 00:00:00 | |
| OM5KV | 2026-08-31 13:31:32 | 48.50444 | 17.48010 | 35° | 13km/h | 29386m | -20.3m/s | 0°C | 0% | 0hPa | 0V | 00:00:00 | 00:00:00 | 00:00:00 | |
| PETON7-10 | 2026-08-31 13:31:21 | 48.50414 | 17.47960 | 62° | 18km/h | 29666m | -24.0m/s | 0°C | 0% | 0hPa | 0V | 00:00:00 | 00:00:00 | 00:00:00 | |
| OM5KV | 2026-08-31 13:31:19 | 48.50412 | 17.47946 | 80° | 20km/h | 29714m | -23.3m/s | 0°C | 0% | 0hPa | 0V | 00:00:00 | 00:00:00 | 00:00:00 | |
| OK1ALN | 2026-08-31 13:31:17 | 48.50408 | 17.47932 | 63° | 20km/h | 29771m | -26.5m/s | 0°C | 0% | 0hPa | 0V | 00:00:00 | 00:00:00 | 00:00:00 | |
| OM5KV | 2026-08-31 13:31:15 | 48.50402 | 17.47918 | 55° | 22km/h | 29823m | -24.4m/s | 0°C | 0% | 0hPa | 0V | 00:00:00 | 00:00:00 | 00:00:00 | |
| OE3OSB-13 | 2026-08-31 13:31:12 | 48.50388 | 17.47890 | 50° | 24km/h | 29929m | -26.1m/s | -42.7°C | 0.0% | 8.7hPa | 0V | 00:00:00 | 00:00:00 | 00:00:00 | |
| OM5KV | 2026-08-31 13:31:09 | 48.50381 | 17.47875 | 70° | 26km/h | 29981m | -25.8m/s | 0°C | 0% | 0hPa | 0V | 00:00:00 | 00:00:00 | 00:00:00 | |
| OM5KV | 2026-08-31 13:31:07 | 48.50376 | 17.47858 | 68° | 22km/h | 30031m | -25.2m/s | 0°C | 0% | 0hPa | 0V | 00:00:00 | 00:00:00 | 00:00:00 | |
| OM5KV | 2026-08-31 13:31:04 | 48.50374 | 17.47837 | 102° | 20km/h | 30102m | -22.2m/s | 0°C | 0% | 0hPa | 0V | 00:00:00 | 00:00:00 | 00:00:00 | |
| OM5KV | 2026-08-31 13:31:01 | 48.50379 | 17.47814 | 107° | 26km/h | 30184m | -26.5m/s | 0°C | 0% | 0hPa | 0V | 00:00:00 | 00:00:00 | 00:00:00 | |
| OM5KV | 2026-08-31 13:30:59 | 48.50382 | 17.47796 | 103° | 24km/h | 30235m | -22.4m/s | 0°C | 0% | 0hPa | 0V | 00:00:00 | 00:00:00 | 00:00:00 | |
| OK1ALN | 2026-08-31 13:30:57 | 48.50384 | 17.47781 | 102° | 18km/h | 30286m | -26.8m/s | 0°C | 0% | 0hPa | 0V | 00:00:00 | 00:00:00 | 00:00:00 | |
| OM5KV | 2026-08-31 13:30:53 | 48.50388 | 17.47763 | 85° | 7km/h | 30390m | -26.6m/s | 0°C | 0% | 0hPa | 0V | 00:00:00 | 00:00:00 | 00:00:00 | |
| OM5KV | 2026-08-31 13:30:43 | 48.50381 | 17.47736 | 140° | 9km/h | 30677m | -29.2m/s | 0°C | 0% | 0hPa | 0V | 00:00:00 | 00:00:00 | 00:00:00 | |
| OE3OSB-13 | 2026-08-31 13:30:41 | 48.50391 | 17.47736 | 198° | 9km/h | 30794m | -27.9m/s | -40.3°C | 0.0% | 7.2hPa | 0V | 00:00:00 | 00:00:00 | 00:00:00 | |
| OM5KV | 2026-08-31 13:30:36 | 48.50396 | 17.47742 | 254° | 7km/h | 30883m | -29.3m/s | 0°C | 0% | 0hPa | 0V | 00:00:00 | 00:00:00 | 00:00:00 | |
| OM5KV | 2026-08-31 13:30:28 | 48.50381 | 17.47767 | 350° | 18km/h | 31113m | -31.4m/s | 0°C | 0% | 0hPa | 0V | 00:00:00 | 00:00:00 | 00:00:00 | |
| OM5KV | 2026-08-31 13:30:27 | 48.50377 | 17.47769 | 349° | 22km/h | 31144m | -29.8m/s | 0°C | 0% | 0hPa | 0V | 00:00:00 | 00:00:00 | 00:00:00 | |
| OK1ALN | 2026-08-31 13:30:26 | 48.50371 | 17.47770 | 5° | 22km/h | 31173m | -27.6m/s | 0°C | 0% | 0hPa | 0V | 00:00:00 | 00:00:00 | 00:00:00 | |
| OM5KV | 2026-08-31 13:30:22 | 48.50348 | 17.47767 | 7° | 22km/h | 31283m | -27.5m/s | 0°C | 0% | 0hPa | 0V | 00:00:00 | 00:00:00 | 00:00:00 | |
| OM5KV | 2026-08-31 13:30:21 | 48.50343 | 17.47767 | 358° | 20km/h | 31311m | -28.8m/s | 0°C | 0% | 0hPa | 0V | 00:00:00 | 00:00:00 | 00:00:00 | |
| OM5KV | 2026-08-31 13:30:17 | 48.50325 | 17.47766 | 25° | 24km/h | 31423m | -29.3m/s | 0°C | 0% | 0hPa | 0V | 00:00:00 | 00:00:00 | 00:00:00 | |
| OM5KV | 2026-08-31 13:30:11 | 48.50287 | 17.47738 | 18° | 26km/h | 31593m | -27.5m/s | 0°C | 0% | 0hPa | 0V | 00:00:00 | 00:00:00 | 00:00:00 | |
| OE3OSB-13 | 2026-08-31 13:30:10 | 48.50263 | 17.47715 | 48° | 29km/h | 31706m | -24.8m/s | -41.2°C | 0.0% | 5.8hPa | 0V | 00:00:00 | 00:00:00 | 00:00:00 | |
| OM5KV | 2026-08-31 13:30:07 | 48.50263 | 17.47714 | 49° | 31km/h | 31707m | -24.8m/s | 0°C | 0% | 0hPa | 0V | 00:00:00 | 00:00:00 | 00:00:00 | |
| OM5KV | 2026-08-31 13:30:05 | 48.50254 | 17.47695 | 63° | 31km/h | 31760m | -25.0m/s | 0°C | 0% | 0hPa | 0V | 00:00:00 | 00:00:00 | 00:00:00 | |
| OK1ALN | 2026-08-31 13:30:04 | 48.50250 | 17.47684 | 62° | 31km/h | 31787m | -24.4m/s | 0°C | 0% | 0hPa | 0V | 00:00:00 | 00:00:00 | 00:00:00 | |
| EDDB2-12 | 2026-08-31 13:29:58 | 48.50249 | 17.47550 | 101° | 13km/h | 32220m | -30.1m/s | -38.5°C | 0.0% | 5.0hPa | 0V | 00:00:00 | 00:00:00 | 00:00:00 | |
| OM5KV | 2026-08-31 13:29:54 | 48.50242 | 17.47591 | 101° | 29km/h | 32069m | -27.3m/s | 0°C | 0% | 0hPa | 0V | 00:00:00 | 00:00:00 | 00:00:00 | |
| OM5KV | 2026-08-31 13:29:52 | 48.50245 | 17.47571 | 105° | 24km/h | 32127m | -29.5m/s | 0°C | 0% | 0hPa | 0V | 00:00:00 | 00:00:00 | 00:00:00 | |
| ATIDSZ-14 | 2026-08-31 13:29:50 | 48.50247 | 17.47556 | 106° | 18km/h | 32191m | -27.5m/s | 0°C | 0% | 0hPa | 0V | 00:00:00 | 00:00:00 | 00:00:00 | |
| OM5KV | 2026-08-31 13:29:48 | 48.50249 | 17.47546 | 100° | 9km/h | 32251m | -29.5m/s | 0°C | 0% | 0hPa | 0V | 00:00:00 | 00:00:00 | 00:00:00 | |
| OM5KV | 2026-08-31 13:29:41 | 48.50241 | 17.47537 | 20° | 7km/h | 32455m | -28.1m/s | 0°C | 0% | 0hPa | 0V | 00:00:00 | 00:00:00 | 00:00:00 | |
| OE3OSB-13 | 2026-08-31 13:29:38 | 48.50232 | 17.47527 | 66° | 13km/h | 32573m | -30.4m/s | -37.6°C | 0.0% | 4.6hPa | 0V | 00:00:00 | 00:00:00 | 00:00:00 | |
| OM5KV | 2026-08-31 13:29:35 | 48.50230 | 17.47515 | 79° | 18km/h | 32633m | -28.6m/s | 0°C | 0% | 0hPa | 0V | 00:00:00 | 00:00:00 | 00:00:00 | |
| OM5KV | 2026-08-31 13:29:31 | 48.50227 | 17.47489 | 99° | 16km/h | 32759m | -34.5m/s | 0°C | 0% | 0hPa | 0V | 00:00:00 | 00:00:00 | 00:00:00 | |
| ATIDSZ-14 | 2026-08-31 13:29:30 | 48.50227 | 17.47483 | 94° | 16km/h | 32793m | -34.0m/s | 0°C | 0% | 0hPa | 0V | 00:00:00 | 00:00:00 | 00:00:00 | |
| OK1ALN | 2026-08-31 13:29:21 | 48.50220 | 17.47434 | 82° | 11km/h | 33098m | -33.0m/s | 0°C | 0% | 0hPa | 0V | 00:00:00 | 00:00:00 | 00:00:00 | |
| OM5KV | 2026-08-31 13:29:16 | 48.50223 | 17.47412 | 111° | 15km/h | 33280m | -37.3m/s | 0°C | 0% | 0hPa | 0V | 00:00:00 | 00:00:00 | 00:00:00 | |
| OE3OSB-13 | 2026-08-31 13:29:07 | 48.50216 | 17.47393 | 353° | 16km/h | 33597m | -29.1m/s | -35.0°C | 0.0% | 3.4hPa | 0V | 00:00:00 | 00:00:00 | 00:00:00 | |
| OM5KV | 2026-08-31 13:29:04 | 48.50198 | 17.47399 | 355° | 26km/h | 33683m | -26.7m/s | 0°C | 0% | 0hPa | 0V | 00:00:00 | 00:00:00 | 00:00:00 | |
| EDDB2-12 | 2026-08-31 13:28:56 | 48.50129 | 17.47400 | 19° | 27km/h | 33930m | -27.7m/s | -35.0°C | 0.0% | 3.0hPa | 0V | 00:00:00 | 00:00:00 | 00:00:00 | |
| PETON7-10 | 2026-08-31 13:28:42 | 48.50035 | 17.47332 | 24° | 29km/h | 34249m | -32.6m/s | 0°C | 0% | 0hPa | 0V | 00:00:00 | 00:00:00 | 00:00:00 | |
| OK1ALN | 2026-08-31 13:28:40 | 48.50022 | 17.47323 | 34° | 27km/h | 34306m | -23.4m/s | 0°C | 0% | 0hPa | 0V | 00:00:00 | 00:00:00 | 00:00:00 | |
| OE3OSB-13 | 2026-08-31 13:28:36 | 48.50003 | 17.47297 | 56° | 27km/h | 34329m | 13.7m/s | -34.0°C | 0.0% | 2.6hPa | 0V | 00:00:00 | 00:00:00 | 00:00:00 | |
| OM5KV | 2026-08-31 13:28:35 | 48.49998 | 17.47288 | 50° | 31km/h | 34319m | 5.4m/s | 0°C | 0% | 0hPa | 0V | 00:00:00 | 00:00:00 | 00:00:00 | |
| ATIDSZ-14 | 2026-08-31 13:28:34 | 48.49992 | 17.47280 | 39° | 33km/h | 34314m | 4.6m/s | 0°C | 0% | 0hPa | 0V | 00:00:00 | 00:00:00 | 00:00:00 | |
| OM5KV | 2026-08-31 13:28:30 | 48.49960 | 17.47263 | 14° | 27km/h | 34291m | 4.1m/s | 0°C | 0% | 0hPa | 0V | 00:00:00 | 00:00:00 | 00:00:00 | |
| OM5KV | 2026-08-31 13:28:28 | 48.49951 | 17.47253 | 65° | 20km/h | 34280m | 8.4m/s | 0°C | 0% | 0hPa | 0V | 00:00:00 | 00:00:00 | 00:00:00 | |
| PETON7-10 | 2026-08-31 13:28:26 | 48.49947 | 17.47236 | 67° | 31km/h | 34268m | 3.3m/s | 0°C | 0% | 0hPa | 0V | 00:00:00 | 00:00:00 | 00:00:00 | |
| EDDB2-12 | 2026-08-31 13:28:25 | 48.49937 | 17.47224 | 15° | 31km/h | 34257m | 9.2m/s | -34.4°C | 0.0% | 2.7hPa | 0V | 00:00:00 | 00:00:00 | 00:00:00 | |
| OM5KV | 2026-08-31 13:28:24 | 48.49937 | 17.47224 | 17° | 31km/h | 34257m | 9.2m/s | 0°C | 0% | 0hPa | 0V | 00:00:00 | 00:00:00 | 00:00:00 | |
| OM5KV | 2026-08-31 13:28:23 | 48.49927 | 17.47223 | 2° | 46km/h | 34248m | 8.2m/s | 0°C | 0% | 0hPa | 0V | 00:00:00 | 00:00:00 | 00:00:00 | |
| OK1SLM-15 | 2026-08-31 13:28:22 | 48.49915 | 17.47223 | 360° | 51km/h | 34242m | 4.6m/s | 0°C | 0% | 0hPa | 0V | 00:00:00 | 00:00:00 | 00:00:00 | |
| OK1ALN | 2026-08-31 13:28:18 | 48.49880 | 17.47203 | 75° | 29km/h | 34219m | 8.0m/s | 0°C | 0% | 0hPa | 0V | 00:00:00 | 00:00:00 | 00:00:00 | |
| OM5KV | 2026-08-31 13:28:17 | 48.49879 | 17.47193 | 90° | 26km/h | 34213m | 4.8m/s | 0°C | 0% | 0hPa | 0V | 00:00:00 | 00:00:00 | 00:00:00 | |
| OK1SLM-15 | 2026-08-31 13:28:16 | 48.49879 | 17.47186 | 74° | 16km/h | 34209m | 3.4m/s | 0°C | 0% | 0hPa | 0V | 00:00:00 | 00:00:00 | 00:00:00 | |
| OM5KV | 2026-08-31 13:28:13 | 48.49861 | 17.47182 | 357° | 46km/h | 34192m | 5.8m/s | 0°C | 0% | 0hPa | 0V | 00:00:00 | 00:00:00 | 00:00:00 | |
| OM5KV | 2026-08-31 13:28:11 | 48.49834 | 17.47177 | 22° | 57km/h | 34184m | 2.7m/s | 0°C | 0% | 0hPa | 0V | 00:00:00 | 00:00:00 | 00:00:00 | |
| OE3OSB-13 | 2026-08-31 13:28:05 | 48.49810 | 17.47112 | 351° | 26km/h | 34142m | 7.2m/s | -34.8°C | 0.0% | 2.9hPa | 0V | 00:00:00 | 00:00:00 | 00:00:00 | |
| PETON7-10 | 2026-08-31 13:28:03 | 48.49801 | 17.47113 | 359° | 31km/h | 34136m | 5.1m/s | 0°C | 0% | 0hPa | 0V | 00:00:00 | 00:00:00 | 00:00:00 | |
| OM5KV | 2026-08-31 13:28:02 | 48.49789 | 17.47111 | 15° | 49km/h | 34132m | 3.8m/s | 0°C | 0% | 0hPa | 0V | 00:00:00 | 00:00:00 | 00:00:00 | |
| EDDB2-12 | 2026-08-31 13:27:54 | 48.49728 | 17.47052 | 11° | 57km/h | 34076m | 3.1m/s | -34.7°C | 0.0% | 2.9hPa | 0V | 00:00:00 | 00:00:00 | 00:00:00 | |
| ATIDSZ-14 | 2026-08-31 13:27:53 | 48.49741 | 17.47053 | 354° | 53km/h | 34079m | 4.4m/s | 0°C | 0% | 0hPa | 0V | 00:00:00 | 00:00:00 | 00:00:00 | |
| OM5KV | 2026-08-31 13:27:49 | 48.49697 | 17.47015 | 71° | 51km/h | 34056m | 5.8m/s | 0°C | 0% | 0hPa | 0V | 00:00:00 | 00:00:00 | 00:00:00 | |
| OM5KV | 2026-08-31 13:27:45 | 48.49684 | 17.46985 | 338° | 31km/h | 34035m | 10.0m/s | 0°C | 0% | 0hPa | 0V | 00:00:00 | 00:00:00 | 00:00:00 | |
| OM5KV | 2026-08-31 13:27:43 | 48.49662 | 17.47001 | 341° | 60km/h | 34022m | 2.7m/s | 0°C | 0% | 0hPa | 0V | 00:00:00 | 00:00:00 | 00:00:00 | |
| OM5KV | 2026-08-31 13:27:39 | 48.49619 | 17.46985 | 68° | 46km/h | 33998m | 7.2m/s | 0°C | 0% | 0hPa | 0V | 00:00:00 | 00:00:00 | 00:00:00 | |
| OM5KV | 2026-08-31 13:27:37 | 48.49612 | 17.46956 | 61° | 29km/h | 33992m | 2.0m/s | 0°C | 0% | 0hPa | 0V | 00:00:00 | 00:00:00 | 00:00:00 | |
| OK1ALN | 2026-08-31 13:27:36 | 48.49607 | 17.46949 | 27° | 26km/h | 33988m | 5.6m/s | 0°C | 0% | 0hPa | 0V | 00:00:00 | 00:00:00 | 00:00:00 | |
| OE3JTB-15 | 2026-08-31 13:27:34 | 48.49590 | 17.46954 | 336° | 31km/h | 33971m | 8.2m/s | 0°C | 0% | 0hPa | 0V | 00:00:00 | 00:00:00 | 00:00:00 | |
| OM5KV | 2026-08-31 13:27:33 | 48.49577 | 17.46964 | 336° | 62km/h | 33965m | 5.2m/s | 0°C | 0% | 0hPa | 0V | 00:00:00 | 00:00:00 | 00:00:00 | |
| ATIDSZ-14 | 2026-08-31 13:27:24 | 48.49505 | 17.46949 | 348° | 46km/h | 33912m | 7.8m/s | 0°C | 0% | 0hPa | 0V | 00:00:00 | 00:00:00 | 00:00:00 | |
| EDDB2-12 | 2026-08-31 13:27:23 | 48.49482 | 17.46958 | 346° | 44km/h | 33901m | 3.7m/s | -34.6°C | 0.0% | 3.0hPa | 0V | 00:00:00 | 00:00:00 | 00:00:00 | |
| OM5KV | 2026-08-31 13:27:21 | 48.49471 | 17.46960 | 358° | 37km/h | 33897m | 5.8m/s | 0°C | 0% | 0hPa | 0V | 00:00:00 | 00:00:00 | 00:00:00 | |
| OM5KV | 2026-08-31 13:27:20 | 48.49463 | 17.46959 | 19° | 31km/h | 33890m | 7.0m/s | 0°C | 0% | 0hPa | 0V | 00:00:00 | 00:00:00 | 00:00:00 | |
| OM5KV | 2026-08-31 13:27:16 | 48.49440 | 17.46948 | 344° | 26km/h | 33867m | 7.4m/s | 0°C | 0% | 0hPa | 0V | 00:00:00 | 00:00:00 | 00:00:00 | |
| OM5KV | 2026-08-31 13:27:14 | 48.49427 | 17.46959 | 326° | 37km/h | 33855m | 5.3m/s | 0°C | 0% | 0hPa | 0V | 00:00:00 | 00:00:00 | 00:00:00 | |
| OM5KV | 2026-08-31 13:27:10 | 48.49402 | 17.46974 | 360° | 24km/h | 33832m | 4.2m/s | 0°C | 0% | 0hPa | 0V | 00:00:00 | 00:00:00 | 00:00:00 | |
| OM5KV | 2026-08-31 13:27:05 | 48.49361 | 17.46984 | 349° | 29km/h | 33804m | 4.2m/s | 0°C | 0% | 0hPa | 0V | 00:00:00 | 00:00:00 | 00:00:00 | |
| OE3OSB-13 | 2026-08-31 13:27:03 | 48.49347 | 17.46983 | 31° | 11km/h | 33783m | 4.7m/s | -34.6°C | 0.0% | 3.2hPa | 0V | 00:00:00 | 00:00:00 | 00:00:00 | |
| OM5KV | 2026-08-31 13:27:01 | 48.49344 | 17.46982 | 3° | 16km/h | 33779m | 3.8m/s | 0°C | 0% | 0hPa | 0V | 00:00:00 | 00:00:00 | 00:00:00 | |
| OE3JTB-15 | 2026-08-31 13:27:00 | 48.49338 | 17.46983 | 343° | 27km/h | 33773m | 7.1m/s | 0°C | 0% | 0hPa | 0V | 00:00:00 | 00:00:00 | 00:00:00 | |
| EDDB2-12 | 2026-08-31 13:26:52 | 48.49280 | 17.46985 | 358° | 7km/h | 33719m | 6.4m/s | -34.8°C | 0.0% | 3.3hPa | 0V | 00:00:00 | 00:00:00 | 00:00:00 | |
| OK1SLM-15 | 2026-08-31 13:26:50 | 48.49276 | 17.46987 | 331° | 18km/h | 33713m | 5.5m/s | 0°C | 0% | 0hPa | 0V | 00:00:00 | 00:00:00 | 00:00:00 | |
| OM5KV | 2026-08-31 13:26:49 | 48.49271 | 17.46991 | 331° | 29km/h | 33707m | 5.2m/s | 0°C | 0% | 0hPa | 0V | 00:00:00 | 00:00:00 | 00:00:00 | |
| OM5KV | 2026-08-31 13:26:48 | 48.49264 | 17.46996 | 340° | 31km/h | 33702m | 6.3m/s | 0°C | 0% | 0hPa | 0V | 00:00:00 | 00:00:00 | 00:00:00 | |
| OK1SLM-15 | 2026-08-31 13:26:45 | 48.49243 | 17.46998 | 19° | 26km/h | 33684m | 5.0m/s | 0°C | 0% | 0hPa | 0V | 00:00:00 | 00:00:00 | 00:00:00 | |
| OM5KV | 2026-08-31 13:26:43 | 48.49231 | 17.46990 | 25° | 26km/h | 33672m | 7.1m/s | 0°C | 0% | 0hPa | 0V | 00:00:00 | 00:00:00 | 00:00:00 | |
| OK1SLM-15 | 2026-08-31 13:26:40 | 48.49220 | 17.46984 | 337° | 2km/h | 33655m | 5.4m/s | 0°C | 0% | 0hPa | 0V | 00:00:00 | 00:00:00 | 00:00:00 | |
| OM5KV | 2026-08-31 13:26:37 | 48.49224 | 17.46983 | 177° | 2km/h | 33636m | 3.8m/s | 0°C | 0% | 0hPa | 0V | 00:00:00 | 00:00:00 | 00:00:00 | |
| OK1ALN | 2026-08-31 13:26:35 | 48.49219 | 17.46985 | 351° | 22km/h | 33626m | 8.6m/s | 0°C | 0% | 0hPa | 0V | 00:00:00 | 00:00:00 | 00:00:00 | |
| OE3OSB-13 | 2026-08-31 13:26:32 | 48.49189 | 17.46980 | 50° | 22km/h | 33607m | 6.2m/s | -35.2°C | 0.0% | 3.4hPa | 0V | 00:00:00 | 00:00:00 | 00:00:00 | |
| OE3JTB-15 | 2026-08-31 13:26:31 | 48.49189 | 17.46980 | 51° | 26km/h | 33608m | 6.2m/s | 0°C | 0% | 0hPa | 0V | 00:00:00 | 00:00:00 | 00:00:00 | |
| OM5KV | 2026-08-31 13:26:30 | 48.49188 | 17.46973 | 99° | 20km/h | 33600m | 9.5m/s | 0°C | 0% | 0hPa | 0V | 00:00:00 | 00:00:00 | 00:00:00 | |
| OM5KV | 2026-08-31 13:26:25 | 48.49212 | 17.46967 | 298° | 16km/h | 33570m | 7.7m/s | 0°C | 0% | 0hPa | 0V | 00:00:00 | 00:00:00 | 00:00:00 | |
| EDDB2-12 | 2026-08-31 13:26:21 | 48.49184 | 17.46946 | 99° | 31km/h | 33542m | 6.0m/s | -35.3°C | 0.0% | 3.5hPa | 0V | 00:00:00 | 00:00:00 | 00:00:00 | |
| OM5KV | 2026-08-31 13:26:20 | 48.49184 | 17.46946 | 101° | 33km/h | 33543m | 6.0m/s | 0°C | 0% | 0hPa | 0V | 00:00:00 | 00:00:00 | 00:00:00 | |
| ATIDSZ-14 | 2026-08-31 13:26:16 | 48.49208 | 17.46928 | 205° | 22km/h | 33519m | 5.3m/s | 0°C | 0% | 0hPa | 0V | 00:00:00 | 00:00:00 | 00:00:00 | |
| OM5KV | 2026-08-31 13:26:15 | 48.49212 | 17.46931 | 213° | 13km/h | 33514m | 4.4m/s | 0°C | 0% | 0hPa | 0V | 00:00:00 | 00:00:00 | 00:00:00 | |
| OM5KV | 2026-08-31 13:26:14 | 48.49213 | 17.46932 | 172° | 5km/h | 33509m | 5.9m/s | 0°C | 0% | 0hPa | 0V | 00:00:00 | 00:00:00 | 00:00:00 | |
| OM5KV | 2026-08-31 13:26:09 | 48.49216 | 17.46891 | 104° | 20km/h | 33478m | 5.6m/s | 0°C | 0% | 0hPa | 0V | 00:00:00 | 00:00:00 | 00:00:00 | |
| OM5KV | 2026-08-31 13:26:08 | 48.49217 | 17.46886 | 98° | 9km/h | 33472m | 6.7m/s | 0°C | 0% | 0hPa | 0V | 00:00:00 | 00:00:00 | 00:00:00 | |
| OM5KV | 2026-08-31 13:26:04 | 48.49224 | 17.46883 | 137° | 15km/h | 33451m | 5.0m/s | 0°C | 0% | 0hPa | 0V | 00:00:00 | 00:00:00 | 00:00:00 | |
| OM5KV | 2026-08-31 13:26:03 | 48.49226 | 17.46877 | 122° | 24km/h | 33444m | 7.8m/s | 0°C | 0% | 0hPa | 0V | 00:00:00 | 00:00:00 | 00:00:00 | |
| OE3JTB-15 | 2026-08-31 13:26:02 | 48.49230 | 17.46866 | 112° | 18km/h | 33437m | 7.3m/s | 0°C | 0% | 0hPa | 0V | 00:00:00 | 00:00:00 | 00:00:00 | |
| EDDB2-12 | 2026-08-31 13:25:49 | 48.49270 | 17.46793 | 267° | 13km/h | 33352m | 4.0m/s | -35.0°C | 0.0% | 3.7hPa | 0V | 00:00:00 | 00:00:00 | 00:00:00 | |
| OM5KV | 2026-08-31 13:25:47 | 48.49270 | 17.46793 | 269° | 13km/h | 33352m | 4.0m/s | 0°C | 0% | 0hPa | 0V | 00:00:00 | 00:00:00 | 00:00:00 | |
| OM5KV | 2026-08-31 13:25:46 | 48.49270 | 17.46797 | 303° | 7km/h | 33348m | 4.7m/s | 0°C | 0% | 0hPa | 0V | 00:00:00 | 00:00:00 | 00:00:00 | |
| OM5KV | 2026-08-31 13:25:42 | 48.49269 | 17.46768 | 109° | 33km/h | 33322m | 4.1m/s | 0°C | 0% | 0hPa | 0V | 00:00:00 | 00:00:00 | 00:00:00 | |
| OM5KV | 2026-08-31 13:25:40 | 48.49274 | 17.46752 | 132° | 13km/h | 33310m | 6.7m/s | 0°C | 0% | 0hPa | 0V | 00:00:00 | 00:00:00 | 00:00:00 | |
| OM5KV | 2026-08-31 13:25:36 | 48.49270 | 17.46748 | 53° | 13km/h | 33287m | 6.2m/s | 0°C | 0% | 0hPa | 0V | 00:00:00 | 00:00:00 | 00:00:00 | |
| OE3JTB-15 | 2026-08-31 13:25:33 | 48.49264 | 17.46728 | 88° | 15km/h | 33270m | 5.0m/s | 0°C | 0% | 0hPa | 0V | 00:00:00 | 00:00:00 | 00:00:00 | |
| OE3OSB-13 | 2026-08-31 13:25:30 | 48.49268 | 17.46722 | 77° | 2km/h | 33248m | 3.3m/s | -35.4°C | 0.0% | 3.8hPa | 0V | 00:00:00 | 00:00:00 | 00:00:00 | |
| OM5KV | 2026-08-31 13:25:29 | 48.49268 | 17.46722 | 79° | 2km/h | 33249m | 3.3m/s | 0°C | 0% | 0hPa | 0V | 00:00:00 | 00:00:00 | 00:00:00 | |
| OM5KV | 2026-08-31 13:25:23 | 48.49255 | 17.46683 | 34° | 4km/h | 33215m | 8.5m/s | 0°C | 0% | 0hPa | 0V | 00:00:00 | 00:00:00 | 00:00:00 | |
| OM5KV | 2026-08-31 13:25:22 | 48.49255 | 17.46684 | 262° | 9km/h | 33207m | 6.9m/s | 0°C | 0% | 0hPa | 0V | 00:00:00 | 00:00:00 | 00:00:00 | |
| EDDB2-12 | 2026-08-31 13:25:19 | 48.49254 | 17.46685 | 64° | 20km/h | 33183m | 7.4m/s | -35.9°C | 0.0% | 3.9hPa | 0V | 00:00:00 | 00:00:00 | 00:00:00 | |
| OM5KV | 2026-08-31 13:25:17 | 48.49251 | 17.46677 | 62° | 26km/h | 33177m | 5.5m/s | 0°C | 0% | 0hPa | 0V | 00:00:00 | 00:00:00 | 00:00:00 | |
| OM5KV | 2026-08-31 13:25:16 | 48.49248 | 17.46668 | 63° | 24km/h | 33172m | 4.5m/s | 0°C | 0% | 0hPa | 0V | 00:00:00 | 00:00:00 | 00:00:00 | |
| OK1ALN | 2026-08-31 13:25:13 | 48.49244 | 17.46658 | 238° | 4km/h | 33154m | 5.8m/s | 0°C | 0% | 0hPa | 0V | 00:00:00 | 00:00:00 | 00:00:00 | |
| OM5KV | 2026-08-31 13:25:11 | 48.49245 | 17.46658 | 99° | 7km/h | 33144m | 5.5m/s | 0°C | 0% | 0hPa | 0V | 00:00:00 | 00:00:00 | 00:00:00 | |
| OM5KV | 2026-08-31 13:25:10 | 48.49245 | 17.46653 | 86° | 16km/h | 33138m | 7.2m/s | 0°C | 0% | 0hPa | 0V | 00:00:00 | 00:00:00 | 00:00:00 | |
| ATIDSZ-14 | 2026-08-31 13:25:08 | 48.49241 | 17.46635 | 66° | 29km/h | 33125m | 4.5m/s | 0°C | 0% | 0hPa | 0V | 00:00:00 | 00:00:00 | 00:00:00 | |
| OM5KV | 2026-08-31 13:25:06 | 48.49235 | 17.46621 | 44° | 16km/h | 33113m | 7.2m/s | 0°C | 0% | 0hPa | 0V | 00:00:00 | 00:00:00 | 00:00:00 | |
| OM5KV | 2026-08-31 13:25:00 | 48.49225 | 17.46596 | 76° | 20km/h | 33075m | 4.8m/s | 0°C | 0% | 0hPa | 0V | 00:00:00 | 00:00:00 | 00:00:00 | |
| OE3OSB-13 | 2026-08-31 13:24:59 | 48.49222 | 17.46585 | 48° | 11km/h | 33063m | 7.6m/s | -36.4°C | 0.0% | 4.0hPa | 0V | 00:00:00 | 00:00:00 | 00:00:00 | |
| OE3JTB-15 | 2026-08-31 13:24:55 | 48.49217 | 17.46573 | 83° | 29km/h | 33046m | 6.8m/s | 0°C | 0% | 0hPa | 0V | 00:00:00 | 00:00:00 | 00:00:00 | |
| OM5KV | 2026-08-31 13:24:54 | 48.49216 | 17.46564 | 80° | 26km/h | 33039m | 7.7m/s | 0°C | 0% | 0hPa | 0V | 00:00:00 | 00:00:00 | 00:00:00 | |
| OM5KV | 2026-08-31 13:24:53 | 48.49216 | 17.46555 | 88° | 26km/h | 33033m | 4.9m/s | 0°C | 0% | 0hPa | 0V | 00:00:00 | 00:00:00 | 00:00:00 | |
| OK1ALN | 2026-08-31 13:24:52 | 48.49216 | 17.46547 | 95° | 18km/h | 33028m | 4.4m/s | 0°C | 0% | 0hPa | 0V | 00:00:00 | 00:00:00 | 00:00:00 | |
| OM5KV | 2026-08-31 13:24:48 | 48.49217 | 17.46538 | 54° | 9km/h | 33004m | 4.8m/s | 0°C | 0% | 0hPa | 0V | 00:00:00 | 00:00:00 | 00:00:00 | |
| ATIDSZ-14 | 2026-08-31 13:24:47 | 48.49216 | 17.46533 | 74° | 18km/h | 32999m | 7.3m/s | 0°C | 0% | 0hPa | 0V | 00:00:00 | 00:00:00 | 00:00:00 | |
| OM5KV | 2026-08-31 13:24:42 | 48.49211 | 17.46486 | 104° | 5km/h | 32969m | 8.3m/s | 0°C | 0% | 0hPa | 0V | 00:00:00 | 00:00:00 | 00:00:00 | |
| OM5KV | 2026-08-31 13:24:36 | 48.49206 | 17.46476 | 70° | 42km/h | 32933m | 8.2m/s | 0°C | 0% | 0hPa | 0V | 00:00:00 | 00:00:00 | 00:00:00 | |
| OM5KV | 2026-08-31 13:24:32 | 48.49195 | 17.46436 | 359° | 4km/h | 32909m | 9.6m/s | 0°C | 0% | 0hPa | 0V | 00:00:00 | 00:00:00 | 00:00:00 | |
| OM5KV | 2026-08-31 13:24:30 | 48.49197 | 17.46445 | 239° | 20km/h | 32896m | 2.2m/s | 0°C | 0% | 0hPa | 0V | 00:00:00 | 00:00:00 | 00:00:00 | |
| OE3OSB-13 | 2026-08-31 13:24:28 | 48.49204 | 17.46436 | 99° | 35km/h | 32882m | 10.0m/s | -37.1°C | 0.0% | 4.3hPa | 0V | 00:00:00 | 00:00:00 | 00:00:00 | |
| OM5KV | 2026-08-31 13:24:27 | 48.49205 | 17.46419 | 86° | 55km/h | 32873m | 8.2m/s | 0°C | 0% | 0hPa | 0V | 00:00:00 | 00:00:00 | 00:00:00 | |
| ATIDSZ-14 | 2026-08-31 13:24:25 | 48.49201 | 17.46398 | 71° | 57km/h | 32867m | 3.1m/s | 0°C | 0% | 0hPa | 0V | 00:00:00 | 00:00:00 | 00:00:00 | |
| OM5KV | 2026-08-31 13:24:24 | 48.49195 | 17.46381 | 55° | 47km/h | 32864m | 2.1m/s | 0°C | 0% | 0hPa | 0V | 00:00:00 | 00:00:00 | 00:00:00 | |
| OM5KV | 2026-08-31 13:24:20 | 48.49181 | 17.46376 | 230° | 26km/h | 32838m | 4.5m/s | 0°C | 0% | 0hPa | 0V | 00:00:00 | 00:00:00 | 00:00:00 | |
| OE3JTB-15 | 2026-08-31 13:24:19 | 48.49187 | 17.46381 | 189° | 31km/h | 32833m | 5.1m/s | 0°C | 0% | 0hPa | 0V | 00:00:00 | 00:00:00 | 00:00:00 | |
| OM5KV | 2026-08-31 13:24:18 | 48.49194 | 17.46378 | 149° | 37km/h | 32828m | 5.5m/s | 0°C | 0% | 0hPa | 0V | 00:00:00 | 00:00:00 | 00:00:00 | |
| EDDB2-12 | 2026-08-31 13:24:16 | 48.49191 | 17.46313 | 45° | 49km/h | 32803m | 6.5m/s | -37.5°C | 0.0% | 4.3hPa | 0V | 00:00:00 | 00:00:00 | 00:00:00 | |
| OE5MMP-10 | 2026-08-31 13:24:14 | 48.49190 | 17.46313 | 46° | 38km/h | 32803m | 6.5m/s | 0°C | 0% | 0hPa | 0V | 00:00:00 | 00:00:00 | 00:00:00 | |
| OM5KV | 2026-08-31 13:24:13 | 48.49182 | 17.46303 | 27° | 40km/h | 32798m | 5.0m/s | 0°C | 0% | 0hPa | 0V | 00:00:00 | 00:00:00 | 00:00:00 | |
| OK1ALN | 2026-08-31 13:24:11 | 48.49170 | 17.46298 | 354° | 7km/h | 32788m | 5.8m/s | 0°C | 0% | 0hPa | 0V | 00:00:00 | 00:00:00 | 00:00:00 | |
| OM5KV | 2026-08-31 13:24:08 | 48.49180 | 17.46284 | 132° | 38km/h | 32768m | 5.1m/s | 0°C | 0% | 0hPa | 0V | 00:00:00 | 00:00:00 | 00:00:00 | |
| OM5KV | 2026-08-31 13:24:07 | 48.49186 | 17.46273 | 116° | 35km/h | 32764m | 3.6m/s | 0°C | 0% | 0hPa | 0V | 00:00:00 | 00:00:00 | 00:00:00 | |
| ATIDSZ-14 | 2026-08-31 13:24:03 | 48.49174 | 17.46242 | 9° | 35km/h | 32737m | 6.2m/s | 0°C | 0% | 0hPa | 0V | 00:00:00 | 00:00:00 | 00:00:00 | |
| OM5KV | 2026-08-31 13:24:02 | 48.49166 | 17.46240 | 14° | 33km/h | 32733m | 2.3m/s | 0°C | 0% | 0hPa | 0V | 00:00:00 | 00:00:00 | 00:00:00 | |
| OE3OSB-13 | 2026-08-31 13:23:57 | 48.49167 | 17.46184 | 133° | 20km/h | 32700m | 4.9m/s | -37.2°C | 0.0% | 4.4hPa | 0V | 00:00:00 | 00:00:00 | 00:00:00 | |
| OE5MMP-10 | 2026-08-31 13:23:56 | 48.49167 | 17.46184 | 134° | 26km/h | 32700m | 4.9m/s | 0°C | 0% | 0hPa | 0V | 00:00:00 | 00:00:00 | 00:00:00 | |
| OK1ALN | 2026-08-31 13:23:51 | 48.49145 | 17.46179 | 30° | 31km/h | 32666m | 6.2m/s | 0°C | 0% | 0hPa | 0V | 00:00:00 | 00:00:00 | 00:00:00 | |
| OM5KV | 2026-08-31 13:23:46 | 48.49145 | 17.46137 | 143° | 9km/h | 32634m | 6.9m/s | 0°C | 0% | 0hPa | 0V | 00:00:00 | 00:00:00 | 00:00:00 | |
| OE5MMP-10 | 2026-08-31 13:23:45 | 48.49146 | 17.46137 | 269° | 20km/h | 32627m | 6.6m/s | 0°C | 0% | 0hPa | 0V | 00:00:00 | 00:00:00 | 00:00:00 | |
| OM5KV | 2026-08-31 13:23:40 | 48.49129 | 17.46134 | 55° | 24km/h | 32596m | 5.5m/s | 0°C | 0% | 0hPa | 0V | 00:00:00 | 00:00:00 | 00:00:00 | |
| OM5KV | 2026-08-31 13:23:33 | 48.49104 | 17.46112 | 42° | 13km/h | 32553m | 6.7m/s | 0°C | 0% | 0hPa | 0V | 00:00:00 | 00:00:00 | 00:00:00 | |
| OK1ALN | 2026-08-31 13:23:30 | 48.49097 | 17.46112 | 321° | 16km/h | 32535m | 8.0m/s | 0°C | 0% | 0hPa | 0V | 00:00:00 | 00:00:00 | 00:00:00 | |
| ATIDSZ-14 | 2026-08-31 13:23:28 | 48.49089 | 17.46123 | 320° | 24km/h | 32522m | 4.2m/s | 0°C | 0% | 0hPa | 0V | 00:00:00 | 00:00:00 | 00:00:00 | |
| OM5KV | 2026-08-31 13:23:27 | 48.49085 | 17.46127 | 342° | 18km/h | 32518m | 4.5m/s | 0°C | 0% | 0hPa | 0V | 00:00:00 | 00:00:00 | 00:00:00 | |
| OE3OSB-13 | 2026-08-31 13:23:26 | 48.49077 | 17.46124 | 52° | 18km/h | 32503m | 7.9m/s | -37.9°C | 0.0% | 4.7hPa | 0V | 00:00:00 | 00:00:00 | 00:00:00 | |
| OM5KV | 2026-08-31 13:23:23 | 48.49073 | 17.46110 | 70° | 15km/h | 32492m | 4.2m/s | 0°C | 0% | 0hPa | 0V | 00:00:00 | 00:00:00 | 00:00:00 | |
| OM5KV | 2026-08-31 13:23:17 | 48.49060 | 17.46128 | 16° | 7km/h | 32454m | 7.1m/s | 0°C | 0% | 0hPa | 0V | 00:00:00 | 00:00:00 | 00:00:00 | |
| OM5KV | 2026-08-31 13:23:15 | 48.49058 | 17.46119 | 88° | 18km/h | 32440m | 5.6m/s | 0°C | 0% | 0hPa | 0V | 00:00:00 | 00:00:00 | 00:00:00 | |
| EDDB2-12 | 2026-08-31 13:23:14 | 48.49054 | 17.46108 | 348° | 11km/h | 32422m | 7.0m/s | -38.0°C | 0.0% | 4.8hPa | 0V | 00:00:00 | 00:00:00 | 00:00:00 | |
| OK1ALN | 2026-08-31 13:23:10 | 48.49047 | 17.46111 | 345° | 11km/h | 32410m | 6.6m/s | 0°C | 0% | 0hPa | 0V | 00:00:00 | 00:00:00 | 00:00:00 | |
| OM5KV | 2026-08-31 13:23:09 | 48.49045 | 17.46111 | 22° | 7km/h | 32403m | 7.5m/s | 0°C | 0% | 0hPa | 0V | 00:00:00 | 00:00:00 | 00:00:00 | |
| ATIDSZ-14 | 2026-08-31 13:23:06 | 48.49043 | 17.46100 | 84° | 7km/h | 32384m | 5.2m/s | 0°C | 0% | 0hPa | 0V | 00:00:00 | 00:00:00 | 00:00:00 | |
| OM5KV | 2026-08-31 13:23:04 | 48.49042 | 17.46099 | 316° | 7km/h | 32370m | 7.3m/s | 0°C | 0% | 0hPa | 0V | 00:00:00 | 00:00:00 | 00:00:00 | |
| OE3OSB-13 | 2026-08-31 13:22:55 | 48.49040 | 17.46077 | 344° | 5km/h | 32310m | 3.4m/s | -38.2°C | 0.0% | 4.9hPa | 0V | 00:00:00 | 00:00:00 | 00:00:00 | |
| EDDB2-12 | 2026-08-31 13:22:43 | 48.49054 | 17.46008 | 106° | 29km/h | 32233m | 5.8m/s | -37.9°C | 0.0% | 5.0hPa | 0V | 00:00:00 | 00:00:00 | 00:00:00 | |
| OM5KV | 2026-08-31 13:22:41 | 48.49055 | 17.45997 | 104° | 27km/h | 32228m | 5.2m/s | 0°C | 0% | 0hPa | 0V | 00:00:00 | 00:00:00 | 00:00:00 | |
| OM5KV | 2026-08-31 13:22:40 | 48.49056 | 17.45989 | 105° | 20km/h | 32222m | 6.8m/s | 0°C | 0% | 0hPa | 0V | 00:00:00 | 00:00:00 | 00:00:00 | |
| OM5KV | 2026-08-31 13:22:36 | 48.49058 | 17.45968 | 98° | 22km/h | 32197m | 8.1m/s | 0°C | 0% | 0hPa | 0V | 00:00:00 | 00:00:00 | 00:00:00 | |
| OM5KV | 2026-08-31 13:22:34 | 48.49061 | 17.45945 | 103° | 37km/h | 32183m | 5.3m/s | 0°C | 0% | 0hPa | 0V | 00:00:00 | 00:00:00 | 00:00:00 | |
| OK1ALN | 2026-08-31 13:22:30 | 48.49063 | 17.45904 | 87° | 18km/h | 32156m | 5.7m/s | 0°C | 0% | 0hPa | 0V | 00:00:00 | 00:00:00 | 00:00:00 | |
| OM5KV | 2026-08-31 13:22:29 | 48.49063 | 17.45896 | 89° | 24km/h | 32150m | 6.2m/s | 0°C | 0% | 0hPa | 0V | 00:00:00 | 00:00:00 | 00:00:00 | |
| OE3OSB-13 | 2026-08-31 13:22:24 | 48.49076 | 17.45829 | 121° | 13km/h | 32112m | 6.7m/s | -38.3°C | 0.0% | 5.2hPa | 0V | 00:00:00 | 00:00:00 | 00:00:00 | |
| OM5KV | 2026-08-31 13:22:23 | 48.49076 | 17.45829 | 123° | 13km/h | 32112m | 6.7m/s | 0°C | 0% | 0hPa | 0V | 00:00:00 | 00:00:00 | 00:00:00 | |
| ATIDSZ-14 | 2026-08-31 13:22:22 | 48.49077 | 17.45824 | 101° | 13km/h | 32106m | 4.9m/s | 0°C | 0% | 0hPa | 0V | 00:00:00 | 00:00:00 | 00:00:00 | |
| OM5KV | 2026-08-31 13:22:18 | 48.49077 | 17.45780 | 96° | 40km/h | 32082m | 4.8m/s | 0°C | 0% | 0hPa | 0V | 00:00:00 | 00:00:00 | 00:00:00 | |
| OM5KV | 2026-08-31 13:22:17 | 48.49079 | 17.45766 | 98° | 37km/h | 32077m | 6.1m/s | 0°C | 0% | 0hPa | 0V | 00:00:00 | 00:00:00 | 00:00:00 | |
| OM5KV | 2026-08-31 13:22:12 | 48.49080 | 17.45722 | 87° | 29km/h | 32043m | 7.4m/s | 0°C | 0% | 0hPa | 0V | 00:00:00 | 00:00:00 | 00:00:00 | |
| OK1ALN | 2026-08-31 13:22:09 | 48.49076 | 17.45679 | 83° | 38km/h | 32024m | 5.7m/s | 0°C | 0% | 0hPa | 0V | 00:00:00 | 00:00:00 | 00:00:00 | |
| OM5KV | 2026-08-31 13:22:06 | 48.49075 | 17.45647 | 95° | 24km/h | 32006m | 5.0m/s | 0°C | 0% | 0hPa | 0V | 00:00:00 | 00:00:00 | 00:00:00 | |
| OE3JTB-15 | 2026-08-31 13:22:04 | 48.49076 | 17.45625 | 93° | 35km/h | 31995m | 7.7m/s | 0°C | 0% | 0hPa | 0V | 00:00:00 | 00:00:00 | 00:00:00 | |
| OM5KV | 2026-08-31 13:22:01 | 48.49074 | 17.45586 | 82° | 26km/h | 31977m | 6.8m/s | 0°C | 0% | 0hPa | 0V | 00:00:00 | 00:00:00 | 00:00:00 | |
| OM5KV | 2026-08-31 13:22:00 | 48.49073 | 17.45578 | 76° | 16km/h | 31969m | 9.1m/s | 0°C | 0% | 0hPa | 0V | 00:00:00 | 00:00:00 | 00:00:00 | |
| OE3OSB-13 | 2026-08-31 13:21:53 | 48.49063 | 17.45511 | 108° | 26km/h | 31920m | 7.4m/s | -39.0°C | 0.0% | 5.5hPa | 0V | 00:00:00 | 00:00:00 | 00:00:00 | |
| OM5KV | 2026-08-31 13:21:50 | 48.49066 | 17.45497 | 78° | 15km/h | 31908m | 4.4m/s | 0°C | 0% | 0hPa | 0V | 00:00:00 | 00:00:00 | 00:00:00 | |
| OM5KV | 2026-08-31 13:21:49 | 48.49064 | 17.45492 | 56° | 20km/h | 31904m | 5.0m/s | 0°C | 0% | 0hPa | 0V | 00:00:00 | 00:00:00 | 00:00:00 | |
| OK1ALN | 2026-08-31 13:21:48 | 48.49060 | 17.45484 | 51° | 31km/h | 31897m | 8.6m/s | 0°C | 0% | 0hPa | 0V | 00:00:00 | 00:00:00 | 00:00:00 | |
| OM5KV | 2026-08-31 13:21:44 | 48.49032 | 17.45429 | 57° | 40km/h | 31872m | 5.8m/s | 0°C | 0% | 0hPa | 0V | 00:00:00 | 00:00:00 | 00:00:00 | |
| EDDB2-12 | 2026-08-31 13:21:41 | 48.49027 | 17.45398 | 102° | 24km/h | 31846m | 4.1m/s | -39.6°C | 0.0% | 5.6hPa | 0V | 00:00:00 | 00:00:00 | 00:00:00 | |
| OM5KV | 2026-08-31 13:21:39 | 48.49027 | 17.45387 | 92° | 35km/h | 31841m | 6.8m/s | 0°C | 0% | 0hPa | 0V | 00:00:00 | 00:00:00 | 00:00:00 | |
| ATIDSZ-14 | 2026-08-31 13:21:34 | 48.48998 | 17.45315 | 31° | 33km/h | 31808m | 7.4m/s | 0°C | 0% | 0hPa | 0V | 00:00:00 | 00:00:00 | 00:00:00 | |
| OM5KV | 2026-08-31 13:21:33 | 48.48992 | 17.45310 | 18° | 22km/h | 31801m | 6.5m/s | 0°C | 0% | 0hPa | 0V | 00:00:00 | 00:00:00 | 00:00:00 | |
| OM5KV | 2026-08-31 13:21:28 | 48.48977 | 17.45267 | 71° | 44km/h | 31770m | 5.7m/s | 0°C | 0% | 0hPa | 0V | 00:00:00 | 00:00:00 | 00:00:00 | |
| OK1ALN | 2026-08-31 13:21:27 | 48.48973 | 17.45251 | 67° | 42km/h | 31764m | 5.2m/s | 0°C | 0% | 0hPa | 0V | 00:00:00 | 00:00:00 | 00:00:00 | |
| OE5MMP-10 | 2026-08-31 13:21:26 | 48.48968 | 17.45240 | 50° | 26km/h | 31759m | 5.8m/s | 0°C | 0% | 0hPa | 0V | 00:00:00 | 00:00:00 | 00:00:00 | |
| POL1PZ | 2026-08-31 13:21:23 | 48.48946 | 17.45230 | 2° | 35km/h | 31740m | 5.5m/s | 0°C | 0% | 0hPa | 0V | 00:00:00 | 00:00:00 | 00:00:00 | |
| OM5KV | 2026-08-31 13:21:22 | 48.48937 | 17.45229 | 13° | 38km/h | 31734m | 6.3m/s | 0°C | 0% | 0hPa | 0V | 00:00:00 | 00:00:00 | 00:00:00 | |
| OM5KV | 2026-08-31 13:21:21 | 48.48928 | 17.45223 | 28° | 38km/h | 31728m | 6.5m/s | 0°C | 0% | 0hPa | 0V | 00:00:00 | 00:00:00 | 00:00:00 | |
| OM5KV | 2026-08-31 13:21:16 | 48.48897 | 17.45196 | 350° | 15km/h | 31692m | 4.1m/s | 0°C | 0% | 0hPa | 0V | 00:00:00 | 00:00:00 | 00:00:00 | |
| OE3JTB-15 | 2026-08-31 13:21:13 | 48.48886 | 17.45192 | 27° | 35km/h | 31680m | 8.0m/s | 0°C | 0% | 0hPa | 0V | 00:00:00 | 00:00:00 | 00:00:00 | |
| EDDB2-12 | 2026-08-31 13:21:10 | 48.48846 | 17.45160 | 19° | 40km/h | 31654m | 6.8m/s | -40.6°C | 0.0% | 5.9hPa | 0V | 00:00:00 | 00:00:00 | 00:00:00 | |
| OM5KV | 2026-08-31 13:21:09 | 48.48846 | 17.45160 | 20° | 40km/h | 31654m | 6.8m/s | 0°C | 0% | 0hPa | 0V | 00:00:00 | 00:00:00 | 00:00:00 | |
| OK1ALN | 2026-08-31 13:21:07 | 48.48832 | 17.45153 | 15° | 20km/h | 31642m | 5.3m/s | 0°C | 0% | 0hPa | 0V | 00:00:00 | 00:00:00 | 00:00:00 | |
| OE5MMP-10 | 2026-08-31 13:21:06 | 48.48827 | 17.45151 | 32° | 33km/h | 31636m | 5.4m/s | 0°C | 0% | 0hPa | 0V | 00:00:00 | 00:00:00 | 00:00:00 | |
| OM5KV | 2026-08-31 13:21:05 | 48.48823 | 17.45145 | 53° | 24km/h | 31630m | 7.2m/s | 0°C | 0% | 0hPa | 0V | 00:00:00 | 00:00:00 | 00:00:00 | |
| OM5KV | 2026-08-31 13:21:03 | 48.48813 | 17.45124 | 48° | 42km/h | 31617m | 5.3m/s | 0°C | 0% | 0hPa | 0V | 00:00:00 | 00:00:00 | 00:00:00 | |
| OE3OSB-13 | 2026-08-31 13:20:51 | 48.48718 | 17.45068 | 335° | 29km/h | 31542m | 4.8m/s | -40.0°C | 0.0% | 6.0hPa | 0V | 00:00:00 | 00:00:00 | 00:00:00 | |
| OM5KV | 2026-08-31 13:20:50 | 48.48719 | 17.45068 | 337° | 29km/h | 31542m | 4.8m/s | 0°C | 0% | 0hPa | 0V | 00:00:00 | 00:00:00 | 00:00:00 | |
| OM5KV | 2026-08-31 13:20:44 | 48.48672 | 17.45034 | 38° | 26km/h | 31509m | 7.2m/s | 0°C | 0% | 0hPa | 0V | 00:00:00 | 00:00:00 | 00:00:00 | |
| OE3JTB-15 | 2026-08-31 13:20:41 | 48.48657 | 17.45040 | 322° | 26km/h | 31488m | 5.2m/s | 0°C | 0% | 0hPa | 0V | 00:00:00 | 00:00:00 | 00:00:00 | |
| OM5KV | 2026-08-31 13:20:39 | 48.48645 | 17.45048 | 357° | 29km/h | 31477m | 7.3m/s | 0°C | 0% | 0hPa | 0V | 00:00:00 | 00:00:00 | 00:00:00 | |
| OM5KV | 2026-08-31 13:20:37 | 48.48611 | 17.45028 | 18° | 31km/h | 31453m | 6.3m/s | 0°C | 0% | 0hPa | 0V | 00:00:00 | 00:00:00 | 00:00:00 | |
| OE5MMP-10 | 2026-08-31 13:20:36 | 48.48605 | 17.45027 | 1° | 20km/h | 31446m | 7.7m/s | 0°C | 0% | 0hPa | 0V | 00:00:00 | 00:00:00 | 00:00:00 | |
| OM5KV | 2026-08-31 13:20:30 | 48.48582 | 17.45042 | 8° | 27km/h | 31415m | 6.4m/s | 0°C | 0% | 0hPa | 0V | 00:00:00 | 00:00:00 | 00:00:00 | |
| OM5KV | 2026-08-31 13:20:29 | 48.48575 | 17.45040 | 16° | 31km/h | 31409m | 5.9m/s | 0°C | 0% | 0hPa | 0V | 00:00:00 | 00:00:00 | 00:00:00 | |
| OK1ALN | 2026-08-31 13:20:27 | 48.48561 | 17.45037 | 359° | 27km/h | 31397m | 7.0m/s | 0°C | 0% | 0hPa | 0V | 00:00:00 | 00:00:00 | 00:00:00 | |
| OM5KV | 2026-08-31 13:20:24 | 48.48549 | 17.45042 | 339° | 22km/h | 31386m | 4.8m/s | 0°C | 0% | 0hPa | 0V | 00:00:00 | 00:00:00 | 00:00:00 | |
| OM5KV | 2026-08-31 13:20:22 | 48.48539 | 17.45043 | 13° | 24km/h | 31372m | 8.7m/s | 0°C | 0% | 0hPa | 0V | 00:00:00 | 00:00:00 | 00:00:00 | |
| OE5MMP-10 | 2026-08-31 13:20:20 | 48.48529 | 17.45036 | 27° | 29km/h | 31359m | 4.2m/s | 0°C | 0% | 0hPa | 0V | 00:00:00 | 00:00:00 | 00:00:00 | |
| OE3OSB-13 | 2026-08-31 13:20:19 | 48.48519 | 17.45035 | 345° | 20km/h | 31347m | 7.9m/s | -39.6°C | 0.0% | 6.3hPa | 0V | 00:00:00 | 00:00:00 | 00:00:00 | |
| OM5KV | 2026-08-31 13:20:15 | 48.48499 | 17.45044 | 358° | 31km/h | 31330m | 5.8m/s | 0°C | 0% | 0hPa | 0V | 00:00:00 | 00:00:00 | 00:00:00 | |
| ATIDSZ-14 | 2026-08-31 13:20:12 | 48.48461 | 17.45021 | 315° | 15km/h | 31291m | 7.3m/s | 0°C | 0% | 0hPa | 0V | 00:00:00 | 00:00:00 | 00:00:00 | |
| OE5MMP-10 | 2026-08-31 13:20:08 | 48.48458 | 17.45026 | 308° | 27km/h | 31286m | 4.4m/s | 0°C | 0% | 0hPa | 0V | 00:00:00 | 00:00:00 | 00:00:00 | |
| OE3JTB-15 | 2026-08-31 13:20:07 | 48.48454 | 17.45032 | 323° | 20km/h | 31281m | 3.6m/s | 0°C | 0% | 0hPa | 0V | 00:00:00 | 00:00:00 | 00:00:00 | |
| OK1ALN | 2026-08-31 13:20:05 | 48.48440 | 17.45035 | 16° | 37km/h | 31270m | 6.5m/s | 0°C | 0% | 0hPa | 0V | 00:00:00 | 00:00:00 | 00:00:00 | |
| OM5KV | 2026-08-31 13:20:02 | 48.48413 | 17.45020 | 14° | 33km/h | 31254m | 7.1m/s | 0°C | 0% | 0hPa | 0V | 00:00:00 | 00:00:00 | 00:00:00 | |
| OM5KV | 2026-08-31 13:20:01 | 48.48406 | 17.45020 | 350° | 27km/h | 31247m | 6.8m/s | 0°C | 0% | 0hPa | 0V | 00:00:00 | 00:00:00 | 00:00:00 | |
| OM5KV | 2026-08-31 13:19:57 | 48.48376 | 17.45040 | 9° | 37km/h | 31218m | 6.4m/s | 0°C | 0% | 0hPa | 0V | 00:00:00 | 00:00:00 | 00:00:00 | |
| OE5MMP-10 | 2026-08-31 13:19:56 | 48.48376 | 17.45040 | 8° | 20km/h | 31218m | 6.4m/s | 0°C | 0% | 0hPa | 0V | 00:00:00 | 00:00:00 | 00:00:00 | |
| OM5KV | 2026-08-31 13:19:50 | 48.48335 | 17.45053 | 300° | 29km/h | 31185m | 4.2m/s | 0°C | 0% | 0hPa | 0V | 00:00:00 | 00:00:00 | 00:00:00 | |
| ATIDSZ-14 | 2026-08-31 13:19:48 | 48.48326 | 17.45067 | 336° | 27km/h | 31175m | 7.0m/s | 0°C | 0% | 0hPa | 0V | 00:00:00 | 00:00:00 | 00:00:00 | |
| OM5KV | 2026-08-31 13:19:45 | 48.48306 | 17.45065 | 14° | 20km/h | 31157m | 5.7m/s | 0°C | 0% | 0hPa | 0V | 00:00:00 | 00:00:00 | 00:00:00 | |
| OK1ALN | 2026-08-31 13:19:44 | 48.48303 | 17.45065 | 4° | 11km/h | 31151m | 7.0m/s | 0°C | 0% | 0hPa | 0V | 00:00:00 | 00:00:00 | 00:00:00 | |
| PETON7-10 | 2026-08-31 13:19:39 | 48.48284 | 17.45084 | 317° | 20km/h | 31122m | 4.6m/s | 0°C | 0% | 0hPa | 0V | 00:00:00 | 00:00:00 | 00:00:00 | |
| EDDB2-12 | 2026-08-31 13:19:37 | 48.48275 | 17.45109 | 288° | 15km/h | 31104m | 5.0m/s | -39.5°C | 0.0% | 6.7hPa | 0V | 00:00:00 | 00:00:00 | 00:00:00 | |
| PG1ADW-2 | 2026-08-31 13:19:36 | 48.48275 | 17.45108 | 289° | 16km/h | 31104m | 5.0m/s | 0°C | 0% | 0hPa | 0V | 00:00:00 | 00:00:00 | 00:00:00 | |
| OE5MMP-10 | 2026-08-31 13:19:34 | 48.48271 | 17.45112 | 16° | 13km/h | 31092m | 7.9m/s | 0°C | 0% | 0hPa | 0V | 00:00:00 | 00:00:00 | 00:00:00 | |
| OM5KV | 2026-08-31 13:19:33 | 48.48267 | 17.45110 | 31° | 22km/h | 31084m | 7.3m/s | 0°C | 0% | 0hPa | 0V | 00:00:00 | 00:00:00 | 00:00:00 | |
| ATIDSZ-14 | 2026-08-31 13:19:28 | 48.48251 | 17.45125 | 271° | 35km/h | 31055m | 5.9m/s | 0°C | 0% | 0hPa | 0V | 00:00:00 | 00:00:00 | 00:00:00 | |
| OM5KV | 2026-08-31 13:19:27 | 48.48251 | 17.45138 | 282° | 33km/h | 31050m | 5.0m/s | 0°C | 0% | 0hPa | 0V | 00:00:00 | 00:00:00 | 00:00:00 | |
| OK1ALN | 2026-08-31 13:19:23 | 48.48237 | 17.45158 | 22° | 13km/h | 31026m | 7.4m/s | 0°C | 0% | 0hPa | 0V | 00:00:00 | 00:00:00 | 00:00:00 | |
| PETON7-10 | 2026-08-31 13:19:22 | 48.48235 | 17.45156 | 47° | 16km/h | 31019m | 6.4m/s | 0°C | 0% | 0hPa | 0V | 00:00:00 | 00:00:00 | 00:00:00 | |
| OE5MMP-10 | 2026-08-31 13:19:18 | 48.48233 | 17.45164 | 294° | 18km/h | 30995m | 6.9m/s | 0°C | 0% | 0hPa | 0V | 00:00:00 | 00:00:00 | 00:00:00 | |
| OE3OSB-13 | 2026-08-31 13:19:17 | 48.48230 | 17.45179 | 281° | 22km/h | 30984m | 5.0m/s | -39.9°C | 0.0% | 6.9hPa | 0V | 00:00:00 | 00:00:00 | 00:00:00 | |
| OM5KV | 2026-08-31 13:19:16 | 48.48230 | 17.45179 | 282° | 24km/h | 30984m | 5.0m/s | 0°C | 0% | 0hPa | 0V | 00:00:00 | 00:00:00 | 00:00:00 | |
| OM5KV | 2026-08-31 13:19:10 | 48.48233 | 17.45212 | 26° | 11km/h | 30949m | 6.8m/s | 0°C | 0% | 0hPa | 0V | 00:00:00 | 00:00:00 | 00:00:00 | |
| OE5MMP-10 | 2026-08-31 13:19:07 | 48.48231 | 17.45212 | 210° | 18km/h | 30934m | 8.8m/s | 0°C | 0% | 0hPa | 0V | 00:00:00 | 00:00:00 | 00:00:00 | |
| EDDB2-12 | 2026-08-31 13:19:06 | 48.48241 | 17.45224 | 225° | 33km/h | 30919m | 5.5m/s | -39.9°C | 0.0% | 7.0hPa | 0V | 00:00:00 | 00:00:00 | 00:00:00 | |
| PETON7-10 | 2026-08-31 13:19:05 | 48.48241 | 17.45224 | 226° | 18km/h | 30919m | 5.4m/s | 0°C | 0% | 0hPa | 0V | 00:00:00 | 00:00:00 | 00:00:00 | |
| OM5KV | 2026-08-31 13:19:04 | 48.48246 | 17.45234 | 237° | 29km/h | 30914m | 5.2m/s | 0°C | 0% | 0hPa | 0V | 00:00:00 | 00:00:00 | 00:00:00 | |
| OK1ALN | 2026-08-31 13:19:02 | 48.48249 | 17.45249 | 295° | 15km/h | 30902m | 6.0m/s | 0°C | 0% | 0hPa | 0V | 00:00:00 | 00:00:00 | 00:00:00 | |
| OE3OSB-13 | 2026-08-31 13:18:46 | 48.48276 | 17.45278 | 69° | 2km/h | 30803m | 4.6m/s | -40.4°C | 0.0% | 7.2hPa | 0V | 00:00:00 | 00:00:00 | 00:00:00 | |
| OE5MMP-10 | 2026-08-31 13:18:45 | 48.48276 | 17.45278 | 70° | 13km/h | 30803m | 4.5m/s | 0°C | 0% | 0hPa | 0V | 00:00:00 | 00:00:00 | 00:00:00 | |
| OM5KV | 2026-08-31 13:18:44 | 48.48277 | 17.45277 | 185° | 7km/h | 30797m | 7.3m/s | 0°C | 0% | 0hPa | 0V | 00:00:00 | 00:00:00 | 00:00:00 | |
| OK1ALN | 2026-08-31 13:18:42 | 48.48286 | 17.45279 | 189° | 24km/h | 30783m | 4.7m/s | 0°C | 0% | 0hPa | 0V | 00:00:00 | 00:00:00 | 00:00:00 | |
| EDDB2-12 | 2026-08-31 13:18:35 | 48.48294 | 17.45278 | 190° | 13km/h | 30736m | 5.4m/s | -40.5°C | 0.0% | 7.3hPa | 0V | 00:00:00 | 00:00:00 | 00:00:00 | |
| ATIDSZ-14 | 2026-08-31 13:18:24 | 48.48296 | 17.45243 | 76° | 13km/h | 30679m | 7.3m/s | 0°C | 0% | 0hPa | 0V | 00:00:00 | 00:00:00 | 00:00:00 | |
| OK1ALN | 2026-08-31 13:18:21 | 48.48289 | 17.45239 | 324° | 9km/h | 30661m | 5.4m/s | 0°C | 0% | 0hPa | 0V | 00:00:00 | 00:00:00 | 00:00:00 | |
| OE5MMP-10 | 2026-08-31 13:18:20 | 48.48287 | 17.45241 | 296° | 9km/h | 30655m | 7.3m/s | 0°C | 0% | 0hPa | 0V | 00:00:00 | 00:00:00 | 00:00:00 | |
| PETON7-10 | 2026-08-31 13:18:18 | 48.48288 | 17.45248 | 251° | 9km/h | 30643m | 3.7m/s | 0°C | 0% | 0hPa | 0V | 00:00:00 | 00:00:00 | 00:00:00 | |
| OE3OSB-13 | 2026-08-31 13:18:15 | 48.48271 | 17.45228 | 47° | 20km/h | 30616m | 5.3m/s | -41.0°C | 0.0% | 7.6hPa | 0V | 00:00:00 | 00:00:00 | 00:00:00 | |
| OE5MMP-10 | 2026-08-31 13:18:10 | 48.48270 | 17.45223 | 235° | 13km/h | 30597m | 4.8m/s | 0°C | 0% | 0hPa | 0V | 00:00:00 | 00:00:00 | 00:00:00 | |
| EDDB2-12 | 2026-08-31 13:18:04 | 48.48250 | 17.45220 | 87° | 7km/h | 30556m | 5.5m/s | -41.1°C | 0.0% | 7.7hPa | 0V | 00:00:00 | 00:00:00 | 00:00:00 | |
| OK1ALN | 2026-08-31 13:18:01 | 48.48250 | 17.45219 | 295° | 4km/h | 30544m | 7.4m/s | 0°C | 0% | 0hPa | 0V | 00:00:00 | 00:00:00 | 00:00:00 | |
| OE3OSB-13 | 2026-08-31 13:17:44 | 48.48231 | 17.45206 | 359° | 11km/h | 30441m | 3.7m/s | -41.2°C | 0.0% | 7.8hPa | 0V | 00:00:00 | 00:00:00 | 00:00:00 | |
| OK1ALN | 2026-08-31 13:17:41 | 48.48229 | 17.45204 | 124° | 9km/h | 30429m | 8.0m/s | 0°C | 0% | 0hPa | 0V | 00:00:00 | 00:00:00 | 00:00:00 | |
| OE5MMP-10 | 2026-08-31 13:17:40 | 48.48231 | 17.45201 | 145° | 18km/h | 30422m | 6.6m/s | 0°C | 0% | 0hPa | 0V | 00:00:00 | 00:00:00 | 00:00:00 | |
| EDDB2-12 | 2026-08-31 13:17:33 | 48.48234 | 17.45153 | 112° | 16km/h | 30371m | 5.6m/s | -41.5°C | 0.0% | 8.0hPa | 0V | 00:00:00 | 00:00:00 | 00:00:00 | |
| ATIDSZ-14 | 2026-08-31 13:17:26 | 48.48249 | 17.45121 | 96° | 35km/h | 30328m | 5.6m/s | 0°C | 0% | 0hPa | 0V | 00:00:00 | 00:00:00 | 00:00:00 | |
| OE5MMP-10 | 2026-08-31 13:17:24 | 48.48249 | 17.45121 | 95° | 35km/h | 30328m | 5.5m/s | 0°C | 0% | 0hPa | 0V | 00:00:00 | 00:00:00 | 00:00:00 | |
| OK1ALN | 2026-08-31 13:17:20 | 48.48248 | 17.45086 | 114° | 13km/h | 30305m | 6.8m/s | 0°C | 0% | 0hPa | 0V | 00:00:00 | 00:00:00 | 00:00:00 | |
| POL1PZ | 2026-08-31 13:17:16 | 48.48261 | 17.45070 | 131° | 11km/h | 30279m | 7.4m/s | 0°C | 0% | 0hPa | 0V | 00:00:00 | 00:00:00 | 00:00:00 | |
| OE5MMP-10 | 2026-08-31 13:17:14 | 48.48260 | 17.45060 | 68° | 24km/h | 30267m | 5.4m/s | 0°C | 0% | 0hPa | 0V | 00:00:00 | 00:00:00 | 00:00:00 | |
| ATIDSZ-14 | 2026-08-31 13:17:05 | 48.48267 | 17.44997 | 91° | 22km/h | 30207m | 7.4m/s | 0°C | 0% | 0hPa | 0V | 00:00:00 | 00:00:00 | 00:00:00 | |
| OE5MMP-10 | 2026-08-31 13:17:04 | 48.48267 | 17.44997 | 90° | 18km/h | 30207m | 7.3m/s | 0°C | 0% | 0hPa | 0V | 00:00:00 | 00:00:00 | 00:00:00 | |
| EDDB2-12 | 2026-08-31 13:17:02 | 48.48267 | 17.44963 | 79° | 26km/h | 30189m | 6.3m/s | -42.2°C | 0.0% | 8.3hPa | 0V | 00:00:00 | 00:00:00 | 00:00:00 | |
| OK1ALN | 2026-08-31 13:17:00 | 48.48265 | 17.44955 | 72° | 18km/h | 30183m | 5.6m/s | 0°C | 0% | 0hPa | 0V | 00:00:00 | 00:00:00 | 00:00:00 | |
| PG1ADW-2 | 2026-08-31 13:16:50 | 48.48252 | 17.44902 | 72° | 24km/h | 30129m | 6.3m/s | 0°C | 0% | 0hPa | 0V | 00:00:00 | 00:00:00 | 00:00:00 | |
| OE5MMP-10 | 2026-08-31 13:16:49 | 48.48252 | 17.44895 | 100° | 27km/h | 30122m | 8.2m/s | 0°C | 0% | 0hPa | 0V | 00:00:00 | 00:00:00 | 00:00:00 | |
| POL1PZ | 2026-08-31 13:16:48 | 48.48253 | 17.44886 | 102° | 26km/h | 30115m | 5.4m/s | 0°C | 0% | 0hPa | 0V | 00:00:00 | 00:00:00 | 00:00:00 | |
| ATIDSZ-14 | 2026-08-31 13:16:44 | 48.48243 | 17.44853 | 32° | 31km/h | 30092m | 5.3m/s | 0°C | 0% | 0hPa | 0V | 00:00:00 | 00:00:00 | 00:00:00 | |
| OE3OSB-13 | 2026-08-31 13:16:42 | 48.48226 | 17.44819 | 79° | 26km/h | 30069m | 5.5m/s | -42.6°C | 0.0% | 8.5hPa | 0V | 00:00:00 | 00:00:00 | 00:00:00 | |
| OK1ALN | 2026-08-31 13:16:39 | 48.48225 | 17.44810 | 79° | 24km/h | 30063m | 6.2m/s | 0°C | 0% | 0hPa | 0V | 00:00:00 | 00:00:00 | 00:00:00 | |
| OE5MMP-10 | 2026-08-31 13:16:38 | 48.48223 | 17.44802 | 65° | 26km/h | 30057m | 6.2m/s | 0°C | 0% | 0hPa | 0V | 00:00:00 | 00:00:00 | 00:00:00 | |
| EDDB2-12 | 2026-08-31 13:16:31 | 48.48185 | 17.44740 | 18° | 27km/h | 30005m | 5.3m/s | -42.9°C | 0.0% | 8.6hPa | 0V | 00:00:00 | 00:00:00 | 00:00:00 | |
| POL1PZ | 2026-08-31 13:16:27 | 48.48175 | 17.44732 | 42° | 20km/h | 29994m | 7.0m/s | 0°C | 0% | 0hPa | 0V | 00:00:00 | 00:00:00 | 00:00:00 | |
| OE5MMP-10 | 2026-08-31 13:16:23 | 48.48164 | 17.44699 | 47° | 27km/h | 29970m | 7.0m/s | 0°C | 0% | 0hPa | 0V | 00:00:00 | 00:00:00 | 00:00:00 | |
| ATIDSZ-14 | 2026-08-31 13:16:22 | 48.48158 | 17.44692 | 30° | 33km/h | 29963m | 6.8m/s | 0°C | 0% | 0hPa | 0V | 00:00:00 | 00:00:00 | 00:00:00 | |
| OK1ALN | 2026-08-31 13:16:18 | 48.48135 | 17.44669 | 80° | 18km/h | 29942m | 7.7m/s | 0°C | 0% | 0hPa | 0V | 00:00:00 | 00:00:00 | 00:00:00 | |
| OE3OSB-13 | 2026-08-31 13:16:11 | 48.48112 | 17.44620 | 54° | 35km/h | 29894m | 5.8m/s | -43.1°C | 0.0% | 8.8hPa | 0V | 00:00:00 | 00:00:00 | 00:00:00 | |
| OE5MMP-10 | 2026-08-31 13:16:10 | 48.48111 | 17.44620 | 55° | 37km/h | 29894m | 5.7m/s | 0°C | 0% | 0hPa | 0V | 00:00:00 | 00:00:00 | 00:00:00 | |
| ATIDSZ-14 | 2026-08-31 13:16:02 | 48.48100 | 17.44578 | 66° | 24km/h | 29849m | 5.4m/s | 0°C | 0% | 0hPa | 0V | 00:00:00 | 00:00:00 | 00:00:00 | |
| EDDB2-12 | 2026-08-31 13:16:00 | 48.48082 | 17.44556 | 29° | 35km/h | 29830m | 3.2m/s | -43.5°C | 0.0% | 8.9hPa | 0V | 00:00:00 | 00:00:00 | 00:00:00 | |
| OE5MMP-10 | 2026-08-31 13:15:59 | 48.48082 | 17.44556 | 30° | 24km/h | 29830m | 3.2m/s | 0°C | 0% | 0hPa | 0V | 00:00:00 | 00:00:00 | 00:00:00 | |
| OK1ALN | 2026-08-31 13:15:58 | 48.48075 | 17.44549 | 43° | 29km/h | 29827m | 4.0m/s | 0°C | 0% | 0hPa | 0V | 00:00:00 | 00:00:00 | 00:00:00 | |
| OE5MMP-10 | 2026-08-31 13:15:47 | 48.48064 | 17.44496 | 81° | 26km/h | 29762m | 3.7m/s | 0°C | 0% | 0hPa | 0V | 00:00:00 | 00:00:00 | 00:00:00 | |
| ATIDSZ-14 | 2026-08-31 13:15:41 | 48.48058 | 17.44476 | 91° | 4km/h | 29729m | 6.1m/s | 0°C | 0% | 0hPa | 0V | 00:00:00 | 00:00:00 | 00:00:00 | |
| OE3OSB-13 | 2026-08-31 13:15:40 | 48.48057 | 17.44468 | 77° | 18km/h | 29718m | 4.6m/s | -43.9°C | 0.0% | 9.2hPa | 0V | 00:00:00 | 00:00:00 | 00:00:00 | |
| OE5MMP-10 | 2026-08-31 13:15:33 | 48.48035 | 17.44440 | 85° | 15km/h | 29684m | 7.4m/s | 0°C | 0% | 0hPa | 0V | 00:00:00 | 00:00:00 | 00:00:00 | |
| EDDB2-12 | 2026-08-31 13:15:29 | 48.48021 | 17.44415 | 19° | 24km/h | 29646m | 5.2m/s | -44.0°C | 0.0% | 9.4hPa | 0V | 00:00:00 | 00:00:00 | 00:00:00 | |
| ATIDSZ-14 | 2026-08-31 13:15:21 | 48.48014 | 17.44384 | 68° | 15km/h | 29617m | 6.9m/s | 0°C | 0% | 0hPa | 0V | 00:00:00 | 00:00:00 | 00:00:00 | |
| OE3OSB-13 | 2026-08-31 13:15:09 | 48.47972 | 17.44336 | 61° | 27km/h | 29541m | 6.0m/s | -44.3°C | 0.0% | 9.6hPa | 0V | 00:00:00 | 00:00:00 | 00:00:00 | |
| ATIDSZ-14 | 2026-08-31 13:15:00 | 48.47945 | 17.44304 | 79° | 16km/h | 29495m | 5.0m/s | 0°C | 0% | 0hPa | 0V | 00:00:00 | 00:00:00 | 00:00:00 | |
| EDDB2-12 | 2026-08-31 13:14:58 | 48.47936 | 17.44293 | 6° | 22km/h | 29478m | 6.4m/s | -44.4°C | 0.0% | 9.7hPa | 0V | 00:00:00 | 00:00:00 | 00:00:00 | |
| OK1ALN | 2026-08-31 13:14:57 | 48.47936 | 17.44293 | 8° | 24km/h | 29478m | 6.4m/s | 0°C | 0% | 0hPa | 0V | 00:00:00 | 00:00:00 | 00:00:00 | |
| ATIDSZ-14 | 2026-08-31 13:14:39 | 48.47892 | 17.44264 | 149° | 16km/h | 29370m | 5.7m/s | 0°C | 0% | 0hPa | 0V | 00:00:00 | 00:00:00 | 00:00:00 | |
| OE3OSB-13 | 2026-08-31 13:14:38 | 48.47897 | 17.44259 | 109° | 5km/h | 29360m | 6.7m/s | -44.6°C | 0.0% | 10.0hPa | 0V | 00:00:00 | 00:00:00 | 00:00:00 | |
| OK1ALN | 2026-08-31 13:14:36 | 48.47895 | 17.44257 | 15° | 13km/h | 29353m | 7.2m/s | 0°C | 0% | 0hPa | 0V | 00:00:00 | 00:00:00 | 00:00:00 | |
| EDDB2-12 | 2026-08-31 13:14:27 | 48.47871 | 17.44241 | 108° | 2km/h | 29295m | 6.6m/s | -44.6°C | 0.0% | 10.1hPa | 0V | 00:00:00 | 00:00:00 | 00:00:00 | |
| PETON7-10 | 2026-08-31 13:14:19 | 48.47851 | 17.44228 | 308° | 11km/h | 29256m | 5.4m/s | 0°C | 0% | 0hPa | 0V | 00:00:00 | 00:00:00 | 00:00:00 | |
| ATIDSZ-14 | 2026-08-31 13:14:18 | 48.47852 | 17.44228 | 153° | 7km/h | 29249m | 8.2m/s | 0°C | 0% | 0hPa | 0V | 00:00:00 | 00:00:00 | 00:00:00 | |
| OK1ALN | 2026-08-31 13:14:15 | 48.47860 | 17.44215 | 114° | 15km/h | 29232m | 5.3m/s | 0°C | 0% | 0hPa | 0V | 00:00:00 | 00:00:00 | 00:00:00 | |
| PG1ADW-2 | 2026-08-31 13:14:13 | 48.47857 | 17.44209 | 12° | 16km/h | 29219m | 6.3m/s | 0°C | 0% | 0hPa | 0V | 00:00:00 | 00:00:00 | 00:00:00 | |
| OE3OSB-13 | 2026-08-31 13:14:07 | 48.47848 | 17.44185 | 170° | 2km/h | 29178m | 6.8m/s | -44.8°C | 0.0% | 10.3hPa | 0V | 00:00:00 | 00:00:00 | 00:00:00 | |
| PETON7-10 | 2026-08-31 13:14:04 | 48.47847 | 17.44184 | 34° | 9km/h | 29167m | 4.6m/s | 0°C | 0% | 0hPa | 0V | 00:00:00 | 00:00:00 | 00:00:00 | |
| EDDB2-12 | 2026-08-31 13:13:56 | 48.47830 | 17.44136 | 96° | 16km/h | 29105m | 5.8m/s | -45.1°C | 0.0% | 10.5hPa | 0V | 00:00:00 | 00:00:00 | 00:00:00 | |
| OK1ALN | 2026-08-31 13:13:54 | 48.47830 | 17.44136 | 98° | 18km/h | 29105m | 5.8m/s | 0°C | 0% | 0hPa | 0V | 00:00:00 | 00:00:00 | 00:00:00 | |
| PG1ADW-2 | 2026-08-31 13:13:51 | 48.47831 | 17.44123 | 61° | 11km/h | 29087m | 5.9m/s | 0°C | 0% | 0hPa | 0V | 00:00:00 | 00:00:00 | 00:00:00 | |
| PETON7-10 | 2026-08-31 13:13:49 | 48.47829 | 17.44116 | 61° | 13km/h | 29076m | 6.5m/s | 0°C | 0% | 0hPa | 0V | 00:00:00 | 00:00:00 | 00:00:00 | |
| ATIDSZ-14 | 2026-08-31 13:13:37 | 48.47816 | 17.44065 | 26° | 13km/h | 29004m | 5.2m/s | 0°C | 0% | 0hPa | 0V | 00:00:00 | 00:00:00 | 00:00:00 | |
| OE3OSB-13 | 2026-08-31 13:13:35 | 48.47813 | 17.44060 | 81° | 7km/h | 28993m | 7.5m/s | -45.6°C | 0.0% | 10.7hPa | 0V | 00:00:00 | 00:00:00 | 00:00:00 | |
| PETON7-10 | 2026-08-31 13:13:34 | 48.47814 | 17.44056 | 115° | 13km/h | 28986m | 6.8m/s | 0°C | 0% | 0hPa | 0V | 00:00:00 | 00:00:00 | 00:00:00 | |
| OK1ALN | 2026-08-31 13:13:33 | 48.47815 | 17.44052 | 128° | 13km/h | 28980m | 5.2m/s | 0°C | 0% | 0hPa | 0V | 00:00:00 | 00:00:00 | 00:00:00 | |
| EDDB2-12 | 2026-08-31 13:13:25 | 48.47797 | 17.44021 | 219° | 5km/h | 28921m | 5.5m/s | -45.5°C | 0.0% | 10.9hPa | 0V | 00:00:00 | 00:00:00 | 00:00:00 | |
| PETON7-10 | 2026-08-31 13:13:19 | 48.47803 | 17.44010 | 80° | 16km/h | 28896m | 5.5m/s | 0°C | 0% | 0hPa | 0V | 00:00:00 | 00:00:00 | 00:00:00 | |
| ATIDSZ-14 | 2026-08-31 13:13:17 | 48.47798 | 17.44001 | 25° | 16km/h | 28884m | 6.9m/s | 0°C | 0% | 0hPa | 0V | 00:00:00 | 00:00:00 | 00:00:00 | |
| OK1ALN | 2026-08-31 13:13:13 | 48.47787 | 17.43993 | 86° | 16km/h | 28864m | 8.1m/s | 0°C | 0% | 0hPa | 0V | 00:00:00 | 00:00:00 | 00:00:00 | |
| OE3OSB-13 | 2026-08-31 13:13:05 | 48.47772 | 17.43968 | 54° | 13km/h | 28808m | 5.5m/s | -45.6°C | 0.0% | 11.1hPa | 0V | 00:00:00 | 00:00:00 | 00:00:00 | |
| PETON7-10 | 2026-08-31 13:13:03 | 48.47771 | 17.43963 | 90° | 11km/h | 28803m | 5.0m/s | 0°C | 0% | 0hPa | 0V | 00:00:00 | 00:00:00 | 00:00:00 | |
| OK1ALN | 2026-08-31 13:12:53 | 48.47769 | 17.43938 | 203° | 7km/h | 28744m | 5.1m/s | 0°C | 0% | 0hPa | 0V | 00:00:00 | 00:00:00 | 00:00:00 | |
| ATIDSZ-14 | 2026-08-31 13:12:33 | 48.47796 | 17.43899 | 258° | 18km/h | 28624m | 5.4m/s | 0°C | 0% | 0hPa | 0V | 00:00:00 | 00:00:00 | 00:00:00 | |
| OK1ALN | 2026-08-31 13:12:32 | 48.47798 | 17.43905 | 244° | 16km/h | 28619m | 4.9m/s | 0°C | 0% | 0hPa | 0V | 00:00:00 | 00:00:00 | 00:00:00 | |
| EDDB2-12 | 2026-08-31 13:12:22 | 48.47818 | 17.43909 | 158° | 13km/h | 28559m | 5.7m/s | -46.4°C | 0.0% | 11.8hPa | 0V | 00:00:00 | 00:00:00 | 00:00:00 | |
| ATIDSZ-14 | 2026-08-31 13:12:13 | 48.47838 | 17.43900 | 269° | 4km/h | 28507m | 7.2m/s | 0°C | 0% | 0hPa | 0V | 00:00:00 | 00:00:00 | 00:00:00 | |
| OK1ALN | 2026-08-31 13:12:11 | 48.47841 | 17.43906 | 217° | 15km/h | 28496m | 4.6m/s | 0°C | 0% | 0hPa | 0V | 00:00:00 | 00:00:00 | 00:00:00 | |
| OE3OSB-13 | 2026-08-31 13:12:02 | 48.47866 | 17.43885 | 106° | 15km/h | 28438m | 6.8m/s | -46.9°C | 0.0% | 12.0hPa | 0V | 00:00:00 | 00:00:00 | 00:00:00 | |
| ATIDSZ-14 | 2026-08-31 13:11:51 | 48.47895 | 17.43843 | 105° | 13km/h | 28382m | 7.1m/s | 0°C | 0% | 0hPa | 0V | 00:00:00 | 00:00:00 | 00:00:00 | |
| ATIDSZ-14 | 2026-08-31 13:11:31 | 48.47916 | 17.43773 | 152° | 15km/h | 28268m | 4.4m/s | 0°C | 0% | 0hPa | 0V | 00:00:00 | 00:00:00 | 00:00:00 | |
| OK1ALN | 2026-08-31 13:11:30 | 48.47919 | 17.43771 | 155° | 9km/h | 28263m | 6.1m/s | 0°C | 0% | 0hPa | 0V | 00:00:00 | 00:00:00 | 00:00:00 | |
| EDDB2-12 | 2026-08-31 13:11:20 | 48.47939 | 17.43761 | 88° | 7km/h | 28193m | 5.7m/s | -46.9°C | 0.0% | 12.6hPa | 0V | 00:00:00 | 00:00:00 | 00:00:00 | |
| ATIDSZ-14 | 2026-08-31 13:11:11 | 48.47936 | 17.43748 | 155° | 22km/h | 28155m | 6.1m/s | 0°C | 0% | 0hPa | 0V | 00:00:00 | 00:00:00 | 00:00:00 | |
| OK1ALN | 2026-08-31 13:11:09 | 48.47945 | 17.43744 | 177° | 13km/h | 28145m | 5.1m/s | 0°C | 0% | 0hPa | 0V | 00:00:00 | 00:00:00 | 00:00:00 | |
| OE3JTB-15 | 2026-08-31 13:11:02 | 48.47939 | 17.43740 | 157° | 11km/h | 28107m | 5.1m/s | 0°C | 0% | 0hPa | 0V | 00:00:00 | 00:00:00 | 00:00:00 | |
| OE3OSB-13 | 2026-08-31 13:11:00 | 48.47947 | 17.43746 | 248° | 9km/h | 28090m | 4.5m/s | -46.7°C | 0.0% | 12.9hPa | 0V | 00:00:00 | 00:00:00 | 00:00:00 | |
| ATIDSZ-14 | 2026-08-31 13:10:50 | 48.47953 | 17.43746 | 175° | 13km/h | 28039m | 5.4m/s | 0°C | 0% | 0hPa | 0V | 00:00:00 | 00:00:00 | 00:00:00 | |
| OE5MMP-10 | 2026-08-31 13:10:48 | 48.47958 | 17.43746 | 204° | 9km/h | 28030m | 4.6m/s | 0°C | 0% | 0hPa | 0V | 00:00:00 | 00:00:00 | 00:00:00 | |
| OE5MMP-10 | 2026-08-31 13:10:30 | 48.47991 | 17.43735 | 124° | 13km/h | 27925m | 7.5m/s | 0°C | 0% | 0hPa | 0V | 00:00:00 | 00:00:00 | 00:00:00 | |
| OE3OSB-13 | 2026-08-31 13:10:29 | 48.47995 | 17.43722 | 118° | 16km/h | 27914m | 4.0m/s | -46.9°C | 0.0% | 13.4hPa | 0V | 00:00:00 | 00:00:00 | 00:00:00 | |
| OK1ALN | 2026-08-31 13:10:27 | 48.47997 | 17.43718 | 133° | 9km/h | 27909m | 6.8m/s | 0°C | 0% | 0hPa | 0V | 00:00:00 | 00:00:00 | 00:00:00 | |
| OE3JTB-15 | 2026-08-31 13:10:25 | 48.48000 | 17.43718 | 215° | 18km/h | 27897m | 3.9m/s | 0°C | 0% | 0hPa | 0V | 00:00:00 | 00:00:00 | 00:00:00 | |
| PETON7-10 | 2026-08-31 13:10:22 | 48.48003 | 17.43708 | 99° | 22km/h | 27881m | 7.8m/s | 0°C | 0% | 0hPa | 0V | 00:00:00 | 00:00:00 | 00:00:00 | |
| OE5MMP-10 | 2026-08-31 13:10:20 | 48.48006 | 17.43687 | 108° | 20km/h | 27870m | 5.3m/s | 0°C | 0% | 0hPa | 0V | 00:00:00 | 00:00:00 | 00:00:00 | |
| ATIDSZ-14 | 2026-08-31 13:10:08 | 48.48031 | 17.43612 | 111° | 27km/h | 27799m | 6.7m/s | 0°C | 0% | 0hPa | 0V | 00:00:00 | 00:00:00 | 00:00:00 | |
| PETON7-10 | 2026-08-31 13:10:07 | 48.48033 | 17.43603 | 103° | 18km/h | 27794m | 4.4m/s | 0°C | 0% | 0hPa | 0V | 00:00:00 | 00:00:00 | 00:00:00 | |
| OE5MMP-10 | 2026-08-31 13:10:04 | 48.48035 | 17.43586 | 96° | 18km/h | 27777m | 5.2m/s | 0°C | 0% | 0hPa | 0V | 00:00:00 | 00:00:00 | 00:00:00 | |
| OE3OSB-13 | 2026-08-31 13:09:58 | 48.48038 | 17.43529 | 120° | 13km/h | 27735m | 5.1m/s | -47.5°C | 0.0% | 13.9hPa | 0V | 00:00:00 | 00:00:00 | 00:00:00 | |
| PETON7-10 | 2026-08-31 13:09:50 | 48.48037 | 17.43492 | 90° | 18km/h | 27695m | 5.3m/s | 0°C | 0% | 0hPa | 0V | 00:00:00 | 00:00:00 | 00:00:00 | |
| ATIDSZ-14 | 2026-08-31 13:09:47 | 48.48035 | 17.43469 | 75° | 27km/h | 27678m | 4.7m/s | 0°C | 0% | 0hPa | 0V | 00:00:00 | 00:00:00 | 00:00:00 | |
| OK1ALN | 2026-08-31 13:09:46 | 48.48033 | 17.43460 | 69° | 22km/h | 27673m | 3.8m/s | 0°C | 0% | 0hPa | 0V | 00:00:00 | 00:00:00 | 00:00:00 | |
| OE3JTB-15 | 2026-08-31 13:09:41 | 48.48021 | 17.43451 | 25° | 16km/h | 27645m | 5.9m/s | 0°C | 0% | 0hPa | 0V | 00:00:00 | 00:00:00 | 00:00:00 | |
| OE5MMP-10 | 2026-08-31 13:09:37 | 48.48007 | 17.43420 | 82° | 18km/h | 27621m | 6.1m/s | 0°C | 0% | 0hPa | 0V | 00:00:00 | 00:00:00 | 00:00:00 | |
| PETON7-10 | 2026-08-31 13:09:35 | 48.48006 | 17.43409 | 78° | 18km/h | 27611m | 5.0m/s | 0°C | 0% | 0hPa | 0V | 00:00:00 | 00:00:00 | 00:00:00 | |
| OE3OSB-13 | 2026-08-31 13:09:27 | 48.47977 | 17.43365 | 68° | 29km/h | 27558m | 3.8m/s | -47.6°C | 0.0% | 14.3hPa | 0V | 00:00:00 | 00:00:00 | 00:00:00 | |
| OK1ALN | 2026-08-31 13:09:25 | 48.47975 | 17.43355 | 68° | 24km/h | 27555m | 3.7m/s | 0°C | 0% | 0hPa | 0V | 00:00:00 | 00:00:00 | 00:00:00 | |
| OE5MMP-10 | 2026-08-31 13:09:21 | 48.47965 | 17.43348 | 344° | 16km/h | 27532m | 5.4m/s | 0°C | 0% | 0hPa | 0V | 00:00:00 | 00:00:00 | 00:00:00 | |
| PETON7-10 | 2026-08-31 13:09:20 | 48.47961 | 17.43348 | 9° | 18km/h | 27526m | 6.4m/s | 0°C | 0% | 0hPa | 0V | 00:00:00 | 00:00:00 | 00:00:00 | |
| HA6NAB-11 | 2026-08-31 13:09:15 | 48.47939 | 17.43329 | 24° | 9km/h | 27498m | 5.8m/s | 0°C | 0% | 0hPa | 0V | 00:00:00 | 00:00:00 | 00:00:00 | |
| OE3JTB-15 | 2026-08-31 13:09:12 | 48.47934 | 17.43324 | 51° | 55km/h | 27481m | 6.4m/s | 0°C | 0% | 0hPa | 0V | 00:00:00 | 00:00:00 | 00:00:00 | |
| OE5MMP-10 | 2026-08-31 13:09:10 | 48.47929 | 17.43316 | 41° | 13km/h | 27470m | 4.7m/s | 0°C | 0% | 0hPa | 0V | 00:00:00 | 00:00:00 | 00:00:00 | |
| HA6NAB-11 | 2026-08-31 13:09:09 | 48.47926 | 17.43314 | 17° | 9km/h | 27465m | 7.2m/s | 0°C | 0% | 0hPa | 0V | 00:00:00 | 00:00:00 | 00:00:00 | |
| ATIDSZ-14 | 2026-08-31 13:09:06 | 48.47918 | 17.43316 | 360° | 16km/h | 27448m | 6.8m/s | 0°C | 0% | 0hPa | 0V | 00:00:00 | 00:00:00 | 00:00:00 | |
| PETON7-10 | 2026-08-31 13:09:05 | 48.47913 | 17.43315 | 12° | 11km/h | 27442m | 6.3m/s | 0°C | 0% | 0hPa | 0V | 00:00:00 | 00:00:00 | 00:00:00 | |
| HA6NAB-11 | 2026-08-31 13:09:03 | 48.47903 | 17.43312 | 7° | 16km/h | 27431m | 5.3m/s | 0°C | 0% | 0hPa | 0V | 00:00:00 | 00:00:00 | 00:00:00 | |
| OE5MMP-10 | 2026-08-31 13:09:00 | 48.47897 | 17.43317 | 280° | 11km/h | 27414m | 4.8m/s | 0°C | 0% | 0hPa | 0V | 00:00:00 | 00:00:00 | 00:00:00 | |
| OE3OSB-13 | 2026-08-31 13:08:56 | 48.47888 | 17.43310 | 341° | 11km/h | 27385m | 7.1m/s | -48.2°C | 0.0% | 14.8hPa | 0V | 00:00:00 | 00:00:00 | 00:00:00 | |
| HA6NAB-11 | 2026-08-31 13:08:51 | 48.47877 | 17.43319 | 11° | 11km/h | 27360m | 5.5m/s | 0°C | 0% | 0hPa | 0V | 00:00:00 | 00:00:00 | 00:00:00 | |
| OE5MMP-10 | 2026-08-31 13:08:50 | 48.47875 | 17.43318 | 18° | 7km/h | 27355m | 5.2m/s | 0°C | 0% | 0hPa | 0V | 00:00:00 | 00:00:00 | 00:00:00 | |
| ATIDSZ-14 | 2026-08-31 13:08:45 | 48.47872 | 17.43313 | 63° | 7km/h | 27325m | 5.2m/s | 0°C | 0% | 0hPa | 0V | 00:00:00 | 00:00:00 | 00:00:00 | |
| OE5MMP-10 | 2026-08-31 13:08:40 | 48.47862 | 17.43323 | 353° | 13km/h | 27298m | 6.1m/s | 0°C | 0% | 0hPa | 0V | 00:00:00 | 00:00:00 | 00:00:00 | |
| HA6NAB-11 | 2026-08-31 13:08:39 | 48.47858 | 17.43321 | 31° | 15km/h | 27292m | 6.8m/s | 0°C | 0% | 0hPa | 0V | 00:00:00 | 00:00:00 | 00:00:00 | |
| OE5MMP-10 | 2026-08-31 13:08:30 | 48.47846 | 17.43310 | 342° | 15km/h | 27243m | 6.3m/s | 0°C | 0% | 0hPa | 0V | 00:00:00 | 00:00:00 | 00:00:00 | |
| OE3OSB-13 | 2026-08-31 13:08:25 | 48.47845 | 17.43292 | 93° | 20km/h | 27208m | 4.4m/s | -48.4°C | 0.0% | 15.3hPa | 0V | 00:00:00 | 00:00:00 | 00:00:00 | |
| OE5MMP-10 | 2026-08-31 13:08:19 | 48.47843 | 17.43289 | 342° | 9km/h | 27182m | 6.3m/s | 0°C | 0% | 0hPa | 0V | 00:00:00 | 00:00:00 | 00:00:00 | |
| PETON7-10 | 2026-08-31 13:08:16 | 48.47838 | 17.43279 | 82° | 16km/h | 27164m | 4.9m/s | 0°C | 0% | 0hPa | 0V | 00:00:00 | 00:00:00 | 00:00:00 | |
| OE5MMP-10 | 2026-08-31 13:08:07 | 48.47831 | 17.43242 | 3° | 5km/h | 27114m | 6.4m/s | 0°C | 0% | 0hPa | 0V | 00:00:00 | 00:00:00 | 00:00:00 | |
| ATIDSZ-14 | 2026-08-31 13:08:05 | 48.47830 | 17.43240 | 73° | 7km/h | 27103m | 4.9m/s | 0°C | 0% | 0hPa | 0V | 00:00:00 | 00:00:00 | 00:00:00 | |
| OK1ALN | 2026-08-31 13:08:04 | 48.47829 | 17.43236 | 78° | 15km/h | 27097m | 7.0m/s | 0°C | 0% | 0hPa | 0V | 00:00:00 | 00:00:00 | 00:00:00 | |
| OE3OSB-13 | 2026-08-31 13:07:56 | 48.47809 | 17.43180 | 106° | 2km/h | 27036m | 6.7m/s | -48.8°C | 0.0% | 15.9hPa | 0V | 00:00:00 | 00:00:00 | 00:00:00 | |
| OE5MMP-10 | 2026-08-31 13:07:47 | 48.47811 | 17.43159 | 100° | 7km/h | 27002m | 7.1m/s | 0°C | 0% | 0hPa | 0V | 00:00:00 | 00:00:00 | 00:00:00 | |
| ATIDSZ-14 | 2026-08-31 13:07:43 | 48.47808 | 17.43161 | 27° | 9km/h | 26978m | 5.4m/s | 0°C | 0% | 0hPa | 0V | 00:00:00 | 00:00:00 | 00:00:00 | |
| PETON7-10 | 2026-08-31 13:07:36 | 48.47818 | 17.43149 | 89° | 11km/h | 26940m | 6.7m/s | 0°C | 0% | 0hPa | 0V | 00:00:00 | 00:00:00 | 00:00:00 | |
| OE5MMP-10 | 2026-08-31 13:07:33 | 48.47813 | 17.43142 | 357° | 15km/h | 26924m | 6.7m/s | 0°C | 0% | 0hPa | 0V | 00:00:00 | 00:00:00 | 00:00:00 | |
| OE3OSB-13 | 2026-08-31 13:07:23 | 48.47829 | 17.43107 | 65° | 13km/h | 26863m | 5.5m/s | -48.9°C | 0.0% | 16.4hPa | 0V | 00:00:00 | 00:00:00 | 00:00:00 | |
| OE5MMP-10 | 2026-08-31 13:07:21 | 48.47828 | 17.43102 | 83° | 15km/h | 26858m | 4.4m/s | 0°C | 0% | 0hPa | 0V | 00:00:00 | 00:00:00 | 00:00:00 | |
| PETON7-10 | 2026-08-31 13:07:19 | 48.47831 | 17.43096 | 158° | 13km/h | 26847m | 7.5m/s | 0°C | 0% | 0hPa | 0V | 00:00:00 | 00:00:00 | 00:00:00 | |
| OE5MMP-10 | 2026-08-31 13:07:10 | 48.47836 | 17.43067 | 147° | 11km/h | 26799m | 5.3m/s | 0°C | 0% | 0hPa | 0V | 00:00:00 | 00:00:00 | 00:00:00 | |
| PETON7-10 | 2026-08-31 13:07:04 | 48.47844 | 17.43050 | 97° | 13km/h | 26766m | 4.7m/s | 0°C | 0% | 0hPa | 0V | 00:00:00 | 00:00:00 | 00:00:00 | |
| ATIDSZ-14 | 2026-08-31 13:07:02 | 48.47842 | 17.43047 | 36° | 13km/h | 26755m | 6.3m/s | 0°C | 0% | 0hPa | 0V | 00:00:00 | 00:00:00 | 00:00:00 | |
| OE5MMP-10 | 2026-08-31 13:07:00 | 48.47835 | 17.43036 | 49° | 13km/h | 26744m | 3.4m/s | 0°C | 0% | 0hPa | 0V | 00:00:00 | 00:00:00 | 00:00:00 | |
| OE3OSB-13 | 2026-08-31 13:06:52 | 48.47818 | 17.43023 | 27° | 15km/h | 26693m | 6.0m/s | -49.1°C | 0.0% | 16.9hPa | 0V | 00:00:00 | 00:00:00 | 00:00:00 | |
| OE5MMP-10 | 2026-08-31 13:06:50 | 48.47815 | 17.43021 | 33° | 11km/h | 26688m | 4.8m/s | 0°C | 0% | 0hPa | 0V | 00:00:00 | 00:00:00 | 00:00:00 | |
| PETON7-10 | 2026-08-31 13:06:49 | 48.47812 | 17.43018 | 49° | 11km/h | 26683m | 4.8m/s | 0°C | 0% | 0hPa | 0V | 00:00:00 | 00:00:00 | 00:00:00 | |
| ATIDSZ-14 | 2026-08-31 13:06:41 | 48.47797 | 17.43004 | 41° | 15km/h | 26640m | 6.6m/s | 0°C | 0% | 0hPa | 0V | 00:00:00 | 00:00:00 | 00:00:00 | |
| OE5MMP-10 | 2026-08-31 13:06:40 | 48.47795 | 17.42999 | 66° | 15km/h | 26634m | 5.1m/s | 0°C | 0% | 0hPa | 0V | 00:00:00 | 00:00:00 | 00:00:00 | |
| PETON7-10 | 2026-08-31 13:06:34 | 48.47791 | 17.42980 | 334° | 13km/h | 26605m | 4.2m/s | 0°C | 0% | 0hPa | 0V | 00:00:00 | 00:00:00 | 00:00:00 | |
| OE5MMP-10 | 2026-08-31 13:06:29 | 48.47781 | 17.42960 | 85° | 7km/h | 26579m | 7.0m/s | 0°C | 0% | 0hPa | 0V | 00:00:00 | 00:00:00 | 00:00:00 | |
| ATIDSZ-14 | 2026-08-31 13:06:20 | 48.47764 | 17.42956 | 305° | 5km/h | 26529m | 4.8m/s | 0°C | 0% | 0hPa | 0V | 00:00:00 | 00:00:00 | 00:00:00 | |
| PETON7-10 | 2026-08-31 13:06:19 | 48.47763 | 17.42958 | 265° | 11km/h | 26523m | 6.3m/s | 0°C | 0% | 0hPa | 0V | 00:00:00 | 00:00:00 | 00:00:00 | |
| OE5MMP-10 | 2026-08-31 13:06:18 | 48.47763 | 17.42958 | 105° | 15km/h | 26517m | 6.1m/s | 0°C | 0% | 0hPa | 0V | 00:00:00 | 00:00:00 | 00:00:00 | |
| OE5MMP-10 | 2026-08-31 13:06:05 | 48.47737 | 17.42982 | 287° | 15km/h | 26447m | 6.5m/s | 0°C | 0% | 0hPa | 0V | 00:00:00 | 00:00:00 | 00:00:00 | |
| PETON7-10 | 2026-08-31 13:06:04 | 48.47736 | 17.42982 | 21° | 13km/h | 26441m | 5.0m/s | 0°C | 0% | 0hPa | 0V | 00:00:00 | 00:00:00 | 00:00:00 | |
| OE3OSB-13 | 2026-08-31 13:05:49 | 48.47699 | 17.43025 | 310° | 9km/h | 26358m | 6.6m/s | -49.3°C | 0.0% | 18.0hPa | 0V | 00:00:00 | 00:00:00 | 00:00:00 | |
| PETON7-10 | 2026-08-31 13:05:48 | 48.47697 | 17.43028 | 309° | 9km/h | 26353m | 5.2m/s | 0°C | 0% | 0hPa | 0V | 00:00:00 | 00:00:00 | 00:00:00 | |
| OE5MMP-10 | 2026-08-31 13:05:44 | 48.47695 | 17.43040 | 228° | 5km/h | 26330m | 4.7m/s | 0°C | 0% | 0hPa | 0V | 00:00:00 | 00:00:00 | 00:00:00 | |
| ATIDSZ-14 | 2026-08-31 13:05:38 | 48.47684 | 17.43051 | 67° | 5km/h | 26298m | 6.6m/s | 0°C | 0% | 0hPa | 0V | 00:00:00 | 00:00:00 | 00:00:00 | |
| PETON7-10 | 2026-08-31 13:05:33 | 48.47684 | 17.43056 | 288° | 9km/h | 26269m | 5.4m/s | 0°C | 0% | 0hPa | 0V | 00:00:00 | 00:00:00 | 00:00:00 | |
| OE5MMP-10 | 2026-08-31 13:05:31 | 48.47683 | 17.43067 | 150° | 7km/h | 26253m | 4.7m/s | 0°C | 0% | 0hPa | 0V | 00:00:00 | 00:00:00 | 00:00:00 | |
| OE5MMP-10 | 2026-08-31 13:05:20 | 48.47684 | 17.43064 | 332° | 13km/h | 26199m | 4.5m/s | 0°C | 0% | 0hPa | 0V | 00:00:00 | 00:00:00 | 00:00:00 | |
| PETON7-10 | 2026-08-31 13:05:18 | 48.47680 | 17.43062 | 67° | 9km/h | 26188m | 7.1m/s | 0°C | 0% | 0hPa | 0V | 00:00:00 | 00:00:00 | 00:00:00 | |
| OE5MMP-10 | 2026-08-31 13:05:10 | 48.47689 | 17.43043 | 192° | 13km/h | 26143m | 4.6m/s | 0°C | 0% | 0hPa | 0V | 00:00:00 | 00:00:00 | 00:00:00 | |
| PETON7-10 | 2026-08-31 13:05:03 | 48.47690 | 17.43015 | 148° | 15km/h | 26105m | 4.4m/s | 0°C | 0% | 0hPa | 0V | 00:00:00 | 00:00:00 | 00:00:00 | |
| OE5MMP-10 | 2026-08-31 13:05:00 | 48.47696 | 17.43014 | 298° | 15km/h | 26088m | 4.5m/s | 0°C | 0% | 0hPa | 0V | 00:00:00 | 00:00:00 | 00:00:00 | |
| OE3OSB-13 | 2026-08-31 13:04:47 | 48.47704 | 17.42950 | 56° | 22km/h | 26011m | 4.7m/s | -49.7°C | 0.0% | 19.2hPa | 0V | 00:00:00 | 00:00:00 | 00:00:00 | |
| OE5MMP-10 | 2026-08-31 13:04:38 | 48.47706 | 17.42895 | 64° | 11km/h | 25968m | 5.0m/s | 0°C | 0% | 0hPa | 0V | 00:00:00 | 00:00:00 | 00:00:00 | |
| ATIDSZ-14 | 2026-08-31 13:04:37 | 48.47706 | 17.42893 | 100° | 7km/h | 25963m | 5.6m/s | 0°C | 0% | 0hPa | 0V | 00:00:00 | 00:00:00 | 00:00:00 | |
| PETON7-10 | 2026-08-31 13:04:33 | 48.47704 | 17.42869 | 65° | 20km/h | 25940m | 5.4m/s | 0°C | 0% | 0hPa | 0V | 00:00:00 | 00:00:00 | 00:00:00 | |
| OE5MMP-10 | 2026-08-31 13:04:28 | 48.47704 | 17.42833 | 125° | 16km/h | 25914m | 4.3m/s | 0°C | 0% | 0hPa | 0V | 00:00:00 | 00:00:00 | 00:00:00 | |
| PETON7-10 | 2026-08-31 13:04:18 | 48.47698 | 17.42769 | 74° | 9km/h | 25859m | 4.0m/s | 0°C | 0% | 0hPa | 0V | 00:00:00 | 00:00:00 | 00:00:00 | |
| ATIDSZ-14 | 2026-08-31 13:04:17 | 48.47697 | 17.42765 | 96° | 7km/h | 25854m | 6.0m/s | 0°C | 0% | 0hPa | 0V | 00:00:00 | 00:00:00 | 00:00:00 | |
| OE5MMP-10 | 2026-08-31 13:04:16 | 48.47698 | 17.42762 | 140° | 9km/h | 25848m | 6.5m/s | 0°C | 0% | 0hPa | 0V | 00:00:00 | 00:00:00 | 00:00:00 | |
| OE5MMP-10 | 2026-08-31 13:04:05 | 48.47689 | 17.42737 | 84° | 15km/h | 25789m | 4.8m/s | 0°C | 0% | 0hPa | 0V | 00:00:00 | 00:00:00 | 00:00:00 | |
| PETON7-10 | 2026-08-31 13:04:02 | 48.47688 | 17.42725 | 58° | 11km/h | 25774m | 4.0m/s | 0°C | 0% | 0hPa | 0V | 00:00:00 | 00:00:00 | 00:00:00 | |
| OE3OSB-13 | 2026-08-31 13:03:45 | 48.47647 | 17.42728 | 10° | 5km/h | 25677m | 6.0m/s | -50.7°C | 0.0% | 20.5hPa | 0V | 00:00:00 | 00:00:00 | 00:00:00 | |
| OE5MMP-10 | 2026-08-31 13:03:44 | 48.47647 | 17.42728 | 11° | 7km/h | 25677m | 5.9m/s | 0°C | 0% | 0hPa | 0V | 00:00:00 | 00:00:00 | 00:00:00 | |
| ATIDSZ-14 | 2026-08-31 13:03:36 | 48.47636 | 17.42734 | 265° | 9km/h | 25635m | 5.6m/s | 0°C | 0% | 0hPa | 0V | 00:00:00 | 00:00:00 | 00:00:00 | |
| OE5MMP-10 | 2026-08-31 13:03:34 | 48.47638 | 17.42740 | 217° | 5km/h | 25625m | 5.0m/s | 0°C | 0% | 0hPa | 0V | 00:00:00 | 00:00:00 | 00:00:00 | |
| OE5MMP-10 | 2026-08-31 13:03:23 | 48.47636 | 17.42733 | 88° | 13km/h | 25567m | 5.9m/s | 0°C | 0% | 0hPa | 0V | 00:00:00 | 00:00:00 | 00:00:00 | |
| PETON7-10 | 2026-08-31 13:03:17 | 48.47631 | 17.42725 | 73° | 13km/h | 25535m | 5.2m/s | 0°C | 0% | 0hPa | 0V | 00:00:00 | 00:00:00 | 00:00:00 | |
| ATIDSZ-14 | 2026-08-31 13:03:15 | 48.47632 | 17.42716 | 119° | 18km/h | 25524m | 4.3m/s | 0°C | 0% | 0hPa | 0V | 00:00:00 | 00:00:00 | 00:00:00 | |
| OE3OSB-13 | 2026-08-31 13:03:14 | 48.47635 | 17.42702 | 87° | 18km/h | 25513m | 6.7m/s | -50.9°C | 0.0% | 21.1hPa | 0V | 00:00:00 | 00:00:00 | 00:00:00 | |
| OE5MMP-10 | 2026-08-31 13:03:11 | 48.47632 | 17.42689 | 62° | 15km/h | 25502m | 4.8m/s | 0°C | 0% | 0hPa | 0V | 00:00:00 | 00:00:00 | 00:00:00 | |
| PETON7-10 | 2026-08-31 13:03:02 | 48.47633 | 17.42664 | 123° | 13km/h | 25454m | 4.0m/s | 0°C | 0% | 0hPa | 0V | 00:00:00 | 00:00:00 | 00:00:00 | |
| OE3OSB-13 | 2026-08-31 13:02:43 | 48.47636 | 17.42565 | 115° | 15km/h | 25348m | 4.3m/s | -50.1°C | 0.0% | 21.7hPa | 0V | 00:00:00 | 00:00:00 | 00:00:00 | |
| ATIDSZ-14 | 2026-08-31 13:02:35 | 48.47641 | 17.42526 | 115° | 16km/h | 25310m | 5.8m/s | 0°C | 0% | 0hPa | 0V | 00:00:00 | 00:00:00 | 00:00:00 | |
| PETON7-10 | 2026-08-31 13:02:32 | 48.47644 | 17.42504 | 101° | 20km/h | 25294m | 5.8m/s | 0°C | 0% | 0hPa | 0V | 00:00:00 | 00:00:00 | 00:00:00 | |
| PETON7-10 | 2026-08-31 13:02:17 | 48.47644 | 17.42389 | 92° | 24km/h | 25216m | 5.8m/s | 0°C | 0% | 0hPa | 0V | 00:00:00 | 00:00:00 | 00:00:00 | |
| ATIDSZ-14 | 2026-08-31 13:02:14 | 48.47646 | 17.42353 | 87° | 24km/h | 25200m | 6.3m/s | 0°C | 0% | 0hPa | 0V | 00:00:00 | 00:00:00 | 00:00:00 | |
| OE3OSB-13 | 2026-08-31 13:02:12 | 48.47643 | 17.42334 | 84° | 13km/h | 25183m | 5.7m/s | -50.3°C | 0.0% | 22.4hPa | 0V | 00:00:00 | 00:00:00 | 00:00:00 | |
| PETON7-10 | 2026-08-31 13:02:02 | 48.47639 | 17.42266 | 160° | 13km/h | 25138m | 4.9m/s | 0°C | 0% | 0hPa | 0V | 00:00:00 | 00:00:00 | 00:00:00 | |
| ATIDSZ-14 | 2026-08-31 13:01:54 | 48.47634 | 17.42217 | 88° | 18km/h | 25096m | 5.6m/s | 0°C | 0% | 0hPa | 0V | 00:00:00 | 00:00:00 | 00:00:00 | |
| PETON7-10 | 2026-08-31 13:01:47 | 48.47639 | 17.42203 | 81° | 11km/h | 25061m | 6.3m/s | 0°C | 0% | 0hPa | 0V | 00:00:00 | 00:00:00 | 00:00:00 | |
| OE5MMP-10 | 2026-08-31 13:01:44 | 48.47631 | 17.42190 | 57° | 9km/h | 25044m | 5.7m/s | 0°C | 0% | 0hPa | 0V | 00:00:00 | 00:00:00 | 00:00:00 | |
| OE3OSB-13 | 2026-08-31 13:01:41 | 48.47627 | 17.42169 | 24° | 2km/h | 25023m | 6.6m/s | -49.8°C | 0.0% | 23.1hPa | 0V | 00:00:00 | 00:00:00 | 00:00:00 | |
| ATIDSZ-14 | 2026-08-31 13:01:33 | 48.47633 | 17.42164 | 45° | 5km/h | 24986m | 5.7m/s | 0°C | 0% | 0hPa | 0V | 00:00:00 | 00:00:00 | 00:00:00 | |
| PETON7-10 | 2026-08-31 13:01:32 | 48.47632 | 17.42163 | 35° | 7km/h | 24981m | 4.2m/s | 0°C | 0% | 0hPa | 0V | 00:00:00 | 00:00:00 | 00:00:00 | |
| OE5MMP-10 | 2026-08-31 13:01:28 | 48.47634 | 17.42161 | 243° | 5km/h | 24960m | 5.8m/s | 0°C | 0% | 0hPa | 0V | 00:00:00 | 00:00:00 | 00:00:00 | |
| PETON7-10 | 2026-08-31 13:01:17 | 48.47627 | 17.42151 | 149° | 4km/h | 24901m | 5.6m/s | 0°C | 0% | 0hPa | 0V | 00:00:00 | 00:00:00 | 00:00:00 | |
| OE5MMP-10 | 2026-08-31 13:01:16 | 48.47627 | 17.42167 | 159° | 4km/h | 24895m | 4.6m/s | 0°C | 0% | 0hPa | 0V | 00:00:00 | 00:00:00 | 00:00:00 | |
| ATIDSZ-14 | 2026-08-31 13:01:13 | 48.47623 | 17.42153 | 345° | 9km/h | 24878m | 4.3m/s | 0°C | 0% | 0hPa | 0V | 00:00:00 | 00:00:00 | 00:00:00 | |
| OE3OSB-13 | 2026-08-31 13:01:11 | 48.47620 | 17.42151 | 0° | 4km/h | 24856m | 6.8m/s | -50.3°C | 0.0% | 23.8hPa | 0V | 00:00:00 | 00:00:00 | 00:00:00 | |
| PETON7-10 | 2026-08-31 13:01:02 | 48.47614 | 17.42143 | 18° | 13km/h | 24817m | 5.6m/s | 0°C | 0% | 0hPa | 0V | 00:00:00 | 00:00:00 | 00:00:00 | |
| OE5MMP-10 | 2026-08-31 13:00:58 | 48.47607 | 17.42133 | 72° | 18km/h | 24795m | 4.1m/s | 0°C | 0% | 0hPa | 0V | 00:00:00 | 00:00:00 | 00:00:00 | |
| ATIDSZ-14 | 2026-08-31 13:00:52 | 48.47595 | 17.42115 | 64° | 15km/h | 24762m | 3.7m/s | 0°C | 0% | 0hPa | 0V | 00:00:00 | 00:00:00 | 00:00:00 | |
| PETON7-10 | 2026-08-31 13:00:47 | 48.47574 | 17.42087 | 78° | 16km/h | 24731m | 5.8m/s | 0°C | 0% | 0hPa | 0V | 00:00:00 | 00:00:00 | 00:00:00 | |
| OE3OSB-13 | 2026-08-31 13:00:39 | 48.47545 | 17.42059 | 22° | 20km/h | 24689m | 5.0m/s | -50.6°C | 0.0% | 24.5hPa | 0V | 00:00:00 | 00:00:00 | 00:00:00 | |
| OE5MMP-10 | 2026-08-31 13:00:36 | 48.47535 | 17.42053 | 17° | 18km/h | 24677m | 4.9m/s | 0°C | 0% | 0hPa | 0V | 00:00:00 | 00:00:00 | 00:00:00 | |
| ATIDSZ-14 | 2026-08-31 13:00:32 | 48.47525 | 17.42043 | 30° | 7km/h | 24655m | 4.1m/s | 0°C | 0% | 0hPa | 0V | 00:00:00 | 00:00:00 | 00:00:00 | |
| PETON7-10 | 2026-08-31 13:00:31 | 48.47522 | 17.42042 | 5° | 16km/h | 24650m | 6.3m/s | 0°C | 0% | 0hPa | 0V | 00:00:00 | 00:00:00 | 00:00:00 | |
| OE5MMP-10 | 2026-08-31 13:00:25 | 48.47495 | 17.42028 | 40° | 16km/h | 24617m | 5.6m/s | 0°C | 0% | 0hPa | 0V | 00:00:00 | 00:00:00 | 00:00:00 | |
| OE5MMP-10 | 2026-08-31 13:00:17 | 48.47463 | 17.42017 | 35° | 9km/h | 24564m | 6.9m/s | 0°C | 0% | 0hPa | 0V | 00:00:00 | 00:00:00 | 00:00:00 | |
| ATIDSZ-14 | 2026-08-31 13:00:11 | 48.47462 | 17.42006 | 5° | 5km/h | 24542m | 5.6m/s | 0°C | 0% | 0hPa | 0V | 00:00:00 | 00:00:00 | 00:00:00 | |
| OE3OSB-13 | 2026-08-31 13:00:08 | 48.47455 | 17.42006 | 6° | 5km/h | 24520m | 4.4m/s | -50.6°C | 0.0% | 25.2hPa | 0V | 00:00:00 | 00:00:00 | 00:00:00 | |
| OE5MMP-10 | 2026-08-31 13:00:05 | 48.47451 | 17.42007 | 346° | 15km/h | 24509m | 5.3m/s | 0°C | 0% | 0hPa | 0V | 00:00:00 | 00:00:00 | 00:00:00 | |
| PETON7-10 | 2026-08-31 13:00:00 | 48.47449 | 17.41990 | 78° | 15km/h | 24482m | 5.1m/s | 0°C | 0% | 0hPa | 0V | 00:00:00 | 00:00:00 | 00:00:00 | |
| OE5MMP-10 | 2026-08-31 12:59:53 | 48.47430 | 17.41973 | 79° | 18km/h | 24442m | 6.4m/s | 0°C | 0% | 0hPa | 0V | 00:00:00 | 00:00:00 | 00:00:00 | |
| ATIDSZ-14 | 2026-08-31 12:59:51 | 48.47430 | 17.41968 | 106° | 11km/h | 24432m | 5.0m/s | 0°C | 0% | 0hPa | 0V | 00:00:00 | 00:00:00 | 00:00:00 | |
| PETON7-10 | 2026-08-31 12:59:45 | 48.47412 | 17.41946 | 6° | 18km/h | 24399m | 3.9m/s | 0°C | 0% | 0hPa | 0V | 00:00:00 | 00:00:00 | 00:00:00 | |
| OE5MMP-10 | 2026-08-31 12:59:43 | 48.47401 | 17.41940 | 47° | 18km/h | 24389m | 5.4m/s | 0°C | 0% | 0hPa | 0V | 00:00:00 | 00:00:00 | 00:00:00 | |
| OE3OSB-13 | 2026-08-31 12:59:37 | 48.47391 | 17.41914 | 38° | 22km/h | 24352m | 5.8m/s | -50.6°C | 0.0% | 26.0hPa | 0V | 00:00:00 | 00:00:00 | 00:00:00 | |
| ATIDSZ-14 | 2026-08-31 12:59:31 | 48.47366 | 17.41900 | 26° | 16km/h | 24325m | 6.1m/s | 0°C | 0% | 0hPa | 0V | 00:00:00 | 00:00:00 | 00:00:00 | |
| PETON7-10 | 2026-08-31 12:59:30 | 48.47362 | 17.41896 | 48° | 22km/h | 24319m | 6.4m/s | 0°C | 0% | 0hPa | 0V | 00:00:00 | 00:00:00 | 00:00:00 | |
| OE5MMP-10 | 2026-08-31 12:59:20 | 48.47316 | 17.41857 | 355° | 22km/h | 24267m | 6.9m/s | 0°C | 0% | 0hPa | 0V | 00:00:00 | 00:00:00 | 00:00:00 | |
| PETON7-10 | 2026-08-31 12:59:15 | 48.47292 | 17.41858 | 33° | 16km/h | 24240m | 4.1m/s | 0°C | 0% | 0hPa | 0V | 00:00:00 | 00:00:00 | 00:00:00 | |
| ATIDSZ-14 | 2026-08-31 12:59:11 | 48.47270 | 17.41850 | 2° | 18km/h | 24219m | 4.3m/s | 0°C | 0% | 0hPa | 0V | 00:00:00 | 00:00:00 | 00:00:00 | |
| OE5MMP-10 | 2026-08-31 12:59:10 | 48.47266 | 17.41849 | 13° | 11km/h | 24214m | 6.7m/s | 0°C | 0% | 0hPa | 0V | 00:00:00 | 00:00:00 | 00:00:00 | |
| OE3OSB-13 | 2026-08-31 12:59:06 | 48.47251 | 17.41847 | 8° | 15km/h | 24186m | 5.5m/s | -51.8°C | 0.0% | 26.8hPa | 0V | 00:00:00 | 00:00:00 | 00:00:00 | |
| PETON7-10 | 2026-08-31 12:59:00 | 48.47234 | 17.41842 | 346° | 13km/h | 24158m | 4.5m/s | 0°C | 0% | 0hPa | 0V | 00:00:00 | 00:00:00 | 00:00:00 | |
| OE5MMP-10 | 2026-08-31 12:58:50 | 48.47207 | 17.41822 | 24° | 13km/h | 24104m | 5.0m/s | 0°C | 0% | 0hPa | 0V | 00:00:00 | 00:00:00 | 00:00:00 | |
| PETON7-10 | 2026-08-31 12:58:45 | 48.47192 | 17.41810 | 70° | 16km/h | 24076m | 4.9m/s | 0°C | 0% | 0hPa | 0V | 00:00:00 | 00:00:00 | 00:00:00 | |
| OE5MMP-10 | 2026-08-31 12:58:40 | 48.47183 | 17.41795 | 12° | 18km/h | 24051m | 5.9m/s | 0°C | 0% | 0hPa | 0V | 00:00:00 | 00:00:00 | 00:00:00 | |
| OE3OSB-13 | 2026-08-31 12:58:35 | 48.47161 | 17.41770 | 40° | 26km/h | 24019m | 5.4m/s | -51.5°C | 0.0% | 27.6hPa | 0V | 00:00:00 | 00:00:00 | 00:00:00 | |
| ATIDSZ-14 | 2026-08-31 12:58:30 | 48.47151 | 17.41751 | 21° | 9km/h | 23998m | 6.4m/s | 0°C | 0% | 0hPa | 0V | 00:00:00 | 00:00:00 | 00:00:00 | |
| OE5MMP-10 | 2026-08-31 12:58:23 | 48.47114 | 17.41711 | 35° | 22km/h | 23960m | 4.0m/s | 0°C | 0% | 0hPa | 0V | 00:00:00 | 00:00:00 | 00:00:00 | |
| PETON7-10 | 2026-08-31 12:58:14 | 48.47070 | 17.41663 | 35° | 26km/h | 23914m | 5.5m/s | 0°C | 0% | 0hPa | 0V | 00:00:00 | 00:00:00 | 00:00:00 | |
| OE5MMP-10 | 2026-08-31 12:58:13 | 48.47063 | 17.41654 | 44° | 29km/h | 23909m | 4.3m/s | 0°C | 0% | 0hPa | 0V | 00:00:00 | 00:00:00 | 00:00:00 | |
| ATIDSZ-14 | 2026-08-31 12:58:09 | 48.47045 | 17.41638 | 345° | 15km/h | 23888m | 3.8m/s | 0°C | 0% | 0hPa | 0V | 00:00:00 | 00:00:00 | 00:00:00 | |
| OE3OSB-13 | 2026-08-31 12:58:04 | 48.47013 | 17.41617 | 16° | 33km/h | 23858m | 5.1m/s | -51.7°C | 0.0% | 28.4hPa | 0V | 00:00:00 | 00:00:00 | 00:00:00 | |
| PETON7-10 | 2026-08-31 12:57:59 | 48.46991 | 17.41609 | 40° | 24km/h | 23837m | 5.1m/s | 0°C | 0% | 0hPa | 0V | 00:00:00 | 00:00:00 | 00:00:00 | |
| ATIDSZ-14 | 2026-08-31 12:57:49 | 48.46929 | 17.41596 | 5° | 18km/h | 23788m | 5.2m/s | 0°C | 0% | 0hPa | 0V | 00:00:00 | 00:00:00 | 00:00:00 | |
| OE5MMP-10 | 2026-08-31 12:57:46 | 48.46913 | 17.41599 | 358° | 20km/h | 23773m | 5.9m/s | 0°C | 0% | 0hPa | 0V | 00:00:00 | 00:00:00 | 00:00:00 | |
| PETON7-10 | 2026-08-31 12:57:44 | 48.46900 | 17.41598 | 4° | 20km/h | 23763m | 3.9m/s | 0°C | 0% | 0hPa | 0V | 00:00:00 | 00:00:00 | 00:00:00 | |
| OE5MMP-10 | 2026-08-31 12:57:36 | 48.46864 | 17.41612 | 338° | 22km/h | 23721m | 6.0m/s | 0°C | 0% | 0hPa | 0V | 00:00:00 | 00:00:00 | 00:00:00 | |
| OE3OSB-13 | 2026-08-31 12:57:33 | 48.46842 | 17.41626 | 346° | 18km/h | 23700m | 5.1m/s | -52.2°C | 0.0% | 29.2hPa | 0V | 00:00:00 | 00:00:00 | 00:00:00 | |
| PETON7-10 | 2026-08-31 12:57:29 | 48.46831 | 17.41635 | 302° | 11km/h | 23684m | 4.7m/s | 0°C | 0% | 0hPa | 0V | 00:00:00 | 00:00:00 | 00:00:00 | |
| ATIDSZ-14 | 2026-08-31 12:57:28 | 48.46830 | 17.41640 | 291° | 13km/h | 23680m | 4.2m/s | 0°C | 0% | 0hPa | 0V | 00:00:00 | 00:00:00 | 00:00:00 | |
| OE5MMP-10 | 2026-08-31 12:57:26 | 48.46830 | 17.41645 | 272° | 13km/h | 23669m | 4.6m/s | 0°C | 0% | 0hPa | 0V | 00:00:00 | 00:00:00 | 00:00:00 | |
| OE5MMP-10 | 2026-08-31 12:57:15 | 48.46813 | 17.41677 | 339° | 9km/h | 23616m | 4.5m/s | 0°C | 0% | 0hPa | 0V | 00:00:00 | 00:00:00 | 00:00:00 | |
| PETON7-10 | 2026-08-31 12:57:14 | 48.46811 | 17.41677 | 21° | 11km/h | 23610m | 5.6m/s | 0°C | 0% | 0hPa | 0V | 00:00:00 | 00:00:00 | 00:00:00 | |
| ATIDSZ-14 | 2026-08-31 12:57:07 | 48.46797 | 17.41694 | 326° | 4km/h | 23577m | 5.6m/s | 0°C | 0% | 0hPa | 0V | 00:00:00 | 00:00:00 | 00:00:00 | |
| OE5MMP-10 | 2026-08-31 12:57:05 | 48.46801 | 17.41689 | 166° | 11km/h | 23562m | 5.4m/s | 0°C | 0% | 0hPa | 0V | 00:00:00 | 00:00:00 | 00:00:00 | |
| OE3OSB-13 | 2026-08-31 12:57:01 | 48.46808 | 17.41692 | 334° | 4km/h | 23541m | 5.3m/s | -52.3°C | 0.0% | 30.0hPa | 0V | 00:00:00 | 00:00:00 | 00:00:00 | |
| PETON7-10 | 2026-08-31 12:56:59 | 48.46806 | 17.41694 | 326° | 9km/h | 23536m | 4.3m/s | 0°C | 0% | 0hPa | 0V | 00:00:00 | 00:00:00 | 00:00:00 | |
| OE5MMP-10 | 2026-08-31 12:56:54 | 48.46803 | 17.41707 | 134° | 11km/h | 23511m | 5.0m/s | 0°C | 0% | 0hPa | 0V | 00:00:00 | 00:00:00 | 00:00:00 | |
| ATIDSZ-14 | 2026-08-31 12:56:46 | 48.46807 | 17.41705 | 336° | 9km/h | 23472m | 5.5m/s | 0°C | 0% | 0hPa | 0V | 00:00:00 | 00:00:00 | 00:00:00 | |
| PETON7-10 | 2026-08-31 12:56:44 | 48.46805 | 17.41709 | 232° | 9km/h | 23462m | 3.6m/s | 0°C | 0% | 0hPa | 0V | 00:00:00 | 00:00:00 | 00:00:00 | |
| OE5MMP-10 | 2026-08-31 12:56:34 | 48.46799 | 17.41712 | 34° | 11km/h | 23414m | 3.5m/s | 0°C | 0% | 0hPa | 0V | 00:00:00 | 00:00:00 | 00:00:00 | |
| OE3OSB-13 | 2026-08-31 12:56:31 | 48.46802 | 17.41706 | 26° | 7km/h | 23389m | 5.5m/s | -52.1°C | 0.0% | 30.9hPa | 0V | 00:00:00 | 00:00:00 | 00:00:00 | |
| PETON7-10 | 2026-08-31 12:56:29 | 48.46802 | 17.41706 | 27° | 9km/h | 23389m | 5.4m/s | 0°C | 0% | 0hPa | 0V | 00:00:00 | 00:00:00 | 00:00:00 | |
| ATIDSZ-14 | 2026-08-31 12:56:25 | 48.46795 | 17.41708 | 302° | 7km/h | 23369m | 4.4m/s | 0°C | 0% | 0hPa | 0V | 00:00:00 | 00:00:00 | 00:00:00 | |
| PETON7-10 | 2026-08-31 12:56:14 | 48.46784 | 17.41723 | 301° | 11km/h | 23316m | 5.5m/s | 0°C | 0% | 0hPa | 0V | 00:00:00 | 00:00:00 | 00:00:00 | |
| ATIDSZ-14 | 2026-08-31 12:56:04 | 48.46778 | 17.41760 | 315° | 11km/h | 23265m | 5.6m/s | 0°C | 0% | 0hPa | 0V | 00:00:00 | 00:00:00 | 00:00:00 | |
| PETON7-10 | 2026-08-31 12:55:59 | 48.46775 | 17.41769 | 267° | 7km/h | 23241m | 5.4m/s | 0°C | 0% | 0hPa | 0V | 00:00:00 | 00:00:00 | 00:00:00 | |
| PETON7-10 | 2026-08-31 12:55:44 | 48.46762 | 17.41794 | 353° | 11km/h | 23165m | 5.1m/s | 0°C | 0% | 0hPa | 0V | 00:00:00 | 00:00:00 | 00:00:00 | |
| ATIDSZ-14 | 2026-08-31 12:55:43 | 48.46762 | 17.41795 | 263° | 2km/h | 23160m | 6.1m/s | 0°C | 0% | 0hPa | 0V | 00:00:00 | 00:00:00 | 00:00:00 | |
| PG1ADW-2 | 2026-08-31 12:55:37 | 48.46752 | 17.41809 | 288° | 13km/h | 23130m | 5.3m/s | 0°C | 0% | 0hPa | 0V | 00:00:00 | 00:00:00 | 00:00:00 | |
| OE3OSB-13 | 2026-08-31 12:55:28 | 48.46743 | 17.41841 | 302° | 15km/h | 23080m | 3.8m/s | -53.2°C | 0.0% | 32.5hPa | 0V | 00:00:00 | 00:00:00 | 00:00:00 | |
| PETON7-10 | 2026-08-31 12:55:26 | 48.46741 | 17.41846 | 298° | 9km/h | 23075m | 4.9m/s | 0°C | 0% | 0hPa | 0V | 00:00:00 | 00:00:00 | 00:00:00 | |
| ATIDSZ-14 | 2026-08-31 12:55:23 | 48.46740 | 17.41855 | 0° | 0km/h | 23060m | 5.6m/s | 0°C | 0% | 0hPa | 0V | 00:00:00 | 00:00:00 | 00:00:00 | |
| PETON7-10 | 2026-08-31 12:55:11 | 48.46738 | 17.41888 | 207° | 11km/h | 22998m | 4.8m/s | 0°C | 0% | 0hPa | 0V | 00:00:00 | 00:00:00 | 00:00:00 | |
| ATIDSZ-14 | 2026-08-31 12:55:02 | 48.46747 | 17.41920 | 0° | 0km/h | 22954m | 4.6m/s | 0°C | 0% | 0hPa | 0V | 00:00:00 | 00:00:00 | 00:00:00 | |
| OE3OSB-13 | 2026-08-31 12:54:57 | 48.46754 | 17.41928 | 220° | 5km/h | 22925m | 4.9m/s | -52.5°C | 0.0% | 33.4hPa | 0V | 00:00:00 | 00:00:00 | 00:00:00 | |
| PETON7-10 | 2026-08-31 12:54:56 | 48.46754 | 17.41928 | 221° | 11km/h | 22925m | 4.9m/s | 0°C | 0% | 0hPa | 0V | 00:00:00 | 00:00:00 | 00:00:00 | |
| PETON7-10 | 2026-08-31 12:54:41 | 48.46788 | 17.41948 | 182° | 11km/h | 22849m | 4.8m/s | 0°C | 0% | 0hPa | 0V | 00:00:00 | 00:00:00 | 00:00:00 | |
| OE3OSB-13 | 2026-08-31 12:54:27 | 48.46828 | 17.41929 | 139° | 15km/h | 22768m | 5.4m/s | -52.4°C | 0.0% | 34.4hPa | 0V | 00:00:00 | 00:00:00 | 00:00:00 | |
| PETON7-10 | 2026-08-31 12:54:25 | 48.46828 | 17.41929 | 140° | 11km/h | 22768m | 5.4m/s | 0°C | 0% | 0hPa | 0V | 00:00:00 | 00:00:00 | 00:00:00 | |
| ATIDSZ-14 | 2026-08-31 12:54:21 | 48.46835 | 17.41917 | 95° | 5km/h | 22748m | 4.1m/s | 0°C | 0% | 0hPa | 0V | 00:00:00 | 00:00:00 | 00:00:00 | |
| PETON7-10 | 2026-08-31 12:54:10 | 48.46845 | 17.41885 | 86° | 7km/h | 22691m | 3.3m/s | 0°C | 0% | 0hPa | 0V | 00:00:00 | 00:00:00 | 00:00:00 | |
| ATIDSZ-14 | 2026-08-31 12:54:00 | 48.46840 | 17.41877 | 82° | 13km/h | 22643m | 3.8m/s | 0°C | 0% | 0hPa | 0V | 00:00:00 | 00:00:00 | 00:00:00 | |
| OE3OSB-13 | 2026-08-31 12:53:55 | 48.46824 | 17.41874 | 329° | 4km/h | 22613m | 5.9m/s | -52.2°C | 0.0% | 35.3hPa | 0V | 00:00:00 | 00:00:00 | 00:00:00 | |
| PETON7-10 | 2026-08-31 12:53:51 | 48.46823 | 17.41873 | 295° | 11km/h | 22599m | 5.6m/s | 0°C | 0% | 0hPa | 0V | 00:00:00 | 00:00:00 | 00:00:00 | |
| ATIDSZ-14 | 2026-08-31 12:53:40 | 48.46797 | 17.41887 | 16° | 9km/h | 22545m | 5.9m/s | 0°C | 0% | 0hPa | 0V | 00:00:00 | 00:00:00 | 00:00:00 | |
| PETON7-10 | 2026-08-31 12:53:30 | 48.46766 | 17.41882 | 346° | 18km/h | 22497m | 4.2m/s | 0°C | 0% | 0hPa | 0V | 00:00:00 | 00:00:00 | 00:00:00 | |
| OE3OSB-13 | 2026-08-31 12:53:24 | 48.46740 | 17.41868 | 2° | 18km/h | 22463m | 4.2m/s | -51.8°C | 0.0% | 36.2hPa | 0V | 00:00:00 | 00:00:00 | 00:00:00 | |
| ATIDSZ-14 | 2026-08-31 12:53:20 | 48.46726 | 17.41866 | 358° | 18km/h | 22449m | 4.6m/s | 0°C | 0% | 0hPa | 0V | 00:00:00 | 00:00:00 | 00:00:00 | |
| PETON7-10 | 2026-08-31 12:53:09 | 48.46680 | 17.41849 | 7° | 16km/h | 22396m | 5.1m/s | 0°C | 0% | 0hPa | 0V | 00:00:00 | 00:00:00 | 00:00:00 | |
| ATIDSZ-14 | 2026-08-31 12:53:01 | 48.46647 | 17.41838 | 352° | 20km/h | 22352m | 4.3m/s | 0°C | 0% | 0hPa | 0V | 00:00:00 | 00:00:00 | 00:00:00 | |
| OE3OSB-13 | 2026-08-31 12:52:53 | 48.46612 | 17.41847 | 356° | 13km/h | 22315m | 5.2m/s | -51.6°C | 0.0% | 37.2hPa | 0V | 00:00:00 | 00:00:00 | 00:00:00 | |
| ATIDSZ-14 | 2026-08-31 12:52:40 | 48.46554 | 17.41858 | 361° | 18km/h | 22259m | 4.6m/s | 0°C | 0% | 0hPa | 0V | 00:00:00 | 00:00:00 | 00:00:00 | |
| PETON7-10 | 2026-08-31 12:52:39 | 48.46550 | 17.41858 | 356° | 26km/h | 22253m | 5.8m/s | 0°C | 0% | 0hPa | 0V | 00:00:00 | 00:00:00 | 00:00:00 | |
| PETON7-10 | 2026-08-31 12:52:23 | 48.46455 | 17.41914 | 344° | 22km/h | 22181m | 4.4m/s | 0°C | 0% | 0hPa | 0V | 00:00:00 | 00:00:00 | 00:00:00 | |
| OE3OSB-13 | 2026-08-31 12:52:22 | 48.46447 | 17.41921 | 312° | 15km/h | 22171m | 5.2m/s | -51.9°C | 0.0% | 38.1hPa | 0V | 00:00:00 | 00:00:00 | 00:00:00 | |
| ATIDSZ-14 | 2026-08-31 12:52:19 | 48.46441 | 17.41930 | 328° | 20km/h | 22161m | 4.6m/s | 0°C | 0% | 0hPa | 0V | 00:00:00 | 00:00:00 | 00:00:00 | |
| PETON7-10 | 2026-08-31 12:52:07 | 48.46382 | 17.41978 | 320° | 22km/h | 22104m | 3.8m/s | 0°C | 0% | 0hPa | 0V | 00:00:00 | 00:00:00 | 00:00:00 | |
| OE3OSB-13 | 2026-08-31 12:51:51 | 48.46323 | 17.42046 | 277° | 13km/h | 22022m | 3.8m/s | -51.6°C | 0.0% | 39.0hPa | 0V | 00:00:00 | 00:00:00 | 00:00:00 | |
| OE5MMP-10 | 2026-08-31 12:51:47 | 48.46317 | 17.42060 | 331° | 16km/h | 22007m | 5.5m/s | 0°C | 0% | 0hPa | 0V | 00:00:00 | 00:00:00 | 00:00:00 | |
| PETON7-10 | 2026-08-31 12:51:46 | 48.46308 | 17.42068 | 327° | 16km/h | 21997m | 4.8m/s | 0°C | 0% | 0hPa | 0V | 00:00:00 | 00:00:00 | 00:00:00 | |
| ATIDSZ-14 | 2026-08-31 12:51:39 | 48.46297 | 17.42088 | 265° | 16km/h | 21970m | 5.9m/s | 0°C | 0% | 0hPa | 0V | 00:00:00 | 00:00:00 | 00:00:00 | |
| OE5MMP-10 | 2026-08-31 12:51:30 | 48.46280 | 17.42126 | 293° | 15km/h | 21929m | 4.1m/s | 0°C | 0% | 0hPa | 0V | 00:00:00 | 00:00:00 | 00:00:00 | |
| PETON7-10 | 2026-08-31 12:51:29 | 48.46279 | 17.42130 | 296° | 11km/h | 21925m | 6.1m/s | 0°C | 0% | 0hPa | 0V | 00:00:00 | 00:00:00 | 00:00:00 | |
| OE3OSB-13 | 2026-08-31 12:51:20 | 48.46263 | 17.42167 | 282° | 16km/h | 21876m | 4.7m/s | -52.0°C | 0.0% | 40.1hPa | 0V | 00:00:00 | 00:00:00 | 00:00:00 | |
| ATIDSZ-14 | 2026-08-31 12:51:19 | 48.46264 | 17.42167 | 283° | 18km/h | 21876m | 4.7m/s | 0°C | 0% | 0hPa | 0V | 00:00:00 | 00:00:00 | 00:00:00 | |
| OE5MMP-10 | 2026-08-31 12:51:16 | 48.46262 | 17.42184 | 274° | 13km/h | 21864m | 5.6m/s | 0°C | 0% | 0hPa | 0V | 00:00:00 | 00:00:00 | 00:00:00 | |
| PETON7-10 | 2026-08-31 12:51:13 | 48.46261 | 17.42184 | 331° | 7km/h | 21850m | 4.5m/s | 0°C | 0% | 0hPa | 0V | 00:00:00 | 00:00:00 | 00:00:00 | |
| OE5MMP-10 | 2026-08-31 12:51:06 | 48.46262 | 17.42209 | 292° | 5km/h | 21815m | 6.0m/s | 0°C | 0% | 0hPa | 0V | 00:00:00 | 00:00:00 | 00:00:00 | |
| OE3OSB-13 | 2026-08-31 12:50:48 | 48.46247 | 17.42219 | 343° | 11km/h | 21726m | 5.9m/s | -52.2°C | 0.0% | 41.1hPa | 0V | 00:00:00 | 00:00:00 | 00:00:00 | |
| OE5MMP-10 | 2026-08-31 12:50:47 | 48.46244 | 17.42221 | 336° | 9km/h | 21721m | 4.3m/s | 0°C | 0% | 0hPa | 0V | 00:00:00 | 00:00:00 | 00:00:00 | |
| PETON7-10 | 2026-08-31 12:50:42 | 48.46240 | 17.42220 | 173° | 7km/h | 21698m | 5.1m/s | 0°C | 0% | 0hPa | 0V | 00:00:00 | 00:00:00 | 00:00:00 | |
| ATIDSZ-14 | 2026-08-31 12:50:37 | 48.46238 | 17.42221 | 64° | 9km/h | 21672m | 4.5m/s | 0°C | 0% | 0hPa | 0V | 00:00:00 | 00:00:00 | 00:00:00 | |
| OE5MMP-10 | 2026-08-31 12:50:36 | 48.46237 | 17.42217 | 68° | 9km/h | 21668m | 3.8m/s | 0°C | 0% | 0hPa | 0V | 00:00:00 | 00:00:00 | 00:00:00 | |
| PETON7-10 | 2026-08-31 12:50:27 | 48.46231 | 17.42195 | 37° | 11km/h | 21621m | 4.7m/s | 0°C | 0% | 0hPa | 0V | 00:00:00 | 00:00:00 | 00:00:00 | |
| OE5MMP-10 | 2026-08-31 12:50:26 | 48.46229 | 17.42192 | 63° | 13km/h | 21615m | 5.9m/s | 0°C | 0% | 0hPa | 0V | 00:00:00 | 00:00:00 | 00:00:00 | |
| ATIDSZ-14 | 2026-08-31 12:50:17 | 48.46225 | 17.42157 | 361° | 5km/h | 21572m | 6.3m/s | 0°C | 0% | 0hPa | 0V | 00:00:00 | 00:00:00 | 00:00:00 | |
| OE5MMP-10 | 2026-08-31 12:50:16 | 48.46223 | 17.42158 | 336° | 9km/h | 21567m | 4.0m/s | 0°C | 0% | 0hPa | 0V | 00:00:00 | 00:00:00 | 00:00:00 | |
| PETON7-10 | 2026-08-31 12:50:12 | 48.46218 | 17.42154 | 80° | 9km/h | 21548m | 4.6m/s | 0°C | 0% | 0hPa | 0V | 00:00:00 | 00:00:00 | 00:00:00 | |
| OE3OSB-13 | 2026-08-31 12:49:46 | 48.46207 | 17.42097 | 10° | 4km/h | 21417m | 4.0m/s | -53.0°C | 0.0% | 43.3hPa | 0V | 00:00:00 | 00:00:00 | 00:00:00 | |
| OE5MMP-10 | 2026-08-31 12:49:45 | 48.46207 | 17.42097 | 11° | 9km/h | 21417m | 3.9m/s | 0°C | 0% | 0hPa | 0V | 00:00:00 | 00:00:00 | 00:00:00 | |
| PETON7-10 | 2026-08-31 12:49:41 | 48.46201 | 17.42082 | 85° | 9km/h | 21397m | 5.5m/s | 0°C | 0% | 0hPa | 0V | 00:00:00 | 00:00:00 | 00:00:00 | |
| ATIDSZ-14 | 2026-08-31 12:49:36 | 48.46200 | 17.42069 | 45° | 11km/h | 21372m | 4.1m/s | 0°C | 0% | 0hPa | 0V | 00:00:00 | 00:00:00 | 00:00:00 | |
| OE5MMP-10 | 2026-08-31 12:49:35 | 48.46198 | 17.42067 | 36° | 13km/h | 21367m | 6.0m/s | 0°C | 0% | 0hPa | 0V | 00:00:00 | 00:00:00 | 00:00:00 | |
| PETON7-10 | 2026-08-31 12:49:26 | 48.46175 | 17.42040 | 8° | 20km/h | 21325m | 4.3m/s | 0°C | 0% | 0hPa | 0V | 00:00:00 | 00:00:00 | 00:00:00 | |
| OE5MMP-10 | 2026-08-31 12:49:23 | 48.46164 | 17.42028 | 42° | 22km/h | 21311m | 4.6m/s | 0°C | 0% | 0hPa | 0V | 00:00:00 | 00:00:00 | 00:00:00 | |
| ATIDSZ-14 | 2026-08-31 12:49:16 | 48.46138 | 17.41993 | 23° | 24km/h | 21277m | 5.6m/s | 0°C | 0% | 0hPa | 0V | 00:00:00 | 00:00:00 | 00:00:00 | |
| OE3OSB-13 | 2026-08-31 12:49:15 | 48.46127 | 17.41989 | 7° | 22km/h | 21267m | 2.8m/s | -53.3°C | 0.0% | 44.4hPa | 0V | 00:00:00 | 00:00:00 | 00:00:00 | |
| OE5MMP-10 | 2026-08-31 12:49:13 | 48.46122 | 17.41988 | 16° | 26km/h | 21264m | 5.0m/s | 0°C | 0% | 0hPa | 0V | 00:00:00 | 00:00:00 | 00:00:00 | |
| PETON7-10 | 2026-08-31 12:49:11 | 48.46110 | 17.41979 | 32° | 26km/h | 21254m | 4.0m/s | 0°C | 0% | 0hPa | 0V | 00:00:00 | 00:00:00 | 00:00:00 | |
| OE5MMP-10 | 2026-08-31 12:49:03 | 48.46069 | 17.41943 | 2° | 18km/h | 21217m | 3.6m/s | 0°C | 0% | 0hPa | 0V | 00:00:00 | 00:00:00 | 00:00:00 | |
| OE3OSB-13 | 2026-08-31 12:48:44 | 48.45954 | 17.41896 | 337° | 13km/h | 21124m | 4.8m/s | -53.7°C | 0.0% | 45.5hPa | 0V | 00:00:00 | 00:00:00 | 00:00:00 | |
| PETON7-10 | 2026-08-31 12:48:40 | 48.45944 | 17.41895 | 28° | 20km/h | 21112m | 5.2m/s | 0°C | 0% | 0hPa | 0V | 00:00:00 | 00:00:00 | 00:00:00 | |
| ATIDSZ-14 | 2026-08-31 12:48:35 | 48.45914 | 17.41880 | 355° | 18km/h | 21089m | 4.7m/s | 0°C | 0% | 0hPa | 0V | 00:00:00 | 00:00:00 | 00:00:00 | |
| PETON7-10 | 2026-08-31 12:48:24 | 48.45871 | 17.41840 | 340° | 13km/h | 21036m | 4.6m/s | 0°C | 0% | 0hPa | 0V | 00:00:00 | 00:00:00 | 00:00:00 | |
| ATIDSZ-14 | 2026-08-31 12:48:14 | 48.45842 | 17.41800 | 67° | 11km/h | 20990m | 4.2m/s | 0°C | 0% | 0hPa | 0V | 00:00:00 | 00:00:00 | 00:00:00 | |
| PETON7-10 | 2026-08-31 12:48:09 | 48.45835 | 17.41786 | 80° | 13km/h | 20965m | 5.1m/s | 0°C | 0% | 0hPa | 0V | 00:00:00 | 00:00:00 | 00:00:00 | |
| ATIDSZ-14 | 2026-08-31 12:47:54 | 48.45816 | 17.41717 | 31° | 18km/h | 20893m | 3.9m/s | 0°C | 0% | 0hPa | 0V | 00:00:00 | 00:00:00 | 00:00:00 | |
| PETON7-10 | 2026-08-31 12:47:53 | 48.45812 | 17.41713 | 36° | 16km/h | 20889m | 5.0m/s | 0°C | 0% | 0hPa | 0V | 00:00:00 | 00:00:00 | 00:00:00 | |
| OE3OSB-13 | 2026-08-31 12:47:42 | 48.45771 | 17.41680 | 9° | 22km/h | 20832m | 4.5m/s | -53.1°C | 0.0% | 47.8hPa | 0V | 00:00:00 | 00:00:00 | 00:00:00 | |
| ATIDSZ-14 | 2026-08-31 12:47:34 | 48.45734 | 17.41661 | 30° | 18km/h | 20793m | 5.6m/s | 0°C | 0% | 0hPa | 0V | 00:00:00 | 00:00:00 | 00:00:00 | |
| PETON7-10 | 2026-08-31 12:47:23 | 48.45675 | 17.41647 | 353° | 31km/h | 20744m | 4.5m/s | 0°C | 0% | 0hPa | 0V | 00:00:00 | 00:00:00 | 00:00:00 | |
| ATIDSZ-14 | 2026-08-31 12:47:12 | 48.45586 | 17.41641 | 348° | 31km/h | 20692m | 4.6m/s | 0°C | 0% | 0hPa | 0V | 00:00:00 | 00:00:00 | 00:00:00 | |
| OE3OSB-13 | 2026-08-31 12:47:11 | 48.45572 | 17.41647 | 348° | 27km/h | 20682m | 5.7m/s | -53.4°C | 0.0% | 49.0hPa | 0V | 00:00:00 | 00:00:00 | 00:00:00 | |
| PETON7-10 | 2026-08-31 12:47:08 | 48.45556 | 17.41651 | 350° | 35km/h | 20672m | 6.0m/s | 0°C | 0% | 0hPa | 0V | 00:00:00 | 00:00:00 | 00:00:00 | |
| PETON7-10 | 2026-08-31 12:46:53 | 48.45430 | 17.41664 | 360° | 27km/h | 20604m | 5.0m/s | 0°C | 0% | 0hPa | 0V | 00:00:00 | 00:00:00 | 00:00:00 | |
| ATIDSZ-14 | 2026-08-31 12:46:52 | 48.45421 | 17.41664 | 6° | 37km/h | 20600m | 4.4m/s | 0°C | 0% | 0hPa | 0V | 00:00:00 | 00:00:00 | 00:00:00 | |
| OE3OSB-13 | 2026-08-31 12:46:40 | 48.45333 | 17.41675 | 0° | 22km/h | 20540m | 4.3m/s | -52.8°C | 0.0% | 50.2hPa | 0V | 00:00:00 | 00:00:00 | 00:00:00 | |
| PETON7-10 | 2026-08-31 12:46:36 | 48.45317 | 17.41683 | 339° | 20km/h | 20527m | 3.7m/s | 0°C | 0% | 0hPa | 0V | 00:00:00 | 00:00:00 | 00:00:00 | |
| ATIDSZ-14 | 2026-08-31 12:46:32 | 48.45295 | 17.41687 | 351° | 22km/h | 20509m | 5.4m/s | 0°C | 0% | 0hPa | 0V | 00:00:00 | 00:00:00 | 00:00:00 | |
| PETON7-10 | 2026-08-31 12:46:21 | 48.45245 | 17.41703 | 11° | 11km/h | 20457m | 5.0m/s | 0°C | 0% | 0hPa | 0V | 00:00:00 | 00:00:00 | 00:00:00 | |
| ATIDSZ-14 | 2026-08-31 12:46:13 | 48.45230 | 17.41709 | 314° | 7km/h | 20413m | 3.5m/s | 0°C | 0% | 0hPa | 0V | 00:00:00 | 00:00:00 | 00:00:00 | |
| OE3OSB-13 | 2026-08-31 12:46:09 | 48.45220 | 17.41705 | 16° | 13km/h | 20394m | 5.3m/s | -53.1°C | 0.0% | 51.5hPa | 0V | 00:00:00 | 00:00:00 | 00:00:00 | |
| PETON7-10 | 2026-08-31 12:46:06 | 48.45214 | 17.41706 | 333° | 11km/h | 20385m | 3.7m/s | 0°C | 0% | 0hPa | 0V | 00:00:00 | 00:00:00 | 00:00:00 | |
| PETON7-10 | 2026-08-31 12:45:51 | 48.45192 | 17.41687 | 75° | 7km/h | 20317m | 4.1m/s | 0°C | 0% | 0hPa | 0V | 00:00:00 | 00:00:00 | 00:00:00 | |
| OE3OSB-13 | 2026-08-31 12:45:38 | 48.45173 | 17.41656 | 351° | 4km/h | 20251m | 4.1m/s | -53.7°C | 0.0% | 52.7hPa | 0V | 00:00:00 | 00:00:00 | 00:00:00 | |
| PETON7-10 | 2026-08-31 12:45:36 | 48.45171 | 17.41656 | 26° | 9km/h | 20247m | 4.2m/s | 0°C | 0% | 0hPa | 0V | 00:00:00 | 00:00:00 | 00:00:00 | |
| ATIDSZ-14 | 2026-08-31 12:45:30 | 48.45157 | 17.41644 | 20° | 7km/h | 20220m | 5.5m/s | 0°C | 0% | 0hPa | 0V | 00:00:00 | 00:00:00 | 00:00:00 | |
| OE5MMP-10 | 2026-08-31 12:45:29 | 48.45155 | 17.41643 | 28° | 16km/h | 20215m | 4.2m/s | 0°C | 0% | 0hPa | 0V | 00:00:00 | 00:00:00 | 00:00:00 | |
| PETON7-10 | 2026-08-31 12:45:19 | 48.45134 | 17.41630 | 337° | 13km/h | 20169m | 5.3m/s | 0°C | 0% | 0hPa | 0V | 00:00:00 | 00:00:00 | 00:00:00 | |
| ATIDSZ-14 | 2026-08-31 12:45:10 | 48.45109 | 17.41624 | 2° | 13km/h | 20127m | 5.9m/s | 0°C | 0% | 0hPa | 0V | 00:00:00 | 00:00:00 | 00:00:00 | |
| OE3OSB-13 | 2026-08-31 12:45:07 | 48.45096 | 17.41634 | 340° | 16km/h | 20108m | 4.3m/s | -53.9°C | 0.0% | 54.0hPa | 0V | 00:00:00 | 00:00:00 | 00:00:00 | |
| PETON7-10 | 2026-08-31 12:45:04 | 48.45087 | 17.41639 | 339° | 13km/h | 20099m | 5.0m/s | 0°C | 0% | 0hPa | 0V | 00:00:00 | 00:00:00 | 00:00:00 | |
| PETON7-10 | 2026-08-31 12:44:49 | 48.45047 | 17.41634 | 7° | 11km/h | 20032m | 6.0m/s | 0°C | 0% | 0hPa | 0V | 00:00:00 | 00:00:00 | 00:00:00 | |
| OE3OSB-13 | 2026-08-31 12:44:36 | 48.45014 | 17.41612 | 4° | 11km/h | 19967m | 5.4m/s | -53.5°C | 0.0% | 55.3hPa | 0V | 00:00:00 | 00:00:00 | 00:00:00 | |
| PETON7-10 | 2026-08-31 12:44:34 | 48.45011 | 17.41612 | 352° | 7km/h | 19962m | 5.0m/s | 0°C | 0% | 0hPa | 0V | 00:00:00 | 00:00:00 | 00:00:00 | |
| ATIDSZ-14 | 2026-08-31 12:44:28 | 48.45007 | 17.41592 | 86° | 9km/h | 19936m | 5.1m/s | 0°C | 0% | 0hPa | 0V | 00:00:00 | 00:00:00 | 00:00:00 | |
| PETON7-10 | 2026-08-31 12:44:19 | 48.44996 | 17.41581 | 74° | 5km/h | 19894m | 4.8m/s | 0°C | 0% | 0hPa | 0V | 00:00:00 | 00:00:00 | 00:00:00 | |
| ATIDSZ-14 | 2026-08-31 12:44:07 | 48.44983 | 17.41569 | 22° | 5km/h | 19839m | 4.1m/s | 0°C | 0% | 0hPa | 0V | 00:00:00 | 00:00:00 | 00:00:00 | |
| OE3OSB-13 | 2026-08-31 12:44:05 | 48.44981 | 17.41569 | 333° | 2km/h | 19826m | 3.3m/s | -54.6°C | 0.0% | 56.6hPa | 0V | 00:00:00 | 00:00:00 | 00:00:00 | |
| PETON7-10 | 2026-08-31 12:44:04 | 48.44981 | 17.41569 | 334° | 15km/h | 19826m | 3.2m/s | 0°C | 0% | 0hPa | 0V | 00:00:00 | 00:00:00 | 00:00:00 | |
| PETON7-10 | 2026-08-31 12:43:49 | 48.44934 | 17.41539 | 6° | 18km/h | 19759m | 4.0m/s | 0°C | 0% | 0hPa | 0V | 00:00:00 | 00:00:00 | 00:00:00 | |
| ATIDSZ-14 | 2026-08-31 12:43:47 | 48.44923 | 17.41536 | 24° | 16km/h | 19750m | 4.6m/s | 0°C | 0% | 0hPa | 0V | 00:00:00 | 00:00:00 | 00:00:00 | |
| PETON7-10 | 2026-08-31 12:43:34 | 48.44893 | 17.41494 | 61° | 15km/h | 19691m | 4.4m/s | 0°C | 0% | 0hPa | 0V | 00:00:00 | 00:00:00 | 00:00:00 | |
| OE3OSB-13 | 2026-08-31 12:43:33 | 48.44891 | 17.41491 | 57° | 9km/h | 19687m | 3.7m/s | -54.5°C | 0.0% | 57.9hPa | 0V | 00:00:00 | 00:00:00 | 00:00:00 | |
| ATIDSZ-14 | 2026-08-31 12:43:26 | 48.44873 | 17.41467 | 49° | 15km/h | 19654m | 6.1m/s | 0°C | 0% | 0hPa | 0V | 00:00:00 | 00:00:00 | 00:00:00 | |
| PETON7-10 | 2026-08-31 12:43:19 | 48.44849 | 17.41446 | 11° | 16km/h | 19618m | 4.0m/s | 0°C | 0% | 0hPa | 0V | 00:00:00 | 00:00:00 | 00:00:00 | |
| ATIDSZ-14 | 2026-08-31 12:43:06 | 48.44798 | 17.41436 | 354° | 13km/h | 19560m | 5.7m/s | 0°C | 0% | 0hPa | 0V | 00:00:00 | 00:00:00 | 00:00:00 | |
| PETON7-10 | 2026-08-31 12:43:04 | 48.44792 | 17.41437 | 359° | 13km/h | 19551m | 3.7m/s | 0°C | 0% | 0hPa | 0V | 00:00:00 | 00:00:00 | 00:00:00 | |
| OE3OSB-13 | 2026-08-31 12:43:03 | 48.44786 | 17.41434 | 28° | 15km/h | 19542m | 4.3m/s | -54.5°C | 0% | 59.3hPa | 0V | 00:00:00 | 00:00:00 | 00:00:00 | |
| PETON7-10 | 2026-08-31 12:42:49 | 48.44745 | 17.41426 | 8° | 18km/h | 19481m | 4.7m/s | 0°C | 0% | 0hPa | 0V | 00:00:00 | 00:00:00 | 00:00:00 | |
| ATIDSZ-14 | 2026-08-31 12:42:46 | 48.44732 | 17.41421 | 27° | 18km/h | 19468m | 4.5m/s | 0°C | 0% | 0hPa | 0V | 00:00:00 | 00:00:00 | 00:00:00 | |
| PETON7-10 | 2026-08-31 12:42:34 | 48.44680 | 17.41400 | 32° | 26km/h | 19414m | 3.7m/s | 0°C | 0% | 0hPa | 0V | 00:00:00 | 00:00:00 | 00:00:00 | |
| OE3OSB-13 | 2026-08-31 12:42:31 | 48.44662 | 17.41389 | 9° | 24km/h | 19394m | 6.1m/s | -54.9°C | 0.0% | 60.8hPa | 0V | 00:00:00 | 00:00:00 | 00:00:00 | |
| ATIDSZ-14 | 2026-08-31 12:42:25 | 48.44625 | 17.41382 | 1° | 22km/h | 19372m | 3.6m/s | 0°C | 0% | 0hPa | 0V | 00:00:00 | 00:00:00 | 00:00:00 | |
| PETON7-10 | 2026-08-31 12:42:19 | 48.44588 | 17.41362 | 21° | 29km/h | 19344m | 3.9m/s | 0°C | 0% | 0hPa | 0V | 00:00:00 | 00:00:00 | 00:00:00 | |
| ATIDSZ-14 | 2026-08-31 12:42:05 | 48.44487 | 17.41330 | 20° | 33km/h | 19284m | 4.9m/s | 0°C | 0% | 0hPa | 0V | 00:00:00 | 00:00:00 | 00:00:00 | |
| PETON7-10 | 2026-08-31 12:42:02 | 48.44465 | 17.41323 | 7° | 27km/h | 19270m | 4.2m/s | 0°C | 0% | 0hPa | 0V | 00:00:00 | 00:00:00 | 00:00:00 | |
| OE3OSB-13 | 2026-08-31 12:42:00 | 48.44446 | 17.41315 | 21° | 27km/h | 19258m | 3.3m/s | -54.4°C | 0.0% | 62.2hPa | 0V | 00:00:00 | 00:00:00 | 00:00:00 | |
| PETON7-10 | 2026-08-31 12:41:47 | 48.44363 | 17.41290 | 7° | 24km/h | 19205m | 2.9m/s | 0°C | 0% | 0hPa | 0V | 00:00:00 | 00:00:00 | 00:00:00 | |
| ATIDSZ-14 | 2026-08-31 12:41:45 | 48.44351 | 17.41289 | 4° | 22km/h | 19196m | 4.3m/s | 0°C | 0% | 0hPa | 0V | 00:00:00 | 00:00:00 | 00:00:00 | |
| PETON7-10 | 2026-08-31 12:41:32 | 48.44277 | 17.41268 | 9° | 18km/h | 19135m | 5.3m/s | 0°C | 0% | 0hPa | 0V | 00:00:00 | 00:00:00 | 00:00:00 | |
| OE3OSB-13 | 2026-08-31 12:41:29 | 48.44257 | 17.41264 | 18° | 13km/h | 19117m | 4.1m/s | -54.4°C | 0.0% | 63.7hPa | 0V | 00:00:00 | 00:00:00 | 00:00:00 | |
| ATIDSZ-14 | 2026-08-31 12:41:24 | 48.44243 | 17.41252 | 43° | 15km/h | 19099m | 5.9m/s | 0°C | 0% | 0hPa | 0V | 00:00:00 | 00:00:00 | 00:00:00 | |
| PETON7-10 | 2026-08-31 12:41:17 | 48.44219 | 17.41238 | 53° | 20km/h | 19069m | 4.3m/s | 0°C | 0% | 0hPa | 0V | 00:00:00 | 00:00:00 | 00:00:00 | |
| ATIDSZ-14 | 2026-08-31 12:41:04 | 48.44187 | 17.41165 | 75° | 29km/h | 19010m | 5.5m/s | 0°C | 0% | 0hPa | 0V | 00:00:00 | 00:00:00 | 00:00:00 | |
| PETON7-10 | 2026-08-31 12:41:02 | 48.44180 | 17.41143 | 61° | 26km/h | 19001m | 4.2m/s | 0°C | 0% | 0hPa | 0V | 00:00:00 | 00:00:00 | 00:00:00 | |
| OE3OSB-13 | 2026-08-31 12:40:58 | 48.44161 | 17.41100 | 59° | 24km/h | 18977m | 4.9m/s | -54.6°C | 0.0% | 65.2hPa | 0V | 00:00:00 | 00:00:00 | 00:00:00 | |
| OE5MMP-10 | 2026-08-31 12:40:55 | 48.44156 | 17.41084 | 71° | 20km/h | 18966m | 5.2m/s | 0°C | 0% | 0hPa | 0V | 00:00:00 | 00:00:00 | 00:00:00 | |
| PETON7-10 | 2026-08-31 12:40:47 | 48.44136 | 17.41021 | 76° | 22km/h | 18932m | 5.6m/s | 0°C | 0% | 0hPa | 0V | 00:00:00 | 00:00:00 | 00:00:00 | |
| ATIDSZ-14 | 2026-08-31 12:40:44 | 48.44131 | 17.40999 | 62° | 16km/h | 18917m | 5.6m/s | 0°C | 0% | 0hPa | 0V | 00:00:00 | 00:00:00 | 00:00:00 | |
| OE5MMP-10 | 2026-08-31 12:40:41 | 48.44121 | 17.40983 | 42° | 22km/h | 18904m | 5.1m/s | 0°C | 0% | 0hPa | 0V | 00:00:00 | 00:00:00 | 00:00:00 | |
| PETON7-10 | 2026-08-31 12:40:32 | 48.44091 | 17.40920 | 64° | 22km/h | 18863m | 3.4m/s | 0°C | 0% | 0hPa | 0V | 00:00:00 | 00:00:00 | 00:00:00 | |
| OE3OSB-13 | 2026-08-31 12:40:27 | 48.44073 | 17.40880 | 39° | 18km/h | 18837m | 3.8m/s | -54.1°C | 0.0% | 66.8hPa | 0V | 00:00:00 | 00:00:00 | 00:00:00 | |
| ATIDSZ-14 | 2026-08-31 12:40:24 | 48.44065 | 17.40870 | 40° | 22km/h | 18828m | 3.8m/s | 0°C | 0% | 0hPa | 0V | 00:00:00 | 00:00:00 | 00:00:00 | |
| PETON7-10 | 2026-08-31 12:40:16 | 48.44034 | 17.40824 | 40° | 26km/h | 18792m | 4.6m/s | 0°C | 0% | 0hPa | 0V | 00:00:00 | 00:00:00 | 00:00:00 | |
| PETON7-10 | 2026-08-31 12:40:00 | 48.43944 | 17.40754 | 32° | 20km/h | 18720m | 3.9m/s | 0°C | 0% | 0hPa | 0V | 00:00:00 | 00:00:00 | 00:00:00 | |
| OE3OSB-13 | 2026-08-31 12:39:56 | 48.43928 | 17.40736 | 36° | 20km/h | 18696m | 5.2m/s | -54.4°C | 0.0% | 68.3hPa | 0V | 00:00:00 | 00:00:00 | 00:00:00 | |
| PETON7-10 | 2026-08-31 12:39:45 | 48.43884 | 17.40699 | 27° | 22km/h | 18651m | 5.2m/s | 0°C | 0% | 0hPa | 0V | 00:00:00 | 00:00:00 | 00:00:00 | |
| ATIDSZ-14 | 2026-08-31 12:39:42 | 48.43871 | 17.40686 | 40° | 24km/h | 18637m | 5.2m/s | 0°C | 0% | 0hPa | 0V | 00:00:00 | 00:00:00 | 00:00:00 | |
| OE5MMP-10 | 2026-08-31 12:39:32 | 48.43830 | 17.40640 | 8° | 22km/h | 18594m | 4.0m/s | 0°C | 0% | 0hPa | 0V | 00:00:00 | 00:00:00 | 00:00:00 | |
| PETON7-10 | 2026-08-31 12:39:29 | 48.43810 | 17.40626 | 48° | 22km/h | 18582m | 5.0m/s | 0°C | 0% | 0hPa | 0V | 00:00:00 | 00:00:00 | 00:00:00 | |
| OE3OSB-13 | 2026-08-31 12:39:25 | 48.43789 | 17.40593 | 28° | 26km/h | 18559m | 4.1m/s | -54.3°C | 0.0% | 69.9hPa | 0V | 00:00:00 | 00:00:00 | 00:00:00 | |
| ATIDSZ-14 | 2026-08-31 12:39:21 | 48.43775 | 17.40585 | 17° | 15km/h | 18546m | 3.3m/s | 0°C | 0% | 0hPa | 0V | 00:00:00 | 00:00:00 | 00:00:00 | |
| PETON7-10 | 2026-08-31 12:39:14 | 48.43744 | 17.40552 | 32° | 20km/h | 18516m | 5.5m/s | 0°C | 0% | 0hPa | 0V | 00:00:00 | 00:00:00 | 00:00:00 | |
| OE5MMP-10 | 2026-08-31 12:39:13 | 48.43738 | 17.40548 | 20° | 16km/h | 18511m | 4.5m/s | 0°C | 0% | 0hPa | 0V | 00:00:00 | 00:00:00 | 00:00:00 | |
| ATIDSZ-14 | 2026-08-31 12:39:00 | 48.43678 | 17.40516 | 29° | 13km/h | 18450m | 4.9m/s | 0°C | 0% | 0hPa | 0V | 00:00:00 | 00:00:00 | 00:00:00 | |
| OE3OSB-13 | 2026-08-31 12:38:54 | 48.43655 | 17.40501 | 34° | 22km/h | 18421m | 5.5m/s | -54.0°C | 0.0% | 71.5hPa | 0V | 00:00:00 | 00:00:00 | 00:00:00 | |
| OE5MMP-10 | 2026-08-31 12:38:52 | 48.43650 | 17.40495 | 38° | 24km/h | 18416m | 5.0m/s | 0°C | 0% | 0hPa | 0V | 00:00:00 | 00:00:00 | 00:00:00 | |
| PETON7-10 | 2026-08-31 12:38:43 | 48.43617 | 17.40454 | 31° | 24km/h | 18378m | 3.5m/s | 0°C | 0% | 0hPa | 0V | 00:00:00 | 00:00:00 | 00:00:00 | |
| ATIDSZ-14 | 2026-08-31 12:38:39 | 48.43595 | 17.40429 | 42° | 27km/h | 18363m | 4.3m/s | 0°C | 0% | 0hPa | 0V | 00:00:00 | 00:00:00 | 00:00:00 | |
| PETON7-10 | 2026-08-31 12:38:28 | 48.43548 | 17.40376 | 53° | 15km/h | 18314m | 4.3m/s | 0°C | 0% | 0hPa | 0V | 00:00:00 | 00:00:00 | 00:00:00 | |
| OE3OSB-13 | 2026-08-31 12:38:23 | 48.43538 | 17.40346 | 39° | 16km/h | 18286m | 4.4m/s | -54.0°C | 0.0% | 73.2hPa | 0V | 00:00:00 | 00:00:00 | 00:00:00 | |
| OE5MMP-10 | 2026-08-31 12:38:19 | 48.43527 | 17.40338 | 27° | 16km/h | 18272m | 4.0m/s | 0°C | 0% | 0hPa | 0V | 00:00:00 | 00:00:00 | 00:00:00 | |
| ATIDSZ-14 | 2026-08-31 12:38:18 | 48.43523 | 17.40334 | 48° | 18km/h | 18268m | 5.2m/s | 0°C | 0% | 0hPa | 0V | 00:00:00 | 00:00:00 | 00:00:00 | |
| PETON7-10 | 2026-08-31 12:38:13 | 48.43517 | 17.40309 | 77° | 16km/h | 18247m | 4.3m/s | 0°C | 0% | 0hPa | 0V | 00:00:00 | 00:00:00 | 00:00:00 | |
| OE5MMP-10 | 2026-08-31 12:38:03 | 48.43497 | 17.40262 | 88° | 18km/h | 18202m | 4.9m/s | 0°C | 0% | 0hPa | 0V | 00:00:00 | 00:00:00 | 00:00:00 | |
| OE3OSB-13 | 2026-08-31 12:37:52 | 48.43477 | 17.40181 | 62° | 15km/h | 18149m | 5.6m/s | -53.6°C | 0.0% | 74.8hPa | 0V | 00:00:00 | 00:00:00 | 00:00:00 | |
| PETON7-10 | 2026-08-31 12:37:43 | 48.43462 | 17.40127 | 43° | 16km/h | 18114m | 4.4m/s | 0°C | 0% | 0hPa | 0V | 00:00:00 | 00:00:00 | 00:00:00 | |
| ATIDSZ-14 | 2026-08-31 12:37:37 | 48.43451 | 17.40099 | 59° | 15km/h | 18088m | 4.3m/s | 0°C | 0% | 0hPa | 0V | 00:00:00 | 00:00:00 | 00:00:00 | |
| PETON7-10 | 2026-08-31 12:37:28 | 48.43426 | 17.40058 | 71° | 24km/h | 18051m | 3.9m/s | 0°C | 0% | 0hPa | 0V | 00:00:00 | 00:00:00 | 00:00:00 | |
| OE3OSB-13 | 2026-08-31 12:37:21 | 48.43415 | 17.39989 | 75° | 24km/h | 18019m | 3.8m/s | -54.7°C | 0.0% | 76.4hPa | 0V | 00:00:00 | 00:00:00 | 00:00:00 | |
| ATIDSZ-14 | 2026-08-31 12:37:17 | 48.43412 | 17.39963 | 80° | 24km/h | 18007m | 5.4m/s | 0°C | 0% | 0hPa | 0V | 00:00:00 | 00:00:00 | 00:00:00 | |
| PG1ADW-2 | 2026-08-31 12:37:16 | 48.43411 | 17.39954 | 81° | 38km/h | 18002m | 4.9m/s | 0°C | 0% | 0hPa | 0V | 00:00:00 | 00:00:00 | 00:00:00 | |
| PETON7-10 | 2026-08-31 12:37:13 | 48.43410 | 17.39931 | 92° | 26km/h | 17989m | 4.3m/s | 0°C | 0% | 0hPa | 0V | 00:00:00 | 00:00:00 | 00:00:00 | |
| ATIDSZ-14 | 2026-08-31 12:36:57 | 48.43427 | 17.39773 | 104° | 31km/h | 17919m | 4.8m/s | 0°C | 0% | 0hPa | 0V | 00:00:00 | 00:00:00 | 00:00:00 | |
| PETON7-10 | 2026-08-31 12:36:56 | 48.43428 | 17.39762 | 101° | 31km/h | 17914m | 3.3m/s | 0°C | 0% | 0hPa | 0V | 00:00:00 | 00:00:00 | 00:00:00 | |
| PETON7-10 | 2026-08-31 12:36:41 | 48.43434 | 17.39589 | 93° | 29km/h | 17852m | 5.8m/s | 0°C | 0% | 0hPa | 0V | 00:00:00 | 00:00:00 | 00:00:00 | |
| ATIDSZ-14 | 2026-08-31 12:36:36 | 48.43438 | 17.39535 | 101° | 35km/h | 17829m | 6.0m/s | 0°C | 0% | 0hPa | 0V | 00:00:00 | 00:00:00 | 00:00:00 | |
| PETON7-10 | 2026-08-31 12:36:26 | 48.43440 | 17.39416 | 86° | 40km/h | 17788m | 4.3m/s | 0°C | 0% | 0hPa | 0V | 00:00:00 | 00:00:00 | 00:00:00 | |
| OE3OSB-13 | 2026-08-31 12:36:18 | 48.43439 | 17.39300 | 87° | 37km/h | 17754m | 3.8m/s | -54.2°C | 0.0% | 79.9hPa | 0V | 00:00:00 | 00:00:00 | 00:00:00 | |
| ATIDSZ-14 | 2026-08-31 12:36:16 | 48.43438 | 17.39273 | 91° | 33km/h | 17744m | 3.5m/s | 0°C | 0% | 0hPa | 0V | 00:00:00 | 00:00:00 | 00:00:00 | |
| PETON7-10 | 2026-08-31 12:36:11 | 48.43440 | 17.39193 | 102° | 44km/h | 17723m | 3.7m/s | 0°C | 0% | 0hPa | 0V | 00:00:00 | 00:00:00 | 00:00:00 | |
| OE3OSB-13 | 2026-08-31 12:35:47 | 48.43431 | 17.38776 | 82° | 47km/h | 17615m | 4.0m/s | -54.2°C | 0.0% | 81.7hPa | 0V | 00:00:00 | 00:00:00 | 00:00:00 | |
| PETON7-10 | 2026-08-31 12:35:40 | 48.43419 | 17.38676 | 78° | 49km/h | 17590m | 4.2m/s | 0°C | 0% | 0hPa | 0V | 00:00:00 | 00:00:00 | 00:00:00 | |
| ATIDSZ-14 | 2026-08-31 12:35:36 | 48.43413 | 17.38613 | 81° | 49km/h | 17573m | 5.7m/s | 0°C | 0% | 0hPa | 0V | 00:00:00 | 00:00:00 | 00:00:00 | |
| PETON7-10 | 2026-08-31 12:35:24 | 48.43377 | 17.38390 | 70° | 49km/h | 17523m | 4.3m/s | 0°C | 0% | 0hPa | 0V | 00:00:00 | 00:00:00 | 00:00:00 | |
| ATIDSZ-14 | 2026-08-31 12:35:16 | 48.43344 | 17.38251 | 71° | 40km/h | 17489m | 2.8m/s | 0°C | 0% | 0hPa | 0V | 00:00:00 | 00:00:00 | 00:00:00 | |
| PETON7-10 | 2026-08-31 12:35:09 | 48.43316 | 17.38129 | 72° | 44km/h | 17460m | 4.5m/s | 0°C | 0% | 0hPa | 0V | 00:00:00 | 00:00:00 | 00:00:00 | |
| OE3OSB-13 | 2026-08-31 12:34:45 | 48.43182 | 17.37771 | 54° | 46km/h | 17350m | 4.1m/s | -54.4°C | 0.0% | 85.3hPa | 0V | 00:00:00 | 00:00:00 | 00:00:00 | |
| PETON7-10 | 2026-08-31 12:34:39 | 48.43149 | 17.37709 | 60° | 35km/h | 17328m | 4.8m/s | 0°C | 0% | 0hPa | 0V | 00:00:00 | 00:00:00 | 00:00:00 | |
| ATIDSZ-14 | 2026-08-31 12:34:35 | 48.43131 | 17.37668 | 58° | 35km/h | 17311m | 5.9m/s | 0°C | 0% | 0hPa | 0V | 00:00:00 | 00:00:00 | 00:00:00 | |
| PETON7-10 | 2026-08-31 12:34:24 | 48.43072 | 17.37550 | 65° | 35km/h | 17261m | 4.9m/s | 0°C | 0% | 0hPa | 0V | 00:00:00 | 00:00:00 | 00:00:00 | |
| OE5MMP-10 | 2026-08-31 12:34:23 | 48.43069 | 17.37539 | 68° | 37km/h | 17257m | 3.8m/s | 0°C | 0% | 0hPa | 0V | 00:00:00 | 00:00:00 | 00:00:00 | |
| OE3OSB-13 | 2026-08-31 12:34:14 | 48.43024 | 17.37427 | 59° | 33km/h | 17211m | 4.8m/s | -54.2°C | 0.0% | 87.3hPa | 0V | 00:00:00 | 00:00:00 | 00:00:00 | |
| OE5MMP-10 | 2026-08-31 12:34:13 | 48.43024 | 17.37427 | 60° | 35km/h | 17211m | 4.8m/s | 0°C | 0% | 0hPa | 0V | 00:00:00 | 00:00:00 | 00:00:00 | |
| PETON7-10 | 2026-08-31 12:34:09 | 48.43003 | 17.37384 | 49° | 37km/h | 17194m | 3.5m/s | 0°C | 0% | 0hPa | 0V | 00:00:00 | 00:00:00 | 00:00:00 | |
| OE5MMP-10 | 2026-08-31 12:34:03 | 48.42974 | 17.37322 | 55° | 38km/h | 17169m | 5.3m/s | 0°C | 0% | 0hPa | 0V | 00:00:00 | 00:00:00 | 00:00:00 | |
| OE3OSB-13 | 2026-08-31 12:33:43 | 48.42837 | 17.37052 | 51° | 40km/h | 17073m | 3.6m/s | -54.8°C | 0.0% | 89.2hPa | 0V | 00:00:00 | 00:00:00 | 00:00:00 | |
| PETON7-10 | 2026-08-31 12:33:38 | 48.42810 | 17.36995 | 50° | 44km/h | 17057m | 4.7m/s | 0°C | 0% | 0hPa | 0V | 00:00:00 | 00:00:00 | 00:00:00 | |
| OE5MMP-10 | 2026-08-31 12:33:33 | 48.42777 | 17.36931 | 55° | 44km/h | 17034m | 4.5m/s | 0°C | 0% | 0hPa | 0V | 00:00:00 | 00:00:00 | 00:00:00 | |
| OE5MMP-10 | 2026-08-31 12:33:23 | 48.42699 | 17.36815 | 49° | 40km/h | 16990m | 4.0m/s | 0°C | 0% | 0hPa | 0V | 00:00:00 | 00:00:00 | 00:00:00 | |
| PETON7-10 | 2026-08-31 12:33:22 | 48.42692 | 17.36802 | 52° | 37km/h | 16987m | 4.2m/s | 0°C | 0% | 0hPa | 0V | 00:00:00 | 00:00:00 | 00:00:00 | |
| OE5MMP-10 | 2026-08-31 12:33:13 | 48.42623 | 17.36718 | 35° | 35km/h | 16944m | 5.9m/s | 0°C | 0% | 0hPa | 0V | 00:00:00 | 00:00:00 | 00:00:00 | |
| OE3OSB-13 | 2026-08-31 12:33:12 | 48.42608 | 17.36701 | 36° | 31km/h | 16935m | 5.4m/s | -55.2°C | 0.0% | 91.2hPa | 0V | 00:00:00 | 00:00:00 | 00:00:00 | |
| PETON7-10 | 2026-08-31 12:33:07 | 48.42583 | 17.36673 | 37° | 31km/h | 16918m | 4.0m/s | 0°C | 0% | 0hPa | 0V | 00:00:00 | 00:00:00 | 00:00:00 | |
| OE5MMP-10 | 2026-08-31 12:33:03 | 48.42553 | 17.36650 | 28° | 31km/h | 16900m | 5.1m/s | 0°C | 0% | 0hPa | 0V | 00:00:00 | 00:00:00 | 00:00:00 | |
| PETON7-10 | 2026-08-31 12:32:52 | 48.42483 | 17.36576 | 40° | 27km/h | 16852m | 5.3m/s | 0°C | 0% | 0hPa | 0V | 00:00:00 | 00:00:00 | 00:00:00 | |
| OE5MMP-10 | 2026-08-31 12:32:51 | 48.42478 | 17.36568 | 48° | 29km/h | 16847m | 4.5m/s | 0°C | 0% | 0hPa | 0V | 00:00:00 | 00:00:00 | 00:00:00 | |
| OE3OSB-13 | 2026-08-31 12:32:41 | 48.42433 | 17.36479 | 40° | 27km/h | 16791m | 5.8m/s | -55.0°C | 0.0% | 93.5hPa | 0V | 00:00:00 | 00:00:00 | 00:00:00 | |
| OE5MMP-10 | 2026-08-31 12:32:40 | 48.42433 | 17.36479 | 41° | 29km/h | 16791m | 5.8m/s | 0°C | 0% | 0hPa | 0V | 00:00:00 | 00:00:00 | 00:00:00 | |
| PETON7-10 | 2026-08-31 12:32:37 | 48.42418 | 17.36460 | 48° | 29km/h | 16776m | 3.2m/s | 0°C | 0% | 0hPa | 0V | 00:00:00 | 00:00:00 | 00:00:00 | |
| OE5MMP-10 | 2026-08-31 12:32:30 | 48.42403 | 17.36381 | 65° | 29km/h | 16743m | 6.0m/s | 0°C | 0% | 0hPa | 0V | 00:00:00 | 00:00:00 | 00:00:00 | |
| PETON7-10 | 2026-08-31 12:32:22 | 48.42389 | 17.36296 | 75° | 31km/h | 16704m | 5.2m/s | 0°C | 0% | 0hPa | 0V | 00:00:00 | 00:00:00 | 00:00:00 | |
| OE5MMP-10 | 2026-08-31 12:32:20 | 48.42386 | 17.36275 | 77° | 33km/h | 16695m | 4.5m/s | 0°C | 0% | 0hPa | 0V | 00:00:00 | 00:00:00 | 00:00:00 | |
| OE3OSB-13 | 2026-08-31 12:32:10 | 48.42385 | 17.36142 | 105° | 31km/h | 16648m | 3.6m/s | -55.3°C | 0.0% | 95.7hPa | 0V | 00:00:00 | 00:00:00 | 00:00:00 | |
| PETON7-10 | 2026-08-31 12:32:07 | 48.42388 | 17.36116 | 99° | 46km/h | 16638m | 5.1m/s | 0°C | 0% | 0hPa | 0V | 00:00:00 | 00:00:00 | 00:00:00 | |
| OE5MMP-10 | 2026-08-31 12:31:59 | 48.42403 | 17.35982 | 100° | 47km/h | 16604m | 5.3m/s | 0°C | 0% | 0hPa | 0V | 00:00:00 | 00:00:00 | 00:00:00 | |
| PETON7-10 | 2026-08-31 12:31:51 | 48.42408 | 17.35839 | 90° | 53km/h | 16570m | 4.3m/s | 0°C | 0% | 0hPa | 0V | 00:00:00 | 00:00:00 | 00:00:00 | |
| OE5MMP-10 | 2026-08-31 12:31:49 | 48.42407 | 17.35801 | 84° | 53km/h | 16560m | 4.5m/s | 0°C | 0% | 0hPa | 0V | 00:00:00 | 00:00:00 | 00:00:00 | |
| OE3OSB-13 | 2026-08-31 12:31:39 | 48.42401 | 17.35586 | 81° | 55km/h | 16516m | 3.5m/s | -56.9°C | 0.0% | 97.8hPa | 0V | 00:00:00 | 00:00:00 | 00:00:00 | |
| OE5MMP-10 | 2026-08-31 12:31:36 | 48.42398 | 17.35543 | 90° | 55km/h | 16507m | 4.4m/s | 0°C | 0% | 0hPa | 0V | 00:00:00 | 00:00:00 | 00:00:00 | |
| ATIDSZ-14 | 2026-08-31 12:31:28 | 48.42390 | 17.35375 | 78° | 55km/h | 16478m | 4.7m/s | 0°C | 0% | 0hPa | 0V | 00:00:00 | 00:00:00 | 00:00:00 | |
| OE5MMP-10 | 2026-08-31 12:31:26 | 48.42384 | 17.35334 | 81° | 53km/h | 16470m | 4.2m/s | 0°C | 0% | 0hPa | 0V | 00:00:00 | 00:00:00 | 00:00:00 | |
| PETON7-10 | 2026-08-31 12:31:21 | 48.42375 | 17.35234 | 81° | 55km/h | 16452m | 3.1m/s | 0°C | 0% | 0hPa | 0V | 00:00:00 | 00:00:00 | 00:00:00 | |
| OE5MMP-10 | 2026-08-31 12:31:16 | 48.42354 | 17.35134 | 69° | 53km/h | 16433m | 3.3m/s | 0°C | 0% | 0hPa | 0V | 00:00:00 | 00:00:00 | 00:00:00 | |
| OE3OSB-13 | 2026-08-31 12:31:08 | 48.42314 | 17.34962 | 62° | 62km/h | 16400m | 5.2m/s | -58.4°C | 0.0% | 99.8hPa | 0V | 00:00:00 | 00:00:00 | 00:00:00 | |
| OE5MMP-10 | 2026-08-31 12:31:06 | 48.42306 | 17.34941 | 63° | 55km/h | 16395m | 4.4m/s | 0°C | 0% | 0hPa | 0V | 00:00:00 | 00:00:00 | 00:00:00 | |
| OE5MMP-10 | 2026-08-31 12:30:56 | 48.42248 | 17.34758 | 66° | 55km/h | 16354m | 4.4m/s | 0°C | 0% | 0hPa | 0V | 00:00:00 | 00:00:00 | 00:00:00 | |
| PETON7-10 | 2026-08-31 12:30:51 | 48.42221 | 17.34664 | 68° | 53km/h | 16332m | 4.3m/s | 0°C | 0% | 0hPa | 0V | 00:00:00 | 00:00:00 | 00:00:00 | |
| ATIDSZ-14 | 2026-08-31 12:30:48 | 48.42205 | 17.34609 | 63° | 49km/h | 16321m | 3.4m/s | 0°C | 0% | 0hPa | 0V | 00:00:00 | 00:00:00 | 00:00:00 | |
| OE5MMP-10 | 2026-08-31 12:30:40 | 48.42150 | 17.34447 | 64° | 49km/h | 16283m | 4.5m/s | 0°C | 0% | 0hPa | 0V | 00:00:00 | 00:00:00 | 00:00:00 | |
| OE3OSB-13 | 2026-08-31 12:30:37 | 48.42133 | 17.34399 | 60° | 46km/h | 16271m | 5.0m/s | -57.6°C | 0.0% | 101.8hPa | 0V | 00:00:00 | 00:00:00 | 00:00:00 | |
| PETON7-10 | 2026-08-31 12:30:36 | 48.42133 | 17.34399 | 61° | 51km/h | 16271m | 4.9m/s | 0°C | 0% | 0hPa | 0V | 00:00:00 | 00:00:00 | 00:00:00 | |
| OE5MMP-10 | 2026-08-31 12:30:29 | 48.42084 | 17.34285 | 62° | 53km/h | 16243m | 3.0m/s | 0°C | 0% | 0hPa | 0V | 00:00:00 | 00:00:00 | 00:00:00 | |
| ATIDSZ-14 | 2026-08-31 12:30:28 | 48.42077 | 17.34266 | 65° | 55km/h | 16240m | 3.4m/s | 0°C | 0% | 0hPa | 0V | 00:00:00 | 00:00:00 | 00:00:00 | |
| PETON7-10 | 2026-08-31 12:30:21 | 48.42033 | 17.34144 | 57° | 57km/h | 16214m | 4.7m/s | 0°C | 0% | 0hPa | 0V | 00:00:00 | 00:00:00 | 00:00:00 | |
| OE5MMP-10 | 2026-08-31 12:30:19 | 48.42017 | 17.34106 | 58° | 58km/h | 16206m | 5.2m/s | 0°C | 0% | 0hPa | 0V | 00:00:00 | 00:00:00 | 00:00:00 | |
| ATIDSZ-14 | 2026-08-31 12:30:08 | 48.41912 | 17.33902 | 51° | 62km/h | 16159m | 3.2m/s | 0°C | 0% | 0hPa | 0V | 00:00:00 | 00:00:00 | 00:00:00 | |
| PETON7-10 | 2026-08-31 12:30:06 | 48.41902 | 17.33884 | 54° | 53km/h | 16155m | 4.8m/s | 0°C | 0% | 0hPa | 0V | 00:00:00 | 00:00:00 | 00:00:00 | |
| OE3OSB-13 | 2026-08-31 12:30:05 | 48.41894 | 17.33867 | 53° | 53km/h | 16150m | 5.5m/s | -58.8°C | 0.1% | 103.9hPa | 0V | 00:00:00 | 00:00:00 | 00:00:00 | |
| PETON7-10 | 2026-08-31 12:29:50 | 48.41760 | 17.33651 | 40° | 53km/h | 16089m | 3.6m/s | 0°C | 0% | 0hPa | 0V | 00:00:00 | 00:00:00 | 00:00:00 | |
| ATIDSZ-14 | 2026-08-31 12:29:46 | 48.41721 | 17.33591 | 46° | 60km/h | 16072m | 5.3m/s | 0°C | 0% | 0hPa | 0V | 00:00:00 | 00:00:00 | 00:00:00 | |
| OE5MMP-10 | 2026-08-31 12:29:43 | 48.41690 | 17.33544 | 48° | 51km/h | 16061m | 5.5m/s | 0°C | 0% | 0hPa | 0V | 00:00:00 | 00:00:00 | 00:00:00 | |
| PETON7-10 | 2026-08-31 12:29:34 | 48.41601 | 17.33433 | 47° | 49km/h | 16024m | 4.7m/s | 0°C | 0% | 0hPa | 0V | 00:00:00 | 00:00:00 | 00:00:00 | |
| OE5MMP-10 | 2026-08-31 12:29:33 | 48.41592 | 17.33419 | 45° | 49km/h | 16020m | 4.4m/s | 0°C | 0% | 0hPa | 0V | 00:00:00 | 00:00:00 | 00:00:00 | |
| ATIDSZ-14 | 2026-08-31 12:29:26 | 48.41528 | 17.33331 | 41° | 51km/h | 15991m | 4.3m/s | 0°C | 0% | 0hPa | 0V | 00:00:00 | 00:00:00 | 00:00:00 | |
| OE5MMP-10 | 2026-08-31 12:29:22 | 48.41489 | 17.33289 | 37° | 47km/h | 15976m | 5.6m/s | 0°C | 0% | 0hPa | 0V | 00:00:00 | 00:00:00 | 00:00:00 | |
| PETON7-10 | 2026-08-31 12:29:19 | 48.41460 | 17.33256 | 36° | 47km/h | 15962m | 6.1m/s | 0°C | 0% | 0hPa | 0V | 00:00:00 | 00:00:00 | 00:00:00 | |
| OE5MMP-10 | 2026-08-31 12:29:12 | 48.41398 | 17.33182 | 32° | 46km/h | 15933m | 3.2m/s | 0°C | 0% | 0hPa | 0V | 00:00:00 | 00:00:00 | 00:00:00 | |
| ATIDSZ-14 | 2026-08-31 12:29:06 | 48.41344 | 17.33114 | 39° | 47km/h | 15908m | 5.2m/s | 0°C | 0% | 0hPa | 0V | 00:00:00 | 00:00:00 | 00:00:00 | |
| OE3OSB-13 | 2026-08-31 12:29:04 | 48.41306 | 17.33077 | 30° | 42km/h | 15891m | 4.0m/s | -57.8°C | 0.6% | 108.5hPa | 0V | 00:00:00 | 00:00:00 | 00:00:00 | |
| OE5MMP-10 | 2026-08-31 12:29:02 | 48.41306 | 17.33077 | 31° | 42km/h | 15891m | 4.0m/s | 0°C | 0% | 0hPa | 0V | 00:00:00 | 00:00:00 | 00:00:00 | |
| OE5MMP-10 | 2026-08-31 12:28:52 | 48.41216 | 17.32991 | 21° | 40km/h | 15851m | 3.4m/s | 0°C | 0% | 0hPa | 0V | 00:00:00 | 00:00:00 | 00:00:00 | |
| ATIDSZ-14 | 2026-08-31 12:28:46 | 48.41165 | 17.32940 | 41° | 49km/h | 15827m | 3.4m/s | 0°C | 0% | 0hPa | 0V | 00:00:00 | 00:00:00 | 00:00:00 | |
| OE5MMP-10 | 2026-08-31 12:28:41 | 48.41128 | 17.32896 | 29° | 37km/h | 15805m | 3.7m/s | 0°C | 0% | 0hPa | 0V | 00:00:00 | 00:00:00 | 00:00:00 | |
| PETON7-10 | 2026-08-31 12:28:34 | 48.41072 | 17.32848 | 41° | 37km/h | 15777m | 3.7m/s | 0°C | 0% | 0hPa | 0V | 00:00:00 | 00:00:00 | 00:00:00 | |
| OE3OSB-13 | 2026-08-31 12:28:33 | 48.41052 | 17.32819 | 41° | 38km/h | 15763m | 5.5m/s | -57.5°C | 0.8% | 110.8hPa | 0V | 00:00:00 | 00:00:00 | 00:00:00 | |
| ATIDSZ-14 | 2026-08-31 12:28:26 | 48.41015 | 17.32773 | 40° | 35km/h | 15741m | 4.5m/s | 0°C | 0% | 0hPa | 0V | 00:00:00 | 00:00:00 | 00:00:00 | |
| PETON7-10 | 2026-08-31 12:28:18 | 48.40960 | 17.32700 | 45° | 37km/h | 15708m | 5.2m/s | 0°C | 0% | 0hPa | 0V | 00:00:00 | 00:00:00 | 00:00:00 | |
| ATIDSZ-14 | 2026-08-31 12:28:06 | 48.40886 | 17.32570 | 53° | 37km/h | 15659m | 3.4m/s | 0°C | 0% | 0hPa | 0V | 00:00:00 | 00:00:00 | 00:00:00 | |
| PETON7-10 | 2026-08-31 12:28:03 | 48.40867 | 17.32540 | 53° | 33km/h | 15646m | 5.8m/s | 0°C | 0% | 0hPa | 0V | 00:00:00 | 00:00:00 | 00:00:00 | |
| OE3OSB-13 | 2026-08-31 12:28:01 | 48.40852 | 17.32508 | 50° | 33km/h | 15631m | 5.6m/s | -57.0°C | 1.0% | 113.2hPa | 0V | 00:00:00 | 00:00:00 | 00:00:00 | |
| OE5MMP-10 | 2026-08-31 12:27:59 | 48.40846 | 17.32498 | 45° | 33km/h | 15627m | 3.6m/s | 0°C | 0% | 0hPa | 0V | 00:00:00 | 00:00:00 | 00:00:00 | |
| PETON7-10 | 2026-08-31 12:27:47 | 48.40787 | 17.32385 | 57° | 31km/h | 15574m | 4.8m/s | 0°C | 0% | 0hPa | 0V | 00:00:00 | 00:00:00 | 00:00:00 | |
| OE5MMP-10 | 2026-08-31 12:27:46 | 48.40783 | 17.32376 | 59° | 31km/h | 15570m | 3.8m/s | 0°C | 0% | 0hPa | 0V | 00:00:00 | 00:00:00 | 00:00:00 | |
| OE5MMP-10 | 2026-08-31 12:27:36 | 48.40737 | 17.32278 | 50° | 35km/h | 15529m | 5.5m/s | 0°C | 0% | 0hPa | 0V | 00:00:00 | 00:00:00 | 00:00:00 | |
| PETON7-10 | 2026-08-31 12:27:32 | 48.40720 | 17.32233 | 73° | 35km/h | 15510m | 4.7m/s | 0°C | 0% | 0hPa | 0V | 00:00:00 | 00:00:00 | 00:00:00 | |
| OE3OSB-13 | 2026-08-31 12:27:30 | 48.40715 | 17.32198 | 74° | 31km/h | 15496m | 2.8m/s | -56.9°C | 1.1% | 115.7hPa | 0V | 00:00:00 | 00:00:00 | 00:00:00 | |
| OE5MMP-10 | 2026-08-31 12:27:26 | 48.40707 | 17.32157 | 73° | 37km/h | 15485m | 4.5m/s | 0°C | 0% | 0hPa | 0V | 00:00:00 | 00:00:00 | 00:00:00 | |
| ATIDSZ-14 | 2026-08-31 12:27:25 | 48.40705 | 17.32144 | 69° | 33km/h | 15481m | 4.3m/s | 0°C | 0% | 0hPa | 0V | 00:00:00 | 00:00:00 | 00:00:00 | |
| PETON7-10 | 2026-08-31 12:27:17 | 48.40686 | 17.32041 | 80° | 42km/h | 15448m | 5.6m/s | 0°C | 0% | 0hPa | 0V | 00:00:00 | 00:00:00 | 00:00:00 | |
| OE5MMP-10 | 2026-08-31 12:27:12 | 48.40677 | 17.31970 | 78° | 44km/h | 15424m | 5.0m/s | 0°C | 0% | 0hPa | 0V | 00:00:00 | 00:00:00 | 00:00:00 | |
| ATIDSZ-14 | 2026-08-31 12:27:05 | 48.40675 | 17.31859 | 84° | 47km/h | 15393m | 4.8m/s | 0°C | 0% | 0hPa | 0V | 00:00:00 | 00:00:00 | 00:00:00 | |
| OE3OSB-13 | 2026-08-31 12:26:59 | 48.40666 | 17.31741 | 87° | 40km/h | 15363m | 3.6m/s | -56.7°C | 1.2% | 118.2hPa | 0V | 00:00:00 | 00:00:00 | 00:00:00 | |
| ATIDSZ-14 | 2026-08-31 12:26:45 | 48.40657 | 17.31504 | 90° | 51km/h | 15313m | 2.8m/s | 0°C | 0% | 0hPa | 0V | 00:00:00 | 00:00:00 | 00:00:00 | |
| PETON7-10 | 2026-08-31 12:26:44 | 48.40657 | 17.31484 | 91° | 53km/h | 15310m | 3.7m/s | 0°C | 0% | 0hPa | 0V | 00:00:00 | 00:00:00 | 00:00:00 | |
| OE5MMP-10 | 2026-08-31 12:26:43 | 48.40657 | 17.31465 | 90° | 53km/h | 15306m | 4.5m/s | 0°C | 0% | 0hPa | 0V | 00:00:00 | 00:00:00 | 00:00:00 | |
| OE5MMP-10 | 2026-08-31 12:26:31 | 48.40638 | 17.31225 | 86° | 51km/h | 15257m | 4.8m/s | 0°C | 0% | 0hPa | 0V | 00:00:00 | 00:00:00 | 00:00:00 | |
| PETON7-10 | 2026-08-31 12:26:29 | 48.40636 | 17.31183 | 86° | 55km/h | 15249m | 5.4m/s | 0°C | 0% | 0hPa | 0V | 00:00:00 | 00:00:00 | 00:00:00 | |
| OE3OSB-13 | 2026-08-31 12:26:28 | 48.40632 | 17.31144 | 79° | 53km/h | 15240m | 3.5m/s | -57.6°C | 1.2% | 120.7hPa | 0V | 00:00:00 | 00:00:00 | 00:00:00 | |
| ATIDSZ-14 | 2026-08-31 12:26:25 | 48.40623 | 17.31084 | 77° | 51km/h | 15228m | 5.6m/s | 0°C | 0% | 0hPa | 0V | 00:00:00 | 00:00:00 | 00:00:00 | |
| OE5MMP-10 | 2026-08-31 12:26:19 | 48.40607 | 17.30992 | 78° | 55km/h | 15208m | 4.5m/s | 0°C | 0% | 0hPa | 0V | 00:00:00 | 00:00:00 | 00:00:00 | |
| PETON7-10 | 2026-08-31 12:26:14 | 48.40593 | 17.30884 | 80° | 57km/h | 15188m | 4.5m/s | 0°C | 0% | 0hPa | 0V | 00:00:00 | 00:00:00 | 00:00:00 | |
| OE5MMP-10 | 2026-08-31 12:26:09 | 48.40577 | 17.30785 | 77° | 51km/h | 15170m | 2.4m/s | 0°C | 0% | 0hPa | 0V | 00:00:00 | 00:00:00 | 00:00:00 | |
| ATIDSZ-14 | 2026-08-31 12:26:03 | 48.40562 | 17.30648 | 81° | 51km/h | 15148m | 3.8m/s | 0°C | 0% | 0hPa | 0V | 00:00:00 | 00:00:00 | 00:00:00 | |
| OE3OSB-13 | 2026-08-31 12:25:57 | 48.40541 | 17.30512 | 77° | 60km/h | 15123m | 3.7m/s | -57.4°C | 1.4% | 123.1hPa | 0V | 00:00:00 | 00:00:00 | 00:00:00 | |
| PETON7-10 | 2026-08-31 12:25:43 | 48.40503 | 17.30210 | 82° | 68km/h | 15073m | 3.5m/s | 0°C | 0% | 0hPa | 0V | 00:00:00 | 00:00:00 | 00:00:00 | |
| ATIDSZ-14 | 2026-08-31 12:25:42 | 48.40500 | 17.30186 | 80° | 68km/h | 15069m | 4.8m/s | 0°C | 0% | 0hPa | 0V | 00:00:00 | 00:00:00 | 00:00:00 | |
| PETON7-10 | 2026-08-31 12:25:28 | 48.40453 | 17.29830 | 76° | 71km/h | 15017m | 3.2m/s | 0°C | 0% | 0hPa | 0V | 00:00:00 | 00:00:00 | 00:00:00 | |
| OE3OSB-13 | 2026-08-31 12:25:26 | 48.40438 | 17.29751 | 74° | 71km/h | 15007m | 4.7m/s | -57.1°C | 1.6% | 125.5hPa | 0V | 00:00:00 | 00:00:00 | 00:00:00 | |
| ATIDSZ-14 | 2026-08-31 12:25:22 | 48.40427 | 17.29676 | 79° | 68km/h | 14997m | 4.0m/s | 0°C | 0% | 0hPa | 0V | 00:00:00 | 00:00:00 | 00:00:00 | |
| PETON7-10 | 2026-08-31 12:25:13 | 48.40379 | 17.29445 | 76° | 69km/h | 14963m | 4.2m/s | 0°C | 0% | 0hPa | 0V | 00:00:00 | 00:00:00 | 00:00:00 | |
| ATIDSZ-14 | 2026-08-31 12:25:01 | 48.40310 | 17.29147 | 69° | 68km/h | 14920m | 4.3m/s | 0°C | 0% | 0hPa | 0V | 00:00:00 | 00:00:00 | 00:00:00 | |
| OE3OSB-13 | 2026-08-31 12:24:55 | 48.40268 | 17.28977 | 69° | 60km/h | 14893m | 3.0m/s | -57.9°C | 1.9% | 127.8hPa | 0V | 00:00:00 | 00:00:00 | 00:00:00 | |
| PETON7-10 | 2026-08-31 12:24:43 | 48.40196 | 17.28704 | 68° | 75km/h | 14855m | 4.8m/s | 0°C | 0% | 0hPa | 0V | 00:00:00 | 00:00:00 | 00:00:00 | |
| ATIDSZ-14 | 2026-08-31 12:24:41 | 48.40184 | 17.28656 | 72° | 68km/h | 14848m | 3.2m/s | 0°C | 0% | 0hPa | 0V | 00:00:00 | 00:00:00 | 00:00:00 | |
| OE5MMP-10 | 2026-08-31 12:24:36 | 48.40151 | 17.28525 | 69° | 73km/h | 14829m | 3.5m/s | 0°C | 0% | 0hPa | 0V | 00:00:00 | 00:00:00 | 00:00:00 | |
| PETON7-10 | 2026-08-31 12:24:28 | 48.40101 | 17.28308 | 76° | 75km/h | 14800m | 3.8m/s | 0°C | 0% | 0hPa | 0V | 00:00:00 | 00:00:00 | 00:00:00 | |
| OE5MMP-10 | 2026-08-31 12:24:26 | 48.40091 | 17.28253 | 73° | 78km/h | 14794m | 3.8m/s | 0°C | 0% | 0hPa | 0V | 00:00:00 | 00:00:00 | 00:00:00 | |
| OE3OSB-13 | 2026-08-31 12:24:23 | 48.40073 | 17.28171 | 72° | 73km/h | 14783m | 4.5m/s | -57.2°C | 2.2% | 130.1hPa | 0V | 00:00:00 | 00:00:00 | 00:00:00 | |
| ATIDSZ-14 | 2026-08-31 12:24:21 | 48.40061 | 17.28119 | 71° | 75km/h | 14777m | 4.9m/s | 0°C | 0% | 0hPa | 0V | 00:00:00 | 00:00:00 | 00:00:00 | |
| PETON7-10 | 2026-08-31 12:24:12 | 48.40007 | 17.27878 | 72° | 77km/h | 14743m | 3.1m/s | 0°C | 0% | 0hPa | 0V | 00:00:00 | 00:00:00 | 00:00:00 | |
| PG1ADW-2 | 2026-08-31 12:24:11 | 48.40002 | 17.27851 | 73° | 78km/h | 14740m | 5.5m/s | 0°C | 0% | 0hPa | 0V | 00:00:00 | 00:00:00 | 00:00:00 | |
| ATIDSZ-14 | 2026-08-31 12:24:00 | 48.39937 | 17.27541 | 73° | 80km/h | 14703m | 3.8m/s | 0°C | 0% | 0hPa | 0V | 00:00:00 | 00:00:00 | 00:00:00 | |
| OE3OSB-13 | 2026-08-31 12:23:52 | 48.39885 | 17.27316 | 72° | 78km/h | 14675m | 2.8m/s | -56.8°C | 2.7% | 132.5hPa | 0V | 00:00:00 | 00:00:00 | 00:00:00 | |
| PETON7-10 | 2026-08-31 12:23:41 | 48.39806 | 17.27005 | 69° | 84km/h | 14634m | 5.2m/s | 0°C | 0% | 0hPa | 0V | 00:00:00 | 00:00:00 | 00:00:00 | |
| ATIDSZ-14 | 2026-08-31 12:23:40 | 48.39799 | 17.26975 | 70° | 84km/h | 14629m | 4.3m/s | 0°C | 0% | 0hPa | 0V | 00:00:00 | 00:00:00 | 00:00:00 | |
| OE3OSB-13 | 2026-08-31 12:23:21 | 48.39646 | 17.26381 | 65° | 84km/h | 14558m | 3.0m/s | -56.5°C | 3.1% | 135.1hPa | 0V | 00:00:00 | 00:00:00 | 00:00:00 | |
| ATIDSZ-14 | 2026-08-31 12:23:20 | 48.39646 | 17.26381 | 67° | 86km/h | 14558m | 3.0m/s | 0°C | 0% | 0hPa | 0V | 00:00:00 | 00:00:00 | 00:00:00 | |
| PETON7-10 | 2026-08-31 12:23:11 | 48.39577 | 17.26128 | 70° | 78km/h | 14524m | 3.3m/s | 0°C | 0% | 0hPa | 0V | 00:00:00 | 00:00:00 | 00:00:00 | |
| PG1ADW-2 | 2026-08-31 12:23:05 | 48.39530 | 17.25960 | 66° | 110km/h | 14501m | 2.3m/s | 0°C | 0% | 0hPa | 0V | 00:00:00 | 00:00:00 | 00:00:00 | |
| ATIDSZ-14 | 2026-08-31 12:23:00 | 48.39489 | 17.25826 | 71° | 75km/h | 14484m | 3.8m/s | 0°C | 0% | 0hPa | 0V | 00:00:00 | 00:00:00 | 00:00:00 | |
| OE3OSB-13 | 2026-08-31 12:22:50 | 48.39408 | 17.25534 | 65° | 66km/h | 14442m | 2.6m/s | -56.4°C | 3.7% | 137.6hPa | 0V | 00:00:00 | 00:00:00 | 00:00:00 | |
| PETON7-10 | 2026-08-31 12:22:40 | 48.39340 | 17.25299 | 69° | 78km/h | 14405m | 5.5m/s | 0°C | 0% | 0hPa | 0V | 00:00:00 | 00:00:00 | 00:00:00 | |
| ATIDSZ-14 | 2026-08-31 12:22:39 | 48.39332 | 17.25272 | 70° | 75km/h | 14401m | 1.7m/s | 0°C | 0% | 0hPa | 0V | 00:00:00 | 00:00:00 | 00:00:00 | |
| PETON7-10 | 2026-08-31 12:22:25 | 48.39215 | 17.24887 | 65° | 80km/h | 14346m | 4.6m/s | 0°C | 0% | 0hPa | 0V | 00:00:00 | 00:00:00 | 00:00:00 | |
| ATIDSZ-14 | 2026-08-31 12:22:19 | 48.39156 | 17.24725 | 65° | 84km/h | 14321m | 5.3m/s | 0°C | 0% | 0hPa | 0V | 00:00:00 | 00:00:00 | 00:00:00 | |
| PETON7-10 | 2026-08-31 12:22:10 | 48.39078 | 17.24477 | 63° | 78km/h | 14285m | 4.0m/s | 0°C | 0% | 0hPa | 0V | 00:00:00 | 00:00:00 | 00:00:00 | |
| OE3OSB-13 | 2026-08-31 12:21:48 | 48.38896 | 17.23862 | 66° | 71km/h | 14192m | 3.9m/s | -55.8°C | 5.5% | 143.3hPa | 0V | 00:00:00 | 00:00:00 | 00:00:00 | |
| PETON7-10 | 2026-08-31 12:21:40 | 48.38846 | 17.23680 | 72° | 75km/h | 14164m | 5.0m/s | 0°C | 0% | 0hPa | 0V | 00:00:00 | 00:00:00 | 00:00:00 | |
| ATIDSZ-14 | 2026-08-31 12:21:38 | 48.38834 | 17.23625 | 73° | 73km/h | 14156m | 3.8m/s | 0°C | 0% | 0hPa | 0V | 00:00:00 | 00:00:00 | 00:00:00 | |
| PETON7-10 | 2026-08-31 12:21:25 | 48.38758 | 17.23285 | 74° | 73km/h | 14107m | 5.3m/s | 0°C | 0% | 0hPa | 0V | 00:00:00 | 00:00:00 | 00:00:00 | |
| ATIDSZ-14 | 2026-08-31 12:21:18 | 48.38725 | 17.23103 | 77° | 69km/h | 14078m | 4.2m/s | 0°C | 0% | 0hPa | 0V | 00:00:00 | 00:00:00 | 00:00:00 | |
| OE3OSB-13 | 2026-08-31 12:21:17 | 48.38717 | 17.23051 | 79° | 71km/h | 14070m | 3.9m/s | -56.3°C | 6.5% | 146.2hPa | 0V | 00:00:00 | 00:00:00 | 00:00:00 | |
| PETON7-10 | 2026-08-31 12:21:10 | 48.38696 | 17.22883 | 84° | 78km/h | 14046m | 3.4m/s | 0°C | 0% | 0hPa | 0V | 00:00:00 | 00:00:00 | 00:00:00 | |
| OE3OSB-13 | 2026-08-31 12:20:46 | 48.38650 | 17.22113 | 90° | 88km/h | 13945m | 3.6m/s | -56.6°C | 7.6% | 149.2hPa | 0V | 00:00:00 | 00:00:00 | 00:00:00 | |
| PETON7-10 | 2026-08-31 12:20:40 | 48.38645 | 17.21937 | 90° | 89km/h | 13927m | 3.5m/s | 0°C | 0% | 0hPa | 0V | 00:00:00 | 00:00:00 | 00:00:00 | |
| ATIDSZ-14 | 2026-08-31 12:20:37 | 48.38645 | 17.21838 | 92° | 80km/h | 13914m | 4.5m/s | 0°C | 0% | 0hPa | 0V | 00:00:00 | 00:00:00 | 00:00:00 | |
| PETON7-10 | 2026-08-31 12:20:25 | 48.38654 | 17.21429 | 94° | 99km/h | 13867m | 5.3m/s | 0°C | 0% | 0hPa | 0V | 00:00:00 | 00:00:00 | 00:00:00 | |
| ATIDSZ-14 | 2026-08-31 12:20:17 | 48.38660 | 17.21132 | 93° | 97km/h | 13835m | 4.6m/s | 0°C | 0% | 0hPa | 0V | 00:00:00 | 00:00:00 | 00:00:00 | |
| OE3OSB-13 | 2026-08-31 12:20:15 | 48.38664 | 17.21020 | 94° | 100km/h | 13823m | 4.7m/s | -57.0°C | 8.5% | 152.2hPa | 0V | 00:00:00 | 00:00:00 | 00:00:00 | |
| PETON7-10 | 2026-08-31 12:20:09 | 48.38672 | 17.20827 | 95° | 111km/h | 13804m | 4.1m/s | 0°C | 0% | 0hPa | 0V | 00:00:00 | 00:00:00 | 00:00:00 | |
| OE3OSB-13 | 2026-08-31 12:19:44 | 48.38699 | 17.19715 | 85° | 115km/h | 13703m | 4.8m/s | -58.1°C | 9.2% | 155.3hPa | 0V | 00:00:00 | 00:00:00 | 00:00:00 | |
| PETON7-10 | 2026-08-31 12:19:39 | 48.38691 | 17.19543 | 88° | 115km/h | 13684m | 5.0m/s | 0°C | 0% | 0hPa | 0V | 00:00:00 | 00:00:00 | 00:00:00 | |
| PETON7-10 | 2026-08-31 12:19:24 | 48.38667 | 17.18891 | 86° | 113km/h | 13619m | 4.0m/s | 0°C | 0% | 0hPa | 0V | 00:00:00 | 00:00:00 | 00:00:00 | |
| ATIDSZ-14 | 2026-08-31 12:19:15 | 48.38631 | 17.18494 | 84° | 113km/h | 13583m | 5.2m/s | 0°C | 0% | 0hPa | 0V | 00:00:00 | 00:00:00 | 00:00:00 | |
| OE3OSB-13 | 2026-08-31 12:19:13 | 48.38622 | 17.18369 | 84° | 108km/h | 13571m | 3.9m/s | -58.5°C | 9.8% | 158.5hPa | 0V | 00:00:00 | 00:00:00 | 00:00:00 | |
| PETON7-10 | 2026-08-31 12:19:07 | 48.38601 | 17.18160 | 81° | 110km/h | 13550m | 3.4m/s | 0°C | 0% | 0hPa | 0V | 00:00:00 | 00:00:00 | 00:00:00 | |
| ATIDSZ-14 | 2026-08-31 12:18:54 | 48.38536 | 17.17633 | 81° | 110km/h | 13501m | 4.3m/s | 0°C | 0% | 0hPa | 0V | 00:00:00 | 00:00:00 | 00:00:00 | |
| PETON7-10 | 2026-08-31 12:18:47 | 48.38495 | 17.17356 | 79° | 108km/h | 13473m | 2.9m/s | 0°C | 0% | 0hPa | 0V | 00:00:00 | 00:00:00 | 00:00:00 | |
| OE3OSB-13 | 2026-08-31 12:18:42 | 48.38458 | 17.17115 | 79° | 104km/h | 13449m | 2.7m/s | -58.6°C | 10.3% | 161.8hPa | 0V | 00:00:00 | 00:00:00 | 00:00:00 | |
| ATIDSZ-14 | 2026-08-31 12:18:33 | 48.38416 | 17.16795 | 82° | 110km/h | 13417m | 5.0m/s | 0°C | 0% | 0hPa | 0V | 00:00:00 | 00:00:00 | 00:00:00 | |
| PETON7-10 | 2026-08-31 12:18:32 | 48.38408 | 17.16711 | 82° | 111km/h | 13408m | 5.2m/s | 0°C | 0% | 0hPa | 0V | 00:00:00 | 00:00:00 | 00:00:00 | |
| PETON7-10 | 2026-08-31 12:18:16 | 48.38347 | 17.16082 | 82° | 115km/h | 13348m | 4.6m/s | 0°C | 0% | 0hPa | 0V | 00:00:00 | 00:00:00 | 00:00:00 | |
| ATIDSZ-14 | 2026-08-31 12:18:13 | 48.38335 | 17.15957 | 83° | 115km/h | 13336m | 5.5m/s | 0°C | 0% | 0hPa | 0V | 00:00:00 | 00:00:00 | 00:00:00 | |
| OE3OSB-13 | 2026-08-31 12:18:11 | 48.38323 | 17.15827 | 82° | 111km/h | 13323m | 3.9m/s | -58.1°C | 11.4% | 165.2hPa | 0V | 00:00:00 | 00:00:00 | 00:00:00 | |
| PETON7-10 | 2026-08-31 12:18:01 | 48.38288 | 17.15432 | 83° | 120km/h | 13288m | 4.2m/s | 0°C | 0% | 0hPa | 0V | 00:00:00 | 00:00:00 | 00:00:00 | |
| ATIDSZ-14 | 2026-08-31 12:17:52 | 48.38257 | 17.15023 | 86° | 120km/h | 13251m | 4.4m/s | 0°C | 0% | 0hPa | 0V | 00:00:00 | 00:00:00 | 00:00:00 | |
| PETON7-10 | 2026-08-31 12:17:45 | 48.38237 | 17.14701 | 83° | 128km/h | 13224m | 4.9m/s | 0°C | 0% | 0hPa | 0V | 00:00:00 | 00:00:00 | 00:00:00 | |
| OE3OSB-13 | 2026-08-31 12:17:40 | 48.38216 | 17.14414 | 83° | 133km/h | 13200m | 3.2m/s | -57.9°C | 12.2% | 168.5hPa | 0V | 00:00:00 | 00:00:00 | 00:00:00 | |
| ATIDSZ-14 | 2026-08-31 12:17:32 | 48.38192 | 17.14077 | 89° | 130km/h | 13173m | 3.7m/s | 0°C | 0% | 0hPa | 0V | 00:00:00 | 00:00:00 | 00:00:00 | |
| PETON7-10 | 2026-08-31 12:17:30 | 48.38189 | 17.13979 | 87° | 133km/h | 13166m | 4.8m/s | 0°C | 0% | 0hPa | 0V | 00:00:00 | 00:00:00 | 00:00:00 | |
| PETON7-10 | 2026-08-31 12:17:12 | 48.38136 | 17.13079 | 84° | 135km/h | 13099m | 3.0m/s | 0°C | 0% | 0hPa | 0V | 00:00:00 | 00:00:00 | 00:00:00 | |
| OE3OSB-13 | 2026-08-31 12:17:08 | 48.38123 | 17.12877 | 85° | 135km/h | 13084m | 4.0m/s | -57.8°C | 12.9% | 171.7hPa | 0V | 00:00:00 | 00:00:00 | 00:00:00 | |
| PETON7-10 | 2026-08-31 12:16:57 | 48.38088 | 17.12314 | 84° | 135km/h | 13043m | 4.4m/s | 0°C | 0% | 0hPa | 0V | 00:00:00 | 00:00:00 | 00:00:00 | |
| ATIDSZ-14 | 2026-08-31 12:16:53 | 48.38069 | 17.12058 | 83° | 135km/h | 13024m | 4.8m/s | 0°C | 0% | 0hPa | 0V | 00:00:00 | 00:00:00 | 00:00:00 | |
| PETON7-10 | 2026-08-31 12:16:42 | 48.38026 | 17.11553 | 82° | 133km/h | 12986m | 3.4m/s | 0°C | 0% | 0hPa | 0V | 00:00:00 | 00:00:00 | 00:00:00 | |
| OE3OSB-13 | 2026-08-31 12:16:37 | 48.38006 | 17.11305 | 82° | 133km/h | 12969m | 3.8m/s | -57.4°C | 13.4% | 175.0hPa | 0V | 00:00:00 | 00:00:00 | 00:00:00 | |
| ATIDSZ-14 | 2026-08-31 12:16:31 | 48.37973 | 17.10997 | 82° | 135km/h | 12945m | 4.9m/s | 0°C | 0% | 0hPa | 0V | 00:00:00 | 00:00:00 | 00:00:00 | |
| PETON7-10 | 2026-08-31 12:16:27 | 48.37955 | 17.10799 | 83° | 133km/h | 12929m | 3.1m/s | 0°C | 0% | 0hPa | 0V | 00:00:00 | 00:00:00 | 00:00:00 | |
| PETON7-10 | 2026-08-31 12:16:12 | 48.37881 | 17.10047 | 82° | 135km/h | 12872m | 3.8m/s | 0°C | 0% | 0hPa | 0V | 00:00:00 | 00:00:00 | 00:00:00 | |
| ATIDSZ-14 | 2026-08-31 12:16:10 | 48.37871 | 17.09947 | 82° | 135km/h | 12864m | 4.2m/s | 0°C | 0% | 0hPa | 0V | 00:00:00 | 00:00:00 | 00:00:00 | |
| OE3OSB-13 | 2026-08-31 12:16:06 | 48.37846 | 17.09696 | 82° | 133km/h | 12845m | 5.4m/s | -57.5°C | 13.9% | 178.5hPa | 0V | 00:00:00 | 00:00:00 | 00:00:00 | |
| PETON7-10 | 2026-08-31 12:15:57 | 48.37806 | 17.09290 | 82° | 135km/h | 12815m | 3.2m/s | 0°C | 0% | 0hPa | 0V | 00:00:00 | 00:00:00 | 00:00:00 | |
| ATIDSZ-14 | 2026-08-31 12:15:49 | 48.37763 | 17.08882 | 82° | 137km/h | 12782m | 3.6m/s | 0°C | 0% | 0hPa | 0V | 00:00:00 | 00:00:00 | 00:00:00 | |
| PETON7-10 | 2026-08-31 12:15:40 | 48.37709 | 17.08431 | 80° | 135km/h | 12748m | 2.9m/s | 0°C | 0% | 0hPa | 0V | 00:00:00 | 00:00:00 | 00:00:00 | |
| OE3OSB-13 | 2026-08-31 12:15:35 | 48.37673 | 17.08126 | 82° | 137km/h | 12724m | 5.0m/s | -57.2°C | 14.0% | 182.0hPa | 0V | 00:00:00 | 00:00:00 | 00:00:00 | |
| ATIDSZ-14 | 2026-08-31 12:15:29 | 48.37646 | 17.07875 | 79° | 133km/h | 12705m | 3.6m/s | 0°C | 0% | 0hPa | 0V | 00:00:00 | 00:00:00 | 00:00:00 | |
| PETON7-10 | 2026-08-31 12:15:25 | 48.37621 | 17.07673 | 83° | 137km/h | 12689m | 4.6m/s | 0°C | 0% | 0hPa | 0V | 00:00:00 | 00:00:00 | 00:00:00 | |
| OE3JTB-15 | 2026-08-31 12:15:20 | 48.37590 | 17.07319 | 81° | 139km/h | 12663m | 3.5m/s | 0°C | 0% | 0hPa | 0V | 00:00:00 | 00:00:00 | 00:00:00 | |
| PETON7-10 | 2026-08-31 12:15:10 | 48.37541 | 17.06905 | 82° | 137km/h | 12634m | 4.6m/s | 0°C | 0% | 0hPa | 0V | 00:00:00 | 00:00:00 | 00:00:00 | |
| ATIDSZ-14 | 2026-08-31 12:15:08 | 48.37530 | 17.06806 | 81° | 133km/h | 12626m | 5.2m/s | 0°C | 0% | 0hPa | 0V | 00:00:00 | 00:00:00 | 00:00:00 | |
| OE3OSB-13 | 2026-08-31 12:15:04 | 48.37497 | 17.06554 | 79° | 137km/h | 12605m | 5.0m/s | -56.8°C | 13.9% | 185.6hPa | 0V | 00:00:00 | 00:00:00 | 00:00:00 | |
| PETON7-10 | 2026-08-31 12:14:54 | 48.37436 | 17.06090 | 79° | 137km/h | 12569m | 4.9m/s | 0°C | 0% | 0hPa | 0V | 00:00:00 | 00:00:00 | 00:00:00 | |
| ATIDSZ-14 | 2026-08-31 12:14:48 | 48.37393 | 17.05783 | 78° | 135km/h | 12546m | 3.5m/s | 0°C | 0% | 0hPa | 0V | 00:00:00 | 00:00:00 | 00:00:00 | |
| PETON7-10 | 2026-08-31 12:14:39 | 48.37329 | 17.05324 | 77° | 139km/h | 12511m | 3.3m/s | 0°C | 0% | 0hPa | 0V | 00:00:00 | 00:00:00 | 00:00:00 | |
| OE3OSB-13 | 2026-08-31 12:14:33 | 48.37277 | 17.04971 | 82° | 141km/h | 12483m | 3.6m/s | -56.2°C | 13.3% | 189.3hPa | 0V | 00:00:00 | 00:00:00 | 00:00:00 | |
| ATIDSZ-14 | 2026-08-31 12:14:27 | 48.37243 | 17.04708 | 76° | 135km/h | 12464m | 3.9m/s | 0°C | 0% | 0hPa | 0V | 00:00:00 | 00:00:00 | 00:00:00 | |
| PETON7-10 | 2026-08-31 12:14:24 | 48.37218 | 17.04561 | 78° | 139km/h | 12451m | 3.4m/s | 0°C | 0% | 0hPa | 0V | 00:00:00 | 00:00:00 | 00:00:00 | |
| PETON7-10 | 2026-08-31 12:14:09 | 48.37103 | 17.03785 | 78° | 142km/h | 12393m | 4.2m/s | 0°C | 0% | 0hPa | 0V | 00:00:00 | 00:00:00 | 00:00:00 | |
| ATIDSZ-14 | 2026-08-31 12:14:07 | 48.37087 | 17.03682 | 77° | 141km/h | 12385m | 5.3m/s | 0°C | 0% | 0hPa | 0V | 00:00:00 | 00:00:00 | 00:00:00 | |
| OE3OSB-13 | 2026-08-31 12:14:02 | 48.37036 | 17.03368 | 75° | 142km/h | 12360m | 3.7m/s | -55.9°C | 13.5% | 193.2hPa | 0V | 00:00:00 | 00:00:00 | 00:00:00 | |
| PETON7-10 | 2026-08-31 12:13:54 | 48.36978 | 17.02997 | 78° | 146km/h | 12331m | 3.3m/s | 0°C | 0% | 0hPa | 0V | 00:00:00 | 00:00:00 | 00:00:00 | |
| PETON7-10 | 2026-08-31 12:13:38 | 48.36838 | 17.02139 | 79° | 144km/h | 12262m | 3.5m/s | 0°C | 0% | 0hPa | 0V | 00:00:00 | 00:00:00 | 00:00:00 | |
| OE3OSB-13 | 2026-08-31 12:13:31 | 48.36774 | 17.01706 | 77° | 141km/h | 12227m | 5.1m/s | -55.0°C | 14.3% | 197.3hPa | 0V | 00:00:00 | 00:00:00 | 00:00:00 | |
| PETON7-10 | 2026-08-31 12:13:23 | 48.36719 | 17.01333 | 79° | 144km/h | 12201m | 4.4m/s | 0°C | 0% | 0hPa | 0V | 00:00:00 | 00:00:00 | 00:00:00 | |
| ATIDSZ-14 | 2026-08-31 12:13:22 | 48.36712 | 17.01279 | 79° | 146km/h | 12196m | 5.1m/s | 0°C | 0% | 0hPa | 0V | 00:00:00 | 00:00:00 | 00:00:00 | |
| PETON7-10 | 2026-08-31 12:13:08 | 48.36598 | 17.00528 | 78° | 141km/h | 12141m | 3.5m/s | 0°C | 0% | 0hPa | 0V | 00:00:00 | 00:00:00 | 00:00:00 | |
| ATIDSZ-14 | 2026-08-31 12:13:01 | 48.36542 | 17.00161 | 78° | 142km/h | 12112m | 3.1m/s | 0°C | 0% | 0hPa | 0V | 00:00:00 | 00:00:00 | 00:00:00 | |
| OE3OSB-13 | 2026-08-31 12:13:00 | 48.36525 | 17.00059 | 75° | 135km/h | 12105m | 4.2m/s | -54.2°C | 15.2% | 201.3hPa | 0V | 00:00:00 | 00:00:00 | 00:00:00 | |
| PETON7-10 | 2026-08-31 12:12:53 | 48.36473 | 16.99754 | 78° | 139km/h | 12081m | 5.0m/s | 0°C | 0% | 0hPa | 0V | 00:00:00 | 00:00:00 | 00:00:00 | |
| ATIDSZ-14 | 2026-08-31 12:12:41 | 48.36375 | 16.99135 | 78° | 141km/h | 12031m | 4.0m/s | 0°C | 0% | 0hPa | 0V | 00:00:00 | 00:00:00 | 00:00:00 | |
| PETON7-10 | 2026-08-31 12:12:38 | 48.36353 | 16.98981 | 77° | 141km/h | 12020m | 4.4m/s | 0°C | 0% | 0hPa | 0V | 00:00:00 | 00:00:00 | 00:00:00 | |
| OE3OSB-13 | 2026-08-31 12:12:29 | 48.36271 | 16.98463 | 76° | 139km/h | 11980m | 4.5m/s | -53.5°C | 15.2% | 205.3hPa | 0V | 00:00:00 | 00:00:00 | 00:00:00 | |
| OE3JTB-15 | 2026-08-31 12:12:24 | 48.36231 | 16.98203 | 77° | 133km/h | 11959m | 3.1m/s | 0°C | 0% | 0hPa | 0V | 00:00:00 | 00:00:00 | 00:00:00 | |
| PETON7-10 | 2026-08-31 12:12:22 | 48.36222 | 16.98149 | 78° | 142km/h | 11956m | 4.2m/s | 0°C | 0% | 0hPa | 0V | 00:00:00 | 00:00:00 | 00:00:00 | |
| ATIDSZ-14 | 2026-08-31 12:12:20 | 48.36208 | 16.98043 | 79° | 141km/h | 11949m | 3.2m/s | 0°C | 0% | 0hPa | 0V | 00:00:00 | 00:00:00 | 00:00:00 | |
| PETON7-10 | 2026-08-31 12:12:06 | 48.36094 | 16.97304 | 79° | 142km/h | 11894m | 3.9m/s | 0°C | 0% | 0hPa | 0V | 00:00:00 | 00:00:00 | 00:00:00 | |
| ATIDSZ-14 | 2026-08-31 12:12:00 | 48.36043 | 16.96988 | 75° | 146km/h | 11871m | 3.0m/s | 0°C | 0% | 0hPa | 0V | 00:00:00 | 00:00:00 | 00:00:00 | |
| OE3OSB-13 | 2026-08-31 12:11:58 | 48.36018 | 16.96829 | 78° | 139km/h | 11860m | 4.0m/s | -52.5°C | 15.9% | 209.3hPa | 0V | 00:00:00 | 00:00:00 | 00:00:00 | |
| PETON7-10 | 2026-08-31 12:11:51 | 48.35971 | 16.96511 | 77° | 144km/h | 11835m | 5.3m/s | 0°C | 0% | 0hPa | 0V | 00:00:00 | 00:00:00 | 00:00:00 | |
| ATIDSZ-14 | 2026-08-31 12:11:39 | 48.35873 | 16.95879 | 80° | 146km/h | 11791m | 4.2m/s | 0°C | 0% | 0hPa | 0V | 00:00:00 | 00:00:00 | 00:00:00 | |
| PETON7-10 | 2026-08-31 12:11:35 | 48.35841 | 16.95660 | 75° | 142km/h | 11776m | 3.8m/s | 0°C | 0% | 0hPa | 0V | 00:00:00 | 00:00:00 | 00:00:00 | |
| PETON7-10 | 2026-08-31 12:11:19 | 48.35702 | 16.94820 | 75° | 141km/h | 11713m | 3.2m/s | 0°C | 0% | 0hPa | 0V | 00:00:00 | 00:00:00 | 00:00:00 | |
| ATIDSZ-14 | 2026-08-31 12:11:18 | 48.35692 | 16.94768 | 75° | 144km/h | 11710m | 3.1m/s | 0°C | 0% | 0hPa | 0V | 00:00:00 | 00:00:00 | 00:00:00 | |
| PETON7-10 | 2026-08-31 12:11:03 | 48.35559 | 16.93983 | 78° | 142km/h | 11658m | 3.4m/s | 0°C | 0% | 0hPa | 0V | 00:00:00 | 00:00:00 | 00:00:00 | |
| OE3OSB-13 | 2026-08-31 12:10:56 | 48.35495 | 16.93552 | 77° | 141km/h | 11628m | 4.2m/s | -51.4°C | 18.6% | 217.1hPa | 0V | 00:00:00 | 00:00:00 | 00:00:00 | |
| PETON7-10 | 2026-08-31 12:10:48 | 48.35440 | 16.93190 | 78° | 144km/h | 11600m | 4.5m/s | 0°C | 0% | 0hPa | 0V | 00:00:00 | 00:00:00 | 00:00:00 | |
| ATIDSZ-14 | 2026-08-31 12:10:37 | 48.35362 | 16.92597 | 81° | 144km/h | 11564m | 3.7m/s | 0°C | 0% | 0hPa | 0V | 00:00:00 | 00:00:00 | 00:00:00 | |
| PETON7-10 | 2026-08-31 12:10:33 | 48.35337 | 16.92383 | 81° | 141km/h | 11551m | 3.4m/s | 0°C | 0% | 0hPa | 0V | 00:00:00 | 00:00:00 | 00:00:00 | |
| OE3OSB-13 | 2026-08-31 12:10:26 | 48.35274 | 16.91914 | 79° | 141km/h | 11520m | 4.4m/s | -50.9°C | 21.4% | 220.9hPa | 0V | 00:00:00 | 00:00:00 | 00:00:00 | |
| PETON7-10 | 2026-08-31 12:10:18 | 48.35230 | 16.91602 | 77° | 139km/h | 11497m | 4.3m/s | 0°C | 0% | 0hPa | 0V | 00:00:00 | 00:00:00 | 00:00:00 | |
| ATIDSZ-14 | 2026-08-31 12:10:15 | 48.35207 | 16.91447 | 81° | 137km/h | 11487m | 2.7m/s | 0°C | 0% | 0hPa | 0V | 00:00:00 | 00:00:00 | 00:00:00 | |
| OE3OSB-13 | 2026-08-31 12:09:54 | 48.35043 | 16.90320 | 79° | 141km/h | 11403m | 3.9m/s | -50.7°C | 24.0% | 224.9hPa | 0V | 00:00:00 | 00:00:00 | 00:00:00 | |
| PETON7-10 | 2026-08-31 12:09:43 | 48.34960 | 16.89820 | 76° | 133km/h | 11368m | 3.8m/s | 0°C | 0% | 0hPa | 0V | 00:00:00 | 00:00:00 | 00:00:00 | |
| PG1ADW-2 | 2026-08-31 12:09:37 | 48.34908 | 16.89530 | 77° | 131km/h | 11348m | 2.9m/s | 0°C | 0% | 0hPa | 0V | 00:00:00 | 00:00:00 | 00:00:00 | |
| ATIDSZ-14 | 2026-08-31 12:09:33 | 48.34870 | 16.89335 | 75° | 137km/h | 11333m | 5.2m/s | 0°C | 0% | 0hPa | 0V | 00:00:00 | 00:00:00 | 00:00:00 | |
| PETON7-10 | 2026-08-31 12:09:28 | 48.34824 | 16.89090 | 78° | 133km/h | 11313m | 4.1m/s | 0°C | 0% | 0hPa | 0V | 00:00:00 | 00:00:00 | 00:00:00 | |
| OE3OSB-13 | 2026-08-31 12:09:23 | 48.34773 | 16.88803 | 74° | 130km/h | 11292m | 4.7m/s | -50.1°C | 25.5% | 229.0hPa | 0V | 00:00:00 | 00:00:00 | 00:00:00 | |
| ATIDSZ-14 | 2026-08-31 12:09:13 | 48.34691 | 16.88364 | 76° | 126km/h | 11259m | 3.1m/s | 0°C | 0% | 0hPa | 0V | 00:00:00 | 00:00:00 | 00:00:00 | |
| PETON7-10 | 2026-08-31 12:09:12 | 48.34682 | 16.88318 | 75° | 130km/h | 11255m | 5.2m/s | 0°C | 0% | 0hPa | 0V | 00:00:00 | 00:00:00 | 00:00:00 | |
| OE3OSB-13 | 2026-08-31 12:08:52 | 48.34494 | 16.87319 | 71° | 131km/h | 11176m | 5.1m/s | -49.3°C | 25.5% | 233.1hPa | 0V | 00:00:00 | 00:00:00 | 00:00:00 | |
| PETON7-10 | 2026-08-31 12:08:41 | 48.34401 | 16.86855 | 77° | 130km/h | 11135m | 2.9m/s | 0°C | 0% | 0hPa | 0V | 00:00:00 | 00:00:00 | 00:00:00 | |
| ATIDSZ-14 | 2026-08-31 12:08:32 | 48.34321 | 16.86441 | 76° | 131km/h | 11093m | 3.1m/s | 0°C | 0% | 0hPa | 0V | 00:00:00 | 00:00:00 | 00:00:00 | |
| PETON7-10 | 2026-08-31 12:08:26 | 48.34275 | 16.86149 | 75° | 128km/h | 11067m | 4.9m/s | 0°C | 0% | 0hPa | 0V | 00:00:00 | 00:00:00 | 00:00:00 | |
| OE3JTB-15 | 2026-08-31 12:08:21 | 48.34228 | 16.85920 | 76° | 128km/h | 11044m | 2.7m/s | 0°C | 0% | 0hPa | 0V | 00:00:00 | 00:00:00 | 00:00:00 | |
| OE3OSB-13 | 2026-08-31 12:08:20 | 48.34220 | 16.85871 | 76° | 133km/h | 11037m | 9.9m/s | -48.3°C | 24.1% | 238.2hPa | 0V | 00:00:00 | 00:00:00 | 00:00:00 | |
| ATIDSZ-14 | 2026-08-31 12:08:11 | 48.34142 | 16.85451 | 75° | 139km/h | 10989m | 2.7m/s | 0°C | 0% | 0hPa | 0V | 00:00:00 | 00:00:00 | 00:00:00 | |
| PETON7-10 | 2026-08-31 12:08:10 | 48.34133 | 16.85401 | 75° | 126km/h | 10983m | 8.9m/s | 0°C | 0% | 0hPa | 0V | 00:00:00 | 00:00:00 | 00:00:00 | |
| OE3OSB-13 | 2026-08-31 12:07:49 | 48.33937 | 16.84360 | 73° | 131km/h | 10870m | 2.9m/s | -46.9°C | 24.1% | 244.5hPa | 0V | 00:00:00 | 00:00:00 | 00:00:00 | |
| PETON7-10 | 2026-08-31 12:07:40 | 48.33858 | 16.83978 | 75° | 128km/h | 10828m | 3.4m/s | 0°C | 0% | 0hPa | 0V | 00:00:00 | 00:00:00 | 00:00:00 | |
| ATIDSZ-14 | 2026-08-31 12:07:31 | 48.33778 | 16.83562 | 76° | 128km/h | 10782m | 3.5m/s | 0°C | 0% | 0hPa | 0V | 00:00:00 | 00:00:00 | 00:00:00 | |
| PETON7-10 | 2026-08-31 12:07:25 | 48.33730 | 16.83282 | 77° | 124km/h | 10746m | 8.3m/s | 0°C | 0% | 0hPa | 0V | 00:00:00 | 00:00:00 | 00:00:00 | |
| OE3OSB-13 | 2026-08-31 12:07:18 | 48.33666 | 16.82920 | 74° | 122km/h | 10700m | 2.4m/s | -45.8°C | 26.9% | 250.9hPa | 0V | 00:00:00 | 00:00:00 | 00:00:00 | |
| ATIDSZ-14 | 2026-08-31 12:07:10 | 48.33610 | 16.82601 | 75° | 126km/h | 10663m | 6.5m/s | 0°C | 0% | 0hPa | 0V | 00:00:00 | 00:00:00 | 00:00:00 | |
| PETON7-10 | 2026-08-31 12:07:09 | 48.33601 | 16.82555 | 75° | 120km/h | 10656m | 8.1m/s | 0°C | 0% | 0hPa | 0V | 00:00:00 | 00:00:00 | 00:00:00 | |
| OE3JTB-15 | 2026-08-31 12:07:04 | 48.33565 | 16.82329 | 75° | 115km/h | 10628m | 5.9m/s | 0°C | 0% | 0hPa | 0V | 00:00:00 | 00:00:00 | 00:00:00 | |
| OE3OSB-13 | 2026-08-31 12:06:47 | 48.33424 | 16.81552 | 74° | 113km/h | 10535m | 5.5m/s | -45.0°C | 28.8% | 257.2hPa | 0V | 00:00:00 | 00:00:00 | 00:00:00 | |
| PETON7-10 | 2026-08-31 12:06:39 | 48.33366 | 16.81247 | 75° | 119km/h | 10502m | 3.7m/s | 0°C | 0% | 0hPa | 0V | 00:00:00 | 00:00:00 | 00:00:00 | |
| ATIDSZ-14 | 2026-08-31 12:06:28 | 48.33282 | 16.80777 | 77° | 120km/h | 10440m | 4.8m/s | 0°C | 0% | 0hPa | 0V | 00:00:00 | 00:00:00 | 00:00:00 | |
| PETON7-10 | 2026-08-31 12:06:24 | 48.33255 | 16.80608 | 77° | 119km/h | 10421m | 5.1m/s | 0°C | 0% | 0hPa | 0V | 00:00:00 | 00:00:00 | 00:00:00 | |
| OE3OSB-13 | 2026-08-31 12:06:17 | 48.33177 | 16.80215 | 75° | 113km/h | 10372m | 7.6m/s | -43.9°C | 29.5% | 263.9hPa | 0V | 00:00:00 | 00:00:00 | 00:00:00 | |
| PETON7-10 | 2026-08-31 12:06:09 | 48.33128 | 16.79963 | 73° | 117km/h | 10338m | 6.3m/s | 0°C | 0% | 0hPa | 0V | 00:00:00 | 00:00:00 | 00:00:00 | |
| ATIDSZ-14 | 2026-08-31 12:06:07 | 48.33110 | 16.79872 | 75° | 126km/h | 10328m | 2.5m/s | 0°C | 0% | 0hPa | 0V | 00:00:00 | 00:00:00 | 00:00:00 | |
| PG1ADW-2 | 2026-08-31 12:06:05 | 48.33094 | 16.79784 | 75° | 111km/h | 10322m | 5.6m/s | 0°C | 0% | 0hPa | 0V | 00:00:00 | 00:00:00 | 00:00:00 | |
| HA6NAB-11 | 2026-08-31 12:06:04 | 48.33086 | 16.79741 | 75° | 115km/h | 10316m | 5.8m/s | 0°C | 0% | 0hPa | 0V | 00:00:00 | 00:00:00 | 00:00:00 | |
| OE3OSB-13 | 2026-08-31 12:05:45 | 48.32926 | 16.78908 | 73° | 113km/h | 10207m | 4.7m/s | -42.7°C | 32.2% | 270.5hPa | 0V | 00:00:00 | 00:00:00 | 00:00:00 | |
| HA6NAB-11 | 2026-08-31 12:05:41 | 48.32905 | 16.78783 | 79° | 113km/h | 10191m | 4.5m/s | 0°C | 0% | 0hPa | 0V | 00:00:00 | 00:00:00 | 00:00:00 | |
| PETON7-10 | 2026-08-31 12:05:38 | 48.32882 | 16.78661 | 72° | 111km/h | 10177m | 3.9m/s | 0°C | 0% | 0hPa | 0V | 00:00:00 | 00:00:00 | 00:00:00 | |
| HA6NAB-11 | 2026-08-31 12:05:35 | 48.32858 | 16.78541 | 77° | 113km/h | 10163m | 3.3m/s | 0°C | 0% | 0hPa | 0V | 00:00:00 | 00:00:00 | 00:00:00 | |
| HA6NAB-11 | 2026-08-31 12:05:29 | 48.32812 | 16.78289 | 75° | 108km/h | 10137m | 3.9m/s | 0°C | 0% | 0hPa | 0V | 00:00:00 | 00:00:00 | 00:00:00 | |
| ATIDSZ-14 | 2026-08-31 12:05:24 | 48.32772 | 16.78090 | 70° | 106km/h | 10108m | 2.0m/s | 0°C | 0% | 0hPa | 0V | 00:00:00 | 00:00:00 | 00:00:00 | |
| PETON7-10 | 2026-08-31 12:05:23 | 48.32762 | 16.78052 | 71° | 104km/h | 10103m | 7.9m/s | 0°C | 0% | 0hPa | 0V | 00:00:00 | 00:00:00 | 00:00:00 | |
| OE3JTB-15 | 2026-08-31 12:05:19 | 48.32730 | 16.77894 | 74° | 100km/h | 10080m | 5.2m/s | 0°C | 0% | 0hPa | 0V | 00:00:00 | 00:00:00 | 00:00:00 | |
| OE3OSB-13 | 2026-08-31 12:05:14 | 48.32682 | 16.77661 | 75° | 95km/h | 10050m | 3.1m/s | -41.5°C | 32.1% | 276.8hPa | 0V | 00:00:00 | 00:00:00 | 00:00:00 | |
| PETON7-10 | 2026-08-31 12:05:08 | 48.32653 | 16.77480 | 74° | 106km/h | 10030m | 4.7m/s | 0°C | 0% | 0hPa | 0V | 00:00:00 | 00:00:00 | 00:00:00 | |
| PG1ADW-2 | 2026-08-31 12:05:04 | 48.32621 | 16.77321 | 75° | 106km/h | 10007m | 7.0m/s | 0°C | 0% | 0hPa | 0V | 00:00:00 | 00:00:00 | 00:00:00 | |
| ATIDSZ-14 | 2026-08-31 12:05:03 | 48.32613 | 16.77283 | 73° | 100km/h | 10000m | 6.4m/s | 0°C | 0% | 0hPa | 0V | 00:00:00 | 00:00:00 | 00:00:00 | |
| OE3OSB-13 | 2026-08-31 12:04:43 | 48.32446 | 16.76481 | 73° | 104km/h | 9885m | 7.8m/s | -40.4°C | 35.9% | 283.8hPa | 0V | 00:00:00 | 00:00:00 | 00:00:00 | |
| ATIDSZ-14 | 2026-08-31 12:04:42 | 48.32445 | 16.76481 | 75° | 104km/h | 9885m | 7.8m/s | 0°C | 0% | 0hPa | 0V | 00:00:00 | 00:00:00 | 00:00:00 | |
| PETON7-10 | 2026-08-31 12:04:38 | 48.32416 | 16.76344 | 70° | 99km/h | 9861m | 3.7m/s | 0°C | 0% | 0hPa | 0V | 00:00:00 | 00:00:00 | 00:00:00 | |
| OE3JTB-15 | 2026-08-31 12:04:37 | 48.32407 | 16.76311 | 68° | 100km/h | 9857m | 4.0m/s | 0°C | 0% | 0hPa | 0V | 00:00:00 | 00:00:00 | 00:00:00 | |
| PETON7-10 | 2026-08-31 12:04:23 | 48.32301 | 16.75808 | 70° | 99km/h | 9797m | 4.6m/s | 0°C | 0% | 0hPa | 0V | 00:00:00 | 00:00:00 | 00:00:00 | |
| ATIDSZ-14 | 2026-08-31 12:04:21 | 48.32286 | 16.75736 | 78° | 106km/h | 9789m | 3.7m/s | 0°C | 0% | 0hPa | 0V | 00:00:00 | 00:00:00 | 00:00:00 | |
| PG1ADW-2 | 2026-08-31 12:04:19 | 48.32274 | 16.75658 | 77° | 99km/h | 9781m | 5.5m/s | 0°C | 0% | 0hPa | 0V | 00:00:00 | 00:00:00 | 00:00:00 | |
| OE3OSB-13 | 2026-08-31 12:04:12 | 48.32214 | 16.75365 | 74° | 91km/h | 9746m | 2.4m/s | -39.0°C | 31.5% | 289.9hPa | 0V | 00:00:00 | 00:00:00 | 00:00:00 | |
| PETON7-10 | 2026-08-31 12:04:08 | 48.32194 | 16.75257 | 73° | 102km/h | 9733m | 4.4m/s | 0°C | 0% | 0hPa | 0V | 00:00:00 | 00:00:00 | 00:00:00 | |
| OE3JTB-15 | 2026-08-31 12:04:03 | 48.32158 | 16.75075 | 73° | 102km/h | 9709m | 6.1m/s | 0°C | 0% | 0hPa | 0V | 00:00:00 | 00:00:00 | 00:00:00 | |
| ATIDSZ-14 | 2026-08-31 12:04:01 | 48.32142 | 16.74997 | 76° | 104km/h | 9701m | 3.8m/s | 0°C | 0% | 0hPa | 0V | 00:00:00 | 00:00:00 | 00:00:00 | |
| PETON7-10 | 2026-08-31 12:03:53 | 48.32084 | 16.74708 | 70° | 102km/h | 9670m | 2.3m/s | 0°C | 0% | 0hPa | 0V | 00:00:00 | 00:00:00 | 00:00:00 | |
| PG1ADW-2 | 2026-08-31 12:03:52 | 48.32075 | 16.74672 | 71° | 102km/h | 9667m | 4.0m/s | 0°C | 0% | 0hPa | 0V | 00:00:00 | 00:00:00 | 00:00:00 | |
| OE3OSB-13 | 2026-08-31 12:03:41 | 48.31981 | 16.74227 | 71° | 95km/h | 9625m | 3.0m/s | -38.0°C | 21.2% | 295.2hPa | 0V | 00:00:00 | 00:00:00 | 00:00:00 | |
| ATIDSZ-14 | 2026-08-31 12:03:40 | 48.31981 | 16.74227 | 72° | 97km/h | 9625m | 3.0m/s | 0°C | 0% | 0hPa | 0V | 00:00:00 | 00:00:00 | 00:00:00 | |
| PETON7-10 | 2026-08-31 12:03:38 | 48.31965 | 16.74156 | 74° | 102km/h | 9617m | 5.8m/s | 0°C | 0% | 0hPa | 0V | 00:00:00 | 00:00:00 | 00:00:00 | |
| OE3JTB-15 | 2026-08-31 12:03:31 | 48.31908 | 16.73894 | 70° | 100km/h | 9591m | 5.5m/s | 0°C | 0% | 0hPa | 0V | 00:00:00 | 00:00:00 | 00:00:00 | |
| ATIDSZ-14 | 2026-08-31 12:03:20 | 48.31823 | 16.73494 | 74° | 100km/h | 9552m | 6.0m/s | 0°C | 0% | 0hPa | 0V | 00:00:00 | 00:00:00 | 00:00:00 | |
| OE3OSB-13 | 2026-08-31 12:03:10 | 48.31739 | 16.73090 | 72° | 100km/h | 9504m | 3.8m/s | -37.1°C | 28.5% | 300.4hPa | 0V | 00:00:00 | 00:00:00 | 00:00:00 | |
| PETON7-10 | 2026-08-31 12:03:05 | 48.31710 | 16.72947 | 73° | 99km/h | 9491m | 3.9m/s | 0°C | 0% | 0hPa | 0V | 00:00:00 | 00:00:00 | 00:00:00 | |
| OE3JTB-15 | 2026-08-31 12:03:02 | 48.31686 | 16.72838 | 71° | 97km/h | 9480m | 5.6m/s | 0°C | 0% | 0hPa | 0V | 00:00:00 | 00:00:00 | 00:00:00 | |
| ATIDSZ-14 | 2026-08-31 12:03:00 | 48.31671 | 16.72767 | 73° | 100km/h | 9470m | 3.9m/s | 0°C | 0% | 0hPa | 0V | 00:00:00 | 00:00:00 | 00:00:00 | |
| PG1ADW-2 | 2026-08-31 12:02:59 | 48.31664 | 16.72732 | 74° | 97km/h | 9466m | 6.0m/s | 0°C | 0% | 0hPa | 0V | 00:00:00 | 00:00:00 | 00:00:00 | |
| PETON7-10 | 2026-08-31 12:02:50 | 48.31596 | 16.72412 | 71° | 95km/h | 9430m | 5.1m/s | 0°C | 0% | 0hPa | 0V | 00:00:00 | 00:00:00 | 00:00:00 | |
| ATIDSZ-14 | 2026-08-31 12:02:38 | 48.31503 | 16.72000 | 72° | 99km/h | 9385m | 4.6m/s | 0°C | 0% | 0hPa | 0V | 00:00:00 | 00:00:00 | 00:00:00 | |
| PG1ADW-2 | 2026-08-31 12:02:36 | 48.31486 | 16.71933 | 68° | 95km/h | 9378m | 3.5m/s | 0°C | 0% | 0hPa | 0V | 00:00:00 | 00:00:00 | 00:00:00 | |
| PETON7-10 | 2026-08-31 12:02:35 | 48.31477 | 16.71900 | 69° | 93km/h | 9374m | 5.0m/s | 0°C | 0% | 0hPa | 0V | 00:00:00 | 00:00:00 | 00:00:00 | |
| OE3JTB-15 | 2026-08-31 12:02:33 | 48.31461 | 16.71831 | 72° | 93km/h | 9366m | 3.6m/s | 0°C | 0% | 0hPa | 0V | 00:00:00 | 00:00:00 | 00:00:00 | |
| PETON7-10 | 2026-08-31 12:02:20 | 48.31358 | 16.71402 | 70° | 93km/h | 9318m | 3.0m/s | 0°C | 0% | 0hPa | 0V | 00:00:00 | 00:00:00 | 00:00:00 | |
| ATIDSZ-14 | 2026-08-31 12:02:18 | 48.31342 | 16.71333 | 75° | 95km/h | 9310m | 3.4m/s | 0°C | 0% | 0hPa | 0V | 00:00:00 | 00:00:00 | 00:00:00 | |
| PG1ADW-2 | 2026-08-31 12:02:16 | 48.31329 | 16.71265 | 72° | 93km/h | 9303m | 4.1m/s | 0°C | 0% | 0hPa | 0V | 00:00:00 | 00:00:00 | 00:00:00 | |
| OE3OSB-13 | 2026-08-31 12:02:08 | 48.31258 | 16.70968 | 73° | 93km/h | 9270m | 2.1m/s | -35.4°C | 33.1% | 310.8hPa | 0V | 00:00:00 | 00:00:00 | 00:00:00 | |
| PETON7-10 | 2026-08-31 12:02:05 | 48.31244 | 16.70900 | 73° | 93km/h | 9264m | 3.4m/s | 0°C | 0% | 0hPa | 0V | 00:00:00 | 00:00:00 | 00:00:00 | |
| OE3JTB-15 | 2026-08-31 12:02:04 | 48.31237 | 16.70866 | 72° | 91km/h | 9260m | 4.1m/s | 0°C | 0% | 0hPa | 0V | 00:00:00 | 00:00:00 | 00:00:00 | |
| ATIDSZ-14 | 2026-08-31 12:01:58 | 48.31188 | 16.70676 | 72° | 88km/h | 9238m | 4.2m/s | 0°C | 0% | 0hPa | 0V | 00:00:00 | 00:00:00 | 00:00:00 | |
| PG1ADW-2 | 2026-08-31 12:01:51 | 48.31129 | 16.70443 | 70° | 91km/h | 9211m | 4.6m/s | 0°C | 0% | 0hPa | 0V | 00:00:00 | 00:00:00 | 00:00:00 | |
| PETON7-10 | 2026-08-31 12:01:50 | 48.31121 | 16.70412 | 68° | 89km/h | 9207m | 5.3m/s | 0°C | 0% | 0hPa | 0V | 00:00:00 | 00:00:00 | 00:00:00 | |
| ATIDSZ-14 | 2026-08-31 12:01:37 | 48.31007 | 16.69989 | 64° | 89km/h | 9158m | 4.7m/s | 0°C | 0% | 0hPa | 0V | 00:00:00 | 00:00:00 | 00:00:00 | |
| OE3OSB-13 | 2026-08-31 12:01:36 | 48.30998 | 16.69959 | 66° | 84km/h | 9153m | 4.2m/s | -34.4°C | 28.3% | 316.4hPa | 0V | 00:00:00 | 00:00:00 | 00:00:00 | |
| OE3JTB-15 | 2026-08-31 12:01:35 | 48.30989 | 16.69930 | 69° | 91km/h | 9150m | 2.9m/s | 0°C | 0% | 0hPa | 0V | 00:00:00 | 00:00:00 | 00:00:00 | |
| PETON7-10 | 2026-08-31 12:01:32 | 48.30966 | 16.69835 | 73° | 93km/h | 9140m | 3.1m/s | 0°C | 0% | 0hPa | 0V | 00:00:00 | 00:00:00 | 00:00:00 | |
| PG1ADW-2 | 2026-08-31 12:01:29 | 48.30943 | 16.69730 | 69° | 93km/h | 9128m | 5.1m/s | 0°C | 0% | 0hPa | 0V | 00:00:00 | 00:00:00 | 00:00:00 | |
| ATIDSZ-14 | 2026-08-31 12:01:16 | 48.30828 | 16.69312 | 69° | 89km/h | 9085m | 4.4m/s | 0°C | 0% | 0hPa | 0V | 00:00:00 | 00:00:00 | 00:00:00 | |
| PETON7-10 | 2026-08-31 12:01:13 | 48.30805 | 16.69220 | 70° | 91km/h | 9071m | 3.8m/s | 0°C | 0% | 0hPa | 0V | 00:00:00 | 00:00:00 | 00:00:00 | |
| OE3JTB-15 | 2026-08-31 12:01:06 | 48.30746 | 16.68997 | 70° | 89km/h | 9044m | 5.3m/s | 0°C | 0% | 0hPa | 0V | 00:00:00 | 00:00:00 | 00:00:00 | |
| OE3OSB-13 | 2026-08-31 12:01:05 | 48.30738 | 16.68963 | 71° | 95km/h | 9039m | 3.9m/s | -33.4°C | 22.8% | 321.5hPa | 0V | 00:00:00 | 00:00:00 | 00:00:00 | |
| PETON7-10 | 2026-08-31 12:00:58 | 48.30680 | 16.68742 | 69° | 88km/h | 9015m | 5.9m/s | 0°C | 0% | 0hPa | 0V | 00:00:00 | 00:00:00 | 00:00:00 | |
| ATIDSZ-14 | 2026-08-31 12:00:55 | 48.30655 | 16.68647 | 71° | 89km/h | 9003m | 2.6m/s | 0°C | 0% | 0hPa | 0V | 00:00:00 | 00:00:00 | 00:00:00 | |
| PG1ADW-2 | 2026-08-31 12:00:44 | 48.30566 | 16.68305 | 74° | 86km/h | 8964m | 2.5m/s | 0°C | 0% | 0hPa | 0V | 00:00:00 | 00:00:00 | 00:00:00 | |
| PETON7-10 | 2026-08-31 12:00:43 | 48.30560 | 16.68273 | 73° | 88km/h | 8961m | 5.2m/s | 0°C | 0% | 0hPa | 0V | 00:00:00 | 00:00:00 | 00:00:00 | |
| OE3JTB-15 | 2026-08-31 12:00:37 | 48.30505 | 16.68093 | 68° | 86km/h | 8939m | 3.2m/s | 0°C | 0% | 0hPa | 0V | 00:00:00 | 00:00:00 | 00:00:00 | |
| ATIDSZ-14 | 2026-08-31 12:00:35 | 48.30489 | 16.68032 | 66° | 89km/h | 8928m | 6.5m/s | 0°C | 0% | 0hPa | 0V | 00:00:00 | 00:00:00 | 00:00:00 | |
| OE3OSB-13 | 2026-08-31 12:00:34 | 48.30471 | 16.67972 | 68° | 88km/h | 8911m | 5.3m/s | -32.8°C | 25.2% | 327.2hPa | 0V | 00:00:00 | 00:00:00 | 00:00:00 | |
| PETON7-10 | 2026-08-31 12:00:28 | 48.30433 | 16.67813 | 71° | 84km/h | 8883m | 0.8m/s | 0°C | 0% | 0hPa | 0V | 00:00:00 | 00:00:00 | 00:00:00 | |
| PG1ADW-2 | 2026-08-31 12:00:24 | 48.30396 | 16.67704 | 69° | 89km/h | 8870m | 3.8m/s | 0°C | 0% | 0hPa | 0V | 00:00:00 | 00:00:00 | 00:00:00 | |
| ATIDSZ-14 | 2026-08-31 12:00:13 | 48.30309 | 16.67382 | 69° | 84km/h | 8813m | 2.1m/s | 0°C | 0% | 0hPa | 0V | 00:00:00 | 00:00:00 | 00:00:00 | |
| PETON7-10 | 2026-08-31 12:00:12 | 48.30301 | 16.67352 | 69° | 86km/h | 8808m | 5.8m/s | 0°C | 0% | 0hPa | 0V | 00:00:00 | 00:00:00 | 00:00:00 | |
| OE3JTB-15 | 2026-08-31 12:00:09 | 48.30267 | 16.67231 | 67° | 88km/h | 8789m | 2.9m/s | 0°C | 0% | 0hPa | 0V | 00:00:00 | 00:00:00 | 00:00:00 | |
| PETON7-10 | 2026-08-31 11:59:57 | 48.30186 | 16.66892 | 72° | 89km/h | 8739m | 1.7m/s | 0°C | 0% | 0hPa | 0V | 00:00:00 | 00:00:00 | 00:00:00 | |
| ATIDSZ-14 | 2026-08-31 11:59:51 | 48.30133 | 16.66693 | 68° | 97km/h | 8708m | 5.3m/s | 0°C | 0% | 0hPa | 0V | 00:00:00 | 00:00:00 | 00:00:00 | |
| PG1ADW-2 | 2026-08-31 11:59:50 | 48.30124 | 16.66660 | 70° | 88km/h | 8703m | 5.3m/s | 0°C | 0% | 0hPa | 0V | 00:00:00 | 00:00:00 | 00:00:00 | |
| PETON7-10 | 2026-08-31 11:59:42 | 48.30063 | 16.66418 | 67° | 89km/h | 8665m | 2.9m/s | 0°C | 0% | 0hPa | 0V | 00:00:00 | 00:00:00 | 00:00:00 | |
| OE3JTB-15 | 2026-08-31 11:59:39 | 48.30035 | 16.66326 | 66° | 86km/h | 8647m | 3.7m/s | 0°C | 0% | 0hPa | 0V | 00:00:00 | 00:00:00 | 00:00:00 | |
| OE3OSB-13 | 2026-08-31 11:59:32 | 48.29975 | 16.66067 | 65° | 84km/h | 8605m | 4.0m/s | -30.2°C | 26.4% | 341.9hPa | 0V | 00:00:00 | 00:00:00 | 00:00:00 | |
| ATIDSZ-14 | 2026-08-31 11:59:30 | 48.29966 | 16.66038 | 65° | 86km/h | 8600m | 3.0m/s | 0°C | 0% | 0hPa | 0V | 00:00:00 | 00:00:00 | 00:00:00 | |
| PETON7-10 | 2026-08-31 11:59:27 | 48.29935 | 16.65944 | 65° | 86km/h | 8587m | 2.5m/s | 0°C | 0% | 0hPa | 0V | 00:00:00 | 00:00:00 | 00:00:00 | |
| PETON7-10 | 2026-08-31 11:59:12 | 48.29825 | 16.65486 | 72° | 86km/h | 8518m | 6.1m/s | 0°C | 0% | 0hPa | 0V | 00:00:00 | 00:00:00 | 00:00:00 | |
| OE3JTB-15 | 2026-08-31 11:59:10 | 48.29812 | 16.65431 | 67° | 86km/h | 8506m | 3.6m/s | 0°C | 0% | 0hPa | 0V | 00:00:00 | 00:00:00 | 00:00:00 | |
| ATIDSZ-14 | 2026-08-31 11:59:09 | 48.29805 | 16.65404 | 67° | 80km/h | 8502m | 3.4m/s | 0°C | 0% | 0hPa | 0V | 00:00:00 | 00:00:00 | 00:00:00 | |
| OE3OSB-13 | 2026-08-31 11:59:01 | 48.29719 | 16.65126 | 66° | 95km/h | 8459m | 7.4m/s | -29.2°C | 23.1% | 349.4hPa | 0V | 00:00:00 | 00:00:00 | 00:00:00 | |
| PETON7-10 | 2026-08-31 11:58:56 | 48.29679 | 16.65017 | 61° | 82km/h | 8437m | 2.4m/s | 0°C | 0% | 0hPa | 0V | 00:00:00 | 00:00:00 | 00:00:00 | |
| ATIDSZ-14 | 2026-08-31 11:58:49 | 48.29614 | 16.64809 | 67° | 91km/h | 8406m | 6.9m/s | 0°C | 0% | 0hPa | 0V | 00:00:00 | 00:00:00 | 00:00:00 | |
| OE3JTB-15 | 2026-08-31 11:58:41 | 48.29526 | 16.64566 | 65° | 84km/h | 8361m | 8.6m/s | 0°C | 0% | 0hPa | 0V | 00:00:00 | 00:00:00 | 00:00:00 | |
| OE3OSB-13 | 2026-08-31 11:58:30 | 48.29426 | 16.64246 | 64° | 88km/h | 8305m | 1.8m/s | -28.0°C | 23.3% | 357.0hPa | 0V | 00:00:00 | 00:00:00 | 00:00:00 | |
| ATIDSZ-14 | 2026-08-31 11:58:29 | 48.29426 | 16.64246 | 65° | 88km/h | 8305m | 1.8m/s | 0°C | 0% | 0hPa | 0V | 00:00:00 | 00:00:00 | 00:00:00 | |
| PETON7-10 | 2026-08-31 11:58:25 | 48.29387 | 16.64128 | 67° | 82km/h | 8290m | 2.4m/s | 0°C | 0% | 0hPa | 0V | 00:00:00 | 00:00:00 | 00:00:00 | |
| PETON7-10 | 2026-08-31 11:58:10 | 48.29253 | 16.63711 | 62° | 84km/h | 8230m | 4.9m/s | 0°C | 0% | 0hPa | 0V | 00:00:00 | 00:00:00 | 00:00:00 | |
| ATIDSZ-14 | 2026-08-31 11:58:08 | 48.29233 | 16.63650 | 64° | 89km/h | 8217m | 10.4m/s | 0°C | 0% | 0hPa | 0V | 00:00:00 | 00:00:00 | 00:00:00 | |
| OE3OSB-13 | 2026-08-31 11:57:59 | 48.29138 | 16.63372 | 68° | 77km/h | 8157m | 5.7m/s | -26.9°C | 21.6% | 364.6hPa | 0V | 00:00:00 | 00:00:00 | 00:00:00 | |
| PETON7-10 | 2026-08-31 11:57:55 | 48.29115 | 16.63292 | 62° | 82km/h | 8142m | 2.0m/s | 0°C | 0% | 0hPa | 0V | 00:00:00 | 00:00:00 | 00:00:00 | |
| PG1ADW-2 | 2026-08-31 11:57:51 | 48.29075 | 16.63175 | 67° | 84km/h | 8124m | 4.0m/s | 0°C | 0% | 0hPa | 0V | 00:00:00 | 00:00:00 | 00:00:00 | |
| ATIDSZ-14 | 2026-08-31 11:57:48 | 48.29047 | 16.63088 | 66° | 82km/h | 8110m | 4.8m/s | 0°C | 0% | 0hPa | 0V | 00:00:00 | 00:00:00 | 00:00:00 | |
| OE3JTB-15 | 2026-08-31 11:57:42 | 48.28975 | 16.62860 | 64° | 78km/h | 8067m | 7.9m/s | 0°C | 0% | 0hPa | 0V | 00:00:00 | 00:00:00 | 00:00:00 | |
| PETON7-10 | 2026-08-31 11:57:40 | 48.28975 | 16.62860 | 64° | 80km/h | 8067m | 7.9m/s | 0°C | 0% | 0hPa | 0V | 00:00:00 | 00:00:00 | 00:00:00 | |
| OE3OSB-13 | 2026-08-31 11:57:28 | 48.28851 | 16.62519 | 61° | 69km/h | 8000m | 7.2m/s | -25.7°C | 15.2% | 372.6hPa | 0V | 00:00:00 | 00:00:00 | 00:00:00 | |
| PG1ADW-2 | 2026-08-31 11:57:27 | 48.28851 | 16.62519 | 62° | 80km/h | 8000m | 7.1m/s | 0°C | 0% | 0hPa | 0V | 00:00:00 | 00:00:00 | 00:00:00 | |
| PETON7-10 | 2026-08-31 11:57:25 | 48.28830 | 16.62474 | 57° | 78km/h | 7992m | 2.9m/s | 0°C | 0% | 0hPa | 0V | 00:00:00 | 00:00:00 | 00:00:00 | |
| OE3JTB-15 | 2026-08-31 11:57:13 | 48.28697 | 16.62105 | 59° | 84km/h | 7928m | 4.4m/s | 0°C | 0% | 0hPa | 0V | 00:00:00 | 00:00:00 | 00:00:00 | |
| PETON7-10 | 2026-08-31 11:57:10 | 48.28686 | 16.62078 | 61° | 84km/h | 7924m | 5.1m/s | 0°C | 0% | 0hPa | 0V | 00:00:00 | 00:00:00 | 00:00:00 | |
| ATIDSZ-14 | 2026-08-31 11:57:07 | 48.28654 | 16.61996 | 64° | 88km/h | 7914m | 4.7m/s | 0°C | 0% | 0hPa | 0V | 00:00:00 | 00:00:00 | 00:00:00 | |
| OE3OSB-13 | 2026-08-31 11:56:57 | 48.28535 | 16.61707 | 56° | 89km/h | 7864m | 6.7m/s | -25.0°C | 34.5% | 379.8hPa | 0V | 00:00:00 | 00:00:00 | 00:00:00 | |
| PETON7-10 | 2026-08-31 11:56:55 | 48.28524 | 16.61677 | 64° | 84km/h | 7859m | 4.2m/s | 0°C | 0% | 0hPa | 0V | 00:00:00 | 00:00:00 | 00:00:00 | |
| ATIDSZ-14 | 2026-08-31 11:56:46 | 48.28418 | 16.61435 | 60° | 78km/h | 7807m | 3.3m/s | 0°C | 0% | 0hPa | 0V | 00:00:00 | 00:00:00 | 00:00:00 | |
| OE3JTB-15 | 2026-08-31 11:56:44 | 48.28365 | 16.61302 | 62° | 86km/h | 7783m | 4.4m/s | 0°C | 0% | 0hPa | 0V | 00:00:00 | 00:00:00 | 00:00:00 | |
| PETON7-10 | 2026-08-31 11:56:39 | 48.28345 | 16.61245 | 62° | 84km/h | 7775m | 4.4m/s | 0°C | 0% | 0hPa | 0V | 00:00:00 | 00:00:00 | 00:00:00 | |
| PG1ADW-2 | 2026-08-31 11:56:32 | 48.28283 | 16.61040 | 60° | 86km/h | 7741m | 2.0m/s | 0°C | 0% | 0hPa | 0V | 00:00:00 | 00:00:00 | 00:00:00 | |
| OE3OSB-13 | 2026-08-31 11:56:26 | 48.28200 | 16.60854 | 54° | 88km/h | 7705m | 6.0m/s | -23.7°C | 30.3% | 388.4hPa | 0V | 00:00:00 | 00:00:00 | 00:00:00 | |
| PETON7-10 | 2026-08-31 11:56:24 | 48.28187 | 16.60826 | 56° | 86km/h | 7698m | 7.5m/s | 0°C | 0% | 0hPa | 0V | 00:00:00 | 00:00:00 | 00:00:00 | |
| OE3JTB-15 | 2026-08-31 11:56:15 | 48.28079 | 16.60538 | 55° | 84km/h | 7644m | 8.6m/s | 0°C | 0% | 0hPa | 0V | 00:00:00 | 00:00:00 | 00:00:00 | |
| PETON7-10 | 2026-08-31 11:56:08 | 48.28018 | 16.60373 | 59° | 84km/h | 7611m | 2.2m/s | 0°C | 0% | 0hPa | 0V | 00:00:00 | 00:00:00 | 00:00:00 | |
| ATIDSZ-14 | 2026-08-31 11:56:04 | 48.27975 | 16.60264 | 61° | 91km/h | 7588m | 7.6m/s | 0°C | 0% | 0hPa | 0V | 00:00:00 | 00:00:00 | 00:00:00 | |
| OE3OSB-13 | 2026-08-31 11:55:55 | 48.27858 | 16.59987 | 60° | 80km/h | 7540m | 5.8m/s | -22.4°C | 28.7% | 397.7hPa | 0V | 00:00:00 | 00:00:00 | 00:00:00 | |
| PETON7-10 | 2026-08-31 11:55:53 | 48.27848 | 16.59959 | 63° | 86km/h | 7533m | 7.5m/s | 0°C | 0% | 0hPa | 0V | 00:00:00 | 00:00:00 | 00:00:00 | |
| OE3JTB-15 | 2026-08-31 11:55:45 | 48.27767 | 16.59726 | 58° | 80km/h | 7481m | 7.0m/s | 0°C | 0% | 0hPa | 0V | 00:00:00 | 00:00:00 | 00:00:00 | |
| ATIDSZ-14 | 2026-08-31 11:55:43 | 48.27743 | 16.59668 | 61° | 86km/h | 7467m | 5.0m/s | 0°C | 0% | 0hPa | 0V | 00:00:00 | 00:00:00 | 00:00:00 | |
| PETON7-10 | 2026-08-31 11:55:38 | 48.27694 | 16.59528 | 61° | 84km/h | 7434m | 8.1m/s | 0°C | 0% | 0hPa | 0V | 00:00:00 | 00:00:00 | 00:00:00 | |
| PG1ADW-2 | 2026-08-31 11:55:33 | 48.27642 | 16.59397 | 59° | 77km/h | 7405m | 7.8m/s | 0°C | 0% | 0hPa | 0V | 00:00:00 | 00:00:00 | 00:00:00 | |
| OE3OSB-13 | 2026-08-31 11:55:24 | 48.27541 | 16.59115 | 64° | 62km/h | 7344m | 6.4m/s | -21.3°C | 42.1% | 408.4hPa | 0V | 00:00:00 | 00:00:00 | 00:00:00 | |
| PETON7-10 | 2026-08-31 11:55:23 | 48.27541 | 16.59115 | 65° | 75km/h | 7344m | 6.3m/s | 0°C | 0% | 0hPa | 0V | 00:00:00 | 00:00:00 | 00:00:00 | |
| OE3JTB-15 | 2026-08-31 11:55:16 | 48.27478 | 16.58939 | 61° | 68km/h | 7299m | 5.7m/s | 0°C | 0% | 0hPa | 0V | 00:00:00 | 00:00:00 | 00:00:00 | |
| ATIDSZ-14 | 2026-08-31 11:55:14 | 48.27460 | 16.58884 | 66° | 80km/h | 7290m | 5.0m/s | 0°C | 0% | 0hPa | 0V | 00:00:00 | 00:00:00 | 00:00:00 | |
| PETON7-10 | 2026-08-31 11:55:08 | 48.27408 | 16.58737 | 64° | 68km/h | 7247m | 3.7m/s | 0°C | 0% | 0hPa | 0V | 00:00:00 | 00:00:00 | 00:00:00 | |
| OE3OSB-13 | 2026-08-31 11:54:53 | 48.27280 | 16.58364 | 69° | 68km/h | 7155m | 6.3m/s | -20.4°C | 38.8% | 419.1hPa | 0V | 00:00:00 | 00:00:00 | 00:00:00 | |
| ATIDSZ-14 | 2026-08-31 11:54:48 | 48.27254 | 16.58274 | 63° | 66km/h | 7127m | 3.5m/s | 0°C | 0% | 0hPa | 0V | 00:00:00 | 00:00:00 | 00:00:00 | |
| OE3JTB-15 | 2026-08-31 11:54:43 | 48.27206 | 16.58140 | 62° | 68km/h | 7091m | 6.3m/s | 0°C | 0% | 0hPa | 0V | 00:00:00 | 00:00:00 | 00:00:00 | |
| PETON7-10 | 2026-08-31 11:54:38 | 48.27171 | 16.58049 | 65° | 68km/h | 7063m | 9.5m/s | 0°C | 0% | 0hPa | 0V | 00:00:00 | 00:00:00 | 00:00:00 | |
| ATIDSZ-14 | 2026-08-31 11:54:26 | 48.27092 | 16.57768 | 66° | 58km/h | 6987m | 2.9m/s | 0°C | 0% | 0hPa | 0V | 00:00:00 | 00:00:00 | 00:00:00 | |
| PETON7-10 | 2026-08-31 11:54:23 | 48.27069 | 16.57717 | 63° | 68km/h | 6971m | 7.0m/s | 0°C | 0% | 0hPa | 0V | 00:00:00 | 00:00:00 | 00:00:00 | |
| OE3OSB-13 | 2026-08-31 11:54:22 | 48.27054 | 16.57653 | 64° | 68km/h | 6958m | 7.7m/s | -19.1°C | 39.6% | 430.4hPa | 0V | 00:00:00 | 00:00:00 | 00:00:00 | |
| OE3JTB-15 | 2026-08-31 11:54:13 | 48.26995 | 16.57450 | 59° | 60km/h | 6903m | 7.9m/s | 0°C | 0% | 0hPa | 0V | 00:00:00 | 00:00:00 | 00:00:00 | |
| PETON7-10 | 2026-08-31 11:54:07 | 48.26953 | 16.57336 | 74° | 60km/h | 6868m | 6.7m/s | 0°C | 0% | 0hPa | 0V | 00:00:00 | 00:00:00 | 00:00:00 | |
| ATIDSZ-14 | 2026-08-31 11:54:06 | 48.26949 | 16.57313 | 78° | 64km/h | 6862m | 4.1m/s | 0°C | 0% | 0hPa | 0V | 00:00:00 | 00:00:00 | 00:00:00 | |
| PG1ADW-2 | 2026-08-31 11:54:03 | 48.26933 | 16.57242 | 70° | 62km/h | 6843m | 4.7m/s | 0°C | 0% | 0hPa | 0V | 00:00:00 | 00:00:00 | 00:00:00 | |
| OE3OSB-13 | 2026-08-31 11:53:51 | 48.26865 | 16.56969 | 62° | 60km/h | 6771m | 5.9m/s | -17.5°C | 32.9% | 441.5hPa | 0V | 00:00:00 | 00:00:00 | 00:00:00 | |
| ATIDSZ-14 | 2026-08-31 11:53:45 | 48.26845 | 16.56861 | 82° | 62km/h | 6742m | 5.2m/s | 0°C | 0% | 0hPa | 0V | 00:00:00 | 00:00:00 | 00:00:00 | |
| OE3JTB-15 | 2026-08-31 11:53:44 | 48.26841 | 16.56837 | 77° | 62km/h | 6738m | 3.8m/s | 0°C | 0% | 0hPa | 0V | 00:00:00 | 00:00:00 | 00:00:00 | |
| PG1ADW-2 | 2026-08-31 11:53:43 | 48.26837 | 16.56812 | 74° | 57km/h | 6733m | 8.3m/s | 0°C | 0% | 0hPa | 0V | 00:00:00 | 00:00:00 | 00:00:00 | |
| PETON7-10 | 2026-08-31 11:53:37 | 48.26811 | 16.56662 | 76° | 60km/h | 6698m | 9.6m/s | 0°C | 0% | 0hPa | 0V | 00:00:00 | 00:00:00 | 00:00:00 | |
| ATIDSZ-14 | 2026-08-31 11:53:25 | 48.26757 | 16.56401 | 75° | 53km/h | 6621m | 5.4m/s | 0°C | 0% | 0hPa | 0V | 00:00:00 | 00:00:00 | 00:00:00 | |
| PETON7-10 | 2026-08-31 11:53:22 | 48.26743 | 16.56339 | 68° | 64km/h | 6605m | 6.0m/s | 0°C | 0% | 0hPa | 0V | 00:00:00 | 00:00:00 | 00:00:00 | |
| OE3OSB-13 | 2026-08-31 11:53:19 | 48.26726 | 16.56269 | 71° | 68km/h | 6585m | 6.0m/s | -15.6°C | 28.5% | 452.7hPa | 0V | 00:00:00 | 00:00:00 | 00:00:00 | |
| OE3JTB-15 | 2026-08-31 11:53:14 | 48.26691 | 16.56133 | 75° | 60km/h | 6546m | 4.7m/s | 0°C | 0% | 0hPa | 0V | 00:00:00 | 00:00:00 | 00:00:00 | |
| PETON7-10 | 2026-08-31 11:53:07 | 48.26660 | 16.56001 | 77° | 60km/h | 6505m | 7.3m/s | 0°C | 0% | 0hPa | 0V | 00:00:00 | 00:00:00 | 00:00:00 | |
| ATIDSZ-14 | 2026-08-31 11:53:00 | 48.26620 | 16.55852 | 78° | 57km/h | 6467m | 4.2m/s | 0°C | 0% | 0hPa | 0V | 00:00:00 | 00:00:00 | 00:00:00 | |
| OE3OSB-13 | 2026-08-31 11:52:48 | 48.26555 | 16.55560 | 61° | 57km/h | 6396m | 4.2m/s | -13.9°C | 21.0% | 464.6hPa | 0V | 00:00:00 | 00:00:00 | 00:00:00 | |
| OE3JTB-15 | 2026-08-31 11:52:44 | 48.26513 | 16.55451 | 64° | 57km/h | 6363m | 3.9m/s | 0°C | 0% | 0hPa | 0V | 00:00:00 | 00:00:00 | 00:00:00 | |
| ATIDSZ-14 | 2026-08-31 11:52:38 | 48.26496 | 16.55399 | 67° | 57km/h | 6347m | 3.2m/s | 0°C | 0% | 0hPa | 0V | 00:00:00 | 00:00:00 | 00:00:00 | |
| PETON7-10 | 2026-08-31 11:52:36 | 48.26484 | 16.55358 | 66° | 60km/h | 6336m | 5.9m/s | 0°C | 0% | 0hPa | 0V | 00:00:00 | 00:00:00 | 00:00:00 | |
| PETON7-10 | 2026-08-31 11:52:21 | 48.26408 | 16.55039 | 67° | 55km/h | 6275m | 4.8m/s | 0°C | 0% | 0hPa | 0V | 00:00:00 | 00:00:00 | 00:00:00 | |
| ATIDSZ-14 | 2026-08-31 11:52:17 | 48.26386 | 16.54961 | 71° | 57km/h | 6258m | 4.2m/s | 0°C | 0% | 0hPa | 0V | 00:00:00 | 00:00:00 | 00:00:00 | |
| PETON7-10 | 2026-08-31 11:52:05 | 48.26341 | 16.54716 | 74° | 53km/h | 6216m | 5.8m/s | 0°C | 0% | 0hPa | 0V | 00:00:00 | 00:00:00 | 00:00:00 | |
| OE3JTB-15 | 2026-08-31 11:52:04 | 48.26323 | 16.54640 | 65° | 55km/h | 6190m | 5.0m/s | 0°C | 0% | 0hPa | 0V | 00:00:00 | 00:00:00 | 00:00:00 | |
| OE3OSB-13 | 2026-08-31 11:51:46 | 48.26267 | 16.54331 | 80° | 57km/h | 6126m | 4.3m/s | -12.2°C | 35.4% | 481.3hPa | 0V | 00:00:00 | 00:00:00 | 00:00:00 | |
| ATIDSZ-14 | 2026-08-31 11:51:36 | 48.26246 | 16.54141 | 72° | 53km/h | 6079m | 5.6m/s | 0°C | 0% | 0hPa | 0V | 00:00:00 | 00:00:00 | 00:00:00 | |
| PETON7-10 | 2026-08-31 11:51:35 | 48.26242 | 16.54123 | 75° | 47km/h | 6075m | 2.7m/s | 0°C | 0% | 0hPa | 0V | 00:00:00 | 00:00:00 | 00:00:00 | |
| PETON7-10 | 2026-08-31 11:51:19 | 48.26214 | 16.53854 | 62° | 40km/h | 5996m | 4.6m/s | 0°C | 0% | 0hPa | 0V | 00:00:00 | 00:00:00 | 00:00:00 | |
| ATIDSZ-14 | 2026-08-31 11:51:16 | 48.26203 | 16.53812 | 74° | 42km/h | 5979m | 5.6m/s | 0°C | 0% | 0hPa | 0V | 00:00:00 | 00:00:00 | 00:00:00 | |
| OE3OSB-13 | 2026-08-31 11:51:15 | 48.26198 | 16.53778 | 79° | 44km/h | 5967m | 5.6m/s | -11.7°C | 51.4% | 491.5hPa | 0V | 00:00:00 | 00:00:00 | 00:00:00 | |
| PETON7-10 | 2026-08-31 11:51:04 | 48.26175 | 16.53628 | 94° | 46km/h | 5916m | 7.2m/s | 0°C | 0% | 0hPa | 0V | 00:00:00 | 00:00:00 | 00:00:00 | |
| OE3OSB-13 | 2026-08-31 11:50:44 | 48.26172 | 16.53285 | 83° | 38km/h | 5814m | 2.4m/s | -11.6°C | 62.8% | 501.5hPa | 0V | 00:00:00 | 00:00:00 | 00:00:00 | |
| OM5KV | 2026-08-31 11:50:37 | 48.26176 | 16.53193 | 94° | 38km/h | 5786m | 4.1m/s | 0°C | 0% | 0hPa | 0V | 00:00:00 | 00:00:00 | 00:00:00 | |
| PETON7-10 | 2026-08-31 11:50:33 | 48.26169 | 16.53133 | 78° | 40km/h | 5771m | 3.0m/s | 0°C | 0% | 0hPa | 0V | 00:00:00 | 00:00:00 | 00:00:00 | |
| ATIDSZ-14 | 2026-08-31 11:50:31 | 48.26164 | 16.53084 | 88° | 37km/h | 5762m | 3.3m/s | 0°C | 0% | 0hPa | 0V | 00:00:00 | 00:00:00 | 00:00:00 | |
| OM5KV | 2026-08-31 11:50:26 | 48.26160 | 16.53031 | 84° | 38km/h | 5750m | 2.5m/s | 0°C | 0% | 0hPa | 0V | 00:00:00 | 00:00:00 | 00:00:00 | |
| OM5KV | 2026-08-31 11:50:25 | 48.26158 | 16.53016 | 78° | 40km/h | 5747m | 2.7m/s | 0°C | 0% | 0hPa | 0V | 00:00:00 | 00:00:00 | 00:00:00 | |
| PG1ADW-2 | 2026-08-31 11:50:21 | 48.26151 | 16.52954 | 80° | 40km/h | 5734m | 2.4m/s | 0°C | 0% | 0hPa | 0V | 00:00:00 | 00:00:00 | 00:00:00 | |
| PETON7-10 | 2026-08-31 11:50:18 | 48.26145 | 16.52909 | 78° | 42km/h | 5727m | 2.0m/s | 0°C | 0% | 0hPa | 0V | 00:00:00 | 00:00:00 | 00:00:00 | |
| OM5KV | 2026-08-31 11:50:15 | 48.26140 | 16.52867 | 80° | 42km/h | 5720m | 3.2m/s | 0°C | 0% | 0hPa | 0V | 00:00:00 | 00:00:00 | 00:00:00 | |
| OM5KV | 2026-08-31 11:50:14 | 48.26139 | 16.52850 | 86° | 49km/h | 5717m | 3.6m/s | 0°C | 0% | 0hPa | 0V | 00:00:00 | 00:00:00 | 00:00:00 | |
| OE3OSB-13 | 2026-08-31 11:50:13 | 48.26139 | 16.52814 | 101° | 47km/h | 5713m | 2.9m/s | -11.5°C | 78.9% | 508.3hPa | 0V | 00:00:00 | 00:00:00 | 00:00:00 | |
| ATIDSZ-14 | 2026-08-31 11:50:10 | 48.26146 | 16.52782 | 109° | 37km/h | 5708m | 2.0m/s | 0°C | 0% | 0hPa | 0V | 00:00:00 | 00:00:00 | 00:00:00 | |
| PETON7-10 | 2026-08-31 11:50:03 | 48.26130 | 16.52677 | 77° | 46km/h | 5673m | 1.3m/s | 0°C | 0% | 0hPa | 0V | 00:00:00 | 00:00:00 | 00:00:00 | |
| OE3JTB-15 | 2026-08-31 11:49:59 | 48.26135 | 16.52531 | 80° | 46km/h | 5646m | 2.7m/s | 0°C | 0% | 0hPa | 0V | 00:00:00 | 00:00:00 | 00:00:00 | |
| OM5KV | 2026-08-31 11:49:50 | 48.26110 | 16.52449 | 76° | 29km/h | 5630m | 4.4m/s | 0°C | 0% | 0hPa | 0V | 00:00:00 | 00:00:00 | 00:00:00 | |
| PETON7-10 | 2026-08-31 11:49:48 | 48.26112 | 16.52425 | 112° | 37km/h | 5622m | 2.5m/s | 0°C | 0% | 0hPa | 0V | 00:00:00 | 00:00:00 | 00:00:00 | |
| ATIDSZ-14 | 2026-08-31 11:49:47 | 48.26115 | 16.52414 | 107° | 29km/h | 5618m | 3.3m/s | 0°C | 0% | 0hPa | 0V | 00:00:00 | 00:00:00 | 00:00:00 | |
| OE3OSB-13 | 2026-08-31 11:49:42 | 48.26102 | 16.52325 | 74° | 55km/h | 5597m | 3.0m/s | -11.1°C | 78.2% | 515.8hPa | 0V | 00:00:00 | 00:00:00 | 00:00:00 | |
| OM5KV | 2026-08-31 11:49:37 | 48.26102 | 16.52253 | 102° | 38km/h | 5585m | 3.5m/s | 0°C | 0% | 0hPa | 0V | 00:00:00 | 00:00:00 | 00:00:00 | |
| OM5KV | 2026-08-31 11:49:34 | 48.26105 | 16.52219 | 75° | 24km/h | 5577m | 3.2m/s | 0°C | 0% | 0hPa | 0V | 00:00:00 | 00:00:00 | 00:00:00 | |
| PETON7-10 | 2026-08-31 11:49:32 | 48.26098 | 16.52204 | 49° | 35km/h | 5568m | 3.6m/s | 0°C | 0% | 0hPa | 0V | 00:00:00 | 00:00:00 | 00:00:00 | |
| OM5KV | 2026-08-31 11:49:30 | 48.26088 | 16.52178 | 78° | 29km/h | 5556m | 3.7m/s | 0°C | 0% | 0hPa | 0V | 00:00:00 | 00:00:00 | 00:00:00 | |
| OM5KV | 2026-08-31 11:49:27 | 48.26082 | 16.52153 | 71° | 47km/h | 5544m | 6.8m/s | 0°C | 0% | 0hPa | 0V | 00:00:00 | 00:00:00 | 00:00:00 | |
| ATIDSZ-14 | 2026-08-31 11:49:24 | 48.26074 | 16.52100 | 89° | 47km/h | 5524m | 4.6m/s | 0°C | 0% | 0hPa | 0V | 00:00:00 | 00:00:00 | 00:00:00 | |
| OM5KV | 2026-08-31 11:49:22 | 48.26075 | 16.52066 | 92° | 38km/h | 5515m | 2.5m/s | 0°C | 0% | 0hPa | 0V | 00:00:00 | 00:00:00 | 00:00:00 | |
| PETON7-10 | 2026-08-31 11:49:17 | 48.26061 | 16.51995 | 65° | 38km/h | 5486m | 3.2m/s | 0°C | 0% | 0hPa | 0V | 00:00:00 | 00:00:00 | 00:00:00 | |
| OM5KV | 2026-08-31 11:49:16 | 48.26057 | 16.51981 | 71° | 40km/h | 5482m | 3.0m/s | 0°C | 0% | 0hPa | 0V | 00:00:00 | 00:00:00 | 00:00:00 | |
| OE3OSB-13 | 2026-08-31 11:49:11 | 48.26055 | 16.51901 | 92° | 29km/h | 5453m | 4.5m/s | -9.7°C | 78.7% | 525.8hPa | 0V | 00:00:00 | 00:00:00 | 00:00:00 | |
| OM5KV | 2026-08-31 11:49:09 | 48.26055 | 16.51888 | 84° | 38km/h | 5449m | 4.3m/s | 0°C | 0% | 0hPa | 0V | 00:00:00 | 00:00:00 | 00:00:00 | |
| OM5KV | 2026-08-31 11:49:04 | 48.26034 | 16.51811 | 77° | 46km/h | 5423m | 3.8m/s | 0°C | 0% | 0hPa | 0V | 00:00:00 | 00:00:00 | 00:00:00 | |
| PETON7-10 | 2026-08-31 11:49:02 | 48.26029 | 16.51779 | 82° | 40km/h | 5412m | 4.0m/s | 0°C | 0% | 0hPa | 0V | 00:00:00 | 00:00:00 | 00:00:00 | |
| OM5KV | 2026-08-31 11:48:59 | 48.26025 | 16.51726 | 75° | 40km/h | 5396m | 4.3m/s | 0°C | 0% | 0hPa | 0V | 00:00:00 | 00:00:00 | 00:00:00 | |
| OE3JTB-15 | 2026-08-31 11:48:57 | 48.26005 | 16.51660 | 74° | 40km/h | 5371m | 4.5m/s | 0°C | 0% | 0hPa | 0V | 00:00:00 | 00:00:00 | 00:00:00 | |
| PG1ADW-2 | 2026-08-31 11:48:53 | 48.26003 | 16.51649 | 79° | 40km/h | 5368m | 2.9m/s | 0°C | 0% | 0hPa | 0V | 00:00:00 | 00:00:00 | 00:00:00 | |
| OM5KV | 2026-08-31 11:48:51 | 48.26001 | 16.51622 | 87° | 38km/h | 5359m | 4.8m/s | 0°C | 0% | 0hPa | 0V | 00:00:00 | 00:00:00 | 00:00:00 | |
| OM5KV | 2026-08-31 11:48:49 | 48.26001 | 16.51591 | 88° | 42km/h | 5351m | 3.6m/s | 0°C | 0% | 0hPa | 0V | 00:00:00 | 00:00:00 | 00:00:00 | |
| PETON7-10 | 2026-08-31 11:48:47 | 48.26000 | 16.51559 | 92° | 44km/h | 5342m | 5.8m/s | 0°C | 0% | 0hPa | 0V | 00:00:00 | 00:00:00 | 00:00:00 | |
| OE3OSB-13 | 2026-08-31 11:48:40 | 48.25970 | 16.51439 | 67° | 42km/h | 5296m | 4.3m/s | -8.6°C | 77.6% | 536.9hPa | 0V | 00:00:00 | 00:00:00 | 00:00:00 | |
| OM5KV | 2026-08-31 11:48:37 | 48.25959 | 16.51414 | 61° | 38km/h | 5284m | 5.6m/s | 0°C | 0% | 0hPa | 0V | 00:00:00 | 00:00:00 | 00:00:00 | |
| PETON7-10 | 2026-08-31 11:48:32 | 48.25943 | 16.51333 | 93° | 38km/h | 5261m | 4.6m/s | 0°C | 0% | 0hPa | 0V | 00:00:00 | 00:00:00 | 00:00:00 | |
| OM5KV | 2026-08-31 11:48:31 | 48.25942 | 16.51320 | 81° | 37km/h | 5255m | 4.8m/s | 0°C | 0% | 0hPa | 0V | 00:00:00 | 00:00:00 | 00:00:00 | |
| OE3JTB-15 | 2026-08-31 11:48:27 | 48.25925 | 16.51208 | 70° | 37km/h | 5221m | 4.2m/s | 0°C | 0% | 0hPa | 0V | 00:00:00 | 00:00:00 | 00:00:00 | |
| OM5KV | 2026-08-31 11:48:21 | 48.25915 | 16.51178 | 61° | 42km/h | 5215m | 1.6m/s | 0°C | 0% | 0hPa | 0V | 00:00:00 | 00:00:00 | 00:00:00 | |
| PETON7-10 | 2026-08-31 11:48:17 | 48.25895 | 16.51132 | 69° | 33km/h | 5198m | 7.4m/s | 0°C | 0% | 0hPa | 0V | 00:00:00 | 00:00:00 | 00:00:00 | |
| OM5KV | 2026-08-31 11:48:16 | 48.25889 | 16.51111 | 67° | 35km/h | 5187m | 3.2m/s | 0°C | 0% | 0hPa | 0V | 00:00:00 | 00:00:00 | 00:00:00 | |
| S52SK | 2026-08-31 11:48:15 | 48.25889 | 16.51111 | 67° | 35km/h | 5187m | 3.2m/s | 0°C | 0% | 0hPa | 0V | 00:00:00 | 00:00:00 | 00:00:00 | |
| OM5KV | 2026-08-31 11:48:10 | 48.25877 | 16.51053 | 74° | 31km/h | 5162m | 5.6m/s | 0°C | 0% | 0hPa | 0V | 00:00:00 | 00:00:00 | 00:00:00 | |
| OE3OSB-13 | 2026-08-31 11:48:09 | 48.25872 | 16.51029 | 71° | 40km/h | 5155m | 3.1m/s | -7.5°C | 73.4% | 547.0hPa | 0V | 00:00:00 | 00:00:00 | 00:00:00 | |
| OM5KV | 2026-08-31 11:48:07 | 48.25868 | 16.51015 | 72° | 40km/h | 5151m | 5.2m/s | 0°C | 0% | 0hPa | 0V | 00:00:00 | 00:00:00 | 00:00:00 | |
| PETON7-10 | 2026-08-31 11:48:03 | 48.25854 | 16.50948 | 73° | 37km/h | 5130m | 2.5m/s | 0°C | 0% | 0hPa | 0V | 00:00:00 | 00:00:00 | 00:00:00 | |
| OM5KV | 2026-08-31 11:48:01 | 48.25850 | 16.50931 | 72° | 47km/h | 5127m | 2.0m/s | 0°C | 0% | 0hPa | 0V | 00:00:00 | 00:00:00 | 00:00:00 | |
| OE3JTB-15 | 2026-08-31 11:47:57 | 48.25827 | 16.50853 | 71° | 38km/h | 5096m | 3.8m/s | 0°C | 0% | 0hPa | 0V | 00:00:00 | 00:00:00 | 00:00:00 | |
| PETON7-10 | 2026-08-31 11:47:47 | 48.25803 | 16.50756 | 67° | 35km/h | 5066m | 2.0m/s | 0°C | 0% | 0hPa | 0V | 00:00:00 | 00:00:00 | 00:00:00 | |
| OE3OSB-13 | 2026-08-31 11:47:38 | 48.25771 | 16.50637 | 54° | 31km/h | 5008m | 3.5m/s | -6.3°C | 71.5% | 556.8hPa | 0V | 00:00:00 | 00:00:00 | 00:00:00 | |
| PETON7-10 | 2026-08-31 11:47:32 | 48.25747 | 16.50576 | 70° | 33km/h | 4988m | 2.5m/s | 0°C | 0% | 0hPa | 0V | 00:00:00 | 00:00:00 | 00:00:00 | |
| OM5KV | 2026-08-31 11:47:29 | 48.25741 | 16.50553 | 58° | 24km/h | 4976m | 2.4m/s | 0°C | 0% | 0hPa | 0V | 00:00:00 | 00:00:00 | 00:00:00 | |
| OE3JTB-15 | 2026-08-31 11:47:26 | 48.25715 | 16.50491 | 61° | 33km/h | 4947m | 5.3m/s | 0°C | 0% | 0hPa | 0V | 00:00:00 | 00:00:00 | 00:00:00 | |
| PETON7-10 | 2026-08-31 11:47:17 | 48.25701 | 16.50414 | 90° | 35km/h | 4918m | 6.0m/s | 0°C | 0% | 0hPa | 0V | 00:00:00 | 00:00:00 | 00:00:00 | |
| OE3OSB-13 | 2026-08-31 11:47:07 | 48.25669 | 16.50280 | 58° | 40km/h | 4860m | 4.8m/s | -5.2°C | 71.9% | 568.1hPa | 0V | 00:00:00 | 00:00:00 | 00:00:00 | |
| PETON7-10 | 2026-08-31 11:47:01 | 48.25639 | 16.50232 | 43° | 33km/h | 4830m | 4.0m/s | 0°C | 0% | 0hPa | 0V | 00:00:00 | 00:00:00 | 00:00:00 | |
| S52SK | 2026-08-31 11:46:57 | 48.25623 | 16.50195 | 59° | 37km/h | 4809m | 4.6m/s | 0°C | 0% | 0hPa | 0V | 00:00:00 | 00:00:00 | 00:00:00 | |
| OE3JTB-15 | 2026-08-31 11:46:55 | 48.25610 | 16.50133 | 80° | 37km/h | 4781m | 3.8m/s | 0°C | 0% | 0hPa | 0V | 00:00:00 | 00:00:00 | 00:00:00 | |
| S52SK | 2026-08-31 11:46:47 | 48.25582 | 16.50080 | 52° | 33km/h | 4754m | 2.5m/s | 0°C | 0% | 0hPa | 0V | 00:00:00 | 00:00:00 | 00:00:00 | |
| PETON7-10 | 2026-08-31 11:46:46 | 48.25577 | 16.50068 | 62° | 38km/h | 4750m | 4.8m/s | 0°C | 0% | 0hPa | 0V | 00:00:00 | 00:00:00 | 00:00:00 | |
| S52SK | 2026-08-31 11:46:39 | 48.25559 | 16.49972 | 56° | 27km/h | 4715m | 4.9m/s | 0°C | 0% | 0hPa | 0V | 00:00:00 | 00:00:00 | 00:00:00 | |
| OE3OSB-13 | 2026-08-31 11:46:36 | 48.25534 | 16.49936 | 44° | 38km/h | 4696m | 5.0m/s | -4.1°C | 67.8% | 579.9hPa | 0V | 00:00:00 | 00:00:00 | 00:00:00 | |
| S52SK | 2026-08-31 11:46:34 | 48.25527 | 16.49924 | 52° | 38km/h | 4692m | 3.8m/s | 0°C | 0% | 0hPa | 0V | 00:00:00 | 00:00:00 | 00:00:00 | |
| PETON7-10 | 2026-08-31 11:46:29 | 48.25499 | 16.49862 | 81° | 35km/h | 4665m | 3.9m/s | 0°C | 0% | 0hPa | 0V | 00:00:00 | 00:00:00 | 00:00:00 | |
| S52SK | 2026-08-31 11:46:28 | 48.25492 | 16.49838 | 67° | 33km/h | 4655m | 3.3m/s | 0°C | 0% | 0hPa | 0V | 00:00:00 | 00:00:00 | 00:00:00 | |
| S52SK | 2026-08-31 11:46:21 | 48.25463 | 16.49757 | 44° | 29km/h | 4626m | 1.7m/s | 0°C | 0% | 0hPa | 0V | 00:00:00 | 00:00:00 | 00:00:00 | |
| PETON7-10 | 2026-08-31 11:46:14 | 48.25438 | 16.49684 | 46° | 37km/h | 4592m | 4.7m/s | 0°C | 0% | 0hPa | 0V | 00:00:00 | 00:00:00 | 00:00:00 | |
| PG1ADW-2 | 2026-08-31 11:46:01 | 48.25356 | 16.49538 | 63° | 40km/h | 4521m | 4.2m/s | 0°C | 0% | 0hPa | 0V | 00:00:00 | 00:00:00 | 00:00:00 | |
| PETON7-10 | 2026-08-31 11:45:59 | 48.25349 | 16.49511 | 61° | 40km/h | 4512m | 7.4m/s | 0°C | 0% | 0hPa | 0V | 00:00:00 | 00:00:00 | 00:00:00 | |
| OE3JTB-15 | 2026-08-31 11:45:51 | 48.25296 | 16.49379 | 56° | 42km/h | 4454m | 4.2m/s | 0°C | 0% | 0hPa | 0V | 00:00:00 | 00:00:00 | 00:00:00 | |
| PETON7-10 | 2026-08-31 11:45:44 | 48.25279 | 16.49322 | 74° | 42km/h | 4435m | 4.0m/s | 0°C | 0% | 0hPa | 0V | 00:00:00 | 00:00:00 | 00:00:00 | |
| OE3OSB-13 | 2026-08-31 11:45:34 | 48.25238 | 16.49161 | 54° | 31km/h | 4379m | 3.8m/s | -1.7°C | 67.4% | 603.8hPa | 0V | 00:00:00 | 00:00:00 | 00:00:00 | |
| PETON7-10 | 2026-08-31 11:45:28 | 48.25217 | 16.49085 | 76° | 42km/h | 4356m | 4.3m/s | 0°C | 0% | 0hPa | 0V | 00:00:00 | 00:00:00 | 00:00:00 | |
| OE3JTB-15 | 2026-08-31 11:45:21 | 48.25166 | 16.48944 | 58° | 49km/h | 4314m | 3.5m/s | 0°C | 0% | 0hPa | 0V | 00:00:00 | 00:00:00 | 00:00:00 | |
| PETON7-10 | 2026-08-31 11:45:13 | 48.25134 | 16.48875 | 62° | 46km/h | 4294m | 1.9m/s | 0°C | 0% | 0hPa | 0V | 00:00:00 | 00:00:00 | 00:00:00 | |
| S52SK | 2026-08-31 11:45:05 | 48.25083 | 16.48754 | 59° | 47km/h | 4254m | 3.8m/s | 0°C | 0% | 0hPa | 0V | 00:00:00 | 00:00:00 | 00:00:00 | |
| S52SK | 2026-08-31 11:44:59 | 48.25057 | 16.48670 | 70° | 46km/h | 4227m | 5.0m/s | 0°C | 0% | 0hPa | 0V | 00:00:00 | 00:00:00 | 00:00:00 | |
| PETON7-10 | 2026-08-31 11:44:57 | 48.25047 | 16.48631 | 64° | 58km/h | 4217m | 3.6m/s | 0°C | 0% | 0hPa | 0V | 00:00:00 | 00:00:00 | 00:00:00 | |
| OE3JTB-15 | 2026-08-31 11:44:53 | 48.24980 | 16.48492 | 55° | 49km/h | 4173m | 4.5m/s | 0°C | 0% | 0hPa | 0V | 00:00:00 | 00:00:00 | 00:00:00 | |
| PETON7-10 | 2026-08-31 11:44:42 | 48.24928 | 16.48366 | 71° | 53km/h | 4146m | 3.3m/s | 0°C | 0% | 0hPa | 0V | 00:00:00 | 00:00:00 | 00:00:00 | |
| OE3OSB-13 | 2026-08-31 11:44:31 | 48.24853 | 16.48169 | 55° | 55km/h | 4101m | 2.4m/s | -1.2°C | 74.2% | 625.5hPa | 0V | 00:00:00 | 00:00:00 | 00:00:00 | |
| PETON7-10 | 2026-08-31 11:44:26 | 48.24823 | 16.48091 | 73° | 55km/h | 4087m | 0.8m/s | 0°C | 0% | 0hPa | 0V | 00:00:00 | 00:00:00 | 00:00:00 | |
| OE3JTB-15 | 2026-08-31 11:44:23 | 48.24793 | 16.48021 | 51° | 47km/h | 4066m | 3.6m/s | 0°C | 0% | 0hPa | 0V | 00:00:00 | 00:00:00 | 00:00:00 | |
| PETON7-10 | 2026-08-31 11:44:11 | 48.24699 | 16.47851 | 63° | 40km/h | 4020m | 4.3m/s | 0°C | 0% | 0hPa | 0V | 00:00:00 | 00:00:00 | 00:00:00 | |
| OE3OSB-13 | 2026-08-31 11:44:01 | 48.24623 | 16.47702 | 38° | 49km/h | 3966m | 3.9m/s | -0.9°C | 75.4% | 636.1hPa | 0V | 00:00:00 | 00:00:00 | 00:00:00 | |
| PETON7-10 | 2026-08-31 11:43:56 | 48.24604 | 16.47669 | 81° | 38km/h | 3953m | 3.0m/s | 0°C | 0% | 0hPa | 0V | 00:00:00 | 00:00:00 | 00:00:00 | |
| OE3JTB-15 | 2026-08-31 11:43:53 | 48.24596 | 16.47623 | 66° | 35km/h | 3943m | 2.0m/s | 0°C | 0% | 0hPa | 0V | 00:00:00 | 00:00:00 | 00:00:00 | |
| PETON7-10 | 2026-08-31 11:43:41 | 48.24513 | 16.47510 | 57° | 35km/h | 3896m | 5.0m/s | 0°C | 0% | 0hPa | 0V | 00:00:00 | 00:00:00 | 00:00:00 | |
| OE3OSB-13 | 2026-08-31 11:43:30 | 48.24460 | 16.47366 | 38° | 29km/h | 3837m | 1.8m/s | -0.5°C | 68.4% | 646.8hPa | 0V | 00:00:00 | 00:00:00 | 00:00:00 | |
| PETON7-10 | 2026-08-31 11:43:26 | 48.24447 | 16.47349 | 46° | 37km/h | 3831m | 3.8m/s | 0°C | 0% | 0hPa | 0V | 00:00:00 | 00:00:00 | 00:00:00 | |
| S52SK | 2026-08-31 11:43:23 | 48.24428 | 16.47306 | 65° | 47km/h | 3819m | 1.2m/s | 0°C | 0% | 0hPa | 0V | 00:00:00 | 00:00:00 | 00:00:00 | |
| S52SK | 2026-08-31 11:43:14 | 48.24390 | 16.47209 | 50° | 24km/h | 3786m | 6.5m/s | 0°C | 0% | 0hPa | 0V | 00:00:00 | 00:00:00 | 00:00:00 | |
| PETON7-10 | 2026-08-31 11:43:11 | 48.24386 | 16.47176 | 98° | 29km/h | 3769m | 5.5m/s | 0°C | 0% | 0hPa | 0V | 00:00:00 | 00:00:00 | 00:00:00 | |
| OE3OSB-13 | 2026-08-31 11:42:58 | 48.24365 | 16.47024 | 60° | 26km/h | 3704m | 2.5m/s | 0.3°C | 75.3% | 658.0hPa | 0V | 00:00:00 | 00:00:00 | 00:00:00 | |
| PETON7-10 | 2026-08-31 11:42:56 | 48.24362 | 16.47013 | 66° | 31km/h | 3700m | 3.2m/s | 0°C | 0% | 0hPa | 0V | 00:00:00 | 00:00:00 | 00:00:00 | |
| OE3JTB-15 | 2026-08-31 11:42:52 | 48.24351 | 16.46947 | 86° | 31km/h | 3680m | 4.0m/s | 0°C | 0% | 0hPa | 0V | 00:00:00 | 00:00:00 | 00:00:00 | |
| PETON7-10 | 2026-08-31 11:42:41 | 48.24331 | 16.46845 | 64° | 33km/h | 3642m | 3.5m/s | 0°C | 0% | 0hPa | 0V | 00:00:00 | 00:00:00 | 00:00:00 | |
| OE3OSB-13 | 2026-08-31 11:42:27 | 48.24309 | 16.46668 | 90° | 27km/h | 3584m | 3.5m/s | 1.1°C | 65.4% | 667.6hPa | 0V | 00:00:00 | 00:00:00 | 00:00:00 | |
| PETON7-10 | 2026-08-31 11:42:26 | 48.24309 | 16.46668 | 91° | 31km/h | 3584m | 3.4m/s | 0°C | 0% | 0hPa | 0V | 00:00:00 | 00:00:00 | 00:00:00 | |
| OE3JTB-15 | 2026-08-31 11:42:23 | 48.24290 | 16.46620 | 51° | 29km/h | 3560m | 4.3m/s | 0°C | 0% | 0hPa | 0V | 00:00:00 | 00:00:00 | 00:00:00 | |
| PETON7-10 | 2026-08-31 11:42:11 | 48.24275 | 16.46506 | 105° | 27km/h | 3512m | 3.4m/s | 0°C | 0% | 0hPa | 0V | 00:00:00 | 00:00:00 | 00:00:00 | |
| PETON7-10 | 2026-08-31 11:41:56 | 48.24247 | 16.46358 | 75° | 31km/h | 3440m | 2.8m/s | 0°C | 0% | 0hPa | 0V | 00:00:00 | 00:00:00 | 00:00:00 | |
| PETON7-10 | 2026-08-31 11:41:41 | 48.24212 | 16.46189 | 93° | 33km/h | 3379m | 5.5m/s | 0°C | 0% | 0hPa | 0V | 00:00:00 | 00:00:00 | 00:00:00 | |
| PETON7-10 | 2026-08-31 11:41:26 | 48.24202 | 16.46014 | 64° | 33km/h | 3300m | 4.2m/s | 0°C | 0% | 0hPa | 0V | 00:00:00 | 00:00:00 | 00:00:00 | |
| OE3OSB-13 | 2026-08-31 11:41:25 | 48.24197 | 16.45989 | 82° | 29km/h | 3291m | 5.7m/s | 4.1°C | 32.5% | 692.7hPa | 0V | 00:00:00 | 00:00:00 | 00:00:00 | |
| OE3JTB-15 | 2026-08-31 11:41:22 | 48.24195 | 16.45923 | 78° | 31km/h | 3264m | 4.5m/s | 0°C | 0% | 0hPa | 0V | 00:00:00 | 00:00:00 | 00:00:00 | |
| PETON7-10 | 2026-08-31 11:41:11 | 48.24196 | 16.45827 | 94° | 31km/h | 3226m | 3.3m/s | 0°C | 0% | 0hPa | 0V | 00:00:00 | 00:00:00 | 00:00:00 | |
| OE3OSB-13 | 2026-08-31 11:40:54 | 48.24177 | 16.45611 | 95° | 24km/h | 3139m | 6.3m/s | 5.5°C | 34.7% | 705.9hPa | 0V | 00:00:00 | 00:00:00 | 00:00:00 | |
| OE3JTB-15 | 2026-08-31 11:40:53 | 48.24180 | 16.45580 | 105° | 35km/h | 3119m | 3.8m/s | 0°C | 0% | 0hPa | 0V | 00:00:00 | 00:00:00 | 00:00:00 | |
| PETON7-10 | 2026-08-31 11:40:41 | 48.24173 | 16.45474 | 96° | 37km/h | 3079m | 4.0m/s | 0°C | 0% | 0hPa | 0V | 00:00:00 | 00:00:00 | 00:00:00 | |
| PETON7-10 | 2026-08-31 11:40:26 | 48.24165 | 16.45279 | 69° | 35km/h | 3006m | 5.6m/s | 0°C | 0% | 0hPa | 0V | 00:00:00 | 00:00:00 | 00:00:00 | |
| OE3OSB-13 | 2026-08-31 11:40:24 | 48.24157 | 16.45219 | 78° | 35km/h | 2984m | 4.9m/s | 6.8°C | 28.6% | 719.2hPa | 0V | 00:00:00 | 00:00:00 | 00:00:00 | |
| PETON7-10 | 2026-08-31 11:40:11 | 48.24155 | 16.45089 | 93° | 37km/h | 2926m | 3.7m/s | 0°C | 0% | 0hPa | 0V | 00:00:00 | 00:00:00 | 00:00:00 | |
| OE3OSB-13 | 2026-08-31 11:39:52 | 48.24160 | 16.44811 | 99° | 49km/h | 2829m | 3.6m/s | 8.2°C | 28.3% | 733.1hPa | 0V | 00:00:00 | 00:00:00 | 00:00:00 | |
| PETON7-10 | 2026-08-31 11:39:35 | 48.24183 | 16.44597 | 92° | 35km/h | 2743m | 4.2m/s | 0°C | 0% | 0hPa | 0V | 00:00:00 | 00:00:00 | 00:00:00 | |
| OE3JTB-15 | 2026-08-31 11:39:26 | 48.24182 | 16.44471 | 94° | 33km/h | 2702m | 2.9m/s | 0°C | 0% | 0hPa | 0V | 00:00:00 | 00:00:00 | 00:00:00 | |
| OE3OSB-13 | 2026-08-31 11:39:21 | 48.24180 | 16.44397 | 83° | 47km/h | 2679m | 3.1m/s | 9.2°C | 29.2% | 746.5hPa | 0V | 00:00:00 | 00:00:00 | 00:00:00 | |
| PETON7-10 | 2026-08-31 11:39:16 | 48.24180 | 16.44336 | 98° | 33km/h | 2664m | 5.5m/s | 0°C | 0% | 0hPa | 0V | 00:00:00 | 00:00:00 | 00:00:00 | |
| PETON7-10 | 2026-08-31 11:39:01 | 48.24199 | 16.44159 | 84° | 27km/h | 2591m | 3.7m/s | 0°C | 0% | 0hPa | 0V | 00:00:00 | 00:00:00 | 00:00:00 | |
| OE3OSB-13 | 2026-08-31 11:38:50 | 48.24182 | 16.44044 | 54° | 31km/h | 2544m | 2.9m/s | 10.2°C | 26.3% | 758.7hPa | 0V | 00:00:00 | 00:00:00 | 00:00:00 | |
| PETON7-10 | 2026-08-31 11:38:46 | 48.24173 | 16.44004 | 81° | 27km/h | 2535m | 3.6m/s | 0°C | 0% | 0hPa | 0V | 00:00:00 | 00:00:00 | 00:00:00 | |
| PETON7-10 | 2026-08-31 11:38:31 | 48.24156 | 16.43858 | 86° | 29km/h | 2460m | 3.4m/s | 0°C | 0% | 0hPa | 0V | 00:00:00 | 00:00:00 | 00:00:00 | |
| OE3JTB-15 | 2026-08-31 11:38:28 | 48.24154 | 16.43826 | 79° | 29km/h | 2446m | 3.8m/s | 0°C | 0% | 0hPa | 0V | 00:00:00 | 00:00:00 | 00:00:00 | |
| OE3OSB-13 | 2026-08-31 11:38:19 | 48.24145 | 16.43721 | 69° | 38km/h | 2412m | 0.9m/s | 11.5°C | 24.5% | 770.9hPa | 0V | 00:00:00 | 00:00:00 | 00:00:00 | |
| PETON7-10 | 2026-08-31 11:38:16 | 48.24140 | 16.43695 | 79° | 31km/h | 2407m | 4.0m/s | 0°C | 0% | 0hPa | 0V | 00:00:00 | 00:00:00 | 00:00:00 | |
| PETON7-10 | 2026-08-31 11:38:00 | 48.24142 | 16.43515 | 70° | 27km/h | 2334m | 2.6m/s | 0°C | 0% | 0hPa | 0V | 00:00:00 | 00:00:00 | 00:00:00 | |
| OE3OSB-13 | 2026-08-31 11:37:48 | 48.24139 | 16.43378 | 85° | 22km/h | 2275m | 6.0m/s | 12.6°C | 21.3% | 784.0hPa | 0V | 00:00:00 | 00:00:00 | 00:00:00 | |
| PETON7-10 | 2026-08-31 11:37:45 | 48.24136 | 16.43358 | 83° | 27km/h | 2266m | 3.0m/s | 0°C | 0% | 0hPa | 0V | 00:00:00 | 00:00:00 | 00:00:00 | |
| OE3JTB-15 | 2026-08-31 11:37:31 | 48.24140 | 16.43211 | 93° | 42km/h | 2206m | 5.0m/s | 0°C | 0% | 0hPa | 0V | 00:00:00 | 00:00:00 | 00:00:00 | |
| PETON7-10 | 2026-08-31 11:37:29 | 48.24140 | 16.43200 | 89° | 40km/h | 2199m | 4.7m/s | 0°C | 0% | 0hPa | 0V | 00:00:00 | 00:00:00 | 00:00:00 | |
| OE3OSB-13 | 2026-08-31 11:37:17 | 48.24144 | 16.43016 | 86° | 55km/h | 2132m | 3.6m/s | 13.2°C | 19.0% | 797.2hPa | 0V | 00:00:00 | 00:00:00 | 00:00:00 | |
| PETON7-10 | 2026-08-31 11:37:13 | 48.24136 | 16.42961 | 71° | 44km/h | 2120m | 2.7m/s | 0°C | 0% | 0hPa | 0V | 00:00:00 | 00:00:00 | 00:00:00 | |
| OE3JTB-15 | 2026-08-31 11:37:01 | 48.24142 | 16.42760 | 106° | 53km/h | 2066m | 3.0m/s | 0°C | 0% | 0hPa | 0V | 00:00:00 | 00:00:00 | 00:00:00 | |
| OE3OSB-13 | 2026-08-31 11:36:45 | 48.24154 | 16.42447 | 96° | 66km/h | 1998m | 1.8m/s | 13.1°C | 27.1% | 810.1hPa | 0V | 00:00:00 | 00:00:00 | 00:00:00 | |
| PETON7-10 | 2026-08-31 11:36:43 | 48.24156 | 16.42422 | 98° | 58km/h | 1995m | 2.9m/s | 0°C | 0% | 0hPa | 0V | 00:00:00 | 00:00:00 | 00:00:00 | |
| OE3JTB-15 | 2026-08-31 11:36:32 | 48.24176 | 16.42197 | 98° | 62km/h | 1933m | 3.1m/s | 0°C | 0% | 0hPa | 0V | 00:00:00 | 00:00:00 | 00:00:00 | |
| PETON7-10 | 2026-08-31 11:36:28 | 48.24183 | 16.42067 | 92° | 58km/h | 1909m | 3.9m/s | 0°C | 0% | 0hPa | 0V | 00:00:00 | 00:00:00 | 00:00:00 | |
| OE3OSB-13 | 2026-08-31 11:36:14 | 48.24205 | 16.41759 | 103° | 64km/h | 1839m | 5.7m/s | 12.9°C | 57.2% | 825.9hPa | 0V | 00:00:00 | 00:00:00 | 00:00:00 | |
| PETON7-10 | 2026-08-31 11:36:12 | 48.24208 | 16.41734 | 99° | 62km/h | 1832m | 5.5m/s | 0°C | 0% | 0hPa | 0V | 00:00:00 | 00:00:00 | 00:00:00 | |
| OE3JTB-15 | 2026-08-31 11:36:03 | 48.24222 | 16.41512 | 105° | 64km/h | 1791m | 2.7m/s | 0°C | 0% | 0hPa | 0V | 00:00:00 | 00:00:00 | 00:00:00 | |
| OE3OSB-13 | 2026-08-31 11:35:43 | 48.24289 | 16.41016 | 106° | 47km/h | 1675m | 5.4m/s | 13.5°C | 57.8% | 842.1hPa | 0V | 00:00:00 | 00:00:00 | 00:00:00 | |
| PETON7-10 | 2026-08-31 11:35:39 | 48.24286 | 16.40957 | 81° | 66km/h | 1660m | 4.7m/s | 0°C | 0% | 0hPa | 0V | 00:00:00 | 00:00:00 | 00:00:00 | |
| OE3JTB-15 | 2026-08-31 11:35:34 | 48.24298 | 16.40828 | 108° | 64km/h | 1629m | 2.2m/s | 0°C | 0% | 0hPa | 0V | 00:00:00 | 00:00:00 | 00:00:00 | |
| PETON7-10 | 2026-08-31 11:35:24 | 48.24331 | 16.40588 | 112° | 66km/h | 1584m | 1.9m/s | 0°C | 0% | 0hPa | 0V | 00:00:00 | 00:00:00 | 00:00:00 | |
| OE3OSB-13 | 2026-08-31 11:35:14 | 48.24333 | 16.40267 | 98° | 68km/h | 1543m | 3.4m/s | 13.6°C | 66.4% | 855.5hPa | 0V | 00:00:00 | 00:00:00 | 00:00:00 | |
| PETON7-10 | 2026-08-31 11:35:08 | 48.24345 | 16.40196 | 113° | 49km/h | 1532m | 3.1m/s | 0°C | 0% | 0hPa | 0V | 00:00:00 | 00:00:00 | 00:00:00 | |
| OE3JTB-15 | 2026-08-31 11:35:05 | 48.24351 | 16.40152 | 96° | 46km/h | 1517m | 3.5m/s | 0°C | 0% | 0hPa | 0V | 00:00:00 | 00:00:00 | 00:00:00 | |
| PETON7-10 | 2026-08-31 11:34:53 | 48.24390 | 16.39931 | 111° | 46km/h | 1456m | 2.1m/s | 0°C | 0% | 0hPa | 0V | 00:00:00 | 00:00:00 | 00:00:00 | |
| OE3OSB-13 | 2026-08-31 11:34:41 | 48.24424 | 16.39721 | 99° | 46km/h | 1389m | 5.3m/s | 14.6°C | 69.0% | 871.3hPa | 0V | 00:00:00 | 00:00:00 | 00:00:00 | |
| PETON7-10 | 2026-08-31 11:34:38 | 48.24423 | 16.39689 | 82° | 38km/h | 1378m | 6.8m/s | 0°C | 0% | 0hPa | 0V | 00:00:00 | 00:00:00 | 00:00:00 | |
| OE3JTB-15 | 2026-08-31 11:34:36 | 48.24421 | 16.39661 | 88° | 44km/h | 1362m | 6.5m/s | 0°C | 0% | 0hPa | 0V | 00:00:00 | 00:00:00 | 00:00:00 | |
| PETON7-10 | 2026-08-31 11:34:23 | 48.24441 | 16.39480 | 114° | 51km/h | 1287m | 6.3m/s | 0°C | 0% | 0hPa | 0V | 00:00:00 | 00:00:00 | 00:00:00 | |
| OE3OSB-13 | 2026-08-31 11:34:10 | 48.24472 | 16.39223 | 81° | 44km/h | 1220m | 2.5m/s | 16.0°C | 67.1% | 888.7hPa | 0V | 00:00:00 | 00:00:00 | 00:00:00 | |
| PETON7-10 | 2026-08-31 11:34:08 | 48.24470 | 16.39208 | 79° | 44km/h | 1217m | 3.0m/s | 0°C | 0% | 0hPa | 0V | 00:00:00 | 00:00:00 | 00:00:00 | |
| OE3JTB-15 | 2026-08-31 11:34:07 | 48.24470 | 16.39197 | 88° | 40km/h | 1212m | 3.3m/s | 0°C | 0% | 0hPa | 0V | 00:00:00 | 00:00:00 | 00:00:00 | |
| PETON7-10 | 2026-08-31 11:33:53 | 48.24485 | 16.38990 | 125° | 40km/h | 1160m | 3.0m/s | 0°C | 0% | 0hPa | 0V | 00:00:00 | 00:00:00 | 00:00:00 | |
| OE3OSB-13 | 2026-08-31 11:33:39 | 48.24522 | 16.38763 | 99° | 51km/h | 1096m | 3.7m/s | 17.1°C | 65.6% | 902.1hPa | 0V | 00:00:00 | 00:00:00 | 00:00:00 | |
| OE3JTB-15 | 2026-08-31 11:33:38 | 48.24522 | 16.38763 | 100° | 37km/h | 1096m | 3.6m/s | 0°C | 0% | 0hPa | 0V | 00:00:00 | 00:00:00 | 00:00:00 | |
| PETON7-10 | 2026-08-31 11:33:38 | 48.24522 | 16.38763 | 100° | 40km/h | 1096m | 3.6m/s | 0°C | 0% | 0hPa | 0V | 00:00:00 | 00:00:00 | 00:00:00 | |
| PETON7-10 | 2026-08-31 11:33:22 | 48.24531 | 16.38543 | 74° | 29km/h | 1026m | 1.8m/s | 0°C | 0% | 0hPa | 0V | 00:00:00 | 00:00:00 | 00:00:00 | |
| OE3JTB-15 | 2026-08-31 11:33:09 | 48.24546 | 16.38378 | 80° | 38km/h | 975m | 2.4m/s | 0°C | 0% | 0hPa | 0V | 00:00:00 | 00:00:00 | 00:00:00 | |
| OE3JTB-15 | 2026-08-31 11:32:40 | 48.24570 | 16.37961 | 100° | 37km/h | 885m | 3.1m/s | 0°C | 0% | 0hPa | 0V | 00:00:00 | 00:00:00 | 00:00:00 | |
| OE3JTB-15 | 2026-08-31 11:32:11 | 48.24588 | 16.37573 | 80° | 42km/h | 759m | 3.7m/s | 0°C | 0% | 0hPa | 0V | 00:00:00 | 00:00:00 | 00:00:00 | |
| OE3JTB-15 | 2026-08-31 11:31:42 | 48.24640 | 16.37134 | 128° | 47km/h | 614m | 3.5m/s | 0°C | 0% | 0hPa | 0V | 00:00:00 | 00:00:00 | 00:00:00 | |
| OE3JTB-15 | 2026-08-31 11:31:13 | 48.24749 | 16.36642 | 78° | 47km/h | 500m | -1.1m/s | 0°C | 0% | 0hPa | 0V | 00:00:00 | 00:00:00 | 00:00:00 | |
| OE3JTB-15 | 2026-08-31 11:31:02 | 48.24748 | 16.36460 | 106° | 49km/h | 480m | -2.4m/s | 0°C | 0% | 0hPa | 0V | 00:00:00 | 00:00:00 | 00:00:00 | |
| OE3JTB-15 | 2026-08-31 11:30:42 | 48.24812 | 16.36118 | 107° | 33km/h | 397m | 3.4m/s | 0°C | 0% | 0hPa | 0V | 00:00:00 | 00:00:00 | 00:00:00 |